
Distance (Route):
Temperature : 18.6°C
Humidity : 59.3%
Pressure : 0hPa| Receiver | Frames | First received | Last received |
|---|---|---|---|
| OM5KV | 509 | 2026-08-31 02:31:09 | 2026-08-31 03:46:29 |
| OE5MMP-10 | 427 | 2026-08-31 02:19:05 | 2026-08-31 03:45:09 |
| OE3JTB-15 | 315 | 2026-08-31 02:16:55 | 2026-08-31 03:54:27 |
| OE5DRO-10 | 272 | 2026-08-31 02:15:09 | 2026-08-31 03:52:13 |
| OE5WHR-10 | 216 | 2026-08-31 02:15:29 | 2026-08-31 03:48:24 |
| PG1ADW-2 | 216 | 2026-08-31 02:16:52 | 2026-08-31 03:52:22 |
| DO3MHA-12 | 202 | 2026-08-31 02:24:48 | 2026-08-31 03:41:56 |
| OE5DXL-15 | 157 | 2026-08-31 02:17:36 | 2026-08-31 03:48:20 |
| OE5FHM-15 | 92 | 2026-08-31 02:19:15 | 2026-08-31 03:31:55 |
| OE3OSB-13 | 91 | 2026-08-31 02:38:47 | 2026-08-31 03:50:46 |
| OE5HKT-10 | 77 | 2026-08-31 02:16:13 | 2026-08-31 02:52:33 |
| S52SK | 72 | 2026-08-31 02:28:38 | 2026-08-31 03:44:56 |
| OK1ALN | 61 | 2026-08-31 02:56:37 | 2026-08-31 03:34:51 |
| OE8JPQ-2 | 58 | 2026-08-31 02:56:09 | 2026-08-31 03:33:20 |
| SONDE2-11 | 33 | 2026-08-31 03:02:17 | 2026-08-31 03:30:14 |
| DL6DJ-15 | 29 | 2026-08-31 02:47:00 | 2026-08-31 03:33:05 |
| SP3BTT-10 | 28 | 2026-08-31 03:01:09 | 2026-08-31 03:27:47 |
| OE5REO-15 | 16 | 2026-08-31 03:17:07 | 2026-08-31 03:28:29 |
| DB0UT-7 | 13 | 2026-08-31 03:14:08 | 2026-08-31 03:27:42 |
| DF7PN | 13 | 2026-08-31 03:20:48 | 2026-08-31 03:28:33 |
| DB0NH | 10 | 2026-08-31 02:45:52 | 2026-08-31 02:50:59 |
| NBG1-10 | 2 | 2026-08-31 03:07:40 | 2026-08-31 03:36:28 |
| DK5PH-5 | 2 | 2026-08-31 03:17:42 | 2026-08-31 03:18:12 |
| Receiver | Date | Latitude | Longitude | Direction | Speed | Altitude | Climb | Temperature | Humidity | Pressure | Voltage | Killtimer | Uptime | BKT | XDATA |
|---|---|---|---|---|---|---|---|---|---|---|---|---|---|---|---|
| OE3JTB-15 | 2026-08-31 03:54:27 | 48.44130 | 15.23296 | 174° | 9km/h | 942m | -2.5m/s | 18.6°C | 59.3% | 0hPa | 2.7V | 00:00:00 | 00:00:00 | 00:00:00 | |
| OE3JTB-15 | 2026-08-31 03:54:25 | 48.44134 | 15.23296 | 193° | 7km/h | 948m | -2.4m/s | 18.7°C | 58.7% | 0hPa | 2.7V | 00:00:00 | 02:05:34 | 00:00:00 | |
| OE3JTB-15 | 2026-08-31 03:54:23 | 48.44138 | 15.23297 | 182° | 7km/h | 953m | -2.7m/s | 18.7°C | 58.2% | 0hPa | 2.7V | 00:00:00 | 00:00:00 | 00:00:00 | |
| OE3JTB-15 | 2026-08-31 03:54:21 | 48.44142 | 15.23297 | 177° | 9km/h | 957m | -2.5m/s | 18.7°C | 58.2% | 0hPa | 2.7V | 00:00:00 | 00:00:00 | 00:00:00 | |
| OE3JTB-15 | 2026-08-31 03:54:19 | 48.44146 | 15.23297 | 187° | 11km/h | 962m | -2.4m/s | 18.7°C | 58.1% | 0hPa | 2.7V | 00:00:00 | 02:05:28 | 00:00:00 | |
| OE3JTB-15 | 2026-08-31 03:54:17 | 48.44151 | 15.23298 | 188° | 7km/h | 967m | -2.7m/s | 18.7°C | 58.4% | 0hPa | 2.7V | 00:00:00 | 00:00:00 | 00:00:00 | |
| OE3JTB-15 | 2026-08-31 03:54:15 | 48.44155 | 15.23298 | 181° | 9km/h | 972m | -2.4m/s | 18.6°C | 58.3% | 0hPa | 2.7V | 00:00:00 | 00:00:00 | 00:00:00 | |
| OE3JTB-15 | 2026-08-31 03:54:13 | 48.44160 | 15.23298 | 185° | 11km/h | 977m | -2.2m/s | 18.6°C | 58.3% | 0hPa | 2.7V | 00:00:00 | 02:05:22 | 00:00:00 | |
| OE3JTB-15 | 2026-08-31 03:54:11 | 48.44165 | 15.23299 | 195° | 11km/h | 982m | -2.3m/s | 18.6°C | 58.2% | 0hPa | 2.7V | 08:03:00 | 00:00:00 | 00:00:00 | |
| OE3JTB-15 | 2026-08-31 03:54:09 | 48.44169 | 15.23301 | 188° | 9km/h | 986m | -2.4m/s | 18.6°C | 58.2% | 0hPa | 2.7V | 00:00:00 | 00:00:00 | 00:00:00 | |
| OE3JTB-15 | 2026-08-31 03:54:07 | 48.44174 | 15.23301 | 183° | 9km/h | 991m | -2.7m/s | 18.6°C | 57.8% | 0hPa | 2.7V | 00:00:00 | 02:05:16 | 00:00:00 | |
| OE3JTB-15 | 2026-08-31 03:54:05 | 48.44179 | 15.23302 | 199° | 9km/h | 997m | -2.5m/s | 18.8°C | 56.9% | 0hPa | 2.7V | 00:00:00 | 00:00:00 | 00:00:00 | |
| OE3JTB-15 | 2026-08-31 03:54:03 | 48.44183 | 15.23304 | 183° | 7km/h | 1002m | -2.5m/s | 19.0°C | 55.4% | 0hPa | 2.7V | 00:00:00 | 00:00:00 | 00:00:00 | |
| OE3JTB-15 | 2026-08-31 03:54:01 | 48.44187 | 15.23303 | 172° | 11km/h | 1007m | -2.6m/s | 19.1°C | 55.0% | 0hPa | 2.7V | 00:00:00 | 02:05:10 | 00:00:00 | |
| OE3JTB-15 | 2026-08-31 03:53:59 | 48.44193 | 15.23303 | 189° | 11km/h | 1012m | -2.5m/s | 19.1°C | 54.6% | 0hPa | 2.7V | 00:00:00 | 00:00:00 | 00:00:00 | |
| OE3JTB-15 | 2026-08-31 03:53:55 | 48.44201 | 15.23307 | 192° | 7km/h | 1022m | -2.7m/s | 19.1°C | 54.7% | 0hPa | 2.7V | 00:00:00 | 02:05:04 | 00:00:00 | |
| OE3JTB-15 | 2026-08-31 03:53:53 | 48.44205 | 15.23307 | 180° | 9km/h | 1028m | -2.6m/s | 19.1°C | 54.6% | 0hPa | 2.7V | 08:04:00 | 00:00:00 | 00:00:00 | |
| OE3JTB-15 | 2026-08-31 03:53:51 | 48.44210 | 15.23308 | 196° | 11km/h | 1033m | -2.5m/s | 19.1°C | 54.7% | 0hPa | 2.7V | 00:00:00 | 00:00:00 | 00:00:00 | |
| OE3JTB-15 | 2026-08-31 03:53:49 | 48.44215 | 15.23311 | 209° | 7km/h | 1038m | -2.8m/s | 19.1°C | 55.0% | 0hPa | 2.7V | 00:00:00 | 02:04:58 | 00:00:00 | |
| OE3JTB-15 | 2026-08-31 03:53:47 | 48.44218 | 15.23313 | 191° | 7km/h | 1044m | -2.6m/s | 19.0°C | 55.2% | 0hPa | 2.7V | 00:00:00 | 00:00:00 | 00:00:00 | |
| OE3JTB-15 | 2026-08-31 03:53:45 | 48.44222 | 15.23314 | 192° | 9km/h | 1049m | -2.5m/s | 19.0°C | 55.2% | 0hPa | 2.7V | 00:00:00 | 00:00:00 | 00:00:00 | |
| OE3JTB-15 | 2026-08-31 03:53:43 | 48.44227 | 15.23316 | 207° | 9km/h | 1054m | -2.6m/s | 19.0°C | 55.4% | 0hPa | 2.7V | 00:00:00 | 02:04:52 | 00:00:00 | |
| OE3JTB-15 | 2026-08-31 03:53:41 | 48.44231 | 15.23319 | 195° | 9km/h | 1059m | -2.3m/s | 18.9°C | 55.5% | 0hPa | 2.7V | 00:00:00 | 00:00:00 | 00:00:00 | |
| OE3JTB-15 | 2026-08-31 03:53:39 | 48.44235 | 15.23320 | 188° | 9km/h | 1064m | -2.8m/s | 18.9°C | 55.6% | 0hPa | 2.6V | 00:00:00 | 00:00:00 | 00:00:00 | |
| OE3JTB-15 | 2026-08-31 03:53:37 | 48.44240 | 15.23322 | 209° | 9km/h | 1070m | -2.5m/s | 19.0°C | 55.2% | 0hPa | 2.6V | 00:00:00 | 02:04:46 | 00:00:00 | |
| OE3JTB-15 | 2026-08-31 03:53:35 | 48.44244 | 15.23325 | 209° | 7km/h | 1075m | -2.9m/s | 19.0°C | 55.1% | 0hPa | 2.6V | 08:04:00 | 00:00:00 | 00:00:00 | |
| OE3JTB-15 | 2026-08-31 03:53:33 | 48.44247 | 15.23327 | 183° | 7km/h | 1081m | -2.6m/s | 19.0°C | 54.8% | 0hPa | 2.7V | 00:00:00 | 00:00:00 | 00:00:00 | |
| OE3JTB-15 | 2026-08-31 03:53:31 | 48.44252 | 15.23327 | 191° | 11km/h | 1087m | -2.8m/s | 19.1°C | 53.7% | 0hPa | 2.7V | 00:00:00 | 02:04:40 | 00:00:00 | |
| OE3JTB-15 | 2026-08-31 03:53:29 | 48.44257 | 15.23330 | 208° | 9km/h | 1092m | -2.8m/s | 19.1°C | 53.4% | 0hPa | 2.7V | 00:00:00 | 00:00:00 | 00:00:00 | |
| OE3JTB-15 | 2026-08-31 03:53:27 | 48.44260 | 15.23334 | 217° | 7km/h | 1098m | -2.8m/s | 19.1°C | 53.4% | 0hPa | 2.7V | 00:00:00 | 00:00:00 | 00:00:00 | |
| OE3JTB-15 | 2026-08-31 03:53:25 | 48.44263 | 15.23336 | 182° | 7km/h | 1103m | -2.6m/s | 19.1°C | 53.2% | 0hPa | 2.7V | 00:00:00 | 02:04:34 | 00:00:00 | |
| OE3JTB-15 | 2026-08-31 03:53:23 | 48.44267 | 15.23336 | 188° | 11km/h | 1109m | -2.8m/s | 19.0°C | 53.4% | 0hPa | 2.7V | 00:00:00 | 00:00:00 | 00:00:00 | |
| OE3JTB-15 | 2026-08-31 03:53:21 | 48.44272 | 15.23338 | 206° | 11km/h | 1114m | -2.8m/s | 19.0°C | 53.1% | 0hPa | 2.6V | 00:00:00 | 00:00:00 | 00:00:00 | |
| OE3JTB-15 | 2026-08-31 03:53:19 | 48.44276 | 15.23343 | 222° | 9km/h | 1120m | -2.7m/s | 19.0°C | 53.0% | 0hPa | 2.6V | 00:00:00 | 02:04:28 | 00:00:00 | |
| OE3JTB-15 | 2026-08-31 03:53:17 | 48.44280 | 15.23346 | 206° | 7km/h | 1125m | -2.7m/s | 18.9°C | 53.1% | 0hPa | 2.6V | 08:04:00 | 00:00:00 | 00:00:00 | |
| OE3JTB-15 | 2026-08-31 03:53:15 | 48.44283 | 15.23348 | 201° | 9km/h | 1131m | -2.4m/s | 18.9°C | 53.3% | 0hPa | 2.7V | 00:00:00 | 00:00:00 | 00:00:00 | |
| OE3JTB-15 | 2026-08-31 03:53:13 | 48.44288 | 15.23352 | 218° | 9km/h | 1136m | -2.7m/s | 18.8°C | 53.3% | 0hPa | 2.7V | 00:00:00 | 02:04:22 | 00:00:00 | |
| OE3JTB-15 | 2026-08-31 03:53:11 | 48.44291 | 15.23356 | 215° | 7km/h | 1141m | -2.7m/s | 18.8°C | 53.5% | 0hPa | 2.7V | 00:00:00 | 00:00:00 | 00:00:00 | |
| OE3JTB-15 | 2026-08-31 03:53:08 | 48.44296 | 15.23359 | 197° | 9km/h | 1149m | -2.7m/s | 18.7°C | 53.6% | 0hPa | 2.7V | 00:00:00 | 00:00:00 | 00:00:00 | |
| OE3JTB-15 | 2026-08-31 03:53:06 | 48.44301 | 15.23362 | 210° | 9km/h | 1155m | -2.7m/s | 18.7°C | 53.5% | 0hPa | 2.7V | 00:00:00 | 02:04:15 | 00:00:00 | |
| OE3JTB-15 | 2026-08-31 03:53:04 | 48.44304 | 15.23365 | 212° | 5km/h | 1160m | -2.8m/s | 18.6°C | 53.8% | 0hPa | 2.7V | 00:00:00 | 00:00:00 | 00:00:00 | |
| OE3JTB-15 | 2026-08-31 03:53:02 | 48.44307 | 15.23366 | 192° | 7km/h | 1166m | -3.1m/s | 18.6°C | 53.6% | 0hPa | 2.7V | 00:00:00 | 00:00:00 | 00:00:00 | |
| OE3JTB-15 | 2026-08-31 03:53:00 | 48.44311 | 15.23367 | 199° | 9km/h | 1173m | -3.1m/s | 18.5°C | 53.7% | 0hPa | 2.7V | 00:00:00 | 02:04:09 | 00:00:00 | |
| OE3JTB-15 | 2026-08-31 03:52:58 | 48.44315 | 15.23370 | 208° | 7km/h | 1179m | -2.7m/s | 18.4°C | 53.8% | 0hPa | 2.7V | 08:04:00 | 00:00:00 | 00:00:00 | |
| OE3JTB-15 | 2026-08-31 03:52:56 | 48.44318 | 15.23372 | 197° | 7km/h | 1184m | -3.0m/s | 18.4°C | 53.8% | 0hPa | 2.7V | 00:00:00 | 00:00:00 | 00:00:00 | |
| OE3JTB-15 | 2026-08-31 03:52:54 | 48.44322 | 15.23373 | 191° | 9km/h | 1190m | -3.2m/s | 18.4°C | 53.5% | 0hPa | 2.7V | 00:00:00 | 02:04:03 | 00:00:00 | |
| OE3JTB-15 | 2026-08-31 03:52:52 | 48.44326 | 15.23375 | 210° | 7km/h | 1197m | -3.2m/s | 18.3°C | 53.3% | 0hPa | 2.7V | 00:00:00 | 00:00:00 | 00:00:00 | |
| OE3JTB-15 | 2026-08-31 03:52:50 | 48.44329 | 15.23378 | 204° | 5km/h | 1203m | -2.9m/s | 18.3°C | 53.5% | 0hPa | 2.7V | 00:00:00 | 00:00:00 | 00:00:00 | |
| OE3JTB-15 | 2026-08-31 03:52:48 | 48.44332 | 15.23379 | 182° | 7km/h | 1209m | -3.0m/s | 18.2°C | 53.6% | 0hPa | 2.7V | 00:00:00 | 02:03:57 | 00:00:00 | |
| OE3JTB-15 | 2026-08-31 03:52:46 | 48.44336 | 15.23379 | 185° | 9km/h | 1214m | -2.8m/s | 18.2°C | 53.5% | 0hPa | 2.7V | 00:00:00 | 00:00:00 | 00:00:00 | |
| OE3JTB-15 | 2026-08-31 03:52:44 | 48.44340 | 15.23380 | 192° | 7km/h | 1220m | -2.8m/s | 18.2°C | 53.9% | 0hPa | 2.7V | 00:00:00 | 00:00:00 | 00:00:00 | |
| OE3JTB-15 | 2026-08-31 03:52:42 | 48.44343 | 15.23380 | 173° | 7km/h | 1226m | -2.9m/s | 18.1°C | 53.9% | 0hPa | 2.7V | 00:00:00 | 02:03:51 | 00:00:00 | |
| OE3JTB-15 | 2026-08-31 03:52:40 | 48.44347 | 15.23379 | 175° | 11km/h | 1232m | -3.2m/s | 18.1°C | 54.1% | 0hPa | 2.7V | 08:05:00 | 00:00:00 | 00:00:00 | |
| OE3JTB-15 | 2026-08-31 03:52:38 | 48.44353 | 15.23380 | 197° | 9km/h | 1238m | -2.9m/s | 18.0°C | 54.3% | 0hPa | 2.7V | 00:00:00 | 00:00:00 | 00:00:00 | |
| OE3JTB-15 | 2026-08-31 03:52:36 | 48.44357 | 15.23382 | 207° | 7km/h | 1244m | -3.0m/s | 18.0°C | 54.4% | 0hPa | 2.7V | 00:00:00 | 02:03:45 | 00:00:00 | |
| OE3JTB-15 | 2026-08-31 03:52:34 | 48.44360 | 15.23384 | 182° | 5km/h | 1250m | -2.8m/s | 17.9°C | 54.7% | 0hPa | 2.7V | 00:00:00 | 00:00:00 | 00:00:00 | |
| OE3JTB-15 | 2026-08-31 03:52:32 | 48.44363 | 15.23383 | 171° | 9km/h | 1255m | -3.1m/s | 17.9°C | 54.6% | 0hPa | 2.7V | 00:00:00 | 00:00:00 | 00:00:00 | |
| OE3JTB-15 | 2026-08-31 03:52:30 | 48.44367 | 15.23383 | 190° | 7km/h | 1261m | -2.9m/s | 17.9°C | 54.4% | 0hPa | 2.7V | 00:00:00 | 02:03:39 | 00:00:00 | |
| OE3JTB-15 | 2026-08-31 03:52:28 | 48.44371 | 15.23383 | 178° | 7km/h | 1267m | -3.1m/s | 17.8°C | 54.6% | 0hPa | 2.7V | 00:00:00 | 00:00:00 | 00:00:00 | |
| OE3JTB-15 | 2026-08-31 03:52:26 | 48.44375 | 15.23383 | 177° | 9km/h | 1274m | -3.0m/s | 17.8°C | 54.8% | 0hPa | 2.6V | 00:00:00 | 00:00:00 | 00:00:00 | |
| OE3JTB-15 | 2026-08-31 03:52:24 | 48.44379 | 15.23383 | 194° | 7km/h | 1280m | -3.1m/s | 17.8°C | 56.1% | 0hPa | 2.6V | 00:00:00 | 02:03:33 | 00:00:00 | |
| PG1ADW-2 | 2026-08-31 03:52:22 | 48.44382 | 15.23384 | 188° | 7km/h | 1286m | -3.2m/s | 17.7°C | 56.6% | 0hPa | 2.6V | 00:00:00 | 00:00:00 | 00:00:00 | |
| OE3JTB-15 | 2026-08-31 03:52:22 | 48.44382 | 15.23384 | 188° | 5km/h | 1286m | -3.2m/s | 17.7°C | 56.6% | 0hPa | 2.6V | 08:05:00 | 00:00:00 | 00:00:00 | |
| OE3JTB-15 | 2026-08-31 03:52:20 | 48.44386 | 15.23384 | 168° | 9km/h | 1292m | -3.1m/s | 17.7°C | 56.8% | 0hPa | 2.7V | 00:00:00 | 00:00:00 | 00:00:00 | |
| OE3JTB-15 | 2026-08-31 03:52:18 | 48.44390 | 15.23383 | 178° | 9km/h | 1298m | -2.9m/s | 17.6°C | 57.0% | 0hPa | 2.7V | 00:00:00 | 02:03:27 | 00:00:00 | |
| PG1ADW-2 | 2026-08-31 03:52:16 | 48.44395 | 15.23384 | 191° | 7km/h | 1305m | -3.2m/s | 17.6°C | 57.1% | 0hPa | 2.7V | 00:00:00 | 00:00:00 | 00:00:00 | |
| OE3JTB-15 | 2026-08-31 03:52:16 | 48.44395 | 15.23384 | 191° | 7km/h | 1305m | -3.2m/s | 17.6°C | 57.1% | 0hPa | 2.7V | 00:00:00 | 00:00:00 | 00:00:00 | |
| OE3JTB-15 | 2026-08-31 03:52:14 | 48.44398 | 15.23383 | 162° | 7km/h | 1311m | -3.1m/s | 17.5°C | 57.3% | 0hPa | 2.6V | 00:00:00 | 00:00:00 | 00:00:00 | |
| OE5DRO-10 | 2026-08-31 03:52:13 | 48.44399 | 15.23382 | 160° | 9km/h | 1314m | -3.2m/s | 17.5°C | 57.4% | 0hPa | 2.6V | 00:00:00 | 00:00:00 | 00:00:00 | |
| OE3JTB-15 | 2026-08-31 03:52:12 | 48.44401 | 15.23382 | 169° | 9km/h | 1317m | -3.4m/s | 17.5°C | 57.5% | 0hPa | 2.6V | 00:00:00 | 02:03:21 | 00:00:00 | |
| OE5DRO-10 | 2026-08-31 03:52:11 | 48.44404 | 15.23381 | 178° | 9km/h | 1320m | -3.3m/s | 17.5°C | 57.7% | 0hPa | 2.6V | 00:00:00 | 00:00:00 | 00:00:00 | |
| OE3JTB-15 | 2026-08-31 03:52:10 | 48.44406 | 15.23381 | 189° | 9km/h | 1324m | -3.1m/s | 17.4°C | 57.7% | 0hPa | 2.6V | 00:00:00 | 00:00:00 | 00:00:00 | |
| PG1ADW-2 | 2026-08-31 03:52:10 | 48.44406 | 15.23381 | 189° | 7km/h | 1324m | -3.1m/s | 17.4°C | 57.7% | 0hPa | 2.6V | 08:05:00 | 00:00:00 | 00:00:00 | |
| OE5DRO-10 | 2026-08-31 03:52:09 | 48.44409 | 15.23382 | 199° | 7km/h | 1327m | -3.2m/s | 17.4°C | 57.7% | 0hPa | 2.7V | 00:00:00 | 00:00:00 | 00:00:00 | |
| OE3JTB-15 | 2026-08-31 03:52:08 | 48.44410 | 15.23383 | 197° | 5km/h | 1330m | -3.1m/s | 17.4°C | 57.9% | 0hPa | 2.7V | 00:00:00 | 00:00:00 | 00:00:00 | |
| OE5DRO-10 | 2026-08-31 03:52:07 | 48.44412 | 15.23384 | 179° | 5km/h | 1333m | -3.2m/s | 17.3°C | 57.9% | 0hPa | 2.7V | 00:00:00 | 00:00:00 | 00:00:00 | |
| OE3JTB-15 | 2026-08-31 03:52:06 | 48.44413 | 15.23383 | 161° | 7km/h | 1337m | -3.1m/s | 17.3°C | 58.1% | 0hPa | 2.7V | 00:00:00 | 02:03:15 | 00:00:00 | |
| OE5DRO-10 | 2026-08-31 03:52:05 | 48.44415 | 15.23382 | 153° | 9km/h | 1340m | -3.2m/s | 17.3°C | 58.1% | 0hPa | 2.7V | 00:00:00 | 00:00:00 | 00:00:00 | |
| PG1ADW-2 | 2026-08-31 03:52:04 | 48.44417 | 15.23381 | 160° | 9km/h | 1343m | -3.0m/s | 17.3°C | 58.1% | 0hPa | 2.7V | 00:00:00 | 02:03:13 | 00:00:00 | |
| OE3JTB-15 | 2026-08-31 03:52:04 | 48.44417 | 15.23381 | 160° | 11km/h | 1343m | -3.0m/s | 17.3°C | 58.1% | 0hPa | 2.7V | 08:05:00 | 00:00:00 | 00:00:00 | |
| OE5DRO-10 | 2026-08-31 03:52:03 | 48.44419 | 15.23380 | 169° | 11km/h | 1346m | -3.1m/s | 17.2°C | 58.3% | 0hPa | 2.7V | 00:00:00 | 00:00:00 | 00:00:00 | |
| OE3JTB-15 | 2026-08-31 03:52:02 | 48.44422 | 15.23379 | 175° | 11km/h | 1349m | -3.2m/s | 17.2°C | 58.4% | 0hPa | 2.7V | 00:00:00 | 00:00:00 | 00:00:00 | |
| OE5DRO-10 | 2026-08-31 03:52:01 | 48.44425 | 15.23379 | 186° | 9km/h | 1353m | -3.2m/s | 17.2°C | 58.6% | 0hPa | 2.7V | 00:00:00 | 00:00:00 | 00:00:00 | |
| OE3JTB-15 | 2026-08-31 03:52:00 | 48.44427 | 15.23379 | 190° | 7km/h | 1356m | -3.1m/s | 17.1°C | 58.6% | 0hPa | 2.7V | 00:00:00 | 02:03:09 | 00:00:00 | |
| OE5DRO-10 | 2026-08-31 03:51:59 | 48.44429 | 15.23380 | 179° | 7km/h | 1359m | -3.1m/s | 17.1°C | 58.6% | 0hPa | 2.7V | 00:00:00 | 00:00:00 | 00:00:00 | |
| PG1ADW-2 | 2026-08-31 03:51:58 | 48.44431 | 15.23379 | 170° | 9km/h | 1362m | -3.1m/s | 17.1°C | 58.8% | 0hPa | 2.7V | 00:00:00 | 00:00:00 | 00:00:00 | |
| OE3JTB-15 | 2026-08-31 03:51:58 | 48.44431 | 15.23379 | 170° | 7km/h | 1362m | -3.1m/s | 17.1°C | 58.8% | 0hPa | 2.7V | 00:00:00 | 00:00:00 | 00:00:00 | |
| OE5DRO-10 | 2026-08-31 03:51:57 | 48.44432 | 15.23379 | 166° | 9km/h | 1365m | -3.0m/s | 17.0°C | 58.9% | 0hPa | 2.7V | 08:05:00 | 00:00:00 | 00:00:00 | |
| OE3JTB-15 | 2026-08-31 03:51:56 | 48.44434 | 15.23378 | 163° | 9km/h | 1368m | -2.8m/s | 17.0°C | 59.0% | 0hPa | 2.7V | 00:00:00 | 00:00:00 | 00:00:00 | |
| OE5DRO-10 | 2026-08-31 03:51:55 | 48.44437 | 15.23377 | 179° | 9km/h | 1371m | -3.0m/s | 17.0°C | 59.0% | 0hPa | 2.7V | 00:00:00 | 00:00:00 | 00:00:00 | |
| OE3JTB-15 | 2026-08-31 03:51:54 | 48.44439 | 15.23377 | 188° | 7km/h | 1374m | -3.2m/s | 16.9°C | 59.1% | 0hPa | 2.7V | 00:00:00 | 02:03:03 | 00:00:00 | |
| OE5DRO-10 | 2026-08-31 03:51:53 | 48.44442 | 15.23378 | 188° | 7km/h | 1377m | -2.9m/s | 16.9°C | 59.2% | 0hPa | 2.7V | 00:00:00 | 00:00:00 | 00:00:00 | |
| PG1ADW-2 | 2026-08-31 03:51:52 | 48.44443 | 15.23378 | 180° | 7km/h | 1380m | -2.9m/s | 16.9°C | 59.3% | 0hPa | 2.7V | 00:00:00 | 00:00:00 | 00:00:00 | |
| OE3JTB-15 | 2026-08-31 03:51:52 | 48.44443 | 15.23378 | 180° | 5km/h | 1380m | -2.9m/s | 16.9°C | 59.3% | 0hPa | 2.7V | 00:00:00 | 00:00:00 | 00:00:00 | |
| OE5DRO-10 | 2026-08-31 03:51:51 | 48.44445 | 15.23378 | 165° | 7km/h | 1383m | -3.0m/s | 16.8°C | 59.5% | 0hPa | 2.7V | 00:00:00 | 00:00:00 | 00:00:00 | |
| OE3JTB-15 | 2026-08-31 03:51:50 | 48.44446 | 15.23377 | 158° | 9km/h | 1387m | -3.0m/s | 16.8°C | 59.6% | 0hPa | 2.7V | 00:00:00 | 00:00:00 | 00:00:00 | |
| OE5DRO-10 | 2026-08-31 03:51:49 | 48.44448 | 15.23376 | 164° | 9km/h | 1390m | -3.4m/s | 16.8°C | 59.6% | 0hPa | 2.7V | 00:00:00 | 00:00:00 | 00:00:00 | |
| OE3JTB-15 | 2026-08-31 03:51:48 | 48.44451 | 15.23375 | 172° | 9km/h | 1393m | -3.3m/s | 16.8°C | 59.7% | 0hPa | 2.7V | 00:00:00 | 02:02:57 | 00:00:00 | |
| OE5DRO-10 | 2026-08-31 03:51:47 | 48.44453 | 15.23375 | 179° | 7km/h | 1396m | -3.3m/s | 16.7°C | 59.8% | 0hPa | 2.7V | 00:00:00 | 00:00:00 | 00:00:00 | |
| PG1ADW-2 | 2026-08-31 03:51:46 | 48.44455 | 15.23375 | 176° | 7km/h | 1399m | -3.3m/s | 16.7°C | 59.9% | 0hPa | 2.7V | 00:00:00 | 00:00:00 | 00:00:00 | |
| OE3JTB-15 | 2026-08-31 03:51:46 | 48.44455 | 15.23375 | 176° | 7km/h | 1399m | -3.3m/s | 16.7°C | 59.9% | 0hPa | 2.7V | 08:06:00 | 00:00:00 | 00:00:00 | |
| OE5DRO-10 | 2026-08-31 03:51:45 | 48.44456 | 15.23374 | 165° | 7km/h | 1403m | -3.2m/s | 16.7°C | 60.0% | 0hPa | 2.7V | 00:00:00 | 00:00:00 | 00:00:00 | |
| OE3JTB-15 | 2026-08-31 03:51:44 | 48.44458 | 15.23373 | 163° | 9km/h | 1406m | -3.2m/s | 16.6°C | 60.1% | 0hPa | 2.7V | 00:00:00 | 00:00:00 | 00:00:00 | |
| OE5DRO-10 | 2026-08-31 03:51:43 | 48.44461 | 15.23373 | 169° | 9km/h | 1409m | -3.2m/s | 16.6°C | 60.1% | 0hPa | 2.7V | 00:00:00 | 00:00:00 | 00:00:00 | |
| OE3JTB-15 | 2026-08-31 03:51:42 | 48.44463 | 15.23372 | 176° | 7km/h | 1412m | -3.5m/s | 16.6°C | 60.2% | 0hPa | 2.7V | 00:00:00 | 02:02:51 | 00:00:00 | |
| OE5DRO-10 | 2026-08-31 03:51:41 | 48.44465 | 15.23372 | 174° | 5km/h | 1416m | -3.5m/s | 16.5°C | 60.2% | 0hPa | 2.7V | 00:00:00 | 00:00:00 | 00:00:00 | |
| OE5DRO-10 | 2026-08-31 03:51:39 | 48.44468 | 15.23371 | 157° | 7km/h | 1423m | -3.3m/s | 16.5°C | 60.6% | 0hPa | 2.7V | 08:06:00 | 00:00:00 | 00:00:00 | |
| OE3JTB-15 | 2026-08-31 03:51:38 | 48.44469 | 15.23369 | 148° | 7km/h | 1426m | -3.2m/s | 16.4°C | 60.5% | 0hPa | 2.6V | 00:00:00 | 00:00:00 | 00:00:00 | |
| OE5DRO-10 | 2026-08-31 03:51:37 | 48.44471 | 15.23368 | 158° | 7km/h | 1429m | -3.6m/s | 16.4°C | 60.6% | 0hPa | 2.6V | 00:00:00 | 00:00:00 | 00:00:00 | |
| OE3JTB-15 | 2026-08-31 03:51:36 | 48.44473 | 15.23367 | 167° | 7km/h | 1433m | -3.5m/s | 16.4°C | 60.7% | 0hPa | 2.6V | 00:00:00 | 02:02:45 | 00:00:00 | |
| OE5DRO-10 | 2026-08-31 03:51:35 | 48.44475 | 15.23367 | 176° | 5km/h | 1436m | -3.3m/s | 16.3°C | 60.8% | 0hPa | 2.6V | 00:00:00 | 00:00:00 | 00:00:00 | |
| PG1ADW-2 | 2026-08-31 03:51:34 | 48.44476 | 15.23366 | 176° | 7km/h | 1440m | -3.5m/s | 16.3°C | 61.0% | 0hPa | 2.6V | 00:00:00 | 00:00:00 | 00:00:00 | |
| OE3JTB-15 | 2026-08-31 03:51:34 | 48.44476 | 15.23366 | 176° | 5km/h | 1440m | -3.5m/s | 16.3°C | 61.0% | 0hPa | 2.6V | 00:00:00 | 00:00:00 | 00:00:00 | |
| OE5DRO-10 | 2026-08-31 03:51:33 | 48.44477 | 15.23366 | 164° | 5km/h | 1443m | -3.4m/s | 16.3°C | 61.1% | 0hPa | 2.6V | 00:00:00 | 00:00:00 | 00:00:00 | |
| OE3JTB-15 | 2026-08-31 03:51:32 | 48.44478 | 15.23365 | 144° | 7km/h | 1446m | -3.2m/s | 16.3°C | 61.2% | 0hPa | 2.7V | 00:00:00 | 00:00:00 | 00:00:00 | |
| OE5DRO-10 | 2026-08-31 03:51:31 | 48.44480 | 15.23364 | 143° | 7km/h | 1450m | -3.4m/s | 16.2°C | 61.3% | 0hPa | 2.7V | 00:00:00 | 00:00:00 | 00:00:00 | |
| OE3JTB-15 | 2026-08-31 03:51:30 | 48.44481 | 15.23362 | 150° | 9km/h | 1453m | -3.5m/s | 16.2°C | 61.4% | 0hPa | 2.7V | 00:00:00 | 02:02:39 | 00:00:00 | |
| OE5DRO-10 | 2026-08-31 03:51:29 | 48.44483 | 15.23360 | 160° | 9km/h | 1457m | -3.4m/s | 16.2°C | 61.4% | 0hPa | 2.7V | 00:00:00 | 00:00:00 | 00:00:00 | |
| PG1ADW-2 | 2026-08-31 03:51:28 | 48.44485 | 15.23360 | 175° | 5km/h | 1460m | -3.4m/s | 16.1°C | 61.5% | 0hPa | 2.7V | 00:00:00 | 00:00:00 | 00:00:00 | |
| OE3JTB-15 | 2026-08-31 03:51:28 | 48.44485 | 15.23360 | 175° | 7km/h | 1460m | -3.4m/s | 16.1°C | 61.5% | 0hPa | 2.7V | 08:06:00 | 00:00:00 | 00:00:00 | |
| OE5DRO-10 | 2026-08-31 03:51:27 | 48.44487 | 15.23360 | 188° | 5km/h | 1463m | -3.3m/s | 16.1°C | 61.6% | 0hPa | 2.7V | 00:00:00 | 00:00:00 | 00:00:00 | |
| OE3JTB-15 | 2026-08-31 03:51:26 | 48.44489 | 15.23360 | 189° | 5km/h | 1467m | -3.4m/s | 16.1°C | 61.8% | 0hPa | 2.7V | 00:00:00 | 00:00:00 | 00:00:00 | |
| OE5DRO-10 | 2026-08-31 03:51:25 | 48.44490 | 15.23360 | 178° | 5km/h | 1470m | -3.3m/s | 16.0°C | 61.9% | 0hPa | 2.7V | 00:00:00 | 00:00:00 | 00:00:00 | |
| OE3JTB-15 | 2026-08-31 03:51:24 | 48.44491 | 15.23360 | 154° | 5km/h | 1473m | -3.6m/s | 16.0°C | 62.0% | 0hPa | 2.7V | 00:00:00 | 02:02:33 | 00:00:00 | |
| OE5DRO-10 | 2026-08-31 03:51:23 | 48.44492 | 15.23358 | 143° | 7km/h | 1477m | -3.2m/s | 16.0°C | 62.0% | 0hPa | 2.7V | 00:00:00 | 00:00:00 | 00:00:00 | |
| PG1ADW-2 | 2026-08-31 03:51:22 | 48.44494 | 15.23357 | 152° | 7km/h | 1480m | -3.4m/s | 15.9°C | 62.2% | 0hPa | 2.7V | 00:00:00 | 00:00:00 | 00:00:00 | |
| OE3JTB-15 | 2026-08-31 03:51:22 | 48.44494 | 15.23357 | 152° | 9km/h | 1480m | -3.4m/s | 15.9°C | 62.2% | 0hPa | 2.7V | 00:00:00 | 00:00:00 | 00:00:00 | |
| OE5DRO-10 | 2026-08-31 03:51:21 | 48.44496 | 15.23356 | 161° | 7km/h | 1484m | -3.5m/s | 15.9°C | 62.3% | 0hPa | 2.7V | 08:06:00 | 00:00:00 | 00:00:00 | |
| OE3JTB-15 | 2026-08-31 03:51:20 | 48.44498 | 15.23355 | 172° | 7km/h | 1487m | -3.4m/s | 15.9°C | 62.4% | 0hPa | 2.7V | 00:00:00 | 00:00:00 | 00:00:00 | |
| PG1ADW-2 | 2026-08-31 03:51:16 | 48.44503 | 15.23353 | 136° | 7km/h | 1501m | -3.4m/s | 15.7°C | 62.9% | 0hPa | 2.7V | 08:06:00 | 02:02:25 | 00:00:00 | |
| OE3JTB-15 | 2026-08-31 03:51:16 | 48.44503 | 15.23353 | 136° | 5km/h | 1501m | -3.4m/s | 15.7°C | 62.9% | 0hPa | 2.7V | 00:00:00 | 00:00:00 | 00:00:00 | |
| OE5DRO-10 | 2026-08-31 03:51:15 | 48.44504 | 15.23352 | 131° | 7km/h | 1504m | -3.3m/s | 15.7°C | 63.0% | 0hPa | 2.7V | 00:00:00 | 00:00:00 | 00:00:00 | |
| OE3JTB-15 | 2026-08-31 03:51:14 | 48.44506 | 15.23350 | 144° | 7km/h | 1508m | -3.5m/s | 15.7°C | 62.9% | 0hPa | 2.7V | 00:00:00 | 00:00:00 | 00:00:00 | |
| OE5DRO-10 | 2026-08-31 03:51:13 | 48.44507 | 15.23349 | 157° | 7km/h | 1511m | -3.5m/s | 15.7°C | 62.7% | 0hPa | 2.7V | 00:00:00 | 00:00:00 | 00:00:00 | |
| OE3JTB-15 | 2026-08-31 03:51:12 | 48.44509 | 15.23347 | 168° | 7km/h | 1515m | -3.3m/s | 15.7°C | 62.9% | 0hPa | 2.7V | 00:00:00 | 02:02:21 | 00:00:00 | |
| OE5DRO-10 | 2026-08-31 03:51:11 | 48.44511 | 15.23347 | 182° | 5km/h | 1518m | -3.2m/s | 15.7°C | 62.9% | 0hPa | 2.7V | 00:00:00 | 00:00:00 | 00:00:00 | |
| PG1ADW-2 | 2026-08-31 03:51:10 | 48.44512 | 15.23347 | 178° | 5km/h | 1521m | -3.3m/s | 15.6°C | 63.0% | 0hPa | 2.7V | 00:00:00 | 00:00:00 | 00:00:00 | |
| OE3JTB-15 | 2026-08-31 03:51:10 | 48.44512 | 15.23347 | 178° | 4km/h | 1521m | -3.3m/s | 15.6°C | 63.0% | 0hPa | 2.7V | 08:06:00 | 00:00:00 | 00:00:00 | |
| OE5DRO-10 | 2026-08-31 03:51:09 | 48.44513 | 15.23347 | 169° | 4km/h | 1525m | -3.3m/s | 15.6°C | 63.3% | 0hPa | 2.7V | 00:00:00 | 00:00:00 | 00:00:00 | |
| OE3JTB-15 | 2026-08-31 03:51:08 | 48.44514 | 15.23346 | 146° | 5km/h | 1528m | -3.4m/s | 15.6°C | 63.3% | 0hPa | 2.6V | 00:00:00 | 00:00:00 | 00:00:00 | |
| OE5DRO-10 | 2026-08-31 03:51:07 | 48.44515 | 15.23345 | 141° | 5km/h | 1531m | -3.5m/s | 15.5°C | 63.3% | 0hPa | 2.6V | 00:00:00 | 00:00:00 | 00:00:00 | |
| OE3JTB-15 | 2026-08-31 03:51:06 | 48.44517 | 15.23344 | 151° | 7km/h | 1535m | -3.4m/s | 15.5°C | 63.5% | 0hPa | 2.6V | 00:00:00 | 02:02:15 | 00:00:00 | |
| OE5DRO-10 | 2026-08-31 03:51:05 | 48.44518 | 15.23343 | 162° | 5km/h | 1538m | -3.3m/s | 15.5°C | 63.5% | 0hPa | 2.6V | 00:00:00 | 00:00:00 | 00:00:00 | |
| PG1ADW-2 | 2026-08-31 03:51:04 | 48.44519 | 15.23342 | 160° | 5km/h | 1541m | -3.5m/s | 15.4°C | 63.6% | 0hPa | 2.6V | 00:00:00 | 00:00:00 | 00:00:00 | |
| OE3JTB-15 | 2026-08-31 03:51:04 | 48.44519 | 15.23342 | 160° | 5km/h | 1541m | -3.5m/s | 15.4°C | 63.6% | 0hPa | 2.6V | 00:00:00 | 00:00:00 | 00:00:00 | |
| OE5DRO-10 | 2026-08-31 03:51:03 | 48.44521 | 15.23341 | 154° | 4km/h | 1545m | -3.4m/s | 15.4°C | 63.7% | 0hPa | 2.6V | 08:06:00 | 00:00:00 | 00:00:00 | |
| OE3JTB-15 | 2026-08-31 03:51:02 | 48.44521 | 15.23340 | 128° | 5km/h | 1548m | -3.2m/s | 15.4°C | 63.8% | 0hPa | 2.7V | 00:00:00 | 00:00:00 | 00:00:00 | |
| OE3OSB-13 | 2026-08-31 03:50:46 | 48.44539 | 15.23327 | 121° | 5km/h | 1606m | -3.5m/s | 14.9°C | 65.5% | -1.0hPa | 2.7V | 00:00:00 | 00:00:00 | 00:00:00 | |
| PG1ADW-2 | 2026-08-31 03:50:46 | 48.44538 | 15.23329 | 118° | 5km/h | 1603m | -3.5m/s | 14.9°C | 65.7% | 0hPa | 2.7V | 00:00:00 | 00:00:00 | 00:00:00 | |
| OE3JTB-15 | 2026-08-31 03:50:46 | 48.44538 | 15.23329 | 118° | 5km/h | 1603m | -3.5m/s | 14.9°C | 65.7% | 0hPa | 2.7V | 00:00:00 | 00:00:00 | 00:00:00 | |
| OE5DRO-10 | 2026-08-31 03:50:45 | 48.44539 | 15.23327 | 122° | 5km/h | 1606m | -3.5m/s | 14.9°C | 65.6% | 0hPa | 2.7V | 08:07:00 | 00:00:00 | 00:00:00 | |
| OE3JTB-15 | 2026-08-31 03:50:44 | 48.44540 | 15.23326 | 140° | 7km/h | 1610m | -3.4m/s | 14.8°C | 65.7% | 0hPa | 2.6V | 00:00:00 | 00:00:00 | 00:00:00 | |
| OE5DRO-10 | 2026-08-31 03:50:43 | 48.44542 | 15.23324 | 152° | 7km/h | 1613m | -3.5m/s | 14.8°C | 65.9% | 0hPa | 2.6V | 00:00:00 | 00:00:00 | 00:00:00 | |
| OE3JTB-15 | 2026-08-31 03:50:42 | 48.44543 | 15.23323 | 169° | 5km/h | 1617m | -3.6m/s | 14.7°C | 65.9% | 0hPa | 2.6V | 00:00:00 | 02:01:51 | 00:00:00 | |
| OE5DRO-10 | 2026-08-31 03:50:41 | 48.44544 | 15.23323 | 181° | 4km/h | 1621m | -3.6m/s | 14.7°C | 66.0% | 0hPa | 2.6V | 00:00:00 | 00:00:00 | 00:00:00 | |
| PG1ADW-2 | 2026-08-31 03:50:40 | 48.44545 | 15.23323 | 164° | 4km/h | 1624m | -3.6m/s | 14.7°C | 66.2% | 0hPa | 2.6V | 00:00:00 | 00:00:00 | 00:00:00 | |
| OE3JTB-15 | 2026-08-31 03:50:40 | 48.44545 | 15.23323 | 164° | 2km/h | 1624m | -3.6m/s | 14.7°C | 66.2% | 0hPa | 2.6V | 00:00:00 | 00:00:00 | 00:00:00 | |
| OE5DRO-10 | 2026-08-31 03:50:39 | 48.44545 | 15.23323 | 129° | 4km/h | 1628m | -3.5m/s | 14.7°C | 66.4% | 0hPa | 2.6V | 00:00:00 | 00:00:00 | 00:00:00 | |
| OE3JTB-15 | 2026-08-31 03:50:38 | 48.44546 | 15.23322 | 118° | 5km/h | 1631m | -3.5m/s | 14.6°C | 66.4% | 0hPa | 2.7V | 00:00:00 | 00:00:00 | 00:00:00 | |
| OE5DRO-10 | 2026-08-31 03:50:37 | 48.44547 | 15.23320 | 134° | 5km/h | 1635m | -3.4m/s | 14.6°C | 66.6% | 0hPa | 2.7V | 00:00:00 | 00:00:00 | 00:00:00 | |
| OE3JTB-15 | 2026-08-31 03:50:36 | 48.44548 | 15.23319 | 147° | 5km/h | 1638m | -3.5m/s | 14.6°C | 66.7% | 0hPa | 2.7V | 00:00:00 | 02:01:45 | 00:00:00 | |
| OE5DRO-10 | 2026-08-31 03:50:35 | 48.44549 | 15.23318 | 159° | 5km/h | 1642m | -3.5m/s | 14.5°C | 66.9% | 0hPa | 2.7V | 00:00:00 | 00:00:00 | 00:00:00 | |
| PG1ADW-2 | 2026-08-31 03:50:34 | 48.44550 | 15.23317 | 174° | 4km/h | 1645m | -3.4m/s | 14.5°C | 67.0% | 0hPa | 2.7V | 00:00:00 | 00:00:00 | 00:00:00 | |
| OE3JTB-15 | 2026-08-31 03:50:34 | 48.44550 | 15.23317 | 174° | 4km/h | 1645m | -3.4m/s | 14.5°C | 67.0% | 0hPa | 2.7V | 08:07:00 | 00:00:00 | 00:00:00 | |
| OE5DRO-10 | 2026-08-31 03:50:33 | 48.44551 | 15.23317 | 160° | 4km/h | 1649m | -3.4m/s | 14.5°C | 67.0% | 0hPa | 2.7V | 00:00:00 | 00:00:00 | 00:00:00 | |
| OE3JTB-15 | 2026-08-31 03:50:32 | 48.44552 | 15.23316 | 147° | 4km/h | 1652m | -3.4m/s | 14.4°C | 67.2% | 0hPa | 2.7V | 00:00:00 | 00:00:00 | 00:00:00 | |
| OE5DRO-10 | 2026-08-31 03:50:31 | 48.44552 | 15.23315 | 118° | 4km/h | 1656m | -3.6m/s | 14.4°C | 67.5% | 0hPa | 2.7V | 00:00:00 | 00:00:00 | 00:00:00 | |
| OE3JTB-15 | 2026-08-31 03:50:30 | 48.44553 | 15.23314 | 124° | 5km/h | 1659m | -3.5m/s | 14.4°C | 67.5% | 0hPa | 2.7V | 00:00:00 | 02:01:39 | 00:00:00 | |
| OE5DRO-10 | 2026-08-31 03:50:29 | 48.44554 | 15.23312 | 141° | 5km/h | 1663m | -3.5m/s | 14.3°C | 67.6% | 0hPa | 2.7V | 00:00:00 | 00:00:00 | 00:00:00 | |
| PG1ADW-2 | 2026-08-31 03:50:28 | 48.44555 | 15.23312 | 157° | 4km/h | 1666m | -3.5m/s | 14.3°C | 67.8% | 0hPa | 2.7V | 00:00:00 | 02:01:37 | 00:00:00 | |
| OE3JTB-15 | 2026-08-31 03:50:28 | 48.44555 | 15.23312 | 157° | 4km/h | 1666m | -3.5m/s | 14.3°C | 67.8% | 0hPa | 2.7V | 00:00:00 | 00:00:00 | 00:00:00 | |
| OE5DRO-10 | 2026-08-31 03:50:27 | 48.44556 | 15.23311 | 160° | 4km/h | 1670m | -3.4m/s | 14.2°C | 67.9% | 0hPa | 2.7V | 08:07:00 | 00:00:00 | 00:00:00 | |
| OE3JTB-15 | 2026-08-31 03:50:26 | 48.44556 | 15.23310 | 127° | 2km/h | 1673m | -3.6m/s | 14.2°C | 68.2% | 0hPa | 2.6V | 00:00:00 | 00:00:00 | 00:00:00 | |
| OE5DRO-10 | 2026-08-31 03:50:25 | 48.44556 | 15.23310 | 92° | 4km/h | 1677m | -3.6m/s | 14.2°C | 68.1% | 0hPa | 2.6V | 00:00:00 | 00:00:00 | 00:00:00 | |
| OE3JTB-15 | 2026-08-31 03:50:24 | 48.44557 | 15.23308 | 102° | 5km/h | 1680m | -3.6m/s | 14.1°C | 68.1% | 0hPa | 2.6V | 00:00:00 | 02:01:33 | 00:00:00 | |
| OE5DRO-10 | 2026-08-31 03:50:23 | 48.44557 | 15.23306 | 113° | 7km/h | 1684m | -3.6m/s | 14.1°C | 68.4% | 0hPa | 2.6V | 00:00:00 | 00:00:00 | 00:00:00 | |
| PG1ADW-2 | 2026-08-31 03:50:22 | 48.44558 | 15.23304 | 127° | 4km/h | 1687m | -3.4m/s | 14.1°C | 68.4% | 0hPa | 2.6V | 08:07:00 | 00:00:00 | 00:00:00 | |
| OE3JTB-15 | 2026-08-31 03:50:22 | 48.44558 | 15.23304 | 127° | 7km/h | 1687m | -3.4m/s | 14.1°C | 68.4% | 0hPa | 2.6V | 00:00:00 | 00:00:00 | 00:00:00 | |
| OE5DRO-10 | 2026-08-31 03:50:21 | 48.44559 | 15.23302 | 145° | 5km/h | 1691m | -3.5m/s | 14.0°C | 68.5% | 0hPa | 2.6V | 00:00:00 | 00:00:00 | 00:00:00 | |
| OE3JTB-15 | 2026-08-31 03:50:20 | 48.44560 | 15.23301 | 156° | 4km/h | 1694m | -3.4m/s | 14.0°C | 68.6% | 0hPa | 2.6V | 00:00:00 | 00:00:00 | 00:00:00 | |
| OE5DRO-10 | 2026-08-31 03:50:19 | 48.44561 | 15.23300 | 158° | 2km/h | 1698m | -3.5m/s | 14.0°C | 68.7% | 0hPa | 2.6V | 00:00:00 | 00:00:00 | 00:00:00 | |
| OE3JTB-15 | 2026-08-31 03:50:18 | 48.44561 | 15.23300 | 101° | 2km/h | 1701m | -3.6m/s | 13.9°C | 68.8% | 0hPa | 2.6V | 00:00:00 | 02:01:27 | 00:00:00 | |
| OE5DRO-10 | 2026-08-31 03:50:17 | 48.44561 | 15.23299 | 84° | 4km/h | 1705m | -3.6m/s | 13.9°C | 68.9% | 0hPa | 2.6V | 00:00:00 | 00:00:00 | 00:00:00 | |
| PG1ADW-2 | 2026-08-31 03:50:16 | 48.44561 | 15.23297 | 92° | 5km/h | 1708m | -3.6m/s | 13.8°C | 69.2% | 0hPa | 2.6V | 00:00:00 | 00:00:00 | 00:00:00 | |
| OE3JTB-15 | 2026-08-31 03:50:16 | 48.44561 | 15.23297 | 92° | 5km/h | 1708m | -3.6m/s | 13.8°C | 69.2% | 0hPa | 2.6V | 08:07:00 | 00:00:00 | 00:00:00 | |
| OE5DRO-10 | 2026-08-31 03:50:15 | 48.44562 | 15.23295 | 108° | 5km/h | 1712m | -3.3m/s | 13.8°C | 69.1% | 0hPa | 2.7V | 00:00:00 | 00:00:00 | 00:00:00 | |
| OE3OSB-13 | 2026-08-31 03:50:15 | 48.44562 | 15.23293 | 119° | 5km/h | 1715m | -3.5m/s | 13.8°C | 69.2% | -1.0hPa | 2.7V | 00:00:00 | 00:00:00 | 00:00:00 | |
| OE3JTB-15 | 2026-08-31 03:50:14 | 48.44562 | 15.23293 | 120° | 7km/h | 1715m | -3.4m/s | 13.8°C | 69.3% | 0hPa | 2.7V | 00:00:00 | 00:00:00 | 00:00:00 | |
| OE5DRO-10 | 2026-08-31 03:50:13 | 48.44563 | 15.23291 | 134° | 5km/h | 1719m | -3.5m/s | 13.8°C | 69.2% | 0hPa | 2.7V | 00:00:00 | 00:00:00 | 00:00:00 | |
| OE3JTB-15 | 2026-08-31 03:50:12 | 48.44564 | 15.23290 | 145° | 4km/h | 1722m | -3.5m/s | 13.7°C | 69.3% | 0hPa | 2.7V | 00:00:00 | 02:01:21 | 00:00:00 | |
| OE5DRO-10 | 2026-08-31 03:50:11 | 48.44565 | 15.23289 | 138° | 4km/h | 1726m | -3.4m/s | 13.7°C | 69.4% | 0hPa | 2.7V | 00:00:00 | 00:00:00 | 00:00:00 | |
| OE3JTB-15 | 2026-08-31 03:50:10 | 48.44566 | 15.23288 | 112° | 4km/h | 1729m | -3.3m/s | 13.7°C | 69.5% | 0hPa | 2.7V | 00:00:00 | 00:00:00 | 00:00:00 | |
| PG1ADW-2 | 2026-08-31 03:50:10 | 48.44566 | 15.23288 | 112° | 5km/h | 1729m | -3.3m/s | 13.7°C | 69.5% | 0hPa | 2.6V | 00:00:00 | 00:00:00 | 00:00:00 | |
| OE5DRO-10 | 2026-08-31 03:50:09 | 48.44566 | 15.23286 | 102° | 5km/h | 1732m | -3.3m/s | 13.6°C | 69.7% | 0hPa | 2.6V | 08:07:00 | 00:00:00 | 00:00:00 | |
| OE3JTB-15 | 2026-08-31 03:50:08 | 48.44566 | 15.23284 | 113° | 7km/h | 1736m | -3.4m/s | 13.6°C | 69.7% | 0hPa | 2.7V | 00:00:00 | 00:00:00 | 00:00:00 | |
| OE5DRO-10 | 2026-08-31 03:50:07 | 48.44567 | 15.23281 | 121° | 7km/h | 1739m | -3.5m/s | 13.6°C | 70.0% | 0hPa | 2.7V | 00:00:00 | 00:00:00 | 00:00:00 | |
| OE3JTB-15 | 2026-08-31 03:50:06 | 48.44568 | 15.23279 | 132° | 7km/h | 1743m | -3.5m/s | 13.5°C | 70.3% | 0hPa | 2.7V | 00:00:00 | 02:01:15 | 00:00:00 | |
| OE5DRO-10 | 2026-08-31 03:50:01 | 48.44571 | 15.23271 | 104° | 5km/h | 1760m | -3.5m/s | 13.4°C | 71.1% | 0hPa | 2.7V | 00:00:00 | 00:00:00 | 00:00:00 | |
| OE3JTB-15 | 2026-08-31 03:50:00 | 48.44572 | 15.23269 | 116° | 7km/h | 1763m | -3.6m/s | 13.3°C | 71.2% | 0hPa | 2.7V | 00:00:00 | 02:01:09 | 00:00:00 | |
| OE5DRO-10 | 2026-08-31 03:49:59 | 48.44573 | 15.23267 | 132° | 5km/h | 1767m | -3.4m/s | 13.3°C | 71.3% | 0hPa | 2.7V | 00:00:00 | 00:00:00 | 00:00:00 | |
| PG1ADW-2 | 2026-08-31 03:49:58 | 48.44574 | 15.23266 | 140° | 5km/h | 1770m | -3.6m/s | 13.3°C | 71.4% | 0hPa | 2.7V | 00:00:00 | 00:00:00 | 00:00:00 | |
| OE3JTB-15 | 2026-08-31 03:49:58 | 48.44574 | 15.23266 | 140° | 4km/h | 1770m | -3.6m/s | 13.3°C | 71.4% | 0hPa | 2.7V | 08:07:00 | 00:00:00 | 00:00:00 | |
| OE5DRO-10 | 2026-08-31 03:49:57 | 48.44575 | 15.23264 | 135° | 4km/h | 1774m | -3.6m/s | 13.2°C | 71.7% | 0hPa | 2.7V | 00:00:00 | 00:00:00 | 00:00:00 | |
| OE3JTB-15 | 2026-08-31 03:49:56 | 48.44575 | 15.23264 | 107° | 4km/h | 1777m | -3.5m/s | 13.2°C | 71.8% | 0hPa | 2.6V | 00:00:00 | 00:00:00 | 00:00:00 | |
| OE5DRO-10 | 2026-08-31 03:49:55 | 48.44575 | 15.23262 | 89° | 5km/h | 1781m | -3.6m/s | 13.2°C | 71.8% | 0hPa | 2.6V | 00:00:00 | 00:00:00 | 00:00:00 | |
| OE3JTB-15 | 2026-08-31 03:49:54 | 48.44575 | 15.23260 | 97° | 5km/h | 1785m | -3.4m/s | 13.1°C | 72.1% | 0hPa | 2.6V | 00:00:00 | 02:01:03 | 00:00:00 | |
| OE5DRO-10 | 2026-08-31 03:49:53 | 48.44575 | 15.23258 | 109° | 7km/h | 1788m | -3.4m/s | 13.1°C | 72.2% | 0hPa | 2.6V | 00:00:00 | 00:00:00 | 00:00:00 | |
| PG1ADW-2 | 2026-08-31 03:49:52 | 48.44576 | 15.23256 | 131° | 5km/h | 1791m | -3.5m/s | 13.0°C | 72.4% | 0hPa | 2.6V | 00:00:00 | 00:00:00 | 00:00:00 | |
| OE3JTB-15 | 2026-08-31 03:49:52 | 48.44576 | 15.23256 | 131° | 5km/h | 1791m | -3.5m/s | 13.0°C | 72.4% | 0hPa | 2.6V | 00:00:00 | 00:00:00 | 00:00:00 | |
| OE5DRO-10 | 2026-08-31 03:49:51 | 48.44577 | 15.23254 | 143° | 5km/h | 1795m | -3.7m/s | 13.0°C | 72.5% | 0hPa | 2.6V | 08:08:00 | 00:00:00 | 00:00:00 | |
| OE3JTB-15 | 2026-08-31 03:49:50 | 48.44579 | 15.23253 | 145° | 4km/h | 1799m | -3.5m/s | 13.0°C | 72.6% | 0hPa | 2.7V | 00:00:00 | 00:00:00 | 00:00:00 | |
| OE5DRO-10 | 2026-08-31 03:49:49 | 48.44579 | 15.23252 | 140° | 4km/h | 1802m | -3.6m/s | 12.9°C | 72.7% | 0hPa | 2.7V | 00:00:00 | 00:00:00 | 00:00:00 | |
| OE3JTB-15 | 2026-08-31 03:49:48 | 48.44580 | 15.23251 | 109° | 4km/h | 1806m | -3.5m/s | 12.9°C | 72.8% | 0hPa | 2.7V | 00:00:00 | 02:00:57 | 00:00:00 | |
| OE5DRO-10 | 2026-08-31 03:49:47 | 48.44580 | 15.23249 | 99° | 5km/h | 1809m | -3.6m/s | 12.8°C | 72.9% | 0hPa | 2.7V | 00:00:00 | 00:00:00 | 00:00:00 | |
| PG1ADW-2 | 2026-08-31 03:49:46 | 48.44580 | 15.23247 | 111° | 5km/h | 1813m | -3.5m/s | 12.8°C | 73.1% | 0hPa | 2.7V | 00:00:00 | 00:00:00 | 00:00:00 | |
| OE3JTB-15 | 2026-08-31 03:49:46 | 48.44580 | 15.23247 | 111° | 7km/h | 1813m | -3.5m/s | 12.8°C | 73.1% | 0hPa | 2.7V | 00:00:00 | 00:00:00 | 00:00:00 | |
| OE5DRO-10 | 2026-08-31 03:49:45 | 48.44581 | 15.23245 | 121° | 5km/h | 1816m | -3.5m/s | 12.8°C | 73.3% | 0hPa | 2.7V | 00:00:00 | 00:00:00 | 00:00:00 | |
| OE3JTB-15 | 2026-08-31 03:49:44 | 48.44582 | 15.23243 | 131° | 5km/h | 1820m | -3.8m/s | 12.7°C | 73.4% | 0hPa | 2.7V | 00:00:00 | 00:00:00 | 00:00:00 | |
| OE3OSB-13 | 2026-08-31 03:49:44 | 48.44583 | 15.23242 | 126° | 4km/h | 1823m | -3.7m/s | 12.8°C | 73.5% | -1.0hPa | 2.7V | 00:00:00 | 00:00:00 | 00:00:00 | |
| OE5DRO-10 | 2026-08-31 03:49:43 | 48.44583 | 15.23242 | 127° | 4km/h | 1824m | -3.6m/s | 12.7°C | 73.7% | 0hPa | 2.7V | 00:00:00 | 00:00:00 | 00:00:00 | |
| OE3JTB-15 | 2026-08-31 03:49:42 | 48.44583 | 15.23241 | 108° | 4km/h | 1827m | -3.7m/s | 12.7°C | 73.5% | 0hPa | 2.7V | 00:00:00 | 02:00:51 | 00:00:00 | |
| OE5DRO-10 | 2026-08-31 03:49:41 | 48.44583 | 15.23240 | 85° | 4km/h | 1831m | -3.6m/s | 12.7°C | 73.4% | 0hPa | 2.7V | 00:00:00 | 00:00:00 | 00:00:00 | |
| OE5DRO-10 | 2026-08-31 03:49:39 | 48.44584 | 15.23236 | 108° | 5km/h | 1838m | -3.7m/s | 12.6°C | 73.7% | 0hPa | 2.7V | 00:00:00 | 00:00:00 | 00:00:00 | |
| OE3JTB-15 | 2026-08-31 03:49:38 | 48.44584 | 15.23234 | 122° | 4km/h | 1842m | -3.6m/s | 12.6°C | 73.8% | 0hPa | 2.6V | 00:00:00 | 00:00:00 | 00:00:00 | |
| OE5DRO-10 | 2026-08-31 03:49:37 | 48.44584 | 15.23233 | 130° | 2km/h | 1845m | -3.6m/s | 12.5°C | 74.0% | 0hPa | 2.6V | 00:00:00 | 00:00:00 | 00:00:00 | |
| OE3JTB-15 | 2026-08-31 03:49:36 | 48.44585 | 15.23233 | 112° | 2km/h | 1849m | -3.7m/s | 12.5°C | 74.0% | 0hPa | 2.6V | 00:00:00 | 02:00:45 | 00:00:00 | |
| OE5DRO-10 | 2026-08-31 03:49:35 | 48.44585 | 15.23232 | 72° | 4km/h | 1853m | -3.7m/s | 12.5°C | 74.1% | 0hPa | 2.6V | 00:00:00 | 00:00:00 | 00:00:00 | |
| PG1ADW-2 | 2026-08-31 03:49:34 | 48.44584 | 15.23230 | 68° | 4km/h | 1856m | -3.6m/s | 12.4°C | 74.3% | 0hPa | 2.6V | 00:00:00 | 00:00:00 | 00:00:00 | |
| OE3JTB-15 | 2026-08-31 03:49:34 | 48.44584 | 15.23230 | 68° | 5km/h | 1856m | -3.6m/s | 12.4°C | 74.3% | 0hPa | 2.6V | 00:00:00 | 00:00:00 | 00:00:00 | |
| OE5DRO-10 | 2026-08-31 03:49:33 | 48.44584 | 15.23229 | 86° | 4km/h | 1860m | -3.8m/s | 12.4°C | 74.5% | 0hPa | 2.7V | 08:08:00 | 00:00:00 | 00:00:00 | |
| OE3JTB-15 | 2026-08-31 03:49:32 | 48.44584 | 15.23227 | 100° | 5km/h | 1864m | -3.6m/s | 12.4°C | 74.5% | 0hPa | 2.7V | 00:00:00 | 00:00:00 | 00:00:00 | |
| OE3JTB-15 | 2026-08-31 03:49:30 | 48.44585 | 15.23223 | 136° | 4km/h | 1871m | -3.7m/s | 12.3°C | 74.8% | 0hPa | 2.7V | 00:00:00 | 02:00:39 | 00:00:00 | |
| OE3JTB-15 | 2026-08-31 03:49:28 | 48.44586 | 15.23222 | 76° | 2km/h | 1878m | -3.7m/s | 12.2°C | 75.1% | 0hPa | 2.7V | 00:00:00 | 00:00:00 | 00:00:00 | |
| PG1ADW-2 | 2026-08-31 03:49:28 | 48.44586 | 15.23222 | 76° | 4km/h | 1878m | -3.7m/s | 12.2°C | 75.1% | 0hPa | 2.7V | 08:08:00 | 00:00:00 | 00:00:00 | |
| OE5DRO-10 | 2026-08-31 03:49:27 | 48.44586 | 15.23221 | 54° | 4km/h | 1882m | -3.8m/s | 12.2°C | 75.1% | 0hPa | 2.7V | 00:00:00 | 00:00:00 | 00:00:00 | |
| OE3JTB-15 | 2026-08-31 03:49:26 | 48.44585 | 15.23220 | 70° | 4km/h | 1885m | -3.7m/s | 12.2°C | 75.2% | 0hPa | 2.7V | 00:00:00 | 00:00:00 | 00:00:00 | |
| OE3JTB-15 | 2026-08-31 03:49:24 | 48.44585 | 15.23217 | 108° | 4km/h | 1893m | -3.7m/s | 12.1°C | 75.4% | 0hPa | 2.7V | 00:00:00 | 02:00:33 | 00:00:00 | |
| PG1ADW-2 | 2026-08-31 03:49:22 | 48.44586 | 15.23215 | 140° | 4km/h | 1900m | -3.8m/s | 12.0°C | 75.6% | 0hPa | 2.7V | 00:00:00 | 00:00:00 | 00:00:00 | |
| OE3JTB-15 | 2026-08-31 03:49:22 | 48.44586 | 15.23215 | 140° | 2km/h | 1900m | -3.8m/s | 12.0°C | 75.6% | 0hPa | 2.7V | 08:08:00 | 00:00:00 | 00:00:00 | |
| OE3JTB-15 | 2026-08-31 03:49:20 | 48.44586 | 15.23214 | 45° | 4km/h | 1907m | -3.8m/s | 12.0°C | 75.6% | 0hPa | 2.7V | 00:00:00 | 00:00:00 | 00:00:00 | |
| OE5DRO-10 | 2026-08-31 03:49:20 | 48.44586 | 15.23214 | 45° | 4km/h | 1907m | -3.8m/s | 12.0°C | 75.6% | 0hPa | 2.7V | 00:00:00 | 00:00:00 | 00:00:00 | |
| OE3JTB-15 | 2026-08-31 03:49:18 | 48.44585 | 15.23212 | 68° | 4km/h | 1915m | -3.7m/s | 11.9°C | 75.8% | 0hPa | 2.7V | 00:00:00 | 02:00:27 | 00:00:00 | |
| OE3JTB-15 | 2026-08-31 03:49:16 | 48.44584 | 15.23209 | 83° | 2km/h | 1922m | -3.7m/s | 11.9°C | 75.9% | 0hPa | 2.7V | 00:00:00 | 00:00:00 | 00:00:00 | |
| PG1ADW-2 | 2026-08-31 03:49:16 | 48.44584 | 15.23209 | 83° | 4km/h | 1922m | -3.7m/s | 11.9°C | 75.9% | 0hPa | 2.7V | 00:00:00 | 02:00:25 | 00:00:00 | |
| OE3JTB-15 | 2026-08-31 03:49:14 | 48.44584 | 15.23208 | 18° | 4km/h | 1930m | -3.8m/s | 11.8°C | 76.1% | 0hPa | 2.7V | 00:00:00 | 00:00:00 | 00:00:00 | |
| OE5DRO-10 | 2026-08-31 03:49:13 | 48.44583 | 15.23207 | 23° | 4km/h | 1933m | -3.8m/s | 11.8°C | 76.3% | 0hPa | 2.7V | 00:00:00 | 00:00:00 | 00:00:00 | |
| OE3OSB-13 | 2026-08-31 03:49:13 | 48.44583 | 15.23207 | 39° | 4km/h | 1937m | -3.9m/s | 11.8°C | 76.2% | -1.0hPa | 2.6V | 00:00:00 | 00:00:00 | 00:00:00 | |
| OE3JTB-15 | 2026-08-31 03:49:12 | 48.44582 | 15.23206 | 40° | 5km/h | 1937m | -3.9m/s | 11.8°C | 76.4% | 0hPa | 2.6V | 00:00:00 | 02:00:21 | 00:00:00 | |
| PG1ADW-2 | 2026-08-31 03:49:10 | 48.44581 | 15.23204 | 74° | 4km/h | 1945m | -3.7m/s | 11.7°C | 76.6% | 0hPa | 2.6V | 00:00:00 | 00:00:00 | 00:00:00 | |
| OE3JTB-15 | 2026-08-31 03:49:10 | 48.44581 | 15.23204 | 74° | 4km/h | 1945m | -3.7m/s | 11.7°C | 76.6% | 0hPa | 2.6V | 00:00:00 | 00:00:00 | 00:00:00 | |
| OE3JTB-15 | 2026-08-31 03:49:08 | 48.44581 | 15.23202 | 49° | 2km/h | 1952m | -3.7m/s | 11.7°C | 76.7% | 0hPa | 2.7V | 00:00:00 | 00:00:00 | 00:00:00 | |
| OE5DRO-10 | 2026-08-31 03:49:06 | 48.44580 | 15.23201 | 21° | 4km/h | 1960m | -3.6m/s | 11.6°C | 76.8% | 0hPa | 2.7V | 00:00:00 | 00:00:00 | 00:00:00 | |
| OE3JTB-15 | 2026-08-31 03:49:06 | 48.44580 | 15.23201 | 21° | 5km/h | 1960m | -3.6m/s | 11.6°C | 76.8% | 0hPa | 2.7V | 00:00:00 | 02:00:15 | 00:00:00 | |
| PG1ADW-2 | 2026-08-31 03:49:04 | 48.44577 | 15.23199 | 54° | 4km/h | 1967m | -3.6m/s | 11.5°C | 77.1% | 0hPa | 2.7V | 00:00:00 | 00:00:00 | 00:00:00 | |
| OE3JTB-15 | 2026-08-31 03:49:04 | 48.44577 | 15.23199 | 54° | 5km/h | 1967m | -3.6m/s | 11.5°C | 77.1% | 0hPa | 2.7V | 08:08:00 | 00:00:00 | 00:00:00 | |
| OE3JTB-15 | 2026-08-31 03:49:02 | 48.44577 | 15.23196 | 86° | 2km/h | 1974m | -3.6m/s | 11.5°C | 76.9% | 0hPa | 2.7V | 00:00:00 | 00:00:00 | 00:00:00 | |
| OE3JTB-15 | 2026-08-31 03:49:00 | 48.44576 | 15.23194 | 22° | 4km/h | 1982m | -3.7m/s | 11.4°C | 76.9% | 0hPa | 2.7V | 00:00:00 | 02:00:09 | 00:00:00 | |
| OE5DRO-10 | 2026-08-31 03:48:59 | 48.44575 | 15.23194 | 18° | 5km/h | 1985m | -3.6m/s | 11.4°C | 76.9% | 0hPa | 2.7V | 00:00:00 | 00:00:00 | 00:00:00 | |
| PG1ADW-2 | 2026-08-31 03:48:58 | 48.44574 | 15.23193 | 21° | 5km/h | 1989m | -3.5m/s | 11.4°C | 77.0% | 0hPa | 2.7V | 00:00:00 | 00:00:00 | 00:00:00 | |
| OE3JTB-15 | 2026-08-31 03:48:58 | 48.44574 | 15.23193 | 21° | 5km/h | 1989m | -3.5m/s | 11.4°C | 77.0% | 0hPa | 2.7V | 00:00:00 | 00:00:00 | 00:00:00 | |
| OE3JTB-15 | 2026-08-31 03:48:56 | 48.44571 | 15.23190 | 52° | 5km/h | 1996m | -3.7m/s | 11.3°C | 77.2% | 0hPa | 2.7V | 00:00:00 | 00:00:00 | 00:00:00 | |
| OE3JTB-15 | 2026-08-31 03:48:54 | 48.44570 | 15.23188 | 20° | 4km/h | 2003m | -3.7m/s | 11.3°C | 77.2% | 0hPa | 2.7V | 00:00:00 | 02:00:03 | 00:00:00 | |
| OE3JTB-15 | 2026-08-31 03:48:50 | 48.44565 | 15.23187 | 21° | 7km/h | 2018m | -3.8m/s | 11.2°C | 77.7% | 0hPa | 2.7V | 00:00:00 | 00:00:00 | 00:00:00 | |
| OE3JTB-15 | 2026-08-31 03:48:48 | 48.44562 | 15.23184 | 51° | 4km/h | 2026m | -3.5m/s | 11.1°C | 77.8% | 0hPa | 2.7V | 00:00:00 | 01:59:57 | 00:00:00 | |
| OE3JTB-15 | 2026-08-31 03:48:46 | 48.44560 | 15.23182 | 20° | 4km/h | 2033m | -3.6m/s | 11.0°C | 78.3% | 0hPa | 2.7V | 08:09:00 | 00:00:00 | 00:00:00 | |
| OE5DRO-10 | 2026-08-31 03:48:45 | 48.44559 | 15.23182 | 1° | 5km/h | 2036m | -3.6m/s | 11.0°C | 78.4% | 0hPa | 2.6V | 00:00:00 | 00:00:00 | 00:00:00 | |
| OE3JTB-15 | 2026-08-31 03:48:44 | 48.44558 | 15.23182 | 2° | 7km/h | 2040m | -3.4m/s | 11.0°C | 78.5% | 0hPa | 2.6V | 00:00:00 | 00:00:00 | 00:00:00 | |
| OE3JTB-15 | 2026-08-31 03:48:42 | 48.44555 | 15.23181 | 23° | 7km/h | 2047m | -3.8m/s | 10.9°C | 79.1% | 0hPa | 2.6V | 00:00:00 | 01:59:51 | 00:00:00 | |
| OE3OSB-13 | 2026-08-31 03:48:41 | 48.44553 | 15.23180 | 35° | 5km/h | 2051m | -3.6m/s | 10.9°C | 78.9% | -1.0hPa | 2.6V | 00:00:00 | 00:00:00 | 00:00:00 | |
| OE3JTB-15 | 2026-08-31 03:48:40 | 48.44551 | 15.23178 | 30° | 5km/h | 2055m | -3.4m/s | 10.8°C | 79.3% | 0hPa | 2.6V | 00:00:00 | 00:00:00 | 00:00:00 | |
| OE3JTB-15 | 2026-08-31 03:48:38 | 48.44549 | 15.23177 | 355° | 7km/h | 2061m | -3.6m/s | 10.7°C | 79.8% | 0hPa | 2.7V | 00:00:00 | 00:00:00 | 00:00:00 | |
| OE3JTB-15 | 2026-08-31 03:48:36 | 48.44545 | 15.23177 | 3° | 9km/h | 2069m | -3.8m/s | 10.7°C | 79.8% | 0hPa | 2.7V | 00:00:00 | 01:59:45 | 00:00:00 | |
| PG1ADW-2 | 2026-08-31 03:48:34 | 48.44541 | 15.23175 | 26° | 7km/h | 2076m | -3.7m/s | 10.7°C | 79.9% | 0hPa | 2.7V | 08:09:00 | 00:00:00 | 00:00:00 | |
| OE3JTB-15 | 2026-08-31 03:48:32 | 48.44537 | 15.23173 | 29° | 5km/h | 2083m | -3.6m/s | 10.6°C | 80.1% | 0hPa | 2.7V | 00:00:00 | 00:00:00 | 00:00:00 | |
| OE5DRO-10 | 2026-08-31 03:48:31 | 48.44536 | 15.23172 | 13° | 9km/h | 2087m | -3.5m/s | 10.6°C | 80.3% | 0hPa | 2.7V | 08:09:00 | 00:00:00 | 00:00:00 | |
| PG1ADW-2 | 2026-08-31 03:48:28 | 48.44530 | 15.23170 | 22° | 9km/h | 2097m | -3.5m/s | 10.5°C | 80.4% | 0hPa | 2.7V | 00:00:00 | 01:59:37 | 00:00:00 | |
| OE3JTB-15 | 2026-08-31 03:48:26 | 48.44526 | 15.23166 | 37° | 9km/h | 2104m | -3.8m/s | 10.5°C | 80.6% | 0hPa | 2.7V | 00:00:00 | 00:00:00 | 00:00:00 | |
| OE5WHR-10 | 2026-08-31 03:48:24 | 48.44523 | 15.23162 | 36° | 11km/h | 2111m | -3.5m/s | 10.4°C | 80.7% | 0hPa | 2.7V | 00:00:00 | 00:00:00 | 00:00:00 | |
| OE3JTB-15 | 2026-08-31 03:48:22 | 48.44519 | 15.23160 | 12° | 11km/h | 2118m | -3.7m/s | 10.4°C | 80.9% | 0hPa | 2.7V | 00:00:00 | 00:00:00 | 00:00:00 | |
| OE5DXL-15 | 2026-08-31 03:48:20 | 48.44513 | 15.23158 | 26° | 13km/h | 2125m | -3.7m/s | 10.3°C | 80.8% | 0hPa | 2.7V | 00:00:00 | 00:00:00 | 00:00:00 | |
| OE3JTB-15 | 2026-08-31 03:48:18 | 48.44508 | 15.23153 | 30° | 11km/h | 2132m | -4.0m/s | 10.2°C | 81.2% | 0hPa | 2.7V | 00:00:00 | 01:59:27 | 00:00:00 | |
| OE5DRO-10 | 2026-08-31 03:48:17 | 48.44505 | 15.23151 | 31° | 9km/h | 2136m | -3.4m/s | 10.2°C | 81.7% | 0hPa | 2.7V | 00:00:00 | 00:00:00 | 00:00:00 | |
| OE5WHR-10 | 2026-08-31 03:48:16 | 48.44503 | 15.23149 | 25° | 11km/h | 2139m | -3.8m/s | 10.2°C | 81.8% | 0hPa | 2.7V | 00:00:00 | 01:59:25 | 00:00:00 | |
| OE3JTB-15 | 2026-08-31 03:48:14 | 48.44498 | 15.23146 | 34° | 9km/h | 2150m | -9.4m/s | 10.2°C | 81.3% | 0hPa | 2.7V | 00:00:00 | 00:00:00 | 00:00:00 | |
| OE3JTB-15 | 2026-08-31 03:48:12 | 48.44494 | 15.23142 | 38° | 9km/h | 2170m | -9.2m/s | 10.1°C | 81.6% | 0hPa | 2.7V | 00:00:00 | 01:59:21 | 00:00:00 | |
| PG1ADW-2 | 2026-08-31 03:48:10 | 48.44490 | 15.23139 | 36° | 13km/h | 2189m | -9.3m/s | 10.0°C | 82.3% | 0hPa | 2.7V | 00:00:00 | 00:00:00 | 00:00:00 | |
| OE5WHR-10 | 2026-08-31 03:48:09 | 48.44487 | 15.23137 | 19° | 13km/h | 2198m | -9.9m/s | 9.9°C | 82.4% | 0hPa | 2.7V | 08:09:00 | 00:00:00 | 00:00:00 | |
| OE3JTB-15 | 2026-08-31 03:48:08 | 48.44484 | 15.23135 | 34° | 13km/h | 2208m | -9.8m/s | 9.9°C | 83.5% | 0hPa | 2.7V | 00:00:00 | 00:00:00 | 00:00:00 | |
| OE3JTB-15 | 2026-08-31 03:48:06 | 48.44478 | 15.23130 | 34° | 15km/h | 2227m | -9.5m/s | 9.9°C | 85.1% | 0hPa | 2.7V | 00:00:00 | 01:59:15 | 00:00:00 | |
| PG1ADW-2 | 2026-08-31 03:48:04 | 48.44473 | 15.23124 | 28° | 15km/h | 2246m | -9.8m/s | 9.7°C | 86.3% | 0hPa | 2.7V | 00:00:00 | 01:59:13 | 00:00:00 | |
| OE3JTB-15 | 2026-08-31 03:48:02 | 48.44466 | 15.23118 | 24° | 15km/h | 2264m | -9.6m/s | 9.6°C | 87.2% | 0hPa | 2.7V | 00:00:00 | 00:00:00 | 00:00:00 | |
| OE5DXL-15 | 2026-08-31 03:48:00 | 48.44460 | 15.23113 | 37° | 18km/h | 2283m | -9.1m/s | 9.5°C | 88.2% | 0hPa | 2.7V | 00:00:00 | 00:00:00 | 00:00:00 | |
| OE3JTB-15 | 2026-08-31 03:47:58 | 48.44453 | 15.23107 | 35° | 16km/h | 2302m | -9.6m/s | 9.3°C | 88.9% | 0hPa | 2.7V | 00:00:00 | 00:00:00 | 00:00:00 | |
| OE3JTB-15 | 2026-08-31 03:47:56 | 48.44447 | 15.23101 | 35° | 16km/h | 2321m | -10.0m/s | 9.2°C | 89.6% | 0hPa | 2.7V | 00:00:00 | 00:00:00 | 00:00:00 | |
| OE3JTB-15 | 2026-08-31 03:47:54 | 48.44440 | 15.23094 | 26° | 18km/h | 2341m | -10.3m/s | 9.1°C | 91.1% | 0hPa | 2.7V | 00:00:00 | 01:59:03 | 00:00:00 | |
| OE3JTB-15 | 2026-08-31 03:47:52 | 48.44432 | 15.23088 | 27° | 18km/h | 2361m | -9.6m/s | 9.0°C | 91.7% | 0hPa | 2.7V | 08:10:00 | 00:00:00 | 00:00:00 | |
| OE5DRO-10 | 2026-08-31 03:47:49 | 48.44420 | 15.23078 | 23° | 18km/h | 2391m | -9.7m/s | 8.8°C | 92.5% | 0hPa | 2.7V | 00:00:00 | 00:00:00 | 00:00:00 | |
| OE3JTB-15 | 2026-08-31 03:47:45 | 48.44403 | 15.23064 | 30° | 20km/h | 2430m | -10.0m/s | 8.6°C | 94.0% | 0hPa | 2.7V | 00:00:00 | 00:00:00 | 00:00:00 | |
| OE5DRO-10 | 2026-08-31 03:47:42 | 48.44390 | 15.23055 | 28° | 20km/h | 2459m | -9.9m/s | 8.4°C | 93.7% | 0hPa | 2.7V | 00:00:00 | 00:00:00 | 00:00:00 | |
| PG1ADW-2 | 2026-08-31 03:47:41 | 48.44385 | 15.23052 | 20° | 22km/h | 2469m | -9.7m/s | 8.4°C | 93.8% | 0hPa | 2.7V | 00:00:00 | 00:00:00 | 00:00:00 | |
| OE5DXL-15 | 2026-08-31 03:47:40 | 48.44380 | 15.23049 | 22° | 24km/h | 2479m | -10.5m/s | 8.3°C | 93.7% | 0hPa | 2.7V | 00:00:00 | 00:00:00 | 00:00:00 | |
| OE3OSB-13 | 2026-08-31 03:47:39 | 48.44376 | 15.23046 | 26° | 18km/h | 2489m | -9.3m/s | 8.3°C | 92.7% | -1.0hPa | 2.7V | 00:00:00 | 00:00:00 | 00:00:00 | |
| OE5DRO-10 | 2026-08-31 03:47:35 | 48.44356 | 15.23035 | 20° | 20km/h | 2528m | -10.2m/s | 8.0°C | 94.0% | 0hPa | 2.7V | 00:00:00 | 00:00:00 | 00:00:00 | |
| OE5DRO-10 | 2026-08-31 03:47:28 | 48.44320 | 15.23016 | 23° | 26km/h | 2595m | -8.9m/s | 7.6°C | 95.3% | 0hPa | 2.7V | 08:10:00 | 00:00:00 | 00:00:00 | |
| OE3JTB-15 | 2026-08-31 03:47:27 | 48.44314 | 15.23013 | 17° | 27km/h | 2604m | -10.3m/s | 7.6°C | 95.4% | 0hPa | 2.7V | 00:00:00 | 00:00:00 | 00:00:00 | |
| OE5WHR-10 | 2026-08-31 03:47:21 | 48.44276 | 15.22991 | 20° | 29km/h | 2662m | -9.5m/s | 7.4°C | 93.6% | 0hPa | 2.7V | 00:00:00 | 00:00:00 | 00:00:00 | |
| OE5DXL-15 | 2026-08-31 03:47:20 | 48.44269 | 15.22987 | 24° | 33km/h | 2672m | -9.9m/s | 7.4°C | 93.7% | 0hPa | 2.7V | 08:10:00 | 00:00:00 | 00:00:00 | |
| OE3JTB-15 | 2026-08-31 03:47:18 | 48.44256 | 15.22979 | 22° | 33km/h | 2691m | -10.2m/s | 7.2°C | 94.3% | 0hPa | 2.7V | 00:00:00 | 00:00:00 | 00:00:00 | |
| OE5WHR-10 | 2026-08-31 03:47:15 | 48.44234 | 15.22966 | 25° | 35km/h | 2722m | -9.9m/s | 7.2°C | 92.7% | 0hPa | 2.7V | 00:00:00 | 00:00:00 | 00:00:00 | |
| OE5DRO-10 | 2026-08-31 03:47:14 | 48.44227 | 15.22960 | 22° | 33km/h | 2732m | -9.4m/s | 7.2°C | 91.5% | 0hPa | 2.7V | 00:00:00 | 00:00:00 | 00:00:00 | |
| OE5WHR-10 | 2026-08-31 03:47:09 | 48.44187 | 15.22936 | 27° | 35km/h | 2781m | -9.4m/s | 6.8°C | 91.0% | 0hPa | 2.7V | 00:00:00 | 01:58:18 | 00:00:00 | |
| OE3OSB-13 | 2026-08-31 03:47:08 | 48.44172 | 15.22925 | 24° | 35km/h | 2800m | -10.3m/s | 6.7°C | 90.9% | -1.0hPa | 2.7V | 00:00:00 | 00:00:00 | 00:00:00 | |
| OE5DRO-10 | 2026-08-31 03:47:07 | 48.44171 | 15.22925 | 25° | 35km/h | 2800m | -10.2m/s | 6.7°C | 91.6% | 0hPa | 2.7V | 00:00:00 | 00:00:00 | 00:00:00 | |
| OE5WHR-10 | 2026-08-31 03:47:03 | 48.44139 | 15.22903 | 28° | 35km/h | 2839m | -9.7m/s | 6.4°C | 93.0% | 0hPa | 2.7V | 00:00:00 | 00:00:00 | 00:00:00 | |
| PG1ADW-2 | 2026-08-31 03:47:01 | 48.44123 | 15.22892 | 24° | 37km/h | 2859m | -10.8m/s | 6.3°C | 93.9% | 0hPa | 2.5V | 00:00:00 | 00:00:00 | 00:00:00 | |
| OE5DRO-10 | 2026-08-31 03:47:00 | 48.44115 | 15.22886 | 28° | 37km/h | 2870m | -10.5m/s | 6.2°C | 94.5% | 0hPa | 2.5V | 00:00:00 | 00:00:00 | 00:00:00 | |
| OE5WHR-10 | 2026-08-31 03:46:57 | 48.44090 | 15.22868 | 27° | 37km/h | 2900m | -10.2m/s | 6.0°C | 95.5% | 0hPa | 2.5V | 00:00:00 | 00:00:00 | 00:00:00 | |
| OE5DRO-10 | 2026-08-31 03:46:51 | 48.44041 | 15.22832 | 27° | 37km/h | 2961m | -10.4m/s | 5.5°C | 97.2% | 0hPa | 2.5V | 00:00:00 | 00:00:00 | 00:00:00 | |
| OE3JTB-15 | 2026-08-31 03:46:49 | 48.44025 | 15.22821 | 22° | 38km/h | 2982m | -10.7m/s | 5.4°C | 97.9% | 0hPa | 2.5V | 00:00:00 | 00:00:00 | 00:00:00 | |
| PG1ADW-2 | 2026-08-31 03:46:41 | 48.43955 | 15.22775 | 22° | 38km/h | 3061m | -9.5m/s | 4.8°C | 0% | 0hPa | 2.5V | 00:00:00 | 00:00:00 | 00:00:00 | |
| OE5WHR-10 | 2026-08-31 03:46:40 | 48.43947 | 15.22769 | 22° | 38km/h | 3071m | -10.1m/s | 4.8°C | 0% | 0hPa | 2.5V | 00:00:00 | 01:57:49 | 00:00:00 | |
| OE3OSB-13 | 2026-08-31 03:46:37 | 48.43911 | 15.22749 | 21° | 35km/h | 3109m | -9.2m/s | 4.6°C | 100.0% | -1.0hPa | 2.5V | 00:00:00 | 00:00:00 | 00:00:00 | |
| OE5DXL-15 | 2026-08-31 03:46:36 | 48.43911 | 15.22749 | 22° | 40km/h | 3109m | -9.1m/s | 4.6°C | 0% | 0hPa | 2.5V | 00:00:00 | 00:00:00 | 00:00:00 | |
| OE5DRO-10 | 2026-08-31 03:46:35 | 48.43902 | 15.22744 | 16° | 40km/h | 3119m | -9.9m/s | 4.5°C | 0% | 0hPa | 2.5V | 00:00:00 | 00:00:00 | 00:00:00 | |
| OE3JTB-15 | 2026-08-31 03:46:30 | 48.43855 | 15.22725 | 17° | 40km/h | 3166m | -9.1m/s | 4.0°C | 98.2% | 0hPa | 2.5V | 00:00:00 | 01:57:39 | 00:00:00 | |
| OM5KV | 2026-08-31 03:46:29 | 48.43855 | 15.22725 | 17° | 38km/h | 3166m | -9.1m/s | 4.0°C | 97.3% | 0hPa | 2.5V | 08:11:00 | 00:00:00 | 00:00:00 | |
| OE5WHR-10 | 2026-08-31 03:46:23 | 48.43787 | 15.22701 | 10° | 42km/h | 3232m | -9.4m/s | 3.5°C | 97.0% | 0hPa | 2.5V | 08:11:00 | 00:00:00 | 00:00:00 | |
| PG1ADW-2 | 2026-08-31 03:46:21 | 48.43767 | 15.22695 | 15° | 42km/h | 3252m | -9.4m/s | 3.3°C | 96.8% | 0hPa | 2.7V | 00:00:00 | 00:00:00 | 00:00:00 | |
| OE5DRO-10 | 2026-08-31 03:46:19 | 48.43747 | 15.22688 | 12° | 42km/h | 3271m | -10.4m/s | 3.3°C | 97.9% | 0hPa | 2.5V | 00:00:00 | 00:00:00 | 00:00:00 | |
| OE3JTB-15 | 2026-08-31 03:46:11 | 48.43666 | 15.22654 | 19° | 44km/h | 3351m | -10.0m/s | 2.8°C | 99.3% | 0hPa | 2.5V | 08:11:00 | 00:00:00 | 00:00:00 | |
| OM5KV | 2026-08-31 03:46:09 | 48.43656 | 15.22649 | 17° | 42km/h | 3360m | -9.9m/s | 2.8°C | 98.1% | 0hPa | 2.7V | 08:11:00 | 00:00:00 | 00:00:00 | |
| OE5WHR-10 | 2026-08-31 03:46:06 | 48.43613 | 15.22631 | 14° | 46km/h | 3400m | -10.4m/s | 2.5°C | 0% | 0hPa | 2.7V | 00:00:00 | 00:00:00 | 00:00:00 | |
| OE5DRO-10 | 2026-08-31 03:46:03 | 48.43581 | 15.22617 | 16° | 44km/h | 3431m | -9.6m/s | 2.3°C | 0% | 0hPa | 2.7V | 00:00:00 | 00:00:00 | 00:00:00 | |
| PG1ADW-2 | 2026-08-31 03:46:01 | 48.43559 | 15.22609 | 17° | 46km/h | 3451m | -10.2m/s | 2.1°C | 0% | 0hPa | 2.7V | 00:00:00 | 01:57:10 | 00:00:00 | |
| OM5KV | 2026-08-31 03:45:57 | 48.43527 | 15.22596 | 15° | 46km/h | 3481m | -10.6m/s | 2.0°C | 0% | 0hPa | 2.7V | 00:00:00 | 00:00:00 | 00:00:00 | |
| OE3JTB-15 | 2026-08-31 03:45:52 | 48.43461 | 15.22570 | 15° | 46km/h | 3540m | -9.7m/s | 1.5°C | 0% | 0hPa | 2.7V | 00:00:00 | 00:00:00 | 00:00:00 | |
| OM5KV | 2026-08-31 03:45:51 | 48.43461 | 15.22570 | 16° | 42km/h | 3540m | -9.7m/s | 1.5°C | 0% | 0hPa | 2.7V | 00:00:00 | 00:00:00 | 00:00:00 | |
| OE5DRO-10 | 2026-08-31 03:45:47 | 48.43405 | 15.22550 | 14° | 46km/h | 3591m | -10.3m/s | 1.2°C | 0% | 0hPa | 2.7V | 08:12:00 | 00:00:00 | 00:00:00 | |
| OM5KV | 2026-08-31 03:45:45 | 48.43394 | 15.22546 | 12° | 46km/h | 3601m | -10.6m/s | 1.2°C | 0% | 0hPa | 2.6V | 00:00:00 | 00:00:00 | 00:00:00 | |
| OE5WHR-10 | 2026-08-31 03:45:41 | 48.43337 | 15.22526 | 15° | 47km/h | 3652m | -10.3m/s | 0.8°C | 0% | 0hPa | 2.6V | 00:00:00 | 01:56:50 | 00:00:00 | |
| OM5KV | 2026-08-31 03:45:38 | 48.43314 | 15.22517 | 15° | 44km/h | 3671m | -9.6m/s | 0.8°C | 0% | 0hPa | 2.6V | 00:00:00 | 00:00:00 | 00:00:00 | |
| OE5DXL-15 | 2026-08-31 03:45:36 | 48.43280 | 15.22504 | 17° | 47km/h | 3700m | -9.3m/s | 0.5°C | 0% | 0hPa | 2.6V | 00:00:00 | 00:00:00 | 00:00:00 | |
| OE3OSB-13 | 2026-08-31 03:45:35 | 48.43257 | 15.22495 | 12° | 46km/h | 3718m | -9.8m/s | 0.5°C | 100.0% | -1.0hPa | 2.6V | 00:00:00 | 00:00:00 | 00:00:00 | |
| OE3JTB-15 | 2026-08-31 03:45:33 | 48.43246 | 15.22491 | 14° | 47km/h | 3728m | -10.2m/s | 0.4°C | 0% | 0hPa | 2.6V | 00:00:00 | 01:56:42 | 00:00:00 | |
| OM5KV | 2026-08-31 03:45:32 | 48.43246 | 15.22491 | 14° | 47km/h | 3728m | -10.2m/s | 0.4°C | 0% | 0hPa | 2.6V | 00:00:00 | 00:00:00 | 00:00:00 | |
| OE5DRO-10 | 2026-08-31 03:45:31 | 48.43222 | 15.22482 | 16° | 47km/h | 3748m | -9.2m/s | 0.3°C | 0% | 0hPa | 2.6V | 00:00:00 | 00:00:00 | 00:00:00 | |
| OM5KV | 2026-08-31 03:45:30 | 48.43222 | 15.22482 | 17° | 46km/h | 3748m | -9.3m/s | 0.4°C | 0% | 0hPa | 2.6V | 00:00:00 | 00:00:00 | 00:00:00 | |
| OM5KV | 2026-08-31 03:45:25 | 48.43164 | 15.22460 | 13° | 47km/h | 3794m | -9.7m/s | -0.0°C | 0% | 0hPa | 2.6V | 00:00:00 | 00:00:00 | 00:00:00 | |
| OE5WHR-10 | 2026-08-31 03:45:24 | 48.43140 | 15.22451 | 17° | 47km/h | 3813m | -9.3m/s | -0.0°C | 0% | 0hPa | 2.6V | 00:00:00 | 00:00:00 | 00:00:00 | |
| PG1ADW-2 | 2026-08-31 03:45:21 | 48.43106 | 15.22438 | 15° | 47km/h | 3841m | -9.5m/s | -0.0°C | 0% | 0hPa | 2.7V | 00:00:00 | 00:00:00 | 00:00:00 | |
| OM5KV | 2026-08-31 03:45:20 | 48.43106 | 15.22438 | 15° | 49km/h | 3841m | -9.6m/s | -0.1°C | 0% | 0hPa | 2.6V | 00:00:00 | 00:00:00 | 00:00:00 | |
| OE5DRO-10 | 2026-08-31 03:45:15 | 48.43034 | 15.22413 | 14° | 46km/h | 3894m | -8.7m/s | -0.3°C | 0% | 0hPa | 2.6V | 00:00:00 | 00:00:00 | 00:00:00 | |
| OE3JTB-15 | 2026-08-31 03:45:14 | 48.43022 | 15.22409 | 11° | 46km/h | 3903m | -9.5m/s | -0.2°C | 0% | 0hPa | 2.6V | 00:00:00 | 00:00:00 | 00:00:00 | |
| OE5MMP-10 | 2026-08-31 03:45:09 | 48.42964 | 15.22387 | 14° | 47km/h | 3951m | -9.9m/s | -0.6°C | 0% | 0hPa | 2.6V | 00:00:00 | 01:56:18 | 00:00:00 | |
| OE5WHR-10 | 2026-08-31 03:45:07 | 48.42941 | 15.22377 | 17° | 46km/h | 3970m | -8.9m/s | -0.8°C | 0% | 0hPa | 2.6V | 00:00:00 | 00:00:00 | 00:00:00 | |
| OE5DXL-15 | 2026-08-31 03:45:06 | 48.42930 | 15.22372 | 15° | 46km/h | 3979m | -9.6m/s | -0.9°C | 0% | 0hPa | 2.6V | 00:00:00 | 00:00:00 | 00:00:00 | |
| OM5KV | 2026-08-31 03:45:03 | 48.42907 | 15.22364 | 17° | 46km/h | 3999m | -11.0m/s | -1.0°C | 100.0% | 0hPa | 2.6V | 08:13:00 | 00:00:00 | 00:00:00 | |
| PG1ADW-2 | 2026-08-31 03:45:01 | 48.42875 | 15.22351 | 12° | 46km/h | 4029m | -10.8m/s | -1.2°C | 0% | 0hPa | 2.6V | 00:00:00 | 00:00:00 | 00:00:00 | |
| OE5MMP-10 | 2026-08-31 03:44:59 | 48.42853 | 15.22342 | 18° | 46km/h | 4050m | -10.1m/s | -1.6°C | 0% | 0hPa | 2.6V | 08:12:00 | 01:56:08 | 00:00:00 | |
| S52SK | 2026-08-31 03:44:56 | 48.42830 | 15.22332 | 20° | 47km/h | 4071m | -10.7m/s | -1.8°C | 99.5% | 0hPa | 2.5V | 00:00:00 | 00:00:00 | 00:00:00 | |
| OE3JTB-15 | 2026-08-31 03:44:52 | 48.42777 | 15.22300 | 22° | 46km/h | 4122m | -10.4m/s | -2.1°C | 0% | 0hPa | 2.5V | 00:00:00 | 00:00:00 | 00:00:00 | |
| OM5KV | 2026-08-31 03:44:51 | 48.42777 | 15.22300 | 22° | 46km/h | 4122m | -10.5m/s | -2.1°C | 99.5% | 0hPa | 2.5V | 08:13:00 | 00:00:00 | 00:00:00 | |
| OE5WHR-10 | 2026-08-31 03:44:50 | 48.42756 | 15.22286 | 27° | 47km/h | 4143m | -10.6m/s | -2.2°C | 0% | 0hPa | 2.5V | 00:00:00 | 01:55:59 | 00:00:00 | |
| OE5MMP-10 | 2026-08-31 03:44:49 | 48.42745 | 15.22278 | 30° | 46km/h | 4154m | -10.1m/s | -2.2°C | 0% | 0hPa | 2.5V | 00:00:00 | 01:55:58 | 00:00:00 | |
| OM5KV | 2026-08-31 03:44:48 | 48.42745 | 15.22278 | 30° | 46km/h | 4154m | -10.2m/s | -2.3°C | 99.3% | 0hPa | 2.5V | 08:13:00 | 00:00:00 | 00:00:00 | |
| OM5KV | 2026-08-31 03:44:47 | 48.42725 | 15.22262 | 26° | 46km/h | 4174m | -11.3m/s | -2.4°C | 99.3% | 0hPa | 2.5V | 08:13:00 | 00:00:00 | 00:00:00 | |
| OE5DRO-10 | 2026-08-31 03:44:43 | 48.42683 | 15.22228 | 26° | 46km/h | 4216m | -10.8m/s | -2.6°C | 0% | 0hPa | 2.5V | 00:00:00 | 00:00:00 | 00:00:00 | |
| OM5KV | 2026-08-31 03:44:42 | 48.42682 | 15.22228 | 27° | 47km/h | 4216m | -10.9m/s | -2.6°C | 99.3% | 0hPa | 2.5V | 08:13:00 | 00:00:00 | 00:00:00 | |
| PG1ADW-2 | 2026-08-31 03:44:41 | 48.42661 | 15.22211 | 29° | 46km/h | 4239m | -11.5m/s | -2.7°C | 0% | 0hPa | 2.5V | 00:00:00 | 01:55:50 | 00:00:00 | |
| OM5KV | 2026-08-31 03:44:40 | 48.42661 | 15.22211 | 30° | 49km/h | 4239m | -11.6m/s | -2.7°C | 99.4% | 0hPa | 2.5V | 08:13:00 | 00:00:00 | 00:00:00 | |
| OM5KV | 2026-08-31 03:44:37 | 48.42629 | 15.22186 | 26° | 46km/h | 4270m | -11.6m/s | -2.9°C | 98.6% | 0hPa | 2.5V | 08:13:00 | 00:00:00 | 00:00:00 | |
| OE5DXL-15 | 2026-08-31 03:44:36 | 48.42608 | 15.22170 | 30° | 46km/h | 4294m | -11.8m/s | -3.2°C | 0% | 0hPa | 2.5V | 00:00:00 | 00:00:00 | 00:00:00 | |
| OM5KV | 2026-08-31 03:44:35 | 48.42608 | 15.22170 | 30° | 47km/h | 4294m | -11.9m/s | -3.3°C | 96.4% | 0hPa | 2.6V | 08:13:00 | 00:00:00 | 00:00:00 | |
| OE5WHR-10 | 2026-08-31 03:44:33 | 48.42578 | 15.22145 | 26° | 44km/h | 4328m | -12.2m/s | -3.3°C | 0% | 0hPa | 2.6V | 00:00:00 | 00:00:00 | 00:00:00 | |
| OM5KV | 2026-08-31 03:44:31 | 48.42568 | 15.22137 | 30° | 46km/h | 4340m | -12.7m/s | -3.6°C | 97.9% | 0hPa | 2.6V | 08:13:00 | 00:00:00 | 00:00:00 | |
| OM5KV | 2026-08-31 03:44:30 | 48.42559 | 15.22129 | 33° | 46km/h | 4353m | -12.0m/s | -3.6°C | 98.4% | 0hPa | 2.6V | 08:13:00 | 00:00:00 | 00:00:00 | |
| OE5DRO-10 | 2026-08-31 03:44:27 | 48.42521 | 15.22091 | 38° | 46km/h | 4399m | -11.0m/s | -3.8°C | 0% | 0hPa | 2.6V | 00:00:00 | 00:00:00 | 00:00:00 | |
| OM5KV | 2026-08-31 03:44:26 | 48.42521 | 15.22091 | 38° | 44km/h | 4399m | -11.1m/s | -3.8°C | 98.9% | 0hPa | 2.6V | 08:13:00 | 00:00:00 | 00:00:00 | |
| OM5KV | 2026-08-31 03:44:24 | 48.42503 | 15.22073 | 34° | 44km/h | 4422m | -12.5m/s | -4.0°C | 98.8% | 0hPa | 2.6V | 08:14:00 | 00:00:00 | 00:00:00 | |
| OE3JTB-15 | 2026-08-31 03:44:23 | 48.42484 | 15.22053 | 40° | 46km/h | 4446m | -10.9m/s | -4.0°C | 0% | 0hPa | 2.6V | 00:00:00 | 01:55:32 | 00:00:00 | |
| PG1ADW-2 | 2026-08-31 03:44:21 | 48.42467 | 15.22032 | 37° | 46km/h | 4468m | -11.8m/s | -4.3°C | 0% | 0hPa | 2.6V | 08:13:00 | 00:00:00 | 00:00:00 | |
| OM5KV | 2026-08-31 03:44:20 | 48.42467 | 15.22032 | 37° | 44km/h | 4468m | -11.8m/s | -4.3°C | 98.3% | 0hPa | 2.6V | 08:14:00 | 00:00:00 | 00:00:00 | |
| OM5KV | 2026-08-31 03:44:19 | 48.42458 | 15.22022 | 40° | 47km/h | 4479m | -11.6m/s | -4.3°C | 98.1% | 0hPa | 2.6V | 08:14:00 | 00:00:00 | 00:00:00 | |
| OE5WHR-10 | 2026-08-31 03:44:16 | 48.42422 | 15.21978 | 40° | 46km/h | 4524m | -11.8m/s | -4.8°C | 93.6% | 0hPa | 2.6V | 00:00:00 | 00:00:00 | 00:00:00 | |
| OE5MMP-10 | 2026-08-31 03:44:15 | 48.42412 | 15.21966 | 42° | 46km/h | 4536m | -11.0m/s | -4.8°C | 94.1% | 0hPa | 2.6V | 00:00:00 | 01:55:24 | 00:00:00 | |
| OE5DRO-10 | 2026-08-31 03:44:11 | 48.42377 | 15.21920 | 43° | 46km/h | 4581m | -11.9m/s | -5.1°C | 95.6% | 0hPa | 2.6V | 00:00:00 | 00:00:00 | 00:00:00 | |
| OM5KV | 2026-08-31 03:44:10 | 48.42377 | 15.21920 | 44° | 47km/h | 4581m | -11.9m/s | -5.1°C | 93.9% | 0hPa | 2.6V | 08:14:00 | 00:00:00 | 00:00:00 | |
| OM5KV | 2026-08-31 03:44:07 | 48.42351 | 15.21884 | 41° | 46km/h | 4615m | -11.8m/s | -5.3°C | 94.2% | 0hPa | 2.6V | 08:14:00 | 00:00:00 | 00:00:00 | |
| OE5DXL-15 | 2026-08-31 03:44:06 | 48.42334 | 15.21859 | 44° | 44km/h | 4638m | -11.4m/s | -5.4°C | 94.8% | 0hPa | 2.6V | 00:00:00 | 00:00:00 | 00:00:00 | |
| OE5MMP-10 | 2026-08-31 03:44:05 | 48.42325 | 15.21847 | 48° | 46km/h | 4649m | -11.4m/s | -5.5°C | 95.0% | 0hPa | 2.6V | 00:00:00 | 01:55:14 | 00:00:00 | |
| OE3OSB-13 | 2026-08-31 03:44:02 | 48.42291 | 15.21799 | 46° | 46km/h | 4694m | -10.9m/s | -5.9°C | 92.0% | -1.0hPa | 2.5V | 00:00:00 | 00:00:00 | 00:00:00 | |
| PG1ADW-2 | 2026-08-31 03:44:01 | 48.42291 | 15.21799 | 47° | 44km/h | 4694m | -10.8m/s | -5.8°C | 93.8% | 0hPa | 2.5V | 00:00:00 | 00:00:00 | 00:00:00 | |
| OE5WHR-10 | 2026-08-31 03:43:59 | 48.42275 | 15.21775 | 43° | 44km/h | 4716m | -11.6m/s | -5.9°C | 93.6% | 0hPa | 2.5V | 00:00:00 | 01:55:08 | 00:00:00 | |
| OM5KV | 2026-08-31 03:43:57 | 48.42267 | 15.21763 | 44° | 46km/h | 4727m | -12.1m/s | -6.1°C | 91.9% | 0hPa | 2.5V | 08:14:00 | 00:00:00 | 00:00:00 | |
| OE5MMP-10 | 2026-08-31 03:43:55 | 48.42242 | 15.21726 | 45° | 44km/h | 4761m | -11.3m/s | -6.2°C | 95.8% | 0hPa | 2.5V | 00:00:00 | 01:55:04 | 00:00:00 | |
| OE3JTB-15 | 2026-08-31 03:43:54 | 48.42235 | 15.21715 | 45° | 42km/h | 4772m | -11.7m/s | -6.3°C | 96.6% | 0hPa | 2.5V | 00:00:00 | 00:00:00 | 00:00:00 | |
| OM5KV | 2026-08-31 03:43:47 | 48.42190 | 15.21639 | 56° | 44km/h | 4841m | -11.4m/s | -6.5°C | 99.0% | 0hPa | 2.5V | 08:14:00 | 00:00:00 | 00:00:00 | |
| OM5KV | 2026-08-31 03:43:46 | 48.42184 | 15.21626 | 55° | 42km/h | 4852m | -11.1m/s | -6.4°C | 99.2% | 0hPa | 2.5V | 08:14:00 | 00:00:00 | 00:00:00 | |
| OE5MMP-10 | 2026-08-31 03:43:45 | 48.42171 | 15.21600 | 55° | 40km/h | 4875m | -12.3m/s | -6.4°C | 0% | 0hPa | 2.5V | 00:00:00 | 01:54:54 | 00:00:00 | |
| OE5WHR-10 | 2026-08-31 03:43:42 | 48.42155 | 15.21561 | 58° | 40km/h | 4910m | -12.1m/s | -6.4°C | 0% | 0hPa | 2.5V | 08:14:00 | 00:00:00 | 00:00:00 | |
| PG1ADW-2 | 2026-08-31 03:43:41 | 48.42150 | 15.21549 | 60° | 40km/h | 4922m | -12.6m/s | -6.4°C | 0% | 0hPa | 2.6V | 00:00:00 | 00:00:00 | 00:00:00 | |
| OM5KV | 2026-08-31 03:43:40 | 48.42150 | 15.21549 | 61° | 40km/h | 4922m | -12.7m/s | -6.5°C | 98.1% | 0hPa | 2.6V | 08:14:00 | 00:00:00 | 00:00:00 | |
| OE5DRO-10 | 2026-08-31 03:43:39 | 48.42140 | 15.21521 | 65° | 40km/h | 4947m | -11.3m/s | -6.5°C | 98.6% | 0hPa | 2.6V | 00:00:00 | 00:00:00 | 00:00:00 | |
| OE5DXL-15 | 2026-08-31 03:43:36 | 48.42125 | 15.21480 | 61° | 40km/h | 4981m | -11.5m/s | -6.8°C | 0% | 0hPa | 2.6V | 00:00:00 | 00:00:00 | 00:00:00 | |
| OE5MMP-10 | 2026-08-31 03:43:35 | 48.42120 | 15.21466 | 64° | 40km/h | 4992m | -10.5m/s | -6.9°C | 0% | 0hPa | 2.6V | 00:00:00 | 01:54:44 | 00:00:00 | |
| S52SK | 2026-08-31 03:43:34 | 48.42119 | 15.21466 | 64° | 40km/h | 4992m | -10.6m/s | -6.9°C | 97.8% | 0hPa | 2.6V | 00:00:00 | 00:00:00 | 00:00:00 | |
| OE3OSB-13 | 2026-08-31 03:43:31 | 48.42099 | 15.21397 | 71° | 40km/h | 5047m | -11.7m/s | -7.3°C | 97.9% | -1.0hPa | 2.6V | 00:00:00 | 00:00:00 | 00:00:00 | |
| OM5KV | 2026-08-31 03:43:29 | 48.42099 | 15.21397 | 72° | 40km/h | 5047m | -11.7m/s | -7.3°C | 98.0% | 0hPa | 2.6V | 08:15:00 | 00:00:00 | 00:00:00 | |
| OM5KV | 2026-08-31 03:43:28 | 48.42095 | 15.21383 | 76° | 40km/h | 5059m | -11.2m/s | -7.4°C | 98.0% | 0hPa | 2.6V | 08:15:00 | 00:00:00 | 00:00:00 | |
| OE5MMP-10 | 2026-08-31 03:43:25 | 48.42084 | 15.21325 | 74° | 40km/h | 5105m | -11.8m/s | -7.6°C | 0% | 0hPa | 2.6V | 00:00:00 | 01:54:34 | 00:00:00 | |
| OE3JTB-15 | 2026-08-31 03:43:24 | 48.42082 | 15.21309 | 78° | 42km/h | 5117m | -10.9m/s | -7.6°C | 0% | 0hPa | 2.6V | 00:00:00 | 00:00:00 | 00:00:00 | |
| OE5DRO-10 | 2026-08-31 03:43:23 | 48.42079 | 15.21294 | 79° | 40km/h | 5128m | -11.0m/s | -7.7°C | 0% | 0hPa | 2.6V | 08:14:00 | 00:00:00 | 00:00:00 | |
| PG1ADW-2 | 2026-08-31 03:43:21 | 48.42075 | 15.21265 | 76° | 42km/h | 5150m | -12.2m/s | -7.8°C | 0% | 0hPa | 2.6V | 00:00:00 | 01:54:30 | 00:00:00 | |
| OM5KV | 2026-08-31 03:43:18 | 48.42070 | 15.21236 | 80° | 40km/h | 5174m | -11.7m/s | -8.0°C | 98.6% | 0hPa | 2.6V | 08:15:00 | 00:00:00 | 00:00:00 | |
| OM5KV | 2026-08-31 03:43:17 | 48.42069 | 15.21221 | 82° | 40km/h | 5185m | -11.1m/s | -8.0°C | 98.5% | 0hPa | 2.6V | 08:15:00 | 00:00:00 | 00:00:00 | |
| OE5MMP-10 | 2026-08-31 03:43:15 | 48.42062 | 15.21177 | 78° | 42km/h | 5219m | -12.3m/s | -8.2°C | 0% | 0hPa | 2.6V | 00:00:00 | 01:54:24 | 00:00:00 | |
| OM5KV | 2026-08-31 03:43:13 | 48.42060 | 15.21162 | 79° | 42km/h | 5231m | -11.8m/s | -8.4°C | 98.4% | 0hPa | 2.6V | 08:15:00 | 00:00:00 | 00:00:00 | |
| OE5WHR-10 | 2026-08-31 03:43:08 | 48.42049 | 15.21068 | 81° | 44km/h | 5301m | -12.3m/s | -8.7°C | 0% | 0hPa | 2.6V | 00:00:00 | 01:54:17 | 00:00:00 | |
| OE5DRO-10 | 2026-08-31 03:43:07 | 48.42047 | 15.21052 | 85° | 44km/h | 5313m | -11.5m/s | -8.7°C | 0% | 0hPa | 2.6V | 00:00:00 | 00:00:00 | 00:00:00 | |
| OE5DXL-15 | 2026-08-31 03:43:06 | 48.42046 | 15.21036 | 81° | 47km/h | 5324m | -11.9m/s | -8.8°C | 0% | 0hPa | 2.6V | 08:14:00 | 00:00:00 | 00:00:00 | |
| OE5MMP-10 | 2026-08-31 03:43:05 | 48.42044 | 15.21020 | 81° | 44km/h | 5336m | -12.0m/s | -8.9°C | 0% | 0hPa | 2.6V | 08:14:00 | 01:54:14 | 00:00:00 | |
| OM5KV | 2026-08-31 03:43:01 | 48.42038 | 15.20972 | 78° | 42km/h | 5369m | -11.5m/s | -9.1°C | 97.5% | 0hPa | 2.6V | 08:15:00 | 00:00:00 | 00:00:00 | |
| OE3OSB-13 | 2026-08-31 03:43:00 | 48.42031 | 15.20922 | 80° | 42km/h | 5402m | -10.6m/s | -9.4°C | 98.7% | -1.0hPa | 2.6V | 00:00:00 | 00:00:00 | 00:00:00 | |
| OE5MMP-10 | 2026-08-31 03:42:55 | 48.42022 | 15.20856 | 79° | 47km/h | 5447m | -11.1m/s | -9.6°C | 0% | 0hPa | 2.6V | 00:00:00 | 01:54:04 | 00:00:00 | |
| OM5KV | 2026-08-31 03:42:53 | 48.42019 | 15.20839 | 80° | 46km/h | 5458m | -11.4m/s | -9.7°C | 98.8% | 0hPa | 2.6V | 08:15:00 | 00:00:00 | 00:00:00 | |
| OE5WHR-10 | 2026-08-31 03:42:51 | 48.42010 | 15.20789 | 73° | 51km/h | 5492m | -11.3m/s | -9.9°C | 0% | 0hPa | 2.6V | 00:00:00 | 00:00:00 | 00:00:00 | |
| OM5KV | 2026-08-31 03:42:50 | 48.42010 | 15.20789 | 74° | 47km/h | 5492m | -11.3m/s | -10.0°C | 98.5% | 0hPa | 2.5V | 08:15:00 | 00:00:00 | 00:00:00 | |
| OM5KV | 2026-08-31 03:42:47 | 48.41999 | 15.20737 | 73° | 47km/h | 5525m | -11.3m/s | -10.1°C | 98.6% | 0hPa | 2.5V | 08:15:00 | 00:00:00 | 00:00:00 | |
| OE5MMP-10 | 2026-08-31 03:42:45 | 48.41988 | 15.20682 | 76° | 53km/h | 5558m | -11.4m/s | -9.8°C | 96.8% | 0hPa | 2.5V | 00:00:00 | 01:53:54 | 00:00:00 | |
| OM5KV | 2026-08-31 03:42:44 | 48.41988 | 15.20682 | 77° | 53km/h | 5558m | -11.4m/s | -9.9°C | 94.5% | 0hPa | 2.5V | 08:15:00 | 00:00:00 | 00:00:00 | |
| OM5KV | 2026-08-31 03:42:42 | 48.41981 | 15.20644 | 75° | 51km/h | 5580m | -11.5m/s | -10.0°C | 94.8% | 0hPa | 2.5V | 08:16:00 | 00:00:00 | 00:00:00 | |
| PG1ADW-2 | 2026-08-31 03:42:41 | 48.41974 | 15.20607 | 74° | 51km/h | 5604m | -12.0m/s | -10.1°C | 95.8% | 0hPa | 2.5V | 00:00:00 | 00:00:00 | 00:00:00 | |
| OM5KV | 2026-08-31 03:42:38 | 48.41966 | 15.20567 | 77° | 53km/h | 5627m | -10.8m/s | -10.2°C | 93.3% | 0hPa | 2.5V | 08:16:00 | 00:00:00 | 00:00:00 | |
| OE5DXL-15 | 2026-08-31 03:42:36 | 48.41956 | 15.20510 | 74° | 51km/h | 5660m | -12.0m/s | -10.4°C | 95.4% | 0hPa | 2.5V | 00:00:00 | 00:00:00 | 00:00:00 | |
| OE5MMP-10 | 2026-08-31 03:42:35 | 48.41952 | 15.20491 | 76° | 51km/h | 5672m | -12.4m/s | -10.5°C | 95.6% | 0hPa | 2.5V | 00:00:00 | 01:53:44 | 00:00:00 | |
| OM5KV | 2026-08-31 03:42:31 | 48.41943 | 15.20433 | 77° | 51km/h | 5706m | -11.7m/s | -10.7°C | 91.7% | 0hPa | 2.6V | 08:16:00 | 00:00:00 | 00:00:00 | |
| OE3OSB-13 | 2026-08-31 03:42:28 | 48.41929 | 15.20357 | 76° | 49km/h | 5752m | -10.4m/s | -11.1°C | 93.6% | -1.0hPa | 2.6V | 00:00:00 | 00:00:00 | 00:00:00 | |
| OM5KV | 2026-08-31 03:42:27 | 48.41929 | 15.20357 | 78° | 51km/h | 5752m | -10.4m/s | -11.1°C | 93.6% | 0hPa | 2.6V | 08:16:00 | 00:00:00 | 00:00:00 | |
| OE3JTB-15 | 2026-08-31 03:42:26 | 48.41922 | 15.20320 | 72° | 53km/h | 5774m | -12.0m/s | -11.2°C | 97.0% | 0hPa | 2.6V | 08:15:00 | 00:00:00 | 00:00:00 | |
| OE5MMP-10 | 2026-08-31 03:42:25 | 48.41918 | 15.20302 | 73° | 49km/h | 5786m | -11.7m/s | -11.2°C | 96.3% | 0hPa | 2.6V | 00:00:00 | 01:53:34 | 00:00:00 | |
| OM5KV | 2026-08-31 03:42:22 | 48.41911 | 15.20266 | 73° | 47km/h | 5808m | -10.8m/s | -11.4°C | 94.6% | 0hPa | 2.6V | 08:16:00 | 00:00:00 | 00:00:00 | |
| PG1ADW-2 | 2026-08-31 03:42:21 | 48.41903 | 15.20232 | 71° | 53km/h | 5831m | -11.9m/s | -11.5°C | 97.8% | 0hPa | 2.6V | 00:00:00 | 00:00:00 | 00:00:00 | |
| OE5DRO-10 | 2026-08-31 03:42:19 | 48.41894 | 15.20196 | 73° | 53km/h | 5853m | -10.5m/s | -11.6°C | 0% | 0hPa | 2.5V | 00:00:00 | 00:00:00 | 00:00:00 | |
| S52SK | 2026-08-31 03:42:18 | 48.41894 | 15.20196 | 73° | 47km/h | 5853m | -10.5m/s | -11.7°C | 96.1% | 0hPa | 2.5V | 00:00:00 | 00:00:00 | 00:00:00 | |
| OE5WHR-10 | 2026-08-31 03:42:17 | 48.41886 | 15.20163 | 67° | 53km/h | 5874m | -11.3m/s | -11.9°C | 0% | 0hPa | 2.5V | 00:00:00 | 01:53:26 | 00:00:00 | |
| OM5KV | 2026-08-31 03:42:16 | 48.41886 | 15.20163 | 67° | 47km/h | 5874m | -11.3m/s | -11.9°C | 98.1% | 0hPa | 2.5V | 08:16:00 | 00:00:00 | 00:00:00 | |
| OE5MMP-10 | 2026-08-31 03:42:15 | 48.41876 | 15.20129 | 66° | 53km/h | 5896m | -11.0m/s | -12.0°C | 0% | 0hPa | 2.5V | 00:00:00 | 01:53:24 | 00:00:00 | |
| S52SK | 2026-08-31 03:42:12 | 48.41866 | 15.20094 | 66° | 51km/h | 5917m | -11.6m/s | -11.6°C | 85.6% | 0hPa | 2.5V | 00:00:00 | 00:00:00 | 00:00:00 | |
| OM5KV | 2026-08-31 03:42:11 | 48.41860 | 15.20076 | 64° | 53km/h | 5929m | -12.1m/s | -11.2°C | 73.2% | 0hPa | 2.5V | 08:16:00 | 00:00:00 | 00:00:00 | |
| OM5KV | 2026-08-31 03:42:07 | 48.41836 | 15.20000 | 67° | 55km/h | 5974m | -11.8m/s | -11.0°C | 62.1% | 0hPa | 2.5V | 08:16:00 | 00:00:00 | 00:00:00 | |
| OE5DXL-15 | 2026-08-31 03:42:06 | 48.41825 | 15.19963 | 65° | 62km/h | 5997m | -12.2m/s | -11.1°C | 63.3% | 0hPa | 2.5V | 00:00:00 | 00:00:00 | 00:00:00 | |
| OE5MMP-10 | 2026-08-31 03:42:05 | 48.41818 | 15.19944 | 65° | 57km/h | 6009m | -11.8m/s | -11.2°C | 62.5% | 0hPa | 2.5V | 00:00:00 | 01:53:14 | 00:00:00 | |
| OE3OSB-13 | 2026-08-31 03:41:58 | 48.41771 | 15.19789 | 64° | 55km/h | 6100m | -11.4m/s | -12.1°C | 61.5% | -1.0hPa | 2.5V | 00:00:00 | 00:00:00 | 00:00:00 | |
| OE3JTB-15 | 2026-08-31 03:41:57 | 48.41771 | 15.19789 | 65° | 66km/h | 6101m | -11.4m/s | -12.0°C | 63.3% | 0hPa | 2.5V | 00:00:00 | 00:00:00 | 00:00:00 | |
| DO3MHA-12 | 2026-08-31 03:41:56 | 48.41757 | 15.19751 | 64° | 62km/h | 6123m | -12.0m/s | -12.2°C | 62.7% | 0hPa | 2.5V | 00:00:00 | 01:53:04 | 00:00:00 | |
| OE5MMP-10 | 2026-08-31 03:41:55 | 48.41757 | 15.19751 | 64° | 62km/h | 6123m | -12.0m/s | -12.2°C | 62.7% | 0hPa | 2.5V | 00:00:00 | 01:53:04 | 00:00:00 | |
| OM5KV | 2026-08-31 03:41:50 | 48.41730 | 15.19670 | 63° | 64km/h | 6169m | -11.4m/s | -12.6°C | 60.5% | 0hPa | 2.5V | 08:16:00 | 00:00:00 | 00:00:00 | |
| OM5KV | 2026-08-31 03:41:47 | 48.41707 | 15.19606 | 60° | 64km/h | 6202m | -11.8m/s | -12.5°C | 52.4% | 0hPa | 2.5V | 08:16:00 | 00:00:00 | 00:00:00 | |
| OE5MMP-10 | 2026-08-31 03:41:45 | 48.41682 | 15.19539 | 62° | 69km/h | 6237m | -11.8m/s | -12.2°C | 43.6% | 0hPa | 2.5V | 00:00:00 | 01:52:54 | 00:00:00 | |
| OE5DRO-10 | 2026-08-31 03:41:44 | 48.41673 | 15.19517 | 61° | 68km/h | 6248m | -11.7m/s | -12.3°C | 42.8% | 0hPa | 2.5V | 00:00:00 | 00:00:00 | 00:00:00 | |
| PG1ADW-2 | 2026-08-31 03:41:41 | 48.41645 | 15.19450 | 59° | 68km/h | 6284m | -12.6m/s | -12.4°C | 43.8% | 0hPa | 2.5V | 00:00:00 | 00:00:00 | 00:00:00 | |
| OE5WHR-10 | 2026-08-31 03:41:39 | 48.41627 | 15.19403 | 60° | 68km/h | 6308m | -11.3m/s | -12.6°C | 44.6% | 0hPa | 2.5V | 00:00:00 | 00:00:00 | 00:00:00 | |
| OE5DXL-15 | 2026-08-31 03:41:36 | 48.41599 | 15.19336 | 59° | 68km/h | 6343m | -12.6m/s | -12.9°C | 43.3% | 0hPa | 2.5V | 00:00:00 | 00:00:00 | 00:00:00 | |
| OE5MMP-10 | 2026-08-31 03:41:35 | 48.41590 | 15.19313 | 59° | 68km/h | 6355m | -12.0m/s | -13.0°C | 43.0% | 0hPa | 2.6V | 08:16:00 | 01:52:44 | 00:00:00 | |
| OE3JTB-15 | 2026-08-31 03:41:28 | 48.41529 | 15.19156 | 63° | 68km/h | 6439m | -11.7m/s | -13.7°C | 40.2% | 0hPa | 2.5V | 00:00:00 | 01:52:37 | 00:00:00 | |
| OE3OSB-13 | 2026-08-31 03:41:26 | 48.41513 | 15.19114 | 59° | 62km/h | 6462m | -12.8m/s | -13.9°C | 39.0% | -1.0hPa | 2.5V | 00:00:00 | 00:00:00 | 00:00:00 | |
| OE5MMP-10 | 2026-08-31 03:41:25 | 48.41505 | 15.19093 | 61° | 66km/h | 6475m | -12.8m/s | -13.9°C | 41.1% | 0hPa | 2.5V | 00:00:00 | 01:52:34 | 00:00:00 | |
| PG1ADW-2 | 2026-08-31 03:41:21 | 48.41475 | 15.19006 | 62° | 68km/h | 6523m | -12.6m/s | -14.0°C | 38.5% | 0hPa | 2.5V | 08:16:00 | 00:00:00 | 00:00:00 | |
| OE5WHR-10 | 2026-08-31 03:41:18 | 48.41453 | 15.18939 | 67° | 69km/h | 6561m | -13.2m/s | -14.3°C | 36.4% | 0hPa | 2.6V | 00:00:00 | 01:52:27 | 00:00:00 | |
| OM5KV | 2026-08-31 03:41:17 | 48.41453 | 15.18939 | 68° | 68km/h | 6561m | -13.3m/s | -14.3°C | 35.0% | 0hPa | 2.6V | 08:16:00 | 00:00:00 | 00:00:00 | |
| OE5MMP-10 | 2026-08-31 03:41:15 | 48.41432 | 15.18871 | 63° | 68km/h | 6598m | -13.0m/s | -14.5°C | 31.3% | 0hPa | 2.6V | 00:00:00 | 01:52:24 | 00:00:00 | |
| OM5KV | 2026-08-31 03:41:12 | 48.41417 | 15.18825 | 66° | 69km/h | 6625m | -13.5m/s | -14.7°C | 29.8% | 0hPa | 2.6V | 08:16:00 | 00:00:00 | 00:00:00 | |
| OM5KV | 2026-08-31 03:41:11 | 48.41409 | 15.18801 | 66° | 69km/h | 6638m | -12.4m/s | -14.8°C | 32.4% | 0hPa | 2.6V | 08:16:00 | 00:00:00 | 00:00:00 | |
| OM5KV | 2026-08-31 03:41:07 | 48.41379 | 15.18709 | 64° | 69km/h | 6689m | -14.0m/s | -15.3°C | 30.3% | 0hPa | 2.6V | 08:16:00 | 00:00:00 | 00:00:00 | |
| OE5DXL-15 | 2026-08-31 03:41:06 | 48.41363 | 15.18661 | 66° | 69km/h | 6716m | -12.7m/s | -15.4°C | 31.8% | 0hPa | 2.6V | 00:00:00 | 00:00:00 | 00:00:00 | |
| DO3MHA-12 | 2026-08-31 03:41:05 | 48.41356 | 15.18637 | 65° | 69km/h | 6729m | -12.8m/s | -15.5°C | 32.3% | 0hPa | 2.6V | 00:00:00 | 01:52:14 | 00:00:00 | |
| PG1ADW-2 | 2026-08-31 03:41:01 | 48.41323 | 15.18542 | 65° | 69km/h | 6782m | -12.6m/s | -16.0°C | 35.7% | 0hPa | 2.6V | 00:00:00 | 00:00:00 | 00:00:00 | |
| S52SK | 2026-08-31 03:41:00 | 48.41323 | 15.18542 | 66° | 71km/h | 6782m | -12.7m/s | -16.1°C | 34.1% | 0hPa | 2.6V | 00:00:00 | 00:00:00 | 00:00:00 | |
| OE3JTB-15 | 2026-08-31 03:40:59 | 48.41308 | 15.18493 | 64° | 68km/h | 6808m | -13.5m/s | -16.3°C | 36.2% | 0hPa | 2.6V | 00:00:00 | 00:00:00 | 00:00:00 | |
| OE5WHR-10 | 2026-08-31 03:40:57 | 48.41292 | 15.18446 | 64° | 69km/h | 6836m | -14.2m/s | -16.6°C | 36.9% | 0hPa | 2.5V | 08:16:00 | 00:00:00 | 00:00:00 | |
| OM5KV | 2026-08-31 03:40:56 | 48.41292 | 15.18446 | 65° | 71km/h | 6836m | -14.3m/s | -16.6°C | 35.4% | 0hPa | 2.6V | 08:17:00 | 00:00:00 | 00:00:00 | |
| OE5MMP-10 | 2026-08-31 03:40:55 | 48.41276 | 15.18397 | 66° | 71km/h | 6863m | -12.9m/s | -16.8°C | 38.6% | 0hPa | 2.6V | 00:00:00 | 01:52:04 | 00:00:00 | |
| OM5KV | 2026-08-31 03:40:51 | 48.41253 | 15.18325 | 64° | 71km/h | 6903m | -14.4m/s | -17.3°C | 38.6% | 0hPa | 2.6V | 08:17:00 | 00:00:00 | 00:00:00 | |
| OM5KV | 2026-08-31 03:40:50 | 48.41245 | 15.18300 | 65° | 73km/h | 6917m | -14.0m/s | -17.4°C | 39.6% | 0hPa | 2.6V | 08:17:00 | 00:00:00 | 00:00:00 | |
| OE5DRO-10 | 2026-08-31 03:40:47 | 48.41214 | 15.18203 | 64° | 66km/h | 6970m | -14.0m/s | -17.8°C | 39.5% | 0hPa | 2.6V | 08:17:00 | 00:00:00 | 00:00:00 | |
| DO3MHA-12 | 2026-08-31 03:40:45 | 48.41199 | 15.18154 | 69° | 66km/h | 6997m | -13.3m/s | -17.9°C | 31.2% | 0hPa | 2.6V | 00:00:00 | 01:51:54 | 00:00:00 | |
| PG1ADW-2 | 2026-08-31 03:40:41 | 48.41171 | 15.18061 | 68° | 66km/h | 7051m | -13.4m/s | -18.1°C | 21.0% | 0hPa | 2.6V | 00:00:00 | 01:51:50 | 00:00:00 | |
| OM5KV | 2026-08-31 03:40:40 | 48.41171 | 15.18061 | 68° | 68km/h | 7051m | -13.5m/s | -18.1°C | 19.9% | 0hPa | 2.6V | 08:17:00 | 00:00:00 | 00:00:00 | |
| OM5KV | 2026-08-31 03:40:39 | 48.41165 | 15.18038 | 71° | 66km/h | 7064m | -12.7m/s | -18.2°C | 20.0% | 0hPa | 2.6V | 08:17:00 | 00:00:00 | 00:00:00 | |
| OE5WHR-10 | 2026-08-31 03:40:36 | 48.41141 | 15.17947 | 70° | 68km/h | 7117m | -14.1m/s | -18.7°C | 21.0% | 0hPa | 2.6V | 00:00:00 | 00:00:00 | 00:00:00 | |
| OE5MMP-10 | 2026-08-31 03:40:35 | 48.41136 | 15.17923 | 70° | 64km/h | 7130m | -13.7m/s | -18.8°C | 20.2% | 0hPa | 2.6V | 00:00:00 | 01:51:44 | 00:00:00 | |
| OM5KV | 2026-08-31 03:40:34 | 48.41135 | 15.17923 | 71° | 66km/h | 7130m | -13.8m/s | -18.8°C | 19.1% | 0hPa | 2.6V | 08:17:00 | 00:00:00 | 00:00:00 | |
| OM5KV | 2026-08-31 03:40:33 | 48.41130 | 15.17899 | 73° | 64km/h | 7144m | -13.4m/s | -18.9°C | 18.7% | 0hPa | 2.6V | 08:17:00 | 00:00:00 | 00:00:00 | |
| OE3JTB-15 | 2026-08-31 03:40:30 | 48.41109 | 15.17808 | 73° | 71km/h | 7199m | -13.4m/s | -19.1°C | 22.5% | 0hPa | 2.6V | 00:00:00 | 00:00:00 | 00:00:00 | |
| OE5DRO-10 | 2026-08-31 03:40:28 | 48.41099 | 15.17761 | 73° | 69km/h | 7225m | -13.4m/s | -19.3°C | 18.8% | 0hPa | 2.6V | 00:00:00 | 00:00:00 | 00:00:00 | |
| OM5KV | 2026-08-31 03:40:27 | 48.41099 | 15.17761 | 73° | 62km/h | 7225m | -13.5m/s | -19.3°C | 17.7% | 0hPa | 2.6V | 08:17:00 | 00:00:00 | 00:00:00 | |
| OE5MMP-10 | 2026-08-31 03:40:25 | 48.41084 | 15.17690 | 73° | 69km/h | 7267m | -13.7m/s | -19.6°C | 15.0% | 0hPa | 2.6V | 00:00:00 | 01:51:34 | 00:00:00 | |
| OE3OSB-13 | 2026-08-31 03:40:24 | 48.41079 | 15.17666 | 73° | 68km/h | 7280m | -13.3m/s | -19.8°C | 13.7% | -1.0hPa | 2.6V | 00:00:00 | 00:00:00 | 00:00:00 | |
| OM5KV | 2026-08-31 03:40:23 | 48.41079 | 15.17666 | 74° | 68km/h | 7280m | -13.3m/s | -19.8°C | 13.7% | 0hPa | 2.6V | 08:17:00 | 00:00:00 | 00:00:00 | |
| OM5KV | 2026-08-31 03:40:22 | 48.41073 | 15.17641 | 72° | 66km/h | 7294m | -13.8m/s | -19.9°C | 13.5% | 0hPa | 2.6V | 08:17:00 | 00:00:00 | 00:00:00 | |
| PG1ADW-2 | 2026-08-31 03:40:21 | 48.41062 | 15.17592 | 73° | 73km/h | 7322m | -14.9m/s | -20.0°C | 14.7% | 0hPa | 2.6V | 00:00:00 | 00:00:00 | 00:00:00 | |
| OM5KV | 2026-08-31 03:40:17 | 48.41046 | 15.17516 | 71° | 69km/h | 7364m | -14.1m/s | -20.4°C | 14.0% | 0hPa | 2.5V | 08:17:00 | 00:00:00 | 00:00:00 | |
| OM5KV | 2026-08-31 03:40:16 | 48.41040 | 15.17491 | 71° | 71km/h | 7378m | -14.7m/s | -20.5°C | 14.1% | 0hPa | 2.5V | 08:17:00 | 00:00:00 | 00:00:00 | |
| OE5MMP-10 | 2026-08-31 03:40:15 | 48.41027 | 15.17438 | 72° | 73km/h | 7406m | -13.7m/s | -20.7°C | 15.4% | 0hPa | 2.5V | 00:00:00 | 01:51:24 | 00:00:00 | |
| OM5KV | 2026-08-31 03:40:11 | 48.41010 | 15.17360 | 70° | 71km/h | 7449m | -14.8m/s | -21.0°C | 14.7% | 0hPa | 2.5V | 08:17:00 | 00:00:00 | 00:00:00 | |
| OM5KV | 2026-08-31 03:40:10 | 48.41003 | 15.17334 | 71° | 75km/h | 7463m | -14.9m/s | -21.2°C | 14.8% | 0hPa | 2.5V | 08:18:00 | 00:00:00 | 00:00:00 | |
| OE5DRO-10 | 2026-08-31 03:40:09 | 48.40991 | 15.17280 | 72° | 75km/h | 7492m | -13.6m/s | -21.4°C | 16.1% | 0hPa | 2.5V | 00:00:00 | 00:00:00 | 00:00:00 | |
| OE5DXL-15 | 2026-08-31 03:40:06 | 48.40971 | 15.17201 | 70° | 75km/h | 7534m | -14.8m/s | -21.7°C | 16.5% | 0hPa | 2.5V | 00:00:00 | 00:00:00 | 00:00:00 | |
| OE5MMP-10 | 2026-08-31 03:40:05 | 48.40965 | 15.17174 | 71° | 75km/h | 7549m | -14.1m/s | -21.9°C | 16.6% | 0hPa | 2.5V | 08:17:00 | 01:51:14 | 00:00:00 | |
| OM5KV | 2026-08-31 03:40:04 | 48.40965 | 15.17175 | 71° | 77km/h | 7549m | -14.1m/s | -21.9°C | 15.5% | 0hPa | 2.6V | 08:18:00 | 00:00:00 | 00:00:00 | |
| OE3OSB-13 | 2026-08-31 03:39:53 | 48.40889 | 15.16851 | 71° | 73km/h | 7718m | -13.7m/s | -23.5°C | 17.3% | -1.0hPa | 2.6V | 00:00:00 | 00:00:00 | 00:00:00 | |
| OM5KV | 2026-08-31 03:39:52 | 48.40889 | 15.16851 | 72° | 73km/h | 7718m | -13.7m/s | -23.5°C | 17.3% | 0hPa | 2.6V | 08:18:00 | 00:00:00 | 00:00:00 | |
| OM5KV | 2026-08-31 03:39:48 | 48.40863 | 15.16744 | 73° | 75km/h | 7773m | -13.3m/s | -24.0°C | 18.0% | 0hPa | 2.6V | 08:18:00 | 00:00:00 | 00:00:00 | |
| OM5KV | 2026-08-31 03:39:46 | 48.40851 | 15.16691 | 71° | 73km/h | 7800m | -14.2m/s | -24.3°C | 18.2% | 0hPa | 2.6V | 08:18:00 | 00:00:00 | 00:00:00 | |
| OE5MMP-10 | 2026-08-31 03:39:45 | 48.40838 | 15.16637 | 72° | 73km/h | 7828m | -14.1m/s | -24.5°C | 19.7% | 0hPa | 2.6V | 00:00:00 | 01:50:54 | 00:00:00 | |
| OM5KV | 2026-08-31 03:39:42 | 48.40827 | 15.16583 | 73° | 73km/h | 7855m | -13.7m/s | -24.8°C | 18.4% | 0hPa | 2.6V | 08:18:00 | 00:00:00 | 00:00:00 | |
| PG1ADW-2 | 2026-08-31 03:39:41 | 48.40815 | 15.16532 | 72° | 75km/h | 7882m | -14.7m/s | -24.9°C | 20.3% | 0hPa | 2.6V | 00:00:00 | 00:00:00 | 00:00:00 | |
| OM5KV | 2026-08-31 03:39:40 | 48.40815 | 15.16532 | 73° | 73km/h | 7882m | -14.8m/s | -25.0°C | 18.8% | 0hPa | 2.6V | 08:18:00 | 00:00:00 | 00:00:00 | |
| OE5DXL-15 | 2026-08-31 03:39:36 | 48.40788 | 15.16399 | 73° | 77km/h | 7951m | -14.7m/s | -25.5°C | 20.5% | 0hPa | 2.6V | 00:00:00 | 00:00:00 | 00:00:00 | |
| OE5MMP-10 | 2026-08-31 03:39:35 | 48.40782 | 15.16372 | 74° | 73km/h | 7966m | -14.3m/s | -25.6°C | 20.6% | 0hPa | 2.6V | 00:00:00 | 01:50:44 | 00:00:00 | |
| OM5KV | 2026-08-31 03:39:34 | 48.40782 | 15.16372 | 74° | 75km/h | 7966m | -14.3m/s | -25.7°C | 19.1% | 0hPa | 2.5V | 08:18:00 | 00:00:00 | 00:00:00 | |
| OE5WHR-10 | 2026-08-31 03:39:33 | 48.40772 | 15.16318 | 74° | 77km/h | 7993m | -13.8m/s | -25.9°C | 21.1% | 0hPa | 2.5V | 00:00:00 | 00:00:00 | 00:00:00 | |
| OE3JTB-15 | 2026-08-31 03:39:32 | 48.40767 | 15.16292 | 72° | 77km/h | 8007m | -14.1m/s | -26.0°C | 21.6% | 0hPa | 2.5V | 00:00:00 | 00:00:00 | 00:00:00 | |
| OE5DRO-10 | 2026-08-31 03:39:31 | 48.40761 | 15.16265 | 74° | 77km/h | 8021m | -14.8m/s | -26.1°C | 22.4% | 0hPa | 2.6V | 00:00:00 | 00:00:00 | 00:00:00 | |
| OE5MMP-10 | 2026-08-31 03:39:25 | 48.40731 | 15.16102 | 77° | 77km/h | 8106m | -13.3m/s | -26.8°C | 22.7% | 0hPa | 2.6V | 00:00:00 | 01:50:34 | 00:00:00 | |
| OM5KV | 2026-08-31 03:39:23 | 48.40727 | 15.16075 | 76° | 75km/h | 8119m | -13.7m/s | -26.9°C | 21.0% | 0hPa | 2.6V | 08:18:00 | 00:00:00 | 00:00:00 | |
| OE3OSB-13 | 2026-08-31 03:39:22 | 48.40712 | 15.15991 | 76° | 78km/h | 8160m | -14.1m/s | -27.2°C | 21.3% | -1.0hPa | 2.6V | 00:00:00 | 00:00:00 | 00:00:00 | |
| PG1ADW-2 | 2026-08-31 03:39:21 | 48.40712 | 15.15991 | 77° | 80km/h | 8160m | -14.0m/s | -27.2°C | 23.1% | 0hPa | 2.6V | 00:00:00 | 01:50:30 | 00:00:00 | |
| OM5KV | 2026-08-31 03:39:19 | 48.40707 | 15.15962 | 79° | 77km/h | 8174m | -13.7m/s | -27.3°C | 21.5% | 0hPa | 2.5V | 08:19:00 | 00:00:00 | 00:00:00 | |
| OE5MMP-10 | 2026-08-31 03:39:15 | 48.40684 | 15.15818 | 78° | 80km/h | 8245m | -13.5m/s | -27.9°C | 24.2% | 0hPa | 2.5V | 00:00:00 | 01:50:24 | 00:00:00 | |
| OM5KV | 2026-08-31 03:39:13 | 48.40680 | 15.15788 | 77° | 77km/h | 8258m | -13.8m/s | -28.1°C | 22.6% | 0hPa | 2.5V | 08:19:00 | 00:00:00 | 00:00:00 | |
| OE5DRO-10 | 2026-08-31 03:39:12 | 48.40670 | 15.15731 | 77° | 84km/h | 8287m | -14.5m/s | -28.3°C | 25.0% | 0hPa | 2.5V | 00:00:00 | 00:00:00 | 00:00:00 | |
| OE5WHR-10 | 2026-08-31 03:39:09 | 48.40657 | 15.15642 | 76° | 86km/h | 8328m | -14.1m/s | -28.7°C | 25.6% | 0hPa | 2.5V | 00:00:00 | 01:50:18 | 00:00:00 | |
| OM5KV | 2026-08-31 03:39:08 | 48.40657 | 15.15642 | 77° | 78km/h | 8328m | -14.1m/s | -28.7°C | 23.6% | 0hPa | 2.5V | 08:19:00 | 00:00:00 | 00:00:00 | |
| OE5DXL-15 | 2026-08-31 03:39:06 | 48.40643 | 15.15552 | 79° | 89km/h | 8370m | -13.2m/s | -29.0°C | 26.0% | 0hPa | 2.5V | 00:00:00 | 00:00:00 | 00:00:00 | |
| OE5MMP-10 | 2026-08-31 03:39:05 | 48.40638 | 15.15522 | 78° | 84km/h | 8384m | -13.7m/s | -29.1°C | 26.3% | 0hPa | 2.5V | 00:00:00 | 01:50:14 | 00:00:00 | |
| OE3JTB-15 | 2026-08-31 03:39:03 | 48.40629 | 15.15461 | 78° | 91km/h | 8412m | -14.7m/s | -29.4°C | 26.7% | 0hPa | 2.5V | 00:00:00 | 00:00:00 | 00:00:00 | |
| OE3OSB-13 | 2026-08-31 03:38:51 | 48.40576 | 15.15040 | 79° | 91km/h | 8594m | -14.7m/s | -30.3°C | 13.5% | -1.0hPa | 2.5V | 00:00:00 | 00:00:00 | 00:00:00 | |
| OE5WHR-10 | 2026-08-31 03:38:48 | 48.40568 | 15.14971 | 81° | 95km/h | 8623m | -13.9m/s | -30.5°C | 15.4% | 0hPa | 2.5V | 00:00:00 | 00:00:00 | 00:00:00 | |
| OM5KV | 2026-08-31 03:38:46 | 48.40564 | 15.14937 | 79° | 89km/h | 8637m | -14.7m/s | -30.6°C | 13.9% | 0hPa | 2.5V | 08:19:00 | 00:00:00 | 00:00:00 | |
| OE5MMP-10 | 2026-08-31 03:38:45 | 48.40555 | 15.14869 | 80° | 95km/h | 8666m | -13.5m/s | -30.7°C | 15.3% | 0hPa | 2.5V | 00:00:00 | 01:49:54 | 00:00:00 | |
| S52SK | 2026-08-31 03:38:43 | 48.40551 | 15.14834 | 80° | 91km/h | 8679m | -13.5m/s | -30.9°C | 13.7% | 0hPa | 2.5V | 00:00:00 | 00:00:00 | 00:00:00 | |
| PG1ADW-2 | 2026-08-31 03:38:41 | 48.40537 | 15.14730 | 80° | 99km/h | 8722m | -14.1m/s | -31.1°C | 15.4% | 0hPa | 2.5V | 00:00:00 | 00:00:00 | 00:00:00 | |
| S52SK | 2026-08-31 03:38:37 | 48.40523 | 15.14624 | 80° | 97km/h | 8763m | -14.8m/s | -31.5°C | 13.8% | 0hPa | 2.5V | 00:00:00 | 00:00:00 | 00:00:00 | |
| OE5DXL-15 | 2026-08-31 03:38:36 | 48.40514 | 15.14551 | 81° | 102km/h | 8791m | -13.4m/s | -31.6°C | 15.5% | 0hPa | 2.5V | 08:19:00 | 00:00:00 | 00:00:00 | |
| OE5MMP-10 | 2026-08-31 03:38:35 | 48.40510 | 15.14516 | 80° | 99km/h | 8805m | -14.1m/s | -31.7°C | 15.5% | 0hPa | 2.5V | 08:19:00 | 01:49:44 | 00:00:00 | |
| OE3JTB-15 | 2026-08-31 03:38:34 | 48.40506 | 15.14479 | 80° | 104km/h | 8819m | -15.0m/s | -31.8°C | 15.5% | 0hPa | 2.5V | 00:00:00 | 01:49:43 | 00:00:00 | |
| OM5KV | 2026-08-31 03:38:31 | 48.40497 | 15.14404 | 82° | 99km/h | 8847m | -13.4m/s | -32.0°C | 13.9% | 0hPa | 2.5V | 08:19:00 | 00:00:00 | 00:00:00 | |
| OM5KV | 2026-08-31 03:38:29 | 48.40489 | 15.14330 | 82° | 100km/h | 8875m | -14.5m/s | -32.2°C | 14.0% | 0hPa | 2.5V | 08:19:00 | 00:00:00 | 00:00:00 | |
| OE5WHR-10 | 2026-08-31 03:38:27 | 48.40478 | 15.14218 | 82° | 104km/h | 8915m | -14.5m/s | -32.5°C | 15.7% | 0hPa | 2.5V | 00:00:00 | 00:00:00 | 00:00:00 | |
| OE5MMP-10 | 2026-08-31 03:38:25 | 48.40471 | 15.14140 | 84° | 104km/h | 8944m | -13.8m/s | -32.7°C | 15.4% | 0hPa | 2.5V | 00:00:00 | 01:49:34 | 00:00:00 | |
| OM5KV | 2026-08-31 03:38:23 | 48.40468 | 15.14101 | 85° | 102km/h | 8958m | -13.9m/s | -32.8°C | 13.7% | 0hPa | 2.5V | 08:20:00 | 00:00:00 | 00:00:00 | |
| PG1ADW-2 | 2026-08-31 03:38:21 | 48.40458 | 15.13985 | 83° | 106km/h | 9002m | -14.7m/s | -33.0°C | 16.2% | 0hPa | 2.5V | 08:19:00 | 00:00:00 | 00:00:00 | |
| OM5KV | 2026-08-31 03:38:19 | 48.40455 | 15.13944 | 85° | 106km/h | 9016m | -14.1m/s | -33.0°C | 15.0% | 0hPa | 2.5V | 08:20:00 | 00:00:00 | 00:00:00 | |
| OE5MMP-10 | 2026-08-31 03:38:15 | 48.40438 | 15.13747 | 83° | 106km/h | 9087m | -13.7m/s | -33.6°C | 19.3% | 0hPa | 2.5V | 00:00:00 | 01:49:24 | 00:00:00 | |
| OM5KV | 2026-08-31 03:38:13 | 48.40435 | 15.13708 | 82° | 102km/h | 9101m | -14.6m/s | -33.7°C | 17.7% | 0hPa | 2.5V | 08:20:00 | 00:00:00 | 00:00:00 | |
| OM5KV | 2026-08-31 03:38:10 | 48.40423 | 15.13589 | 83° | 106km/h | 9145m | -13.6m/s | -34.0°C | 19.0% | 0hPa | 2.5V | 08:20:00 | 00:00:00 | 00:00:00 | |
| OM5KV | 2026-08-31 03:38:08 | 48.40416 | 15.13510 | 82° | 104km/h | 9173m | -15.1m/s | -34.2°C | 19.5% | 0hPa | 2.5V | 08:20:00 | 00:00:00 | 00:00:00 | |
| OE5WHR-10 | 2026-08-31 03:38:06 | 48.40403 | 15.13390 | 82° | 104km/h | 9217m | -13.7m/s | -34.6°C | 22.8% | 0hPa | 2.5V | 00:00:00 | 01:49:15 | 00:00:00 | |
| OE5MMP-10 | 2026-08-31 03:38:05 | 48.40399 | 15.13351 | 81° | 104km/h | 9231m | -14.1m/s | -34.7°C | 23.1% | 0hPa | 2.5V | 00:00:00 | 01:49:14 | 00:00:00 | |
| OM5KV | 2026-08-31 03:38:04 | 48.40399 | 15.13351 | 81° | 104km/h | 9231m | -14.2m/s | -34.7°C | 20.8% | 0hPa | 2.6V | 08:20:00 | 00:00:00 | 00:00:00 | |
| OM5KV | 2026-08-31 03:38:02 | 48.40392 | 15.13273 | 82° | 108km/h | 9260m | -14.7m/s | -34.9°C | 21.4% | 0hPa | 2.6V | 08:20:00 | 00:00:00 | 00:00:00 | |
| OE3OSB-13 | 2026-08-31 03:37:49 | 48.40333 | 15.12693 | 80° | 100km/h | 9474m | -14.7m/s | -36.6°C | 28.1% | -1.0hPa | 2.6V | 00:00:00 | 00:00:00 | 00:00:00 | |
| OE5WHR-10 | 2026-08-31 03:37:45 | 48.40322 | 15.12576 | 84° | 104km/h | 9517m | -13.6m/s | -36.8°C | 35.7% | 0hPa | 2.6V | 08:20:00 | 00:00:00 | 00:00:00 | |
| OM5KV | 2026-08-31 03:37:44 | 48.40322 | 15.12576 | 85° | 102km/h | 9517m | -13.7m/s | -36.9°C | 32.5% | 0hPa | 2.5V | 08:20:00 | 00:00:00 | 00:00:00 | |
| PG1ADW-2 | 2026-08-31 03:37:41 | 48.40309 | 15.12421 | 84° | 104km/h | 9575m | -14.0m/s | -37.3°C | 39.2% | 0hPa | 2.5V | 00:00:00 | 00:00:00 | 00:00:00 | |
| OM5KV | 2026-08-31 03:37:39 | 48.40306 | 15.12381 | 85° | 104km/h | 9589m | -13.9m/s | -37.5°C | 36.3% | 0hPa | 2.5V | 08:20:00 | 00:00:00 | 00:00:00 | |
| OE5DRO-10 | 2026-08-31 03:37:37 | 48.40297 | 15.12264 | 84° | 104km/h | 9632m | -15.1m/s | -37.9°C | 41.3% | 0hPa | 2.5V | 00:00:00 | 00:00:00 | 00:00:00 | |
| OE5DXL-15 | 2026-08-31 03:37:36 | 48.40294 | 15.12224 | 84° | 104km/h | 9647m | -14.0m/s | -38.0°C | 42.0% | 0hPa | 2.5V | 00:00:00 | 00:00:00 | 00:00:00 | |
| OE5MMP-10 | 2026-08-31 03:37:35 | 48.40291 | 15.12185 | 84° | 104km/h | 9661m | -14.2m/s | -38.2°C | 42.8% | 0hPa | 2.5V | 00:00:00 | 01:48:44 | 00:00:00 | |
| OM5KV | 2026-08-31 03:37:34 | 48.40291 | 15.12185 | 84° | 102km/h | 9661m | -14.3m/s | -38.2°C | 39.0% | 0hPa | 2.5V | 08:21:00 | 00:00:00 | 00:00:00 | |
| OM5KV | 2026-08-31 03:37:33 | 48.40288 | 15.12146 | 83° | 102km/h | 9675m | -15.0m/s | -38.3°C | 39.7% | 0hPa | 2.5V | 08:21:00 | 00:00:00 | 00:00:00 | |
| S52SK | 2026-08-31 03:37:31 | 48.40281 | 15.12067 | 84° | 106km/h | 9705m | -14.1m/s | -38.6°C | 41.3% | 0hPa | 2.5V | 00:00:00 | 00:00:00 | 00:00:00 | |
| OM5KV | 2026-08-31 03:37:27 | 48.40267 | 15.11911 | 84° | 106km/h | 9762m | -13.9m/s | -39.2°C | 44.8% | 0hPa | 2.5V | 08:21:00 | 00:00:00 | 00:00:00 | |
| S52SK | 2026-08-31 03:37:26 | 48.40264 | 15.11872 | 84° | 104km/h | 9776m | -13.8m/s | -39.3°C | 45.7% | 0hPa | 2.5V | 00:00:00 | 00:00:00 | 00:00:00 | |
| OE5MMP-10 | 2026-08-31 03:37:25 | 48.40256 | 15.11794 | 82° | 104km/h | 9804m | -14.9m/s | -39.5°C | 53.1% | 0hPa | 2.5V | 00:00:00 | 01:48:34 | 00:00:00 | |
| OE5WHR-10 | 2026-08-31 03:37:24 | 48.40253 | 15.11755 | 82° | 104km/h | 9819m | -13.9m/s | -39.6°C | 54.1% | 0hPa | 2.5V | 00:00:00 | 00:00:00 | 00:00:00 | |
| OM5KV | 2026-08-31 03:37:23 | 48.40253 | 15.11755 | 83° | 106km/h | 9819m | -13.9m/s | -39.7°C | 49.5% | 0hPa | 2.5V | 08:21:00 | 00:00:00 | 00:00:00 | |
| OM5KV | 2026-08-31 03:37:22 | 48.40249 | 15.11716 | 83° | 104km/h | 9833m | -13.9m/s | -39.8°C | 49.7% | 0hPa | 2.5V | 08:21:00 | 00:00:00 | 00:00:00 | |
| PG1ADW-2 | 2026-08-31 03:37:21 | 48.40240 | 15.11638 | 81° | 106km/h | 9861m | -14.8m/s | -40.0°C | 54.4% | 0hPa | 2.5V | 00:00:00 | 00:00:00 | 00:00:00 | |
| OE5DRO-10 | 2026-08-31 03:37:18 | 48.40227 | 15.11522 | 80° | 106km/h | 9903m | -14.4m/s | -40.4°C | 54.4% | 0hPa | 2.6V | 00:00:00 | 00:00:00 | 00:00:00 | |
| OM5KV | 2026-08-31 03:37:17 | 48.40227 | 15.11522 | 80° | 102km/h | 9903m | -14.5m/s | -40.5°C | 49.7% | 0hPa | 2.6V | 08:21:00 | 00:00:00 | 00:00:00 | |
| OM5KV | 2026-08-31 03:37:16 | 48.40223 | 15.11483 | 81° | 104km/h | 9917m | -15.1m/s | -40.6°C | 49.1% | 0hPa | 2.6V | 08:21:00 | 00:00:00 | 00:00:00 | |
| OE5MMP-10 | 2026-08-31 03:37:15 | 48.40214 | 15.11405 | 81° | 106km/h | 9946m | -13.9m/s | -40.8°C | 51.4% | 0hPa | 2.6V | 00:00:00 | 01:48:24 | 00:00:00 | |
| OM5KV | 2026-08-31 03:37:10 | 48.40195 | 15.11248 | 81° | 104km/h | 10004m | -13.8m/s | -41.0°C | 39.3% | 0hPa | 2.6V | 08:21:00 | 00:00:00 | 00:00:00 | |
| OE3JTB-15 | 2026-08-31 03:37:07 | 48.40176 | 15.11090 | 82° | 102km/h | 10063m | -14.2m/s | -41.4°C | 42.6% | 0hPa | 2.6V | 00:00:00 | 01:48:16 | 00:00:00 | |
| OE5DXL-15 | 2026-08-31 03:37:06 | 48.40172 | 15.11051 | 80° | 102km/h | 10077m | -14.3m/s | -41.5°C | 42.5% | 0hPa | 2.6V | 00:00:00 | 00:00:00 | 00:00:00 | |
| OE5MMP-10 | 2026-08-31 03:37:05 | 48.40167 | 15.11011 | 80° | 106km/h | 10092m | -14.8m/s | -41.6°C | 42.6% | 0hPa | 2.6V | 08:20:00 | 01:48:14 | 00:00:00 | |
| OM5KV | 2026-08-31 03:37:01 | 48.40153 | 15.10891 | 81° | 104km/h | 10135m | -14.5m/s | -42.0°C | 38.6% | 0hPa | 2.6V | 08:21:00 | 00:00:00 | 00:00:00 | |
| OE3OSB-13 | 2026-08-31 03:36:47 | 48.40077 | 15.10283 | 79° | 97km/h | 10368m | -14.4m/s | -44.0°C | 39.2% | -1.0hPa | 2.6V | 00:00:00 | 00:00:00 | 00:00:00 | |
| DO3MHA-12 | 2026-08-31 03:36:46 | 48.40077 | 15.10283 | 80° | 99km/h | 10368m | -14.3m/s | -43.9°C | 44.0% | 0hPa | 2.6V | 00:00:00 | 01:47:55 | 00:00:00 | |
| OE5MMP-10 | 2026-08-31 03:36:45 | 48.40072 | 15.10247 | 79° | 99km/h | 10382m | -15.0m/s | -44.0°C | 43.4% | 0hPa | 2.6V | 00:00:00 | 01:47:54 | 00:00:00 | |
| OM5KV | 2026-08-31 03:36:43 | 48.40067 | 15.10210 | 80° | 99km/h | 10398m | -15.8m/s | -44.2°C | 38.4% | 0hPa | 2.6V | 08:21:00 | 00:00:00 | 00:00:00 | |
| OE5WHR-10 | 2026-08-31 03:36:42 | 48.40059 | 15.10135 | 82° | 102km/h | 10428m | -14.3m/s | -44.3°C | 42.9% | 0hPa | 2.6V | 00:00:00 | 00:00:00 | 00:00:00 | |
| PG1ADW-2 | 2026-08-31 03:36:41 | 48.40055 | 15.10099 | 80° | 102km/h | 10442m | -14.9m/s | -44.5°C | 42.9% | 0hPa | 2.5V | 00:00:00 | 01:47:50 | 00:00:00 | |
| OE5DRO-10 | 2026-08-31 03:36:40 | 48.40050 | 15.10062 | 81° | 102km/h | 10457m | -15.3m/s | -44.6°C | 43.0% | 0hPa | 2.5V | 00:00:00 | 00:00:00 | 00:00:00 | |
| OE3JTB-15 | 2026-08-31 03:36:38 | 48.40043 | 15.09986 | 82° | 104km/h | 10486m | -14.1m/s | -44.9°C | 43.1% | 0hPa | 2.5V | 00:00:00 | 00:00:00 | 00:00:00 | |
| OM5KV | 2026-08-31 03:36:37 | 48.40043 | 15.09986 | 83° | 99km/h | 10486m | -14.1m/s | -44.9°C | 38.4% | 0hPa | 2.5V | 08:21:00 | 00:00:00 | 00:00:00 | |
| OE5DXL-15 | 2026-08-31 03:36:36 | 48.40035 | 15.09912 | 82° | 106km/h | 10516m | -15.4m/s | -45.1°C | 42.9% | 0hPa | 2.5V | 00:00:00 | 00:00:00 | 00:00:00 | |
| OE5MMP-10 | 2026-08-31 03:36:35 | 48.40032 | 15.09873 | 83° | 102km/h | 10531m | -14.5m/s | -45.2°C | 42.7% | 0hPa | 2.5V | 00:00:00 | 01:47:44 | 00:00:00 | |
| DO3MHA-12 | 2026-08-31 03:36:32 | 48.40022 | 15.09758 | 84° | 102km/h | 10575m | -15.5m/s | -45.5°C | 42.2% | 0hPa | 2.6V | 00:00:00 | 01:47:41 | 00:00:00 | |
| OM5KV | 2026-08-31 03:36:31 | 48.40022 | 15.09758 | 84° | 104km/h | 10575m | -15.5m/s | -45.5°C | 37.5% | 0hPa | 2.5V | 08:21:00 | 00:00:00 | 00:00:00 | |
| NBG1-10 | 2026-08-31 03:36:28 | 48.40010 | 15.09604 | 84° | 55km/h | 10634m | -15.2m/s | 0°C | 0% | 0hPa | 2.5V | 00:00:00 | 01:47:37 | 00:00:00 | |
| OE5MMP-10 | 2026-08-31 03:36:25 | 48.40003 | 15.09487 | 84° | 106km/h | 10679m | -15.2m/s | -46.4°C | 43.0% | 0hPa | 2.5V | 00:00:00 | 01:47:34 | 00:00:00 | |
| DO3MHA-12 | 2026-08-31 03:36:22 | 48.39996 | 15.09368 | 87° | 104km/h | 10724m | -14.5m/s | -46.8°C | 42.9% | 0hPa | 2.5V | 00:00:00 | 01:47:31 | 00:00:00 | |
| OE5WHR-10 | 2026-08-31 03:36:21 | 48.39994 | 15.09329 | 85° | 111km/h | 10738m | -15.1m/s | -46.9°C | 42.8% | 0hPa | 2.5V | 00:00:00 | 00:00:00 | 00:00:00 | |
| OM5KV | 2026-08-31 03:36:20 | 48.39994 | 15.09329 | 85° | 102km/h | 10738m | -15.1m/s | -47.0°C | 37.8% | 0hPa | 2.5V | 08:21:00 | 00:00:00 | 00:00:00 | |
| OM5KV | 2026-08-31 03:36:18 | 48.39990 | 15.09250 | 88° | 106km/h | 10768m | -14.2m/s | -47.2°C | 37.4% | 0hPa | 2.5V | 08:21:00 | 00:00:00 | 00:00:00 | |
| OE3OSB-13 | 2026-08-31 03:36:16 | 48.39982 | 15.09087 | 86° | 108km/h | 10827m | -14.2m/s | -47.7°C | 35.7% | -1.0hPa | 2.5V | 00:00:00 | 00:00:00 | 00:00:00 | |
| OE5MMP-10 | 2026-08-31 03:36:15 | 48.39982 | 15.09087 | 87° | 111km/h | 10827m | -14.2m/s | -47.6°C | 40.9% | 0hPa | 2.5V | 00:00:00 | 01:47:24 | 00:00:00 | |
| OM5KV | 2026-08-31 03:36:14 | 48.39982 | 15.09087 | 88° | 110km/h | 10827m | -14.2m/s | -47.7°C | 35.9% | 0hPa | 2.5V | 08:21:00 | 00:00:00 | 00:00:00 | |
| OM5KV | 2026-08-31 03:36:12 | 48.39978 | 15.09004 | 86° | 110km/h | 10856m | -15.9m/s | -47.9°C | 35.1% | 0hPa | 2.5V | 08:21:00 | 00:00:00 | 00:00:00 | |
| OE3JTB-15 | 2026-08-31 03:36:09 | 48.39970 | 15.08834 | 86° | 117km/h | 10917m | -15.6m/s | -48.3°C | 37.8% | 0hPa | 2.5V | 00:00:00 | 00:00:00 | 00:00:00 | |
| DO3MHA-12 | 2026-08-31 03:36:06 | 48.39965 | 15.08705 | 87° | 115km/h | 10962m | -14.7m/s | -48.5°C | 36.7% | 0hPa | 2.5V | 00:00:00 | 01:47:15 | 00:00:00 | |
| OE5MMP-10 | 2026-08-31 03:36:05 | 48.39963 | 15.08662 | 86° | 117km/h | 10977m | -15.2m/s | -48.6°C | 36.4% | 0hPa | 2.5V | 00:00:00 | 01:47:14 | 00:00:00 | |
| OE5DRO-10 | 2026-08-31 03:36:02 | 48.39958 | 15.08530 | 87° | 117km/h | 11022m | -14.9m/s | -48.9°C | 36.6% | 0hPa | 2.6V | 00:00:00 | 00:00:00 | 00:00:00 | |
| PG1ADW-2 | 2026-08-31 03:36:01 | 48.39957 | 15.08487 | 88° | 117km/h | 11037m | -15.6m/s | -49.1°C | 36.4% | 0hPa | 2.6V | 00:00:00 | 00:00:00 | 00:00:00 | |
| OE5WHR-10 | 2026-08-31 03:36:00 | 48.39956 | 15.08442 | 88° | 117km/h | 11052m | -14.7m/s | -49.2°C | 36.4% | 0hPa | 2.6V | 00:00:00 | 01:47:09 | 00:00:00 | |
| OM5KV | 2026-08-31 03:35:59 | 48.39956 | 15.08442 | 89° | 119km/h | 11052m | -14.8m/s | -49.2°C | 31.5% | 0hPa | 2.6V | 08:21:00 | 00:00:00 | 00:00:00 | |
| DO3MHA-12 | 2026-08-31 03:35:56 | 48.39950 | 15.08264 | 88° | 117km/h | 11112m | -15.3m/s | -49.6°C | 35.5% | 0hPa | 2.6V | 00:00:00 | 01:47:05 | 00:00:00 | |
| OE5MMP-10 | 2026-08-31 03:35:55 | 48.39949 | 15.08219 | 89° | 117km/h | 11127m | -14.4m/s | -49.7°C | 35.3% | 0hPa | 2.6V | 00:00:00 | 01:47:04 | 00:00:00 | |
| OM5KV | 2026-08-31 03:35:53 | 48.39948 | 15.08174 | 88° | 117km/h | 11142m | -14.9m/s | -49.8°C | 30.2% | 0hPa | 2.6V | 08:22:00 | 00:00:00 | 00:00:00 | |
| OM5KV | 2026-08-31 03:35:50 | 48.39944 | 15.08040 | 89° | 117km/h | 11188m | -14.8m/s | -50.0°C | 30.0% | 0hPa | 2.6V | 08:22:00 | 00:00:00 | 00:00:00 | |
| DO3MHA-12 | 2026-08-31 03:35:46 | 48.39936 | 15.07819 | 87° | 115km/h | 11264m | -15.3m/s | -50.5°C | 36.0% | 0hPa | 2.6V | 00:00:00 | 01:46:55 | 00:00:00 | |
| OE5MMP-10 | 2026-08-31 03:35:45 | 48.39934 | 15.07776 | 87° | 115km/h | 11279m | -16.0m/s | -50.6°C | 36.3% | 0hPa | 2.6V | 00:00:00 | 01:46:54 | 00:00:00 | |
| OE5DRO-10 | 2026-08-31 03:35:43 | 48.39932 | 15.07688 | 88° | 117km/h | 11310m | -14.8m/s | -50.8°C | 37.1% | 0hPa | 2.6V | 00:00:00 | 00:00:00 | 00:00:00 | |
| PG1ADW-2 | 2026-08-31 03:35:41 | 48.39929 | 15.07602 | 88° | 117km/h | 11340m | -16.0m/s | -51.1°C | 37.9% | 0hPa | 2.6V | 00:00:00 | 00:00:00 | 00:00:00 | |
| OE3JTB-15 | 2026-08-31 03:35:40 | 48.39927 | 15.07558 | 88° | 119km/h | 11356m | -15.8m/s | -51.3°C | 38.2% | 0hPa | 2.6V | 00:00:00 | 01:46:49 | 00:00:00 | |
| OE5WHR-10 | 2026-08-31 03:35:39 | 48.39926 | 15.07514 | 89° | 117km/h | 11372m | -14.7m/s | -51.4°C | 38.6% | 0hPa | 2.6V | 00:00:00 | 00:00:00 | 00:00:00 | |
| OE5DXL-15 | 2026-08-31 03:35:36 | 48.39923 | 15.07384 | 88° | 119km/h | 11418m | -16.2m/s | -51.7°C | 39.1% | 0hPa | 2.5V | 00:00:00 | 00:00:00 | 00:00:00 | |
| OE5MMP-10 | 2026-08-31 03:35:35 | 48.39922 | 15.07339 | 89° | 117km/h | 11435m | -15.8m/s | -51.8°C | 39.2% | 0hPa | 2.5V | 08:22:00 | 01:46:44 | 00:00:00 | |
| OM5KV | 2026-08-31 03:35:34 | 48.39922 | 15.07339 | 90° | 117km/h | 11435m | -15.9m/s | -51.9°C | 33.6% | 0hPa | 2.5V | 08:22:00 | 00:00:00 | 00:00:00 | |
| OM5KV | 2026-08-31 03:35:29 | 48.39916 | 15.07118 | 89° | 117km/h | 11515m | -15.9m/s | -52.5°C | 34.2% | 0hPa | 2.5V | 08:22:00 | 00:00:00 | 00:00:00 | |
| DO3MHA-12 | 2026-08-31 03:35:26 | 48.39910 | 15.06940 | 88° | 120km/h | 11579m | -15.1m/s | -53.0°C | 40.7% | 0hPa | 2.5V | 08:22:00 | 01:46:35 | 00:00:00 | |
| OE5MMP-10 | 2026-08-31 03:35:25 | 48.39908 | 15.06895 | 86° | 120km/h | 11594m | -15.8m/s | -53.1°C | 40.9% | 0hPa | 2.6V | 00:00:00 | 01:46:34 | 00:00:00 | |
| OE5DRO-10 | 2026-08-31 03:35:24 | 48.39906 | 15.06851 | 87° | 120km/h | 11610m | -16.5m/s | -53.3°C | 41.0% | 0hPa | 2.6V | 00:00:00 | 00:00:00 | 00:00:00 | |
| OM5KV | 2026-08-31 03:35:23 | 48.39906 | 15.06851 | 88° | 120km/h | 11610m | -16.6m/s | -53.3°C | 35.1% | 0hPa | 2.6V | 08:22:00 | 00:00:00 | 00:00:00 | |
| PG1ADW-2 | 2026-08-31 03:35:21 | 48.39901 | 15.06716 | 86° | 122km/h | 11657m | -16.0m/s | -53.6°C | 41.2% | 0hPa | 2.6V | 08:22:00 | 01:46:30 | 00:00:00 | |
| OE5WHR-10 | 2026-08-31 03:35:18 | 48.39896 | 15.06579 | 88° | 122km/h | 11704m | -15.8m/s | -54.0°C | 41.4% | 0hPa | 2.6V | 00:00:00 | 00:00:00 | 00:00:00 | |
| OM5KV | 2026-08-31 03:35:17 | 48.39896 | 15.06579 | 88° | 120km/h | 11704m | -15.8m/s | -54.0°C | 35.3% | 0hPa | 2.6V | 08:22:00 | 00:00:00 | 00:00:00 | |
| OE5MMP-10 | 2026-08-31 03:35:15 | 48.39891 | 15.06440 | 88° | 122km/h | 11752m | -16.4m/s | -54.3°C | 41.1% | 0hPa | 2.6V | 00:00:00 | 01:46:24 | 00:00:00 | |
| OE3OSB-13 | 2026-08-31 03:35:14 | 48.39889 | 15.06348 | 87° | 119km/h | 11784m | -16.6m/s | -54.6°C | 34.5% | -1.0hPa | 2.6V | 00:00:00 | 00:00:00 | 00:00:00 | |
| OE3JTB-15 | 2026-08-31 03:35:11 | 48.39886 | 15.06255 | 88° | 119km/h | 11817m | -16.3m/s | -54.7°C | 40.5% | 0hPa | 2.6V | 00:00:00 | 00:00:00 | 00:00:00 | |
| S52SK | 2026-08-31 03:35:09 | 48.39884 | 15.06208 | 89° | 122km/h | 11834m | -15.7m/s | -54.8°C | 34.3% | 0hPa | 2.6V | 08:22:00 | 00:00:00 | 00:00:00 | |
| OM5KV | 2026-08-31 03:35:07 | 48.39882 | 15.06116 | 88° | 120km/h | 11865m | -16.6m/s | -55.1°C | 34.3% | 0hPa | 2.6V | 08:22:00 | 00:00:00 | 00:00:00 | |
| OE5DXL-15 | 2026-08-31 03:35:06 | 48.39879 | 15.06023 | 89° | 117km/h | 11898m | -15.5m/s | -55.2°C | 40.8% | 0hPa | 2.6V | 00:00:00 | 00:00:00 | 00:00:00 | |
| OE5MMP-10 | 2026-08-31 03:35:05 | 48.39878 | 15.05977 | 89° | 122km/h | 11913m | -15.7m/s | -55.3°C | 40.9% | 0hPa | 2.6V | 00:00:00 | 01:46:14 | 00:00:00 | |
| S52SK | 2026-08-31 03:35:03 | 48.39877 | 15.05931 | 89° | 120km/h | 11929m | -16.6m/s | -55.5°C | 34.5% | 0hPa | 2.6V | 00:00:00 | 00:00:00 | 00:00:00 | |
| PG1ADW-2 | 2026-08-31 03:35:01 | 48.39874 | 15.05792 | 89° | 117km/h | 11978m | -15.7m/s | -55.8°C | 41.2% | 0hPa | 2.6V | 00:00:00 | 00:00:00 | 00:00:00 | |
| OM5KV | 2026-08-31 03:35:00 | 48.39874 | 15.05792 | 90° | 120km/h | 11978m | -15.7m/s | -55.9°C | 34.7% | 0hPa | 2.6V | 08:23:00 | 00:00:00 | 00:00:00 | |
| OE5WHR-10 | 2026-08-31 03:34:57 | 48.39872 | 15.05606 | 90° | 113km/h | 12041m | -15.9m/s | -56.2°C | 40.5% | 0hPa | 2.6V | 00:00:00 | 01:46:06 | 00:00:00 | |
| OM5KV | 2026-08-31 03:34:56 | 48.39871 | 15.05606 | 91° | 120km/h | 12041m | -15.9m/s | -56.2°C | 34.0% | 0hPa | 2.6V | 08:23:00 | 00:00:00 | 00:00:00 | |
| OE5MMP-10 | 2026-08-31 03:34:55 | 48.39871 | 15.05515 | 90° | 117km/h | 12074m | -16.9m/s | -56.4°C | 40.5% | 0hPa | 2.6V | 00:00:00 | 01:46:04 | 00:00:00 | |
| OK1ALN | 2026-08-31 03:34:51 | 48.39869 | 15.05380 | 89° | 115km/h | 12122m | -16.8m/s | -56.8°C | 33.4% | 0hPa | 2.6V | 08:23:00 | 00:00:00 | 00:00:00 | |
| OM5KV | 2026-08-31 03:34:50 | 48.39869 | 15.05336 | 90° | 119km/h | 12138m | -17.0m/s | -56.9°C | 33.4% | 0hPa | 2.6V | 08:23:00 | 00:00:00 | 00:00:00 | |
| OM5KV | 2026-08-31 03:34:49 | 48.39869 | 15.05292 | 91° | 117km/h | 12155m | -16.2m/s | -57.0°C | 33.2% | 0hPa | 2.6V | 08:23:00 | 00:00:00 | 00:00:00 | |
| OE5DRO-10 | 2026-08-31 03:34:46 | 48.39867 | 15.05119 | 90° | 110km/h | 12221m | -16.2m/s | -57.2°C | 39.2% | 0hPa | 2.6V | 00:00:00 | 00:00:00 | 00:00:00 | |
| OE5MMP-10 | 2026-08-31 03:34:45 | 48.39867 | 15.05077 | 90° | 110km/h | 12237m | -15.9m/s | -57.2°C | 38.8% | 0hPa | 2.6V | 00:00:00 | 01:45:54 | 00:00:00 | |
| OE3OSB-13 | 2026-08-31 03:34:43 | 48.39865 | 15.04951 | 89° | 111km/h | 12286m | -16.3m/s | -57.5°C | 31.2% | -1.0hPa | 2.6V | 00:00:00 | 00:00:00 | 00:00:00 | |
| OE3JTB-15 | 2026-08-31 03:34:42 | 48.39864 | 15.04951 | 90° | 108km/h | 12286m | -16.2m/s | -57.4°C | 38.1% | 0hPa | 2.6V | 00:00:00 | 00:00:00 | 00:00:00 | |
| PG1ADW-2 | 2026-08-31 03:34:41 | 48.39864 | 15.04909 | 90° | 108km/h | 12303m | -16.6m/s | -57.5°C | 38.2% | 0hPa | 2.6V | 00:00:00 | 00:00:00 | 00:00:00 | |
| OM5KV | 2026-08-31 03:34:37 | 48.39862 | 15.04785 | 89° | 110km/h | 12354m | -17.1m/s | -57.9°C | 31.5% | 0hPa | 2.6V | 08:23:00 | 00:00:00 | 00:00:00 | |
| OE5WHR-10 | 2026-08-31 03:34:36 | 48.39860 | 15.04703 | 88° | 108km/h | 12387m | -16.5m/s | -57.9°C | 37.6% | 0hPa | 2.6V | 08:23:00 | 00:00:00 | 00:00:00 | |
| DO3MHA-12 | 2026-08-31 03:34:35 | 48.39859 | 15.04663 | 88° | 110km/h | 12403m | -17.1m/s | -57.9°C | 37.3% | 0hPa | 2.5V | 00:00:00 | 01:45:44 | 00:00:00 | |
| OM5KV | 2026-08-31 03:34:33 | 48.39858 | 15.04622 | 88° | 110km/h | 12420m | -16.8m/s | -58.0°C | 30.2% | 0hPa | 2.5V | 08:23:00 | 00:00:00 | 00:00:00 | |
| OM5KV | 2026-08-31 03:34:32 | 48.39857 | 15.04580 | 89° | 108km/h | 12436m | -16.0m/s | -58.1°C | 30.0% | 0hPa | 2.5V | 08:23:00 | 00:00:00 | 00:00:00 | |
| OK1ALN | 2026-08-31 03:34:30 | 48.39854 | 15.04499 | 87° | 110km/h | 12470m | -17.4m/s | -58.2°C | 29.4% | 0hPa | 2.5V | 08:23:00 | 00:00:00 | 00:00:00 | |
| OE5DRO-10 | 2026-08-31 03:34:27 | 48.39846 | 15.04333 | 84° | 108km/h | 12538m | -17.3m/s | -58.4°C | 34.8% | 0hPa | 2.5V | 00:00:00 | 00:00:00 | 00:00:00 | |
| OM5KV | 2026-08-31 03:34:26 | 48.39845 | 15.04333 | 85° | 108km/h | 12538m | -17.3m/s | -58.5°C | 28.3% | 0hPa | 2.5V | 08:23:00 | 00:00:00 | 00:00:00 | |
| OE5MMP-10 | 2026-08-31 03:34:25 | 48.39840 | 15.04251 | 85° | 108km/h | 12572m | -16.3m/s | -58.7°C | 34.7% | 0hPa | 2.5V | 00:00:00 | 01:45:34 | 00:00:00 | |
| PG1ADW-2 | 2026-08-31 03:34:21 | 48.39826 | 15.04090 | 83° | 106km/h | 12639m | -17.1m/s | -59.2°C | 34.2% | 0hPa | 2.5V | 00:00:00 | 00:00:00 | 00:00:00 | |
| OM5KV | 2026-08-31 03:34:20 | 48.39826 | 15.04090 | 84° | 110km/h | 12639m | -17.1m/s | -59.3°C | 27.5% | 0hPa | 2.6V | 08:23:00 | 00:00:00 | 00:00:00 | |
| OE5MMP-10 | 2026-08-31 03:34:15 | 48.39805 | 15.03848 | 82° | 106km/h | 12742m | -16.7m/s | -59.6°C | 31.7% | 0hPa | 2.6V | 00:00:00 | 01:45:24 | 00:00:00 | |
| OE3JTB-15 | 2026-08-31 03:34:13 | 48.39798 | 15.03767 | 85° | 104km/h | 12776m | -16.7m/s | -59.7°C | 30.9% | 0hPa | 2.6V | 00:00:00 | 01:45:22 | 00:00:00 | |
| OE3OSB-13 | 2026-08-31 03:34:11 | 48.39793 | 15.03687 | 83° | 102km/h | 12809m | -16.9m/s | -59.7°C | 22.7% | -1.0hPa | 2.6V | 00:00:00 | 00:00:00 | 00:00:00 | |
| OK1ALN | 2026-08-31 03:34:10 | 48.39793 | 15.03687 | 85° | 104km/h | 12809m | -16.9m/s | -59.7°C | 23.1% | 0hPa | 2.6V | 08:24:00 | 00:00:00 | 00:00:00 | |
| OM5KV | 2026-08-31 03:34:09 | 48.39790 | 15.03647 | 85° | 104km/h | 12826m | -17.7m/s | -59.8°C | 22.5% | 0hPa | 2.6V | 08:24:00 | 00:00:00 | 00:00:00 | |
| OE5DRO-10 | 2026-08-31 03:34:08 | 48.39785 | 15.03568 | 86° | 106km/h | 12861m | -16.8m/s | -59.9°C | 27.9% | 0hPa | 2.6V | 00:00:00 | 00:00:00 | 00:00:00 | |
| OE5DXL-15 | 2026-08-31 03:34:06 | 48.39780 | 15.03490 | 83° | 104km/h | 12895m | -17.4m/s | -60.0°C | 27.1% | 0hPa | 2.5V | 08:23:00 | 00:00:00 | 00:00:00 | |
| OE5MMP-10 | 2026-08-31 03:34:05 | 48.39777 | 15.03450 | 84° | 106km/h | 12913m | -18.0m/s | -60.0°C | 26.6% | 0hPa | 2.5V | 08:23:00 | 01:45:14 | 00:00:00 | |
| OM5KV | 2026-08-31 03:34:03 | 48.39774 | 15.03410 | 85° | 108km/h | 12930m | -17.6m/s | -60.1°C | 19.9% | 0hPa | 2.5V | 08:24:00 | 00:00:00 | 00:00:00 | |
| PG1ADW-2 | 2026-08-31 03:34:01 | 48.39766 | 15.03291 | 84° | 104km/h | 12982m | -18.3m/s | -60.1°C | 24.4% | 0hPa | 2.5V | 00:00:00 | 01:45:10 | 00:00:00 | |
| OM5KV | 2026-08-31 03:33:58 | 48.39760 | 15.03210 | 86° | 106km/h | 13018m | -17.3m/s | -60.2°C | 17.7% | 0hPa | 2.5V | 08:24:00 | 00:00:00 | 00:00:00 | |
| OM5KV | 2026-08-31 03:33:57 | 48.39757 | 15.03170 | 85° | 104km/h | 13036m | -17.1m/s | -60.2°C | 17.2% | 0hPa | 2.5V | 08:24:00 | 00:00:00 | 00:00:00 | |
| DO3MHA-12 | 2026-08-31 03:33:55 | 48.39748 | 15.03051 | 85° | 104km/h | 13088m | -16.7m/s | -60.4°C | 21.6% | 0hPa | 2.5V | 08:24:00 | 01:45:04 | 00:00:00 | |
| OE5WHR-10 | 2026-08-31 03:33:54 | 48.39745 | 15.03011 | 84° | 104km/h | 13105m | -17.0m/s | -60.4°C | 21.2% | 0hPa | 2.6V | 00:00:00 | 01:45:03 | 00:00:00 | |
| S52SK | 2026-08-31 03:33:52 | 48.39742 | 15.02972 | 84° | 106km/h | 13122m | -17.6m/s | -60.5°C | 15.1% | 0hPa | 2.6V | 00:00:00 | 00:00:00 | 00:00:00 | |
| OM5KV | 2026-08-31 03:33:51 | 48.39739 | 15.02932 | 84° | 108km/h | 13140m | -17.6m/s | -60.6°C | 15.0% | 0hPa | 2.6V | 08:24:00 | 00:00:00 | 00:00:00 | |
| OE5DRO-10 | 2026-08-31 03:33:49 | 48.39728 | 15.02815 | 80° | 106km/h | 13191m | -17.8m/s | -60.4°C | 18.8% | 0hPa | 2.6V | 00:00:00 | 00:00:00 | 00:00:00 | |
| OM5KV | 2026-08-31 03:33:46 | 48.39720 | 15.02739 | 82° | 102km/h | 13226m | -17.8m/s | -60.7°C | 13.1% | 0hPa | 2.6V | 08:24:00 | 00:00:00 | 00:00:00 | |
| DO3MHA-12 | 2026-08-31 03:33:45 | 48.39712 | 15.02663 | 80° | 104km/h | 13261m | -17.8m/s | -60.8°C | 18.2% | 0hPa | 2.6V | 00:00:00 | 01:44:54 | 00:00:00 | |
| OE3JTB-15 | 2026-08-31 03:33:44 | 48.39707 | 15.02625 | 80° | 110km/h | 13279m | -18.1m/s | -60.9°C | 17.8% | 0hPa | 2.6V | 08:24:00 | 00:00:00 | 00:00:00 | |
| PG1ADW-2 | 2026-08-31 03:33:41 | 48.39695 | 15.02510 | 81° | 111km/h | 13331m | -17.4m/s | -61.1°C | 17.3% | 0hPa | 2.5V | 00:00:00 | 00:00:00 | 00:00:00 | |
| OM5KV | 2026-08-31 03:33:40 | 48.39695 | 15.02510 | 81° | 102km/h | 13331m | -17.5m/s | -61.1°C | 12.0% | 0hPa | 2.5V | 08:24:00 | 00:00:00 | 00:00:00 | |
| OE5DXL-15 | 2026-08-31 03:33:36 | 48.39678 | 15.02309 | 84° | 106km/h | 13419m | -18.5m/s | -60.8°C | 15.8% | 0hPa | 2.5V | 00:00:00 | 00:00:00 | 00:00:00 | |
| OE5MMP-10 | 2026-08-31 03:33:35 | 48.39675 | 15.02268 | 85° | 113km/h | 13437m | -18.7m/s | -60.8°C | 15.5% | 0hPa | 2.5V | 00:00:00 | 01:44:44 | 00:00:00 | |
| OE5WHR-10 | 2026-08-31 03:33:33 | 48.39670 | 15.02183 | 85° | 110km/h | 13474m | -17.6m/s | -60.8°C | 15.3% | 0hPa | 2.6V | 00:00:00 | 00:00:00 | 00:00:00 | |
| OE5DRO-10 | 2026-08-31 03:33:30 | 48.39660 | 15.02057 | 84° | 110km/h | 13528m | -18.5m/s | -60.6°C | 14.5% | 0hPa | 2.5V | 00:00:00 | 00:00:00 | 00:00:00 | |
| OM5KV | 2026-08-31 03:33:29 | 48.39660 | 15.02057 | 85° | 115km/h | 13528m | -18.5m/s | -60.7°C | 9.6% | 0hPa | 2.5V | 08:24:00 | 00:00:00 | 00:00:00 | |
| OK1ALN | 2026-08-31 03:33:28 | 48.39657 | 15.02014 | 86° | 115km/h | 13546m | -18.0m/s | -60.6°C | 9.3% | 0hPa | 2.5V | 08:24:00 | 00:00:00 | 00:00:00 | |
| DO3MHA-12 | 2026-08-31 03:33:25 | 48.39644 | 15.01841 | 84° | 110km/h | 13619m | -18.5m/s | -60.6°C | 12.6% | 0hPa | 2.5V | 00:00:00 | 01:44:34 | 00:00:00 | |
| OM5KV | 2026-08-31 03:33:24 | 48.39645 | 15.01841 | 84° | 117km/h | 13619m | -18.6m/s | -60.6°C | 7.9% | 0hPa | 2.5V | 08:24:00 | 00:00:00 | 00:00:00 | |
| OM5KV | 2026-08-31 03:33:23 | 48.39641 | 15.01797 | 85° | 115km/h | 13638m | -17.9m/s | -60.7°C | 7.8% | 0hPa | 2.5V | 08:24:00 | 00:00:00 | 00:00:00 | |
| PG1ADW-2 | 2026-08-31 03:33:21 | 48.39632 | 15.01669 | 85° | 97km/h | 13692m | -18.8m/s | -60.4°C | 11.3% | 0hPa | 2.5V | 00:00:00 | 00:00:00 | 00:00:00 | |
| OE8JPQ-2 | 2026-08-31 03:33:20 | 48.39630 | 15.01627 | 86° | 95km/h | 13711m | -17.7m/s | -60.2°C | 10.8% | 0hPa | 2.5V | 08:24:00 | 00:00:00 | 00:00:00 | |
| OM5KV | 2026-08-31 03:33:19 | 48.39630 | 15.01627 | 87° | 111km/h | 13711m | -17.8m/s | -60.3°C | 6.5% | 0hPa | 2.6V | 08:25:00 | 00:00:00 | 00:00:00 | |
| OM5KV | 2026-08-31 03:33:17 | 48.39625 | 15.01546 | 86° | 104km/h | 13746m | -18.1m/s | -60.3°C | 6.1% | 0hPa | 2.6V | 08:25:00 | 00:00:00 | 00:00:00 | |
| OE5MMP-10 | 2026-08-31 03:33:15 | 48.39620 | 15.01428 | 89° | 95km/h | 13803m | -18.0m/s | -59.8°C | 9.5% | 0hPa | 2.6V | 00:00:00 | 01:44:24 | 00:00:00 | |
| OM5KV | 2026-08-31 03:33:14 | 48.39620 | 15.01428 | 89° | 102km/h | 13803m | -18.1m/s | -59.8°C | 5.4% | 0hPa | 2.6V | 08:25:00 | 00:00:00 | 00:00:00 | |
| OE5WHR-10 | 2026-08-31 03:33:12 | 48.39618 | 15.01315 | 90° | 82km/h | 13858m | -19.6m/s | -59.2°C | 8.4% | 0hPa | 2.6V | 00:00:00 | 00:00:00 | 00:00:00 | |
| OE5DRO-10 | 2026-08-31 03:33:11 | 48.39618 | 15.01278 | 90° | 82km/h | 13878m | -19.0m/s | -59.1°C | 8.2% | 0hPa | 2.6V | 00:00:00 | 00:00:00 | 00:00:00 | |
| OE3OSB-13 | 2026-08-31 03:33:09 | 48.39619 | 15.01206 | 90° | 91km/h | 13914m | -18.6m/s | -59.0°C | 4.1% | -1.0hPa | 2.6V | 00:00:00 | 00:00:00 | 00:00:00 | |
| OM5KV | 2026-08-31 03:33:08 | 48.39619 | 15.01206 | 92° | 93km/h | 13914m | -18.6m/s | -59.0°C | 4.3% | 0hPa | 2.6V | 08:25:00 | 00:00:00 | 00:00:00 | |
| OK1ALN | 2026-08-31 03:33:07 | 48.39619 | 15.01171 | 91° | 91km/h | 13933m | -19.0m/s | -58.9°C | 4.3% | 0hPa | 2.6V | 08:25:00 | 00:00:00 | 00:00:00 | |
| OE5DXL-15 | 2026-08-31 03:33:06 | 48.39619 | 15.01101 | 92° | 73km/h | 13971m | -19.1m/s | -58.8°C | 7.8% | 0hPa | 2.6V | 00:00:00 | 00:00:00 | 00:00:00 | |
| DL6DJ-15 | 2026-08-31 03:33:05 | 48.39623 | 15.00973 | 91° | 82km/h | 14046m | -19.4m/s | -58.7°C | 3.9% | -1.0hPa | 2.6V | 00:00:00 | 00:00:00 | 00:00:00 | |
| PG1ADW-2 | 2026-08-31 03:33:01 | 48.39623 | 15.00942 | 92° | 78km/h | 14065m | -18.9m/s | -58.5°C | 7.6% | 0hPa | 2.6V | 00:00:00 | 00:00:00 | 00:00:00 | |
| OM5KV | 2026-08-31 03:32:59 | 48.39623 | 15.00913 | 93° | 77km/h | 14084m | -18.7m/s | -58.5°C | 4.0% | 0hPa | 2.6V | 08:25:00 | 00:00:00 | 00:00:00 | |
| OE8JPQ-2 | 2026-08-31 03:32:58 | 48.39625 | 15.00856 | 90° | 75km/h | 14122m | -19.5m/s | -58.2°C | 7.4% | 0hPa | 2.6V | 00:00:00 | 00:00:00 | 00:00:00 | |
| DO3MHA-12 | 2026-08-31 03:32:55 | 48.39624 | 15.00775 | 90° | 68km/h | 14181m | -18.7m/s | -58.4°C | 7.4% | 0hPa | 2.6V | 00:00:00 | 01:44:04 | 00:00:00 | |
| OM5KV | 2026-08-31 03:32:53 | 48.39623 | 15.00749 | 87° | 68km/h | 14199m | -19.0m/s | -58.5°C | 3.9% | 0hPa | 2.5V | 08:25:00 | 00:00:00 | 00:00:00 | |
| OE5DRO-10 | 2026-08-31 03:32:52 | 48.39621 | 15.00697 | 86° | 71km/h | 14237m | -18.8m/s | -58.7°C | 7.5% | 0hPa | 2.5V | 00:00:00 | 00:00:00 | 00:00:00 | |
| OE5WHR-10 | 2026-08-31 03:32:51 | 48.39620 | 15.00671 | 86° | 71km/h | 14255m | -18.6m/s | -58.9°C | 7.5% | 0hPa | 2.5V | 00:00:00 | 01:44:00 | 00:00:00 | |
| OM5KV | 2026-08-31 03:32:50 | 48.39620 | 15.00671 | 87° | 69km/h | 14255m | -18.7m/s | -58.9°C | 3.9% | 0hPa | 2.5V | 08:25:00 | 00:00:00 | 00:00:00 | |
| OM5KV | 2026-08-31 03:32:48 | 48.39616 | 15.00620 | 80° | 66km/h | 14292m | -19.1m/s | -59.1°C | 3.9% | 0hPa | 2.5V | 08:25:00 | 00:00:00 | 00:00:00 | |
| OK1ALN | 2026-08-31 03:32:47 | 48.39612 | 15.00595 | 79° | 68km/h | 14311m | -19.7m/s | -59.1°C | 4.0% | 0hPa | 2.5V | 08:25:00 | 00:00:00 | 00:00:00 | |
| OE3JTB-15 | 2026-08-31 03:32:46 | 48.39606 | 15.00544 | 79° | 75km/h | 14350m | -18.7m/s | -58.4°C | 7.3% | 0hPa | 2.5V | 00:00:00 | 01:43:55 | 00:00:00 | |
| DO3MHA-12 | 2026-08-31 03:32:45 | 48.39602 | 15.00520 | 78° | 71km/h | 14368m | -18.7m/s | -58.0°C | 6.9% | 0hPa | 2.5V | 00:00:00 | 01:43:54 | 00:00:00 | |
| OM5KV | 2026-08-31 03:32:44 | 48.39602 | 15.00520 | 78° | 64km/h | 14368m | -18.7m/s | -58.0°C | 3.5% | 0hPa | 2.5V | 08:25:00 | 00:00:00 | 00:00:00 | |
| OM5KV | 2026-08-31 03:32:42 | 48.39594 | 15.00472 | 75° | 68km/h | 14407m | -20.0m/s | -58.0°C | 3.5% | 0hPa | 2.5V | 08:25:00 | 00:00:00 | 00:00:00 | |
| S52SK | 2026-08-31 03:32:41 | 48.39589 | 15.00447 | 74° | 69km/h | 14427m | -19.7m/s | -58.1°C | 3.3% | 0hPa | 2.5V | 00:00:00 | 00:00:00 | 00:00:00 | |
| OE3OSB-13 | 2026-08-31 03:32:38 | 48.39566 | 15.00345 | 68° | 73km/h | 14503m | -20.2m/s | -57.8°C | 3.1% | -1.0hPa | 2.5V | 00:00:00 | 00:00:00 | 00:00:00 | |
| OE5DXL-15 | 2026-08-31 03:32:36 | 48.39553 | 15.00291 | 71° | 73km/h | 14544m | -19.2m/s | -57.7°C | 6.7% | 0hPa | 2.5V | 00:00:00 | 00:00:00 | 00:00:00 | |
| OE5MMP-10 | 2026-08-31 03:32:35 | 48.39546 | 15.00264 | 71° | 80km/h | 14563m | -19.2m/s | -57.7°C | 6.8% | 0hPa | 2.5V | 08:25:00 | 01:43:44 | 00:00:00 | |
| OE5DRO-10 | 2026-08-31 03:32:33 | 48.39532 | 15.00209 | 68° | 78km/h | 14602m | -20.3m/s | -57.2°C | 6.5% | 0hPa | 2.5V | 00:00:00 | 00:00:00 | 00:00:00 | |
| OM5KV | 2026-08-31 03:32:32 | 48.39532 | 15.00209 | 69° | 78km/h | 14602m | -20.3m/s | -57.3°C | 3.3% | 0hPa | 2.5V | 08:25:00 | 00:00:00 | 00:00:00 | |
| OE5WHR-10 | 2026-08-31 03:32:30 | 48.39510 | 15.00123 | 71° | 75km/h | 14662m | -19.5m/s | -57.2°C | 6.5% | 0hPa | 2.5V | 00:00:00 | 00:00:00 | 00:00:00 | |
| OM5KV | 2026-08-31 03:32:27 | 48.39496 | 15.00066 | 70° | 80km/h | 14702m | -20.6m/s | -57.4°C | 3.3% | 0hPa | 2.5V | 08:26:00 | 00:00:00 | 00:00:00 | |
| OE5MMP-10 | 2026-08-31 03:32:25 | 48.39476 | 14.99980 | 72° | 77km/h | 14762m | -19.3m/s | -57.4°C | 6.6% | 0hPa | 2.5V | 00:00:00 | 01:43:34 | 00:00:00 | |
| DO3MHA-12 | 2026-08-31 03:32:23 | 48.39463 | 14.99924 | 71° | 75km/h | 14801m | -20.5m/s | -57.4°C | 6.5% | 0hPa | 2.5V | 08:25:00 | 01:43:32 | 00:00:00 | |
| OM5KV | 2026-08-31 03:32:21 | 48.39456 | 14.99895 | 72° | 80km/h | 14822m | -20.9m/s | -57.5°C | 3.2% | 0hPa | 2.5V | 08:26:00 | 00:00:00 | 00:00:00 | |
| OE8JPQ-2 | 2026-08-31 03:32:19 | 48.39439 | 14.99811 | 74° | 64km/h | 14882m | -20.0m/s | -57.6°C | 6.6% | 0hPa | 2.5V | 00:00:00 | 01:43:28 | 00:00:00 | |
| OE3JTB-15 | 2026-08-31 03:32:17 | 48.39428 | 14.99758 | 74° | 62km/h | 14923m | -21.0m/s | -57.4°C | 6.4% | 0hPa | 2.5V | 00:00:00 | 00:00:00 | 00:00:00 | |
| PG1ADW-2 | 2026-08-31 03:32:16 | 48.39423 | 14.99730 | 75° | 60km/h | 14943m | -19.6m/s | -57.4°C | 6.3% | 0hPa | 2.5V | 00:00:00 | 01:43:25 | 00:00:00 | |
| OE5MMP-10 | 2026-08-31 03:32:15 | 48.39418 | 14.99704 | 75° | 62km/h | 14962m | -18.9m/s | -57.4°C | 6.4% | 0hPa | 2.5V | 00:00:00 | 01:43:24 | 00:00:00 | |
| OE5DRO-10 | 2026-08-31 03:32:14 | 48.39413 | 14.99679 | 74° | 60km/h | 14981m | -19.3m/s | -57.5°C | 6.4% | 0hPa | 2.5V | 08:25:00 | 00:00:00 | 00:00:00 | |
| DO3MHA-12 | 2026-08-31 03:32:13 | 48.39409 | 14.99654 | 74° | 60km/h | 15001m | -20.5m/s | -57.3°C | 6.4% | 0hPa | 2.6V | 00:00:00 | 01:43:22 | 00:00:00 | |
| OE5WHR-10 | 2026-08-31 03:32:09 | 48.39393 | 14.99562 | 75° | 58km/h | 15082m | -19.7m/s | -56.9°C | 6.1% | 0hPa | 2.6V | 00:00:00 | 00:00:00 | 00:00:00 | |
| OE3OSB-13 | 2026-08-31 03:32:07 | 48.39380 | 14.99501 | 71° | 57km/h | 15143m | -20.6m/s | -56.9°C | 2.7% | -1.0hPa | 2.6V | 00:00:00 | 00:00:00 | 00:00:00 | |
| OE5DXL-15 | 2026-08-31 03:32:06 | 48.39380 | 14.99501 | 72° | 62km/h | 15143m | -20.6m/s | -56.8°C | 6.0% | 0hPa | 2.6V | 00:00:00 | 00:00:00 | 00:00:00 | |
| OE5MMP-10 | 2026-08-31 03:32:05 | 48.39375 | 14.99480 | 73° | 58km/h | 15163m | -20.1m/s | -56.8°C | 5.9% | 0hPa | 2.6V | 00:00:00 | 01:43:14 | 00:00:00 | |
| OM5KV | 2026-08-31 03:32:04 | 48.39376 | 14.99480 | 73° | 57km/h | 15163m | -20.2m/s | -56.8°C | 2.8% | 0hPa | 2.6V | 08:26:00 | 00:00:00 | 00:00:00 | |
| OE8JPQ-2 | 2026-08-31 03:31:59 | 48.39344 | 14.99357 | 69° | 62km/h | 15286m | -19.9m/s | -56.3°C | 5.6% | 0hPa | 2.6V | 00:00:00 | 00:00:00 | 00:00:00 | |
| OM5KV | 2026-08-31 03:31:58 | 48.39344 | 14.99357 | 69° | 58km/h | 15286m | -20.0m/s | -56.4°C | 2.6% | 0hPa | 2.5V | 08:26:00 | 00:00:00 | 00:00:00 | |
| PG1ADW-2 | 2026-08-31 03:31:56 | 48.39327 | 14.99296 | 71° | 62km/h | 15347m | -21.8m/s | -56.3°C | 5.4% | 0hPa | 2.5V | 08:26:00 | 00:00:00 | 00:00:00 | |
| OE5FHM-15 | 2026-08-31 03:31:55 | 48.39323 | 14.99274 | 73° | 58km/h | 15369m | -21.1m/s | -56.4°C | 5.4% | 0hPa | 2.5V | 00:00:00 | 01:43:04 | 00:00:00 | |
| DO3MHA-12 | 2026-08-31 03:31:53 | 48.39314 | 14.99230 | 74° | 62km/h | 15410m | -20.7m/s | -56.6°C | 5.4% | 0hPa | 2.6V | 00:00:00 | 01:43:02 | 00:00:00 | |
| OM5KV | 2026-08-31 03:31:52 | 48.39314 | 14.99230 | 74° | 58km/h | 15410m | -20.7m/s | -56.6°C | 2.5% | 0hPa | 2.5V | 08:26:00 | 00:00:00 | 00:00:00 | |
| OE5WHR-10 | 2026-08-31 03:31:48 | 48.39295 | 14.99118 | 78° | 62km/h | 15515m | -20.8m/s | -57.1°C | 5.6% | 0hPa | 2.5V | 00:00:00 | 01:42:57 | 00:00:00 | |
| OM5KV | 2026-08-31 03:31:47 | 48.39295 | 14.99118 | 78° | 60km/h | 15515m | -20.8m/s | -57.1°C | 2.5% | 0hPa | 2.5V | 08:26:00 | 00:00:00 | 00:00:00 | |
| OK1ALN | 2026-08-31 03:31:46 | 48.39291 | 14.99096 | 77° | 60km/h | 15536m | -21.4m/s | -57.2°C | 2.4% | 0hPa | 2.5V | 08:26:00 | 00:00:00 | 00:00:00 | |
| OE5MMP-10 | 2026-08-31 03:31:45 | 48.39284 | 14.99049 | 80° | 66km/h | 15578m | -20.4m/s | -57.3°C | 5.6% | 0hPa | 2.5V | 00:00:00 | 01:42:54 | 00:00:00 | |
| DO3MHA-12 | 2026-08-31 03:31:43 | 48.39279 | 14.99001 | 82° | 60km/h | 15618m | -20.3m/s | -57.6°C | 5.7% | 0hPa | 2.5V | 00:00:00 | 01:42:52 | 00:00:00 | |
| OM5KV | 2026-08-31 03:31:42 | 48.39280 | 14.99001 | 82° | 64km/h | 15618m | -20.4m/s | -57.7°C | 2.5% | 0hPa | 2.5V | 08:26:00 | 00:00:00 | 00:00:00 | |
| OM5KV | 2026-08-31 03:31:40 | 48.39274 | 14.98953 | 84° | 66km/h | 15658m | -21.3m/s | -57.9°C | 2.5% | 0hPa | 2.5V | 08:27:00 | 00:00:00 | 00:00:00 | |
| OE8JPQ-2 | 2026-08-31 03:31:39 | 48.39271 | 14.98903 | 88° | 53km/h | 15700m | -20.2m/s | -57.9°C | 5.7% | 0hPa | 2.5V | 00:00:00 | 00:00:00 | 00:00:00 | |
| PG1ADW-2 | 2026-08-31 03:31:36 | 48.39269 | 14.98829 | 89° | 49km/h | 15761m | -21.7m/s | -57.9°C | 5.7% | 0hPa | 2.5V | 00:00:00 | 00:00:00 | 00:00:00 | |
| OE5MMP-10 | 2026-08-31 03:31:35 | 48.39269 | 14.98804 | 91° | 58km/h | 15783m | -21.4m/s | -57.9°C | 5.6% | 0hPa | 2.5V | 00:00:00 | 01:42:44 | 00:00:00 | |
| OM5KV | 2026-08-31 03:31:31 | 48.39271 | 14.98731 | 96° | 60km/h | 15845m | -21.2m/s | -57.7°C | 2.3% | 0hPa | 2.5V | 08:27:00 | 00:00:00 | 00:00:00 | |
| S52SK | 2026-08-31 03:31:30 | 48.39273 | 14.98709 | 94° | 58km/h | 15866m | -21.5m/s | -57.5°C | 2.1% | 0hPa | 2.5V | 00:00:00 | 00:00:00 | 00:00:00 | |
| OE5WHR-10 | 2026-08-31 03:31:27 | 48.39277 | 14.98626 | 97° | 35km/h | 15950m | -20.9m/s | -57.5°C | 5.4% | 0hPa | 2.5V | 08:26:00 | 00:00:00 | 00:00:00 | |
| OE5MMP-10 | 2026-08-31 03:31:25 | 48.39279 | 14.98591 | 93° | 37km/h | 15991m | -21.2m/s | -57.3°C | 5.3% | 0hPa | 2.5V | 00:00:00 | 01:42:34 | 00:00:00 | |
| OE5FHM-15 | 2026-08-31 03:31:22 | 48.39280 | 14.98544 | 93° | 38km/h | 16056m | -21.3m/s | -57.3°C | 5.3% | 0hPa | 2.5V | 00:00:00 | 01:42:31 | 00:00:00 | |
| OE3JTB-15 | 2026-08-31 03:31:19 | 48.39280 | 14.98505 | 83° | 38km/h | 16120m | -21.9m/s | -57.5°C | 5.4% | 0hPa | 2.5V | 00:00:00 | 01:42:28 | 00:00:00 | |
| OE5DRO-10 | 2026-08-31 03:31:17 | 48.39278 | 14.98481 | 82° | 38km/h | 16164m | -21.9m/s | -57.7°C | 5.5% | 0hPa | 2.5V | 00:00:00 | 00:00:00 | 00:00:00 | |
| PG1ADW-2 | 2026-08-31 03:31:16 | 48.39277 | 14.98469 | 82° | 37km/h | 16185m | -21.4m/s | -57.8°C | 5.5% | 0hPa | 2.5V | 00:00:00 | 00:00:00 | 00:00:00 | |
| OE5MMP-10 | 2026-08-31 03:31:15 | 48.39276 | 14.98458 | 79° | 31km/h | 16207m | -21.7m/s | -58.0°C | 5.6% | 0hPa | 2.5V | 00:00:00 | 01:42:24 | 00:00:00 | |
| OM5KV | 2026-08-31 03:31:10 | 48.39266 | 14.98417 | 69° | 33km/h | 16296m | -22.2m/s | -58.0°C | 2.2% | 0hPa | 2.5V | 08:27:00 | 00:00:00 | 00:00:00 | |
| OM5KV | 2026-08-31 03:31:09 | 48.39263 | 14.98406 | 68° | 31km/h | 16318m | -21.6m/s | -57.9°C | 2.2% | 0hPa | 2.5V | 08:27:00 | 00:00:00 | 00:00:00 | |
| OE5DXL-15 | 2026-08-31 03:31:06 | 48.39247 | 14.98360 | 63° | 42km/h | 16407m | -22.5m/s | -58.1°C | 5.7% | 0hPa | 2.5V | 00:00:00 | 00:00:00 | 00:00:00 | |
| OE5MMP-10 | 2026-08-31 03:31:05 | 48.39243 | 14.98347 | 63° | 42km/h | 16430m | -21.9m/s | -57.9°C | 5.6% | 0hPa | 2.5V | 08:26:00 | 01:42:14 | 00:00:00 | |
| OK1ALN | 2026-08-31 03:31:04 | 48.39242 | 14.98347 | 64° | 38km/h | 16430m | -21.9m/s | -58.0°C | 2.2% | 0hPa | 2.5V | 08:27:00 | 00:00:00 | 00:00:00 | |
| DL6DJ-15 | 2026-08-31 03:31:00 | 48.39127 | 14.98065 | 73° | 38km/h | 16882m | -22.9m/s | -56.6°C | 1.8% | -1.0hPa | 2.5V | 00:00:00 | 00:00:00 | 00:00:00 | |
| OM5KV | 2026-08-31 03:30:59 | 48.39214 | 14.98287 | 54° | 44km/h | 16542m | -23.4m/s | -57.4°C | 2.1% | 0hPa | 2.5V | 08:27:00 | 00:00:00 | 00:00:00 | |
| OM5KV | 2026-08-31 03:30:58 | 48.39207 | 14.98273 | 56° | 44km/h | 16565m | -23.1m/s | -57.0°C | 2.0% | 0hPa | 2.5V | 08:27:00 | 00:00:00 | 00:00:00 | |
| OE5DRO-10 | 2026-08-31 03:30:57 | 48.39194 | 14.98246 | 54° | 44km/h | 16610m | -22.9m/s | -56.7°C | 5.1% | 0hPa | 2.5V | 00:00:00 | 00:00:00 | 00:00:00 | |
| PG1ADW-2 | 2026-08-31 03:30:56 | 48.39187 | 14.98232 | 51° | 42km/h | 16633m | -23.1m/s | -56.5°C | 5.1% | 0hPa | 2.5V | 00:00:00 | 01:42:05 | 00:00:00 | |
| OE5MMP-10 | 2026-08-31 03:30:55 | 48.39179 | 14.98218 | 54° | 46km/h | 16656m | -23.2m/s | -56.3°C | 5.0% | 0hPa | 2.5V | 00:00:00 | 01:42:04 | 00:00:00 | |
| OE8JPQ-2 | 2026-08-31 03:30:54 | 48.39172 | 14.98202 | 56° | 42km/h | 16679m | -23.6m/s | -56.4°C | 5.0% | 0hPa | 2.5V | 00:00:00 | 00:00:00 | 00:00:00 | |
| OM5KV | 2026-08-31 03:30:53 | 48.39172 | 14.98202 | 56° | 51km/h | 16679m | -23.6m/s | -56.4°C | 1.9% | 0hPa | 2.5V | 08:27:00 | 00:00:00 | 00:00:00 | |
| OE5FHM-15 | 2026-08-31 03:30:52 | 48.39158 | 14.98171 | 59° | 37km/h | 16725m | -22.8m/s | -56.6°C | 5.1% | 0hPa | 2.5V | 00:00:00 | 01:42:01 | 00:00:00 | |
| OE3JTB-15 | 2026-08-31 03:30:50 | 48.39147 | 14.98140 | 62° | 37km/h | 16770m | -22.8m/s | -56.5°C | 5.1% | 0hPa | 2.5V | 00:00:00 | 00:00:00 | 00:00:00 | |
| OM5KV | 2026-08-31 03:30:47 | 48.39137 | 14.98109 | 70° | 44km/h | 16816m | -22.4m/s | -56.7°C | 2.0% | 0hPa | 2.5V | 08:27:00 | 00:00:00 | 00:00:00 | |
| OM5KV | 2026-08-31 03:30:46 | 48.39133 | 14.98094 | 73° | 42km/h | 16838m | -22.0m/s | -56.8°C | 2.0% | 0hPa | 2.5V | 08:27:00 | 00:00:00 | 00:00:00 | |
| OE5MMP-10 | 2026-08-31 03:30:45 | 48.39127 | 14.98065 | 74° | 38km/h | 16882m | -22.9m/s | -56.6°C | 5.1% | 0hPa | 2.5V | 00:00:00 | 01:41:54 | 00:00:00 | |
| OK1ALN | 2026-08-31 03:30:44 | 48.39127 | 14.98065 | 74° | 38km/h | 16882m | -22.9m/s | -56.6°C | 1.9% | 0hPa | 2.5V | 08:27:00 | 00:00:00 | 00:00:00 | |
| OM5KV | 2026-08-31 03:30:40 | 48.39122 | 14.98007 | 88° | 37km/h | 16973m | -22.4m/s | -56.4°C | 1.9% | 0hPa | 2.5V | 08:27:00 | 00:00:00 | 00:00:00 | |
| OE5DRO-10 | 2026-08-31 03:30:38 | 48.39121 | 14.97966 | 89° | 33km/h | 17042m | -23.7m/s | -55.7°C | 4.7% | 0hPa | 2.5V | 00:00:00 | 00:00:00 | 00:00:00 | |
| OE5MMP-10 | 2026-08-31 03:30:35 | 48.39121 | 14.97924 | 93° | 33km/h | 17111m | -23.4m/s | -55.4°C | 4.6% | 0hPa | 2.5V | 00:00:00 | 01:41:44 | 00:00:00 | |
| OE8JPQ-2 | 2026-08-31 03:30:34 | 48.39122 | 14.97911 | 89° | 29km/h | 17134m | -23.6m/s | -55.2°C | 4.5% | 0hPa | 2.5V | 00:00:00 | 00:00:00 | 00:00:00 | |
| OM5KV | 2026-08-31 03:30:30 | 48.39121 | 14.97871 | 91° | 37km/h | 17204m | -23.5m/s | -55.4°C | 1.7% | 0hPa | 2.5V | 08:27:00 | 00:00:00 | 00:00:00 | |
| OM5KV | 2026-08-31 03:30:29 | 48.39121 | 14.97858 | 91° | 33km/h | 17228m | -23.3m/s | -55.6°C | 1.7% | 0hPa | 2.5V | 08:27:00 | 00:00:00 | 00:00:00 | |
| S52SK | 2026-08-31 03:30:26 | 48.39120 | 14.97823 | 84° | 31km/h | 17297m | -24.6m/s | -55.7°C | 1.7% | 0hPa | 2.5V | 00:00:00 | 00:00:00 | 00:00:00 | |
| OE5MMP-10 | 2026-08-31 03:30:25 | 48.39118 | 14.97799 | 86° | 29km/h | 17346m | -24.5m/s | -55.8°C | 4.7% | 0hPa | 2.5V | 00:00:00 | 01:41:34 | 00:00:00 | |
| OE5WHR-10 | 2026-08-31 03:30:24 | 48.39118 | 14.97788 | 86° | 26km/h | 17370m | -23.7m/s | -55.9°C | 4.7% | 0hPa | 2.5V | 00:00:00 | 00:00:00 | 00:00:00 | |
| OM5KV | 2026-08-31 03:30:23 | 48.39117 | 14.97788 | 86° | 29km/h | 17370m | -23.7m/s | -55.9°C | 1.7% | 0hPa | 2.5V | 08:27:00 | 00:00:00 | 00:00:00 | |
| OE5FHM-15 | 2026-08-31 03:30:22 | 48.39115 | 14.97766 | 78° | 22km/h | 17418m | -24.7m/s | -56.0°C | 4.8% | 0hPa | 2.5V | 00:00:00 | 01:41:31 | 00:00:00 | |
| OE3JTB-15 | 2026-08-31 03:30:21 | 48.39114 | 14.97756 | 78° | 22km/h | 17442m | -24.9m/s | -56.0°C | 4.8% | 0hPa | 2.6V | 00:00:00 | 00:00:00 | 00:00:00 | |
| S52SK | 2026-08-31 03:30:20 | 48.39114 | 14.97756 | 78° | 31km/h | 17442m | -24.9m/s | -56.1°C | 1.8% | 0hPa | 2.6V | 00:00:00 | 00:00:00 | 00:00:00 | |
| OE5DRO-10 | 2026-08-31 03:30:19 | 48.39110 | 14.97734 | 77° | 26km/h | 17491m | -24.0m/s | -55.8°C | 4.8% | 0hPa | 2.6V | 00:00:00 | 00:00:00 | 00:00:00 | |
| PG1ADW-2 | 2026-08-31 03:30:16 | 48.39103 | 14.97707 | 66° | 22km/h | 17563m | -24.7m/s | -55.9°C | 4.8% | 0hPa | 2.5V | 00:00:00 | 00:00:00 | 00:00:00 | |
| OE5MMP-10 | 2026-08-31 03:30:15 | 48.39101 | 14.97698 | 66° | 26km/h | 17587m | -24.7m/s | -56.0°C | 4.8% | 0hPa | 2.5V | 00:00:00 | 01:41:24 | 00:00:00 | |
| SONDE2-11 | 2026-08-31 03:30:14 | 48.39095 | 14.97681 | 62° | 24km/h | 17636m | -23.7m/s | -56.2°C | 1.6% | -1.0hPa | 2.5V | 00:00:00 | 00:00:00 | 00:00:00 | |
| OE8JPQ-2 | 2026-08-31 03:30:12 | 48.39092 | 14.97673 | 60° | 22km/h | 17659m | -23.8m/s | -56.2°C | 4.8% | 0hPa | 2.5V | 00:00:00 | 01:41:21 | 00:00:00 | |
| OM5KV | 2026-08-31 03:30:11 | 48.39092 | 14.97673 | 61° | 24km/h | 17659m | -23.8m/s | -56.2°C | 1.8% | 0hPa | 2.5V | 08:27:00 | 00:00:00 | 00:00:00 | |
| OE5DXL-15 | 2026-08-31 03:30:06 | 48.39074 | 14.97623 | 70° | 18km/h | 17806m | -24.4m/s | -56.4°C | 4.9% | 0hPa | 2.5V | 00:00:00 | 00:00:00 | 00:00:00 | |
| OE5MMP-10 | 2026-08-31 03:30:05 | 48.39072 | 14.97615 | 69° | 16km/h | 17831m | -25.1m/s | -55.9°C | 4.6% | 0hPa | 2.5V | 00:00:00 | 01:41:14 | 00:00:00 | |
| DL6DJ-15 | 2026-08-31 03:29:58 | 48.39060 | 14.97570 | 54° | 9km/h | 18004m | -25.8m/s | -55.4°C | 1.5% | -1.0hPa | 2.5V | 00:00:00 | 00:00:00 | 00:00:00 | |
| PG1ADW-2 | 2026-08-31 03:29:56 | 48.39058 | 14.97563 | 63° | 20km/h | 18057m | -26.6m/s | -55.5°C | 4.5% | 0hPa | 2.5V | 00:00:00 | 00:00:00 | 00:00:00 | |
| OE5MMP-10 | 2026-08-31 03:29:55 | 48.39056 | 14.97560 | 53° | 15km/h | 18083m | -25.1m/s | -55.6°C | 4.5% | 0hPa | 2.5V | 00:00:00 | 01:41:04 | 00:00:00 | |
| OM5KV | 2026-08-31 03:29:54 | 48.39056 | 14.97560 | 54° | 7km/h | 18083m | -25.1m/s | -55.6°C | 1.6% | 0hPa | 2.5V | 00:00:00 | 00:00:00 | 00:00:00 | |
| OE5FHM-15 | 2026-08-31 03:29:52 | 48.39050 | 14.97555 | 27° | 24km/h | 18158m | -25.9m/s | -56.1°C | 4.7% | 0hPa | 2.5V | 00:00:00 | 01:41:01 | 00:00:00 | |
| OM5KV | 2026-08-31 03:29:49 | 48.39044 | 14.97549 | 37° | 15km/h | 18210m | -26.2m/s | -56.6°C | 1.8% | 0hPa | 2.5V | 00:00:00 | 00:00:00 | 00:00:00 | |
| OM5KV | 2026-08-31 03:29:48 | 48.39041 | 14.97547 | 36° | 15km/h | 18236m | -25.5m/s | -56.8°C | 1.8% | 0hPa | 2.5V | 00:00:00 | 00:00:00 | 00:00:00 | |
| OE5MMP-10 | 2026-08-31 03:29:45 | 48.39025 | 14.97531 | 44° | 26km/h | 18338m | -25.2m/s | -57.3°C | 5.3% | 0hPa | 2.5V | 00:00:00 | 01:40:54 | 00:00:00 | |
| SONDE2-11 | 2026-08-31 03:29:43 | 48.39012 | 14.97514 | 37° | 26km/h | 18414m | -26.0m/s | -57.6°C | 1.8% | -1.0hPa | 2.5V | 00:00:00 | 00:00:00 | 00:00:00 | |
| OE5WHR-10 | 2026-08-31 03:29:42 | 48.39012 | 14.97514 | 38° | 27km/h | 18414m | -26.0m/s | -57.5°C | 5.5% | 0hPa | 2.5V | 00:00:00 | 01:40:51 | 00:00:00 | |
| OE5DRO-10 | 2026-08-31 03:29:41 | 48.39007 | 14.97507 | 46° | 27km/h | 18440m | -25.9m/s | -57.4°C | 5.5% | 0hPa | 2.5V | 00:00:00 | 00:00:00 | 00:00:00 | |
| DO3MHA-12 | 2026-08-31 03:29:40 | 48.39002 | 14.97499 | 50° | 29km/h | 18466m | -26.6m/s | -57.2°C | 5.5% | 0hPa | 2.5V | 00:00:00 | 01:40:49 | 00:00:00 | |
| OM5KV | 2026-08-31 03:29:37 | 48.38994 | 14.97482 | 54° | 27km/h | 18518m | -25.7m/s | -56.4°C | 1.8% | 0hPa | 2.6V | 00:00:00 | 00:00:00 | 00:00:00 | |
| OE5DXL-15 | 2026-08-31 03:29:36 | 48.38985 | 14.97466 | 50° | 20km/h | 18570m | -26.5m/s | -55.9°C | 4.9% | 0hPa | 2.6V | 08:28:00 | 00:00:00 | 00:00:00 | |
| OE5MMP-10 | 2026-08-31 03:29:35 | 48.38981 | 14.97458 | 59° | 29km/h | 18596m | -26.6m/s | -55.8°C | 4.9% | 0hPa | 2.6V | 08:28:00 | 01:40:44 | 00:00:00 | |
| OM5KV | 2026-08-31 03:29:31 | 48.38970 | 14.97429 | 59° | 29km/h | 18673m | -26.4m/s | -56.0°C | 1.7% | 0hPa | 2.5V | 00:00:00 | 00:00:00 | 00:00:00 | |
| DO3MHA-12 | 2026-08-31 03:29:30 | 48.38963 | 14.97409 | 69° | 26km/h | 18724m | -26.6m/s | -55.9°C | 4.9% | 0hPa | 2.5V | 00:00:00 | 01:40:39 | 00:00:00 | |
| DL6DJ-15 | 2026-08-31 03:29:27 | 48.38956 | 14.97378 | 70° | 26km/h | 18803m | -26.3m/s | -55.6°C | 1.5% | -1.0hPa | 2.5V | 00:00:00 | 00:00:00 | 00:00:00 | |
| OE5MMP-10 | 2026-08-31 03:29:25 | 48.38951 | 14.97359 | 69° | 18km/h | 18856m | -27.1m/s | -55.6°C | 4.7% | 0hPa | 2.5V | 00:00:00 | 01:40:34 | 00:00:00 | |
| OE3JTB-15 | 2026-08-31 03:29:23 | 48.38946 | 14.97342 | 67° | 16km/h | 18910m | -27.2m/s | -55.1°C | 4.5% | 0hPa | 2.5V | 08:28:00 | 00:00:00 | 00:00:00 | |
| OE5FHM-15 | 2026-08-31 03:29:22 | 48.38944 | 14.97335 | 67° | 16km/h | 18937m | -26.3m/s | -55.1°C | 4.6% | 0hPa | 2.5V | 00:00:00 | 01:40:31 | 00:00:00 | |
| OE5WHR-10 | 2026-08-31 03:29:21 | 48.38942 | 14.97328 | 61° | 15km/h | 18964m | -27.1m/s | -55.0°C | 4.5% | 0hPa | 2.5V | 00:00:00 | 00:00:00 | 00:00:00 | |
| DO3MHA-12 | 2026-08-31 03:29:20 | 48.38939 | 14.97323 | 48° | 13km/h | 18991m | -27.1m/s | -54.6°C | 4.4% | 0hPa | 2.5V | 00:00:00 | 01:40:29 | 00:00:00 | |
| PG1ADW-2 | 2026-08-31 03:29:16 | 48.38929 | 14.97305 | 48° | 15km/h | 19099m | -27.2m/s | -54.8°C | 4.5% | 0hPa | 2.5V | 00:00:00 | 00:00:00 | 00:00:00 | |
| OE5MMP-10 | 2026-08-31 03:29:15 | 48.38927 | 14.97303 | 40° | 11km/h | 19127m | -28.0m/s | -54.9°C | 4.5% | 0hPa | 2.5V | 00:00:00 | 01:40:24 | 00:00:00 | |
| SONDE2-11 | 2026-08-31 03:29:12 | 48.38919 | 14.97291 | 61° | 9km/h | 19237m | -27.9m/s | -55.7°C | 1.5% | -1.0hPa | 2.5V | 00:00:00 | 00:00:00 | 00:00:00 | |
| DO3MHA-12 | 2026-08-31 03:29:10 | 48.38918 | 14.97288 | 69° | 16km/h | 19265m | -27.9m/s | -55.8°C | 4.8% | 0hPa | 2.5V | 08:28:00 | 01:40:19 | 00:00:00 | |
| S52SK | 2026-08-31 03:29:09 | 48.38918 | 14.97288 | 69° | 9km/h | 19265m | -28.0m/s | -55.8°C | 1.7% | 0hPa | 2.5V | 08:28:00 | 00:00:00 | 00:00:00 | |
| OE5DXL-15 | 2026-08-31 03:29:06 | 48.38914 | 14.97271 | 64° | 16km/h | 19374m | -28.1m/s | -56.0°C | 5.0% | 0hPa | 2.5V | 00:00:00 | 00:00:00 | 00:00:00 | |
| OE5MMP-10 | 2026-08-31 03:29:05 | 48.38912 | 14.97266 | 72° | 20km/h | 19402m | -28.6m/s | -55.9°C | 4.9% | 0hPa | 2.5V | 00:00:00 | 01:40:14 | 00:00:00 | |
| S52SK | 2026-08-31 03:29:04 | 48.38912 | 14.97266 | 73° | 18km/h | 19402m | -28.7m/s | -55.9°C | 1.7% | 0hPa | 2.6V | 00:00:00 | 00:00:00 | 00:00:00 | |
| OE3OSB-13 | 2026-08-31 03:29:01 | 48.38904 | 14.97232 | 63° | 20km/h | 19543m | -28.3m/s | -54.9°C | 1.5% | -1.0hPa | 2.6V | 00:00:00 | 00:00:00 | 00:00:00 | |
| OE5WHR-10 | 2026-08-31 03:29:00 | 48.38904 | 14.97232 | 64° | 16km/h | 19544m | -28.3m/s | -54.8°C | 4.7% | 0hPa | 2.6V | 00:00:00 | 00:00:00 | 00:00:00 | |
| DO3MHA-12 | 2026-08-31 03:28:56 | 48.38893 | 14.97207 | 56° | 18km/h | 19654m | -27.8m/s | -55.3°C | 4.8% | 0hPa | 2.6V | 00:00:00 | 01:40:05 | 00:00:00 | |
| OE5MMP-10 | 2026-08-31 03:28:55 | 48.38890 | 14.97201 | 59° | 18km/h | 19682m | -27.8m/s | -55.5°C | 4.9% | 0hPa | 2.6V | 00:00:00 | 01:40:04 | 00:00:00 | |
| OE3JTB-15 | 2026-08-31 03:28:54 | 48.38887 | 14.97194 | 60° | 15km/h | 19709m | -27.4m/s | -55.6°C | 5.0% | 0hPa | 2.6V | 00:00:00 | 00:00:00 | 00:00:00 | |
| OE5FHM-15 | 2026-08-31 03:28:52 | 48.38882 | 14.97181 | 61° | 15km/h | 19764m | -28.4m/s | -55.4°C | 4.9% | 0hPa | 2.6V | 08:29:00 | 01:40:01 | 00:00:00 | |
| DO3MHA-12 | 2026-08-31 03:28:46 | 48.38866 | 14.97154 | 40° | 11km/h | 19938m | -29.4m/s | -54.4°C | 4.5% | 0hPa | 2.7V | 00:00:00 | 01:39:55 | 00:00:00 | |
| OE5MMP-10 | 2026-08-31 03:28:45 | 48.38863 | 14.97151 | 33° | 11km/h | 19967m | -29.2m/s | -54.5°C | 4.5% | 0hPa | 2.7V | 00:00:00 | 01:39:54 | 00:00:00 | |
| OE5DRO-10 | 2026-08-31 03:28:44 | 48.38861 | 14.97149 | 23° | 13km/h | 19995m | -27.6m/s | -54.5°C | 4.6% | 0hPa | 2.7V | 00:00:00 | 00:00:00 | 00:00:00 | |
| OK1ALN | 2026-08-31 03:28:40 | 48.38855 | 14.97149 | 348° | 9km/h | 20079m | -28.7m/s | -54.5°C | 1.6% | 0hPa | 2.7V | 08:29:00 | 00:00:00 | 00:00:00 | |
| OE5WHR-10 | 2026-08-31 03:28:39 | 48.38850 | 14.97151 | 345° | 13km/h | 20136m | -29.3m/s | -54.4°C | 4.5% | 0hPa | 2.7V | 00:00:00 | 01:39:48 | 00:00:00 | |
| DO3MHA-12 | 2026-08-31 03:28:36 | 48.38842 | 14.97151 | 20° | 16km/h | 20225m | -30.7m/s | -53.9°C | 4.3% | 0hPa | 2.7V | 00:00:00 | 01:39:45 | 00:00:00 | |
| OE5MMP-10 | 2026-08-31 03:28:35 | 48.38839 | 14.97149 | 25° | 16km/h | 20255m | -30.4m/s | -53.9°C | 4.3% | 0hPa | 2.7V | 00:00:00 | 01:39:44 | 00:00:00 | |
| DF7PN | 2026-08-31 03:28:33 | 48.38832 | 14.97146 | 25° | 16km/h | 20314m | -29.8m/s | -53.9°C | 1.4% | -1.0hPa | 2.5V | 00:00:00 | 00:00:00 | 00:00:00 | |
| OE5REO-15 | 2026-08-31 03:28:29 | 48.38822 | 14.97136 | 41° | 16km/h | 20404m | -29.7m/s | -54.4°C | 1.5% | 0hPa | 2.5V | 08:29:00 | 00:00:00 | 00:00:00 | |
| OE8JPQ-2 | 2026-08-31 03:28:27 | 48.38812 | 14.97126 | 48° | 13km/h | 20492m | -30.2m/s | -54.6°C | 4.5% | 0hPa | 2.5V | 00:00:00 | 00:00:00 | 08:30:00 | |
| DO3MHA-12 | 2026-08-31 03:28:26 | 48.38810 | 14.97122 | 50° | 9km/h | 20522m | -30.1m/s | -54.6°C | 4.5% | 0hPa | 2.6V | 00:00:00 | 01:39:35 | 00:00:00 | |
| OE5MMP-10 | 2026-08-31 03:28:25 | 48.38808 | 14.97119 | 50° | 7km/h | 20552m | -30.4m/s | -54.5°C | 4.5% | 0hPa | 2.6V | 00:00:00 | 01:39:34 | 00:00:00 | |
| OE5FHM-15 | 2026-08-31 03:28:22 | 48.38805 | 14.97111 | 84° | 9km/h | 20641m | -30.0m/s | -54.7°C | 4.5% | 0hPa | 2.6V | 00:00:00 | 01:39:31 | 00:00:00 | |
| OK1ALN | 2026-08-31 03:28:20 | 48.38805 | 14.97108 | 96° | 7km/h | 20671m | -30.5m/s | -54.8°C | 1.6% | 0hPa | 2.6V | 08:29:00 | 00:00:00 | 00:00:00 | |
| OE5WHR-10 | 2026-08-31 03:28:18 | 48.38806 | 14.97103 | 109° | 9km/h | 20760m | -30.8m/s | -55.0°C | 4.6% | 0hPa | 2.6V | 08:29:00 | 00:00:00 | 00:00:00 | |
| DO3MHA-12 | 2026-08-31 03:28:16 | 48.38807 | 14.97099 | 103° | 13km/h | 20822m | -31.3m/s | -55.1°C | 4.7% | 0hPa | 2.5V | 00:00:00 | 01:39:25 | 00:00:00 | |
| OE5MMP-10 | 2026-08-31 03:28:15 | 48.38807 | 14.97096 | 98° | 13km/h | 20853m | -30.5m/s | -55.0°C | 4.7% | 0hPa | 2.5V | 00:00:00 | 01:39:24 | 00:00:00 | |
| OE5REO-15 | 2026-08-31 03:28:14 | 48.38807 | 14.97096 | 98° | 9km/h | 20853m | -30.6m/s | -55.0°C | 1.7% | 0hPa | 2.5V | 00:00:00 | 00:00:00 | 00:00:00 | |
| SONDE2-11 | 2026-08-31 03:28:10 | 48.38806 | 14.97069 | 93° | 13km/h | 21035m | -30.2m/s | -55.3°C | 1.6% | -1.0hPa | 2.5V | 00:00:00 | 00:00:00 | 00:00:00 | |
| DO3MHA-12 | 2026-08-31 03:28:06 | 48.38807 | 14.97055 | 103° | 7km/h | 21127m | -31.9m/s | -55.2°C | 4.8% | 0hPa | 2.5V | 00:00:00 | 01:39:15 | 00:00:00 | |
| OE5MMP-10 | 2026-08-31 03:28:05 | 48.38808 | 14.97051 | 124° | 7km/h | 21159m | -30.4m/s | -55.1°C | 4.7% | 0hPa | 2.5V | 00:00:00 | 01:39:14 | 08:30:00 | |
| OE3OSB-13 | 2026-08-31 03:27:59 | 48.38818 | 14.97046 | 171° | 5km/h | 21376m | -31.1m/s | -55.3°C | 1.6% | -1.0hPa | 2.7V | 00:00:00 | 00:00:00 | 00:00:00 | |
| DL6DJ-15 | 2026-08-31 03:27:54 | 48.38822 | 14.97045 | 143° | 5km/h | 21499m | -31.9m/s | -55.5°C | 1.7% | -1.0hPa | 2.7V | 00:00:00 | 00:00:00 | 00:00:00 | |
| S52SK | 2026-08-31 03:27:53 | 48.38822 | 14.97045 | 144° | 5km/h | 21499m | -31.9m/s | -55.5°C | 1.8% | 0hPa | 2.7V | 00:00:00 | 00:00:00 | 00:00:00 | |
| OE5FHM-15 | 2026-08-31 03:27:52 | 48.38825 | 14.97042 | 139° | 7km/h | 21562m | -32.7m/s | -55.4°C | 5.0% | 0hPa | 2.7V | 00:00:00 | 01:39:01 | 00:00:00 | |
| SP3BTT-10 | 2026-08-31 03:27:47 | 48.38829 | 14.97044 | 237° | 5km/h | 21723m | -32.8m/s | -55.7°C | 5.1% | 0hPa | 2.7V | 00:00:00 | 00:00:00 | 00:00:00 | |
| DO3MHA-12 | 2026-08-31 03:27:46 | 48.38830 | 14.97045 | 265° | 7km/h | 21756m | -33.1m/s | -55.6°C | 5.1% | 0hPa | 2.7V | 00:00:00 | 01:38:55 | 00:00:00 | |
| OE5MMP-10 | 2026-08-31 03:27:45 | 48.38830 | 14.97047 | 284° | 9km/h | 21789m | -33.1m/s | -55.6°C | 5.1% | 0hPa | 2.7V | 00:00:00 | 01:38:54 | 00:00:00 | |
| OE5REO-15 | 2026-08-31 03:27:43 | 48.38829 | 14.97050 | 298° | 7km/h | 21822m | -33.4m/s | -55.7°C | 1.9% | 0hPa | 2.7V | 00:00:00 | 00:00:00 | 00:00:00 | |
| DB0UT-7 | 2026-08-31 03:27:42 | 48.38827 | 14.97055 | 314° | 9km/h | 21888m | -33.9m/s | -55.6°C | 5.1% | 0hPa | 2.7V | 00:00:00 | 01:38:51 | 00:00:00 | |
| OK1ALN | 2026-08-31 03:27:39 | 48.38823 | 14.97059 | 333° | 9km/h | 21957m | -34.1m/s | -55.5°C | 1.9% | 0hPa | 2.7V | 00:00:00 | 00:00:00 | 00:00:00 | |
| SONDE2-11 | 2026-08-31 03:27:38 | 48.38819 | 14.97061 | 355° | 7km/h | 22028m | -37.6m/s | -55.5°C | 1.7% | -1.0hPa | 2.7V | 00:00:00 | 00:00:00 | 00:00:00 | |
| OE5DXL-15 | 2026-08-31 03:27:36 | 48.38814 | 14.97062 | 349° | 9km/h | 22102m | -36.6m/s | -55.4°C | 4.8% | 0hPa | 2.7V | 00:00:00 | 00:00:00 | 00:00:00 | |
| OE5MMP-10 | 2026-08-31 03:27:35 | 48.38812 | 14.97062 | 10° | 9km/h | 22138m | -34.7m/s | -55.5°C | 4.8% | 0hPa | 2.7V | 00:00:00 | 01:38:44 | 00:00:00 | |
| DF7PN | 2026-08-31 03:27:31 | 48.38807 | 14.97065 | 276° | 4km/h | 22267m | -29.2m/s | -55.4°C | 1.7% | -1.0hPa | 2.6V | 00:00:00 | 00:00:00 | 00:00:00 | |
| OE3OSB-13 | 2026-08-31 03:27:28 | 48.38809 | 14.97080 | 259° | 15km/h | 22362m | -14.0m/s | -55.6°C | 2.1% | -1.0hPa | 2.6V | 00:00:00 | 00:00:00 | 00:00:00 | |
| OE3JTB-15 | 2026-08-31 03:27:27 | 48.38808 | 14.97080 | 260° | 7km/h | 22362m | -13.9m/s | -55.5°C | 5.4% | 0hPa | 2.6V | 00:00:00 | 00:00:00 | 00:00:00 | |
| DO3MHA-12 | 2026-08-31 03:27:26 | 48.38809 | 14.97086 | 258° | 9km/h | 22372m | -4.8m/s | -55.6°C | 5.3% | 0hPa | 2.6V | 00:00:00 | 01:38:35 | 00:00:00 | |
| OE5MMP-10 | 2026-08-31 03:27:25 | 48.38810 | 14.97092 | 256° | 9km/h | 22372m | 5.6m/s | -55.7°C | 5.3% | 0hPa | 2.6V | 00:00:00 | 01:38:34 | 00:00:00 | |
| OE8JPQ-2 | 2026-08-31 03:27:23 | 48.38813 | 14.97101 | 235° | 7km/h | 22361m | 4.5m/s | -55.9°C | 5.4% | 0hPa | 2.6V | 00:00:00 | 00:00:00 | 00:00:00 | |
| OE5FHM-15 | 2026-08-31 03:27:22 | 48.38814 | 14.97104 | 246° | 7km/h | 22357m | 4.6m/s | -55.9°C | 5.3% | 0hPa | 2.6V | 00:00:00 | 01:38:31 | 00:00:00 | |
| OK1ALN | 2026-08-31 03:27:19 | 48.38814 | 14.97111 | 299° | 9km/h | 22346m | 4.6m/s | -56.0°C | 2.1% | 0hPa | 2.6V | 00:00:00 | 00:00:00 | 00:00:00 | |
| PG1ADW-2 | 2026-08-31 03:27:16 | 48.38811 | 14.97121 | 285° | 5km/h | 22326m | 4.1m/s | -55.9°C | 5.4% | 0hPa | 2.6V | 00:00:00 | 00:00:00 | 00:00:00 | |
| OE5WHR-10 | 2026-08-31 03:27:15 | 48.38810 | 14.97123 | 285° | 7km/h | 22321m | 6.3m/s | -55.8°C | 5.4% | 0hPa | 2.6V | 00:00:00 | 00:00:00 | 00:00:00 | |
| DB0UT-7 | 2026-08-31 03:27:12 | 48.38810 | 14.97133 | 247° | 7km/h | 22305m | 5.6m/s | -55.9°C | 5.4% | 0hPa | 2.6V | 00:00:00 | 00:00:00 | 00:00:00 | |
| OE5DRO-10 | 2026-08-31 03:27:09 | 48.38812 | 14.97137 | 292° | 7km/h | 22291m | 6.3m/s | -55.8°C | 5.3% | 0hPa | 2.6V | 00:00:00 | 00:00:00 | 00:00:00 | |
| SONDE2-11 | 2026-08-31 03:27:07 | 48.38810 | 14.97140 | 336° | 7km/h | 22281m | 4.0m/s | -55.9°C | 2.0% | -1.0hPa | 2.6V | 00:00:00 | 00:00:00 | 00:00:00 | |
| OE5DXL-15 | 2026-08-31 03:27:06 | 48.38808 | 14.97141 | 349° | 9km/h | 22276m | 5.5m/s | -55.9°C | 5.5% | 0hPa | 2.6V | 00:00:00 | 00:00:00 | 00:00:00 | |
| DO3MHA-12 | 2026-08-31 03:27:05 | 48.38806 | 14.97141 | 5° | 5km/h | 22271m | 5.1m/s | -55.9°C | 5.4% | 0hPa | 2.6V | 00:00:00 | 01:38:14 | 00:00:00 | |
| DF7PN | 2026-08-31 03:27:01 | 48.38802 | 14.97147 | 295° | 5km/h | 22246m | 5.5m/s | -56.1°C | 2.1% | -1.0hPa | 2.7V | 00:00:00 | 00:00:00 | 00:00:00 | |
| OE3OSB-13 | 2026-08-31 03:26:57 | 48.38797 | 14.97150 | 350° | 9km/h | 22227m | 5.2m/s | -56.1°C | 2.0% | -1.0hPa | 2.7V | 00:00:00 | 00:00:00 | 00:00:00 | |
| PG1ADW-2 | 2026-08-31 03:26:56 | 48.38797 | 14.97150 | 351° | 11km/h | 22227m | 5.1m/s | -56.1°C | 5.5% | 0hPa | 2.7V | 00:00:00 | 01:38:05 | 00:00:00 | |
| OE5MMP-10 | 2026-08-31 03:26:55 | 48.38794 | 14.97151 | 340° | 11km/h | 22222m | 4.2m/s | -56.2°C | 5.6% | 0hPa | 2.6V | 00:00:00 | 01:38:04 | 00:00:00 | |
| OE5WHR-10 | 2026-08-31 03:26:54 | 48.38791 | 14.97153 | 333° | 11km/h | 22217m | 4.8m/s | -56.2°C | 5.6% | 0hPa | 2.6V | 00:00:00 | 00:00:00 | 00:00:00 | |
| OE5FHM-15 | 2026-08-31 03:26:52 | 48.38788 | 14.97155 | 352° | 11km/h | 22207m | 4.3m/s | -56.2°C | 5.7% | 0hPa | 2.6V | 00:00:00 | 01:38:01 | 00:00:00 | |
| OE5DRO-10 | 2026-08-31 03:26:50 | 48.38784 | 14.97154 | 17° | 13km/h | 22198m | 6.2m/s | -56.3°C | 5.7% | 0hPa | 2.6V | 00:00:00 | 00:00:00 | 00:00:00 | |
| S52SK | 2026-08-31 03:26:47 | 48.38779 | 14.97152 | 15° | 15km/h | 22187m | 5.3m/s | -56.3°C | 2.3% | 0hPa | 2.6V | 00:00:00 | 00:00:00 | 00:00:00 | |
| OE5MMP-10 | 2026-08-31 03:26:45 | 48.38770 | 14.97147 | 26° | 11km/h | 22172m | 4.3m/s | -56.3°C | 5.7% | 0hPa | 2.6V | 00:00:00 | 01:37:54 | 00:00:00 | |
| OE5REO-15 | 2026-08-31 03:26:42 | 48.38765 | 14.97145 | 1° | 13km/h | 22161m | 5.5m/s | -56.3°C | 2.3% | 0hPa | 2.6V | 00:00:00 | 00:00:00 | 00:00:00 | |
| S52SK | 2026-08-31 03:26:41 | 48.38762 | 14.97146 | 354° | 13km/h | 22156m | 4.6m/s | -56.3°C | 2.4% | 0hPa | 2.6V | 00:00:00 | 00:00:00 | 00:00:00 | |
| OK1ALN | 2026-08-31 03:26:37 | 48.38752 | 14.97148 | 360° | 13km/h | 22135m | 6.1m/s | -56.2°C | 2.3% | 0hPa | 2.6V | 00:00:00 | 00:00:00 | 00:00:00 | |
| OE8JPQ-2 | 2026-08-31 03:26:36 | 48.38744 | 14.97148 | 5° | 11km/h | 22124m | 5.3m/s | -56.2°C | 5.8% | 0hPa | 2.6V | 00:00:00 | 00:00:00 | 00:00:00 | |
| OE5MMP-10 | 2026-08-31 03:26:35 | 48.38741 | 14.97147 | 9° | 13km/h | 22119m | 5.2m/s | -56.2°C | 5.8% | 0hPa | 2.7V | 00:00:00 | 01:37:44 | 08:30:00 | |
| OE5WHR-10 | 2026-08-31 03:26:33 | 48.38735 | 14.97146 | 9° | 11km/h | 22109m | 5.8m/s | -56.1°C | 5.8% | 0hPa | 2.6V | 00:00:00 | 01:37:42 | 00:00:00 | |
| OE5DRO-10 | 2026-08-31 03:26:31 | 48.38727 | 14.97145 | 4° | 11km/h | 22098m | 5.2m/s | -56.1°C | 5.8% | 0hPa | 2.6V | 00:00:00 | 00:00:00 | 08:30:00 | |
| OE3JTB-15 | 2026-08-31 03:26:29 | 48.38720 | 14.97144 | 360° | 9km/h | 22088m | 5.1m/s | -56.1°C | 5.8% | 0hPa | 2.7V | 00:00:00 | 00:00:00 | 00:00:00 | |
| OE5REO-15 | 2026-08-31 03:26:26 | 48.38716 | 14.97144 | 5° | 7km/h | 22077m | 6.1m/s | -56.1°C | 2.4% | 0hPa | 2.6V | 00:00:00 | 00:00:00 | 00:00:00 | |
| OE5MMP-10 | 2026-08-31 03:26:25 | 48.38710 | 14.97144 | 2° | 11km/h | 22066m | 4.6m/s | -56.2°C | 5.8% | 0hPa | 2.6V | 00:00:00 | 01:37:34 | 00:00:00 | |
| OE5FHM-15 | 2026-08-31 03:26:22 | 48.38703 | 14.97146 | 340° | 11km/h | 22050m | 5.2m/s | -56.2°C | 5.8% | 0hPa | 2.6V | 00:00:00 | 01:37:31 | 00:00:00 | |
| DL6DJ-15 | 2026-08-31 03:26:21 | 48.38696 | 14.97150 | 343° | 15km/h | 22040m | 3.7m/s | -56.2°C | 2.2% | -1.0hPa | 2.6V | 00:00:00 | 00:00:00 | 00:00:00 | |
| OK1ALN | 2026-08-31 03:26:17 | 48.38690 | 14.97153 | 326° | 11km/h | 22030m | 5.6m/s | -56.2°C | 2.4% | 0hPa | 2.6V | 00:00:00 | 00:00:00 | 00:00:00 | |
| PG1ADW-2 | 2026-08-31 03:26:16 | 48.38687 | 14.97158 | 319° | 9km/h | 22019m | 5.8m/s | -56.2°C | 5.7% | 0hPa | 2.6V | 00:00:00 | 00:00:00 | 00:00:00 | |
| OE5MMP-10 | 2026-08-31 03:26:15 | 48.38686 | 14.97159 | 333° | 9km/h | 22014m | 5.6m/s | -56.2°C | 5.8% | 0hPa | 2.6V | 00:00:00 | 01:37:24 | 00:00:00 | |
| OE8JPQ-2 | 2026-08-31 03:26:13 | 48.38682 | 14.97161 | 325° | 11km/h | 22004m | 5.4m/s | -56.1°C | 5.8% | 0hPa | 2.6V | 00:00:00 | 00:00:00 | 00:00:00 | |
| OE5DRO-10 | 2026-08-31 03:26:12 | 48.38682 | 14.97163 | 295° | 11km/h | 21998m | 5.5m/s | -56.1°C | 5.7% | 0hPa | 2.6V | 00:00:00 | 00:00:00 | 00:00:00 | |
| OE5REO-15 | 2026-08-31 03:26:10 | 48.38680 | 14.97165 | 298° | 7km/h | 21993m | 4.9m/s | -56.1°C | 2.3% | 0hPa | 2.6V | 00:00:00 | 00:00:00 | 00:00:00 | |
| DB0UT-7 | 2026-08-31 03:26:09 | 48.38678 | 14.97170 | 324° | 11km/h | 21981m | 5.4m/s | -56.1°C | 5.6% | 0hPa | 2.6V | 00:00:00 | 01:37:18 | 00:00:00 | |
| OE5DXL-15 | 2026-08-31 03:26:06 | 48.38674 | 14.97180 | 293° | 13km/h | 21965m | 4.4m/s | -56.0°C | 5.7% | 0hPa | 2.6V | 00:00:00 | 00:00:00 | 00:00:00 | |
| OE5MMP-10 | 2026-08-31 03:26:05 | 48.38672 | 14.97183 | 301° | 11km/h | 21960m | 5.6m/s | -56.0°C | 5.6% | 0hPa | 2.6V | 00:00:00 | 01:37:14 | 00:00:00 | |
| DF7PN | 2026-08-31 03:25:58 | 48.38662 | 14.97209 | 285° | 11km/h | 21924m | 5.4m/s | -56.1°C | 2.2% | -1.0hPa | 2.6V | 00:00:00 | 00:00:00 | 00:00:00 | |
| OE3OSB-13 | 2026-08-31 03:25:54 | 48.38662 | 14.97225 | 268° | 9km/h | 21903m | 5.3m/s | -56.1°C | 2.2% | -1.0hPa | 2.6V | 00:00:00 | 00:00:00 | 00:00:00 | |
| DL6DJ-15 | 2026-08-31 03:25:50 | 48.38656 | 14.97242 | 281° | 13km/h | 21875m | 4.7m/s | -56.2°C | 2.2% | -1.0hPa | 2.6V | 00:00:00 | 00:00:00 | 00:00:00 | |
| DO3MHA-12 | 2026-08-31 03:25:45 | 48.38653 | 14.97267 | 269° | 11km/h | 21853m | 6.1m/s | -56.2°C | 5.8% | 0hPa | 2.6V | 00:00:00 | 01:36:54 | 00:00:00 | |
| OE5REO-15 | 2026-08-31 03:25:38 | 48.38658 | 14.97297 | 209° | 5km/h | 21822m | 5.4m/s | -56.1°C | 2.2% | 0hPa | 2.6V | 00:00:00 | 00:00:00 | 00:00:00 | |
| PG1ADW-2 | 2026-08-31 03:25:36 | 48.38661 | 14.97299 | 49° | 5km/h | 21806m | 5.9m/s | -56.1°C | 5.6% | 0hPa | 2.6V | 00:00:00 | 01:36:45 | 00:00:00 | |
| OE5MMP-10 | 2026-08-31 03:25:35 | 48.38660 | 14.97299 | 346° | 7km/h | 21801m | 4.3m/s | -56.0°C | 5.6% | 0hPa | 2.6V | 00:00:00 | 01:36:44 | 00:00:00 | |
| OE5DRO-10 | 2026-08-31 03:25:34 | 48.38660 | 14.97299 | 319° | 5km/h | 21796m | 5.1m/s | -56.0°C | 5.6% | 0hPa | 2.7V | 00:00:00 | 00:00:00 | 00:00:00 | |
| OE8JPQ-2 | 2026-08-31 03:25:32 | 48.38660 | 14.97303 | 235° | 7km/h | 21785m | 5.6m/s | -56.1°C | 5.7% | 0hPa | 2.6V | 00:00:00 | 00:00:00 | 00:00:00 | |
| OE3JTB-15 | 2026-08-31 03:25:31 | 48.38661 | 14.97306 | 238° | 7km/h | 21779m | 5.4m/s | -56.1°C | 5.6% | 0hPa | 2.6V | 00:00:00 | 01:36:40 | 00:00:00 | |
| OE5WHR-10 | 2026-08-31 03:25:30 | 48.38662 | 14.97308 | 240° | 7km/h | 21773m | 5.2m/s | -56.1°C | 5.6% | 0hPa | 2.6V | 00:00:00 | 01:36:39 | 00:00:00 | |
| DF7PN | 2026-08-31 03:25:27 | 48.38668 | 14.97315 | 207° | 13km/h | 21756m | 5.3m/s | -56.1°C | 2.1% | -1.0hPa | 2.6V | 00:00:00 | 00:00:00 | 00:00:00 | |
| DO3MHA-12 | 2026-08-31 03:25:25 | 48.38673 | 14.97319 | 222° | 5km/h | 21746m | 6.0m/s | -56.0°C | 5.6% | 0hPa | 2.6V | 00:00:00 | 01:36:34 | 00:00:00 | |
| OE3OSB-13 | 2026-08-31 03:25:23 | 48.38674 | 14.97322 | 245° | 4km/h | 21736m | 5.2m/s | -56.1°C | 2.1% | -1.0hPa | 2.6V | 00:00:00 | 00:00:00 | 00:00:00 | |
| OE5FHM-15 | 2026-08-31 03:25:22 | 48.38675 | 14.97324 | 229° | 5km/h | 21731m | 5.6m/s | -56.1°C | 5.5% | 0hPa | 2.6V | 00:00:00 | 01:36:31 | 00:00:00 | |
| DL6DJ-15 | 2026-08-31 03:25:19 | 48.38676 | 14.97326 | 82° | 2km/h | 21710m | 4.3m/s | -56.2°C | 2.1% | -1.0hPa | 2.6V | 00:00:00 | 00:00:00 | 00:00:00 | |
| SP3BTT-10 | 2026-08-31 03:25:18 | 48.38676 | 14.97325 | 83° | 7km/h | 21710m | 4.2m/s | -56.1°C | 5.6% | 0hPa | 2.6V | 00:00:00 | 00:00:00 | 00:00:00 | |
| PG1ADW-2 | 2026-08-31 03:25:16 | 48.38678 | 14.97323 | 152° | 7km/h | 21699m | 5.5m/s | -56.1°C | 5.6% | 0hPa | 2.6V | 00:00:00 | 00:00:00 | 00:00:00 | |
| OE5MMP-10 | 2026-08-31 03:25:15 | 48.38681 | 14.97321 | 155° | 9km/h | 21694m | 4.4m/s | -56.1°C | 5.6% | 0hPa | 2.6V | 00:00:00 | 01:36:24 | 00:00:00 | |
| OE8JPQ-2 | 2026-08-31 03:25:11 | 48.38690 | 14.97314 | 159° | 5km/h | 21675m | 4.2m/s | -56.0°C | 5.7% | 0hPa | 2.6V | 00:00:00 | 00:00:00 | 00:00:00 | |
| OE5WHR-10 | 2026-08-31 03:25:09 | 48.38694 | 14.97313 | 173° | 5km/h | 21664m | 5.6m/s | -56.0°C | 5.6% | 0hPa | 2.6V | 00:00:00 | 00:00:00 | 08:30:00 | |
| OE5DXL-15 | 2026-08-31 03:25:06 | 48.38698 | 14.97310 | 87° | 7km/h | 21648m | 4.5m/s | -55.9°C | 5.6% | 0hPa | 2.7V | 00:00:00 | 00:00:00 | 08:30:00 | |
| DO3MHA-12 | 2026-08-31 03:25:05 | 48.38698 | 14.97308 | 84° | 5km/h | 21643m | 5.8m/s | 0°C | 0% | 0hPa | 2.6V | 00:00:00 | 01:36:14 | 00:00:00 | |
| SONDE2-11 | 2026-08-31 03:25:03 | 48.38698 | 14.97306 | 108° | 2km/h | 21632m | 5.3m/s | -55.8°C | 2.2% | -1.0hPa | 2.6V | 00:00:00 | 00:00:00 | 00:00:00 | |
| OE3JTB-15 | 2026-08-31 03:25:02 | 48.38698 | 14.97305 | 71° | 7km/h | 21626m | 6.0m/s | -55.7°C | 5.6% | 0hPa | 2.6V | 00:00:00 | 00:00:00 | 08:30:00 | |
| DF7PN | 2026-08-31 03:24:56 | 48.38704 | 14.97303 | 186° | 7km/h | 21596m | 5.4m/s | -55.8°C | 2.2% | -1.0hPa | 2.7V | 00:00:00 | 00:00:00 | 00:00:00 | |
| OE3OSB-13 | 2026-08-31 03:24:52 | 48.38704 | 14.97294 | 76° | 5km/h | 21569m | 5.6m/s | -55.9°C | 2.3% | -1.0hPa | 2.7V | 00:00:00 | 00:00:00 | 00:00:00 | |
| DL6DJ-15 | 2026-08-31 03:24:48 | 48.38700 | 14.97283 | 78° | 5km/h | 21549m | 6.2m/s | -55.8°C | 2.2% | -1.0hPa | 2.7V | 00:00:00 | 00:00:00 | 00:00:00 | |
| OE5MMP-10 | 2026-08-31 03:24:45 | 48.38702 | 14.97279 | 159° | 7km/h | 21538m | 4.4m/s | -55.8°C | 5.8% | 0hPa | 2.7V | 00:00:00 | 01:35:54 | 00:00:00 | |
| OE5DRO-10 | 2026-08-31 03:24:37 | 48.38714 | 14.97263 | 75° | 5km/h | 21496m | 5.5m/s | -55.9°C | 5.9% | 0hPa | 2.7V | 00:00:00 | 00:00:00 | 00:00:00 | |
| OE5DXL-15 | 2026-08-31 03:24:36 | 48.38713 | 14.97260 | 52° | 7km/h | 21491m | 3.9m/s | -55.9°C | 5.9% | 0hPa | 2.5V | 00:00:00 | 00:00:00 | 00:00:00 | |
| OE5MMP-10 | 2026-08-31 03:24:35 | 48.38712 | 14.97259 | 44° | 7km/h | 21487m | 5.4m/s | -55.9°C | 5.9% | 0hPa | 2.5V | 00:00:00 | 01:35:44 | 00:00:00 | |
| DB0UT-7 | 2026-08-31 03:24:34 | 48.38712 | 14.97258 | 120° | 5km/h | 21481m | 5.8m/s | -55.9°C | 5.9% | 0hPa | 2.6V | 00:00:00 | 00:00:00 | 00:00:00 | |
| OE3JTB-15 | 2026-08-31 03:24:33 | 48.38712 | 14.97258 | 205° | 7km/h | 21476m | 4.3m/s | -55.9°C | 5.9% | 0hPa | 2.6V | 00:00:00 | 00:00:00 | 00:00:00 | |
| SONDE2-11 | 2026-08-31 03:24:32 | 48.38714 | 14.97260 | 226° | 5km/h | 21470m | 6.1m/s | -55.9°C | 2.4% | -1.0hPa | 2.6V | 00:00:00 | 00:00:00 | 00:00:00 | |
| OE8JPQ-2 | 2026-08-31 03:24:31 | 48.38715 | 14.97262 | 234° | 7km/h | 21465m | 5.1m/s | -55.9°C | 6.0% | 0hPa | 2.6V | 00:00:00 | 00:00:00 | 08:30:00 | |
| SP3BTT-10 | 2026-08-31 03:24:30 | 48.38716 | 14.97265 | 228° | 9km/h | 21460m | 4.1m/s | -55.9°C | 6.0% | 0hPa | 2.7V | 00:00:00 | 00:00:00 | 00:00:00 | |
| OE5WHR-10 | 2026-08-31 03:24:27 | 48.38723 | 14.97270 | 194° | 5km/h | 21445m | 4.5m/s | -55.8°C | 6.0% | 0hPa | 2.7V | 00:00:00 | 01:35:36 | 00:00:00 | |
| DO3MHA-12 | 2026-08-31 03:24:25 | 48.38725 | 14.97271 | 138° | 5km/h | 21434m | 5.3m/s | -55.8°C | 6.0% | 0hPa | 2.7V | 00:00:00 | 01:35:34 | 00:00:00 | |
| S52SK | 2026-08-31 03:24:24 | 48.38725 | 14.97271 | 0° | 0km/h | 21434m | 5.4m/s | -55.9°C | 2.6% | 0hPa | 2.7V | 00:00:00 | 00:00:00 | 00:00:00 | |
| OE5FHM-15 | 2026-08-31 03:24:22 | 48.38725 | 14.97267 | 36° | 9km/h | 21419m | 4.8m/s | -55.8°C | 6.0% | 0hPa | 2.7V | 00:00:00 | 01:35:31 | 08:30:00 | |
| OE3OSB-13 | 2026-08-31 03:24:21 | 48.38722 | 14.97268 | 325° | 5km/h | 21409m | 4.4m/s | -55.8°C | 2.5% | -1.0hPa | 2.6V | 00:00:00 | 00:00:00 | 00:00:00 | |
| OE5REO-15 | 2026-08-31 03:24:19 | 48.38722 | 14.97268 | 326° | 7km/h | 21409m | 4.4m/s | -55.8°C | 2.6% | 0hPa | 2.6V | 00:00:00 | 00:00:00 | 00:00:00 | |
| S52SK | 2026-08-31 03:24:18 | 48.38721 | 14.97269 | 294° | 5km/h | 21404m | 5.4m/s | -55.8°C | 2.6% | 0hPa | 2.6V | 00:00:00 | 00:00:00 | 00:00:00 | |
| DL6DJ-15 | 2026-08-31 03:24:17 | 48.38724 | 14.97275 | 214° | 9km/h | 21388m | 4.8m/s | -55.8°C | 2.5% | -1.0hPa | 2.6V | 00:00:00 | 00:00:00 | 00:00:00 | |
| PG1ADW-2 | 2026-08-31 03:24:16 | 48.38724 | 14.97275 | 215° | 9km/h | 21389m | 4.7m/s | -55.7°C | 6.0% | 0hPa | 2.6V | 00:00:00 | 01:35:25 | 00:00:00 | |
| OE5MMP-10 | 2026-08-31 03:24:15 | 48.38726 | 14.97277 | 221° | 7km/h | 21384m | 5.4m/s | -55.7°C | 6.1% | 0hPa | 2.6V | 00:00:00 | 01:35:24 | 00:00:00 | |
| OK1ALN | 2026-08-31 03:24:14 | 48.38726 | 14.97277 | 221° | 9km/h | 21384m | 5.5m/s | -55.8°C | 2.7% | 0hPa | 2.6V | 00:00:00 | 00:00:00 | 00:00:00 | |
| OE8JPQ-2 | 2026-08-31 03:24:11 | 48.38733 | 14.97284 | 206° | 7km/h | 21364m | 4.9m/s | -55.7°C | 6.1% | 0hPa | 2.6V | 00:00:00 | 00:00:00 | 00:00:00 | |
| OE5WHR-10 | 2026-08-31 03:24:06 | 48.38736 | 14.97288 | 138° | 11km/h | 21340m | 4.9m/s | -55.8°C | 5.9% | 0hPa | 2.6V | 00:00:00 | 00:00:00 | 00:00:00 | |
| OE5MMP-10 | 2026-08-31 03:24:05 | 48.38738 | 14.97286 | 133° | 13km/h | 21335m | 4.7m/s | -55.8°C | 5.9% | 0hPa | 2.6V | 00:00:00 | 01:35:14 | 00:00:00 | |
| DB0UT-7 | 2026-08-31 03:24:04 | 48.38739 | 14.97284 | 143° | 11km/h | 21329m | 6.1m/s | -55.8°C | 5.9% | 0hPa | 2.6V | 00:00:00 | 01:35:13 | 00:00:00 | |
| OE5REO-15 | 2026-08-31 03:24:03 | 48.38739 | 14.97284 | 144° | 7km/h | 21329m | 6.2m/s | -55.9°C | 0% | 0hPa | 2.6V | 00:00:00 | 00:00:00 | 00:00:00 | |
| SONDE2-11 | 2026-08-31 03:24:01 | 48.38745 | 14.97281 | 157° | 11km/h | 21315m | 6.6m/s | -56.0°C | 2.4% | -1.0hPa | 2.6V | 00:00:00 | 00:00:00 | 00:00:00 | |
| DF7PN | 2026-08-31 03:23:54 | 48.38772 | 14.97273 | 159° | 13km/h | 21279m | 4.5m/s | -56.0°C | 2.3% | -1.0hPa | 2.6V | 00:00:00 | 00:00:00 | 00:00:00 | |
| OE3OSB-13 | 2026-08-31 03:23:50 | 48.38782 | 14.97265 | 136° | 5km/h | 21255m | 5.7m/s | -55.8°C | 2.2% | -1.0hPa | 2.6V | 00:00:00 | 00:00:00 | 00:00:00 | |
| OE5REO-15 | 2026-08-31 03:23:48 | 48.38782 | 14.97265 | 137° | 7km/h | 21256m | 5.7m/s | -55.8°C | 0% | 0hPa | 2.6V | 00:00:00 | 00:00:00 | 00:00:00 | |
| OE5WHR-10 | 2026-08-31 03:23:45 | 48.38789 | 14.97256 | 154° | 9km/h | 21235m | 3.7m/s | -55.7°C | 5.7% | 0hPa | 2.6V | 00:00:00 | 00:00:00 | 00:00:00 | |
| OE5DRO-10 | 2026-08-31 03:23:40 | 48.38794 | 14.97245 | 101° | 11km/h | 21210m | 5.6m/s | -55.5°C | 5.7% | 0hPa | 2.6V | 00:00:00 | 00:00:00 | 08:30:00 | |
| SP3BTT-10 | 2026-08-31 03:23:39 | 48.38794 | 14.97243 | 95° | 15km/h | 21206m | 3.6m/s | -55.5°C | 5.7% | 0hPa | 2.7V | 00:00:00 | 00:00:00 | 00:00:00 | |
| OE5DXL-15 | 2026-08-31 03:23:36 | 48.38794 | 14.97234 | 98° | 15km/h | 21191m | 4.2m/s | -55.4°C | 5.7% | 0hPa | 2.7V | 00:00:00 | 00:00:00 | 00:00:00 | |
| DO3MHA-12 | 2026-08-31 03:23:35 | 48.38795 | 14.97229 | 92° | 11km/h | 21186m | 5.6m/s | -55.4°C | 5.6% | 0hPa | 2.7V | 00:00:00 | 01:34:44 | 00:00:00 | |
| OK1ALN | 2026-08-31 03:23:33 | 48.38795 | 14.97225 | 82° | 9km/h | 21181m | 4.5m/s | -55.4°C | 2.5% | 0hPa | 2.6V | 00:00:00 | 00:00:00 | 00:00:00 | |
| OE5REO-15 | 2026-08-31 03:23:32 | 48.38794 | 14.97222 | 78° | 11km/h | 21177m | 3.9m/s | -55.4°C | 0% | 0hPa | 2.6V | 00:00:00 | 00:00:00 | 00:00:00 | |
| SONDE2-11 | 2026-08-31 03:23:30 | 48.38792 | 14.97207 | 77° | 15km/h | 21162m | 4.3m/s | -55.5°C | 2.4% | -1.0hPa | 2.6V | 00:00:00 | 00:00:00 | 00:00:00 | |
| OE8JPQ-2 | 2026-08-31 03:23:29 | 48.38791 | 14.97201 | 71° | 18km/h | 21157m | 5.8m/s | -55.6°C | 6.0% | 0hPa | 2.6V | 00:00:00 | 00:00:00 | 00:00:00 | |
| OE5MMP-10 | 2026-08-31 03:23:25 | 48.38791 | 14.97185 | 115° | 18km/h | 21138m | 4.7m/s | -55.7°C | 5.8% | 0hPa | 2.6V | 00:00:00 | 01:34:34 | 00:00:00 | |
| OE5WHR-10 | 2026-08-31 03:23:24 | 48.38792 | 14.97180 | 117° | 16km/h | 21133m | 4.0m/s | -55.8°C | 5.8% | 0hPa | 2.6V | 00:00:00 | 01:34:33 | 00:00:00 | |
| DF7PN | 2026-08-31 03:23:23 | 48.38795 | 14.97170 | 106° | 11km/h | 21123m | 4.9m/s | -55.9°C | 2.4% | -1.0hPa | 2.6V | 00:00:00 | 00:00:00 | 00:00:00 | |
| OE5FHM-15 | 2026-08-31 03:23:22 | 48.38795 | 14.97170 | 107° | 16km/h | 21123m | 4.8m/s | -55.9°C | 5.9% | 0hPa | 2.6V | 00:00:00 | 01:34:31 | 00:00:00 | |
| OE5DRO-10 | 2026-08-31 03:23:21 | 48.38796 | 14.97165 | 98° | 16km/h | 21118m | 5.0m/s | -55.9°C | 5.6% | 0hPa | 2.6V | 00:00:00 | 00:00:00 | 00:00:00 | |
| OE3OSB-13 | 2026-08-31 03:23:19 | 48.38796 | 14.97143 | 79° | 20km/h | 21104m | 5.6m/s | -55.9°C | 2.3% | -1.0hPa | 2.6V | 00:00:00 | 00:00:00 | 00:00:00 | |
| OE5REO-15 | 2026-08-31 03:23:17 | 48.38796 | 14.97143 | 80° | 22km/h | 21104m | 5.6m/s | -55.9°C | 0% | 0hPa | 2.6V | 00:00:00 | 00:00:00 | 00:00:00 | |
| PG1ADW-2 | 2026-08-31 03:23:16 | 48.38792 | 14.97128 | 64° | 16km/h | 21093m | 4.8m/s | -55.8°C | 5.6% | 0hPa | 2.6V | 00:00:00 | 00:00:00 | 00:00:00 | |
| OE5MMP-10 | 2026-08-31 03:23:15 | 48.38790 | 14.97121 | 71° | 15km/h | 21088m | 5.8m/s | -55.8°C | 5.6% | 0hPa | 2.6V | 00:00:00 | 01:34:24 | 00:00:00 | |
| DL6DJ-15 | 2026-08-31 03:23:14 | 48.38789 | 14.97113 | 74° | 20km/h | 21084m | 3.3m/s | -55.9°C | 2.1% | -1.0hPa | 2.6V | 00:00:00 | 00:00:00 | 00:00:00 | |
| S52SK | 2026-08-31 03:23:12 | 48.38787 | 14.97106 | 72° | 20km/h | 21080m | 4.2m/s | -55.9°C | 2.3% | 0hPa | 2.6V | 00:00:00 | 00:00:00 | 00:00:00 | |
| OE8JPQ-2 | 2026-08-31 03:23:09 | 48.38781 | 14.97086 | 82° | 15km/h | 21058m | 5.0m/s | -55.8°C | 5.5% | 0hPa | 2.6V | 00:00:00 | 00:00:00 | 00:00:00 | |
| OE5DXL-15 | 2026-08-31 03:23:06 | 48.38780 | 14.97072 | 79° | 13km/h | 21043m | 5.2m/s | -55.8°C | 5.5% | 0hPa | 2.6V | 00:00:00 | 00:00:00 | 00:00:00 | |
| OE5MMP-10 | 2026-08-31 03:23:05 | 48.38779 | 14.97067 | 83° | 16km/h | 21038m | 5.0m/s | -55.7°C | 5.5% | 0hPa | 2.6V | 00:00:00 | 01:34:14 | 00:00:00 | |
| OE5WHR-10 | 2026-08-31 03:23:03 | 48.38779 | 14.97053 | 83° | 11km/h | 21029m | 4.4m/s | -55.8°C | 5.5% | 0hPa | 2.7V | 00:00:00 | 00:00:00 | 00:00:00 | |
| OE5DRO-10 | 2026-08-31 03:23:02 | 48.38777 | 14.97045 | 74° | 11km/h | 21024m | 6.1m/s | -55.8°C | 5.5% | 0hPa | 2.6V | 00:00:00 | 00:00:00 | 00:00:00 | |
| OE5REO-15 | 2026-08-31 03:23:01 | 48.38777 | 14.97045 | 75° | 18km/h | 21024m | 6.1m/s | -55.8°C | 0% | 0hPa | 2.6V | 00:00:00 | 00:00:00 | 00:00:00 | |
| SONDE2-11 | 2026-08-31 03:22:59 | 48.38772 | 14.97029 | 62° | 15km/h | 21010m | 5.5m/s | -55.8°C | 2.1% | -1.0hPa | 2.6V | 00:00:00 | 00:00:00 | 00:00:00 | |
| DF7PN | 2026-08-31 03:22:52 | 48.38768 | 14.97000 | 115° | 9km/h | 20975m | 3.0m/s | -55.7°C | 2.2% | -1.0hPa | 2.6V | 00:00:00 | 00:00:00 | 00:00:00 | |
| OE3OSB-13 | 2026-08-31 03:22:47 | 48.38767 | 14.96989 | 64° | 7km/h | 20950m | 5.7m/s | -55.7°C | 2.1% | -1.0hPa | 2.6V | 00:00:00 | 00:00:00 | 00:00:00 | |
| OE5MMP-10 | 2026-08-31 03:22:45 | 48.38764 | 14.96981 | 58° | 11km/h | 20942m | 5.1m/s | -55.7°C | 5.4% | 0hPa | 2.6V | 00:00:00 | 01:33:54 | 00:00:00 | |
| OE5DRO-10 | 2026-08-31 03:22:43 | 48.38759 | 14.96973 | 42° | 7km/h | 20931m | 4.2m/s | -55.6°C | 5.4% | 0hPa | 2.6V | 00:00:00 | 00:00:00 | 00:00:00 | |
| OE5WHR-10 | 2026-08-31 03:22:42 | 48.38756 | 14.96969 | 52° | 7km/h | 20927m | 4.1m/s | -55.6°C | 5.5% | 0hPa | 2.6V | 00:00:00 | 00:00:00 | 00:00:00 | |
| OE3JTB-15 | 2026-08-31 03:22:37 | 48.38756 | 14.96953 | 154° | 7km/h | 20903m | 4.2m/s | -55.6°C | 5.5% | 0hPa | 2.6V | 00:00:00 | 01:33:46 | 00:00:00 | |
| OE5DXL-15 | 2026-08-31 03:22:36 | 48.38758 | 14.96951 | 159° | 7km/h | 20899m | 5.6m/s | -55.6°C | 5.4% | 0hPa | 2.6V | 00:00:00 | 00:00:00 | 00:00:00 | |
| OE5MMP-10 | 2026-08-31 03:22:35 | 48.38760 | 14.96950 | 153° | 5km/h | 20893m | 4.5m/s | -55.6°C | 5.5% | 0hPa | 2.6V | 00:00:00 | 01:33:44 | 00:00:00 | |
| DB0UT-7 | 2026-08-31 03:22:34 | 48.38761 | 14.96949 | 153° | 7km/h | 20889m | 4.8m/s | -55.7°C | 5.5% | 0hPa | 2.6V | 00:00:00 | 00:00:00 | 08:30:00 | |
| OK1ALN | 2026-08-31 03:22:32 | 48.38762 | 14.96948 | 138° | 2km/h | 20884m | 5.3m/s | -55.7°C | 2.3% | 0hPa | 2.6V | 00:00:00 | 00:00:00 | 00:00:00 | |
| SONDE2-11 | 2026-08-31 03:22:28 | 48.38766 | 14.96942 | 157° | 5km/h | 20860m | 5.3m/s | -55.8°C | 2.2% | -1.0hPa | 2.6V | 00:00:00 | 00:00:00 | 00:00:00 | |
| SP3BTT-10 | 2026-08-31 03:22:27 | 48.38768 | 14.96941 | 178° | 7km/h | 20855m | 5.2m/s | -55.8°C | 5.6% | 0hPa | 2.6V | 00:00:00 | 00:00:00 | 00:00:00 | |
| OE5MMP-10 | 2026-08-31 03:22:25 | 48.38772 | 14.96939 | 154° | 9km/h | 20845m | 5.3m/s | -55.9°C | 5.7% | 0hPa | 2.7V | 00:00:00 | 01:33:34 | 00:00:00 | |
| OE5DRO-10 | 2026-08-31 03:22:24 | 48.38774 | 14.96937 | 149° | 7km/h | 20840m | 4.2m/s | -55.9°C | 5.7% | 0hPa | 2.7V | 00:00:00 | 00:00:00 | 00:00:00 | |
| OE5FHM-15 | 2026-08-31 03:22:22 | 48.38779 | 14.96934 | 167° | 7km/h | 20829m | 4.7m/s | -55.9°C | 5.8% | 0hPa | 2.7V | 00:00:00 | 01:33:31 | 00:00:00 | |
| DF7PN | 2026-08-31 03:22:21 | 48.38784 | 14.96932 | 157° | 11km/h | 20819m | 5.9m/s | -55.9°C | 2.2% | -1.0hPa | 2.7V | 00:00:00 | 00:00:00 | 00:00:00 | |
| OE3OSB-13 | 2026-08-31 03:22:17 | 48.38792 | 14.96926 | 169° | 5km/h | 20799m | 5.0m/s | -55.8°C | 2.3% | -1.0hPa | 2.7V | 00:00:00 | 00:00:00 | 00:00:00 | |
| PG1ADW-2 | 2026-08-31 03:22:16 | 48.38792 | 14.96926 | 170° | 5km/h | 20799m | 5.0m/s | -55.8°C | 5.7% | 0hPa | 2.7V | 00:00:00 | 00:00:00 | 00:00:00 | |
| DO3MHA-12 | 2026-08-31 03:22:15 | 48.38794 | 14.96925 | 161° | 5km/h | 20793m | 5.5m/s | -55.8°C | 5.7% | 0hPa | 2.7V | 00:00:00 | 01:33:24 | 00:00:00 | |
| DL6DJ-15 | 2026-08-31 03:22:12 | 48.38799 | 14.96923 | 176° | 2km/h | 20779m | 4.9m/s | -55.8°C | 2.1% | -1.0hPa | 2.7V | 00:00:00 | 00:00:00 | 00:00:00 | |
| OK1ALN | 2026-08-31 03:22:11 | 48.38799 | 14.96923 | 177° | 2km/h | 20779m | 4.9m/s | -55.8°C | 2.3% | 0hPa | 2.7V | 00:00:00 | 00:00:00 | 00:00:00 | |
| OE3JTB-15 | 2026-08-31 03:22:08 | 48.38799 | 14.96919 | 81° | 7km/h | 20760m | 4.0m/s | -55.6°C | 5.6% | 0hPa | 2.7V | 00:00:00 | 00:00:00 | 00:00:00 | |
| OE5DXL-15 | 2026-08-31 03:22:06 | 48.38797 | 14.96917 | 19° | 9km/h | 20749m | 4.4m/s | -55.5°C | 5.6% | 0hPa | 2.7V | 00:00:00 | 00:00:00 | 00:00:00 | |
| OE5MMP-10 | 2026-08-31 03:22:05 | 48.38797 | 14.96917 | 7° | 5km/h | 20744m | 4.0m/s | -55.5°C | 5.6% | 0hPa | 2.5V | 00:00:00 | 01:33:14 | 08:30:00 | |
| DB0UT-7 | 2026-08-31 03:22:04 | 48.38796 | 14.96917 | 63° | 15km/h | 20740m | 6.1m/s | -55.5°C | 5.6% | 0hPa | 2.6V | 00:00:00 | 01:33:13 | 00:00:00 | |
| S52SK | 2026-08-31 03:22:01 | 48.38797 | 14.96913 | 107° | 7km/h | 20730m | 3.6m/s | -55.5°C | 2.4% | 0hPa | 2.6V | 00:00:00 | 00:00:00 | 00:00:00 | |
| SONDE2-11 | 2026-08-31 03:21:57 | 48.38793 | 14.96907 | 39° | 7km/h | 20705m | 5.6m/s | -55.5°C | 2.3% | -1.0hPa | 2.6V | 00:00:00 | 00:00:00 | 00:00:00 | |
| DF7PN | 2026-08-31 03:21:50 | 48.38787 | 14.96877 | 78° | 7km/h | 20665m | 6.2m/s | -55.4°C | 2.3% | -1.0hPa | 2.6V | 00:00:00 | 00:00:00 | 00:00:00 | |
| OE5DRO-10 | 2026-08-31 03:21:46 | 48.38784 | 14.96872 | 39° | 15km/h | 20651m | 5.5m/s | -55.3°C | 5.7% | 0hPa | 2.6V | 00:00:00 | 00:00:00 | 00:00:00 | |
| OE5MMP-10 | 2026-08-31 03:21:45 | 48.38782 | 14.96869 | 53° | 13km/h | 20646m | 4.9m/s | -55.3°C | 5.8% | 0hPa | 2.6V | 00:00:00 | 01:32:54 | 00:00:00 | |
| DL6DJ-15 | 2026-08-31 03:21:41 | 48.38775 | 14.96851 | 56° | 9km/h | 20627m | 5.3m/s | -55.3°C | 2.4% | -1.0hPa | 2.6V | 00:00:00 | 00:00:00 | 00:00:00 | |
| OE5WHR-10 | 2026-08-31 03:21:39 | 48.38772 | 14.96845 | 58° | 16km/h | 20616m | 5.7m/s | -55.3°C | 5.7% | 0hPa | 2.6V | 00:00:00 | 00:00:00 | 08:30:00 | |
| OE5DXL-15 | 2026-08-31 03:21:36 | 48.38767 | 14.96833 | 52° | 18km/h | 20601m | 5.0m/s | -55.3°C | 5.6% | 0hPa | 2.7V | 00:00:00 | 00:00:00 | 00:00:00 | |
| OE5MMP-10 | 2026-08-31 03:21:35 | 48.38765 | 14.96829 | 51° | 20km/h | 20596m | 4.1m/s | -55.3°C | 5.6% | 0hPa | 2.7V | 00:00:00 | 01:32:44 | 00:00:00 | |
| OK1ALN | 2026-08-31 03:21:31 | 48.38755 | 14.96813 | 46° | 22km/h | 20581m | 4.6m/s | -55.3°C | 2.4% | 0hPa | 2.6V | 00:00:00 | 00:00:00 | 00:00:00 | |
| OE5DRO-10 | 2026-08-31 03:21:27 | 48.38734 | 14.96794 | 20° | 18km/h | 20556m | 4.8m/s | -55.2°C | 5.5% | 0hPa | 2.6V | 00:00:00 | 00:00:00 | 00:00:00 | |
| SONDE2-11 | 2026-08-31 03:21:26 | 48.38725 | 14.96790 | 8° | 15km/h | 20545m | 5.0m/s | -55.2°C | 2.2% | -1.0hPa | 2.6V | 00:00:00 | 00:00:00 | 00:00:00 | |
| OE5MMP-10 | 2026-08-31 03:21:25 | 48.38725 | 14.96790 | 9° | 18km/h | 20545m | 5.0m/s | -55.2°C | 5.6% | 0hPa | 2.6V | 00:00:00 | 01:32:34 | 00:00:00 | |
| OE5FHM-15 | 2026-08-31 03:21:22 | 48.38713 | 14.96783 | 36° | 18km/h | 20530m | 4.4m/s | -55.3°C | 5.6% | 0hPa | 2.6V | 00:00:00 | 01:32:31 | 00:00:00 | |
| DF7PN | 2026-08-31 03:21:19 | 48.38701 | 14.96764 | 45° | 20km/h | 20509m | 5.9m/s | -55.4°C | -1.0% | -1.0hPa | 2.6V | 00:00:00 | 00:00:00 | 00:00:00 | |
| OE5WHR-10 | 2026-08-31 03:21:18 | 48.38701 | 14.96764 | 46° | 20km/h | 20509m | 5.9m/s | -55.3°C | 5.4% | 0hPa | 2.6V | 00:00:00 | 00:00:00 | 00:00:00 | |
| PG1ADW-2 | 2026-08-31 03:21:16 | 48.38692 | 14.96754 | 36° | 18km/h | 20500m | 5.5m/s | -55.3°C | 5.4% | 0hPa | 2.6V | 00:00:00 | 00:00:00 | 00:00:00 | |
| DO3MHA-12 | 2026-08-31 03:21:15 | 48.38688 | 14.96750 | 27° | 18km/h | 20494m | 5.1m/s | -55.3°C | 5.5% | 0hPa | 2.6V | 00:00:00 | 01:32:24 | 00:00:00 | |
| OE3OSB-13 | 2026-08-31 03:21:14 | 48.38684 | 14.96747 | 25° | 16km/h | 20490m | 4.1m/s | -55.3°C | 2.1% | -1.0hPa | 2.6V | 00:00:00 | 00:00:00 | 00:00:00 | |
| OE8JPQ-2 | 2026-08-31 03:21:11 | 48.38670 | 14.96736 | 33° | 16km/h | 20476m | 3.1m/s | -55.2°C | 5.4% | 0hPa | 2.6V | 00:00:00 | 01:32:20 | 00:00:00 | |
| OE3JTB-15 | 2026-08-31 03:21:10 | 48.38666 | 14.96732 | 33° | 16km/h | 20471m | 6.1m/s | -55.2°C | 5.4% | 0hPa | 2.6V | 00:00:00 | 01:32:19 | 00:00:00 | |
| OE5DRO-10 | 2026-08-31 03:21:08 | 48.38659 | 14.96725 | 34° | 16km/h | 20461m | 3.9m/s | -55.1°C | 5.4% | 0hPa | 2.6V | 00:00:00 | 00:00:00 | 00:00:00 | |
| OE5DXL-15 | 2026-08-31 03:21:06 | 48.38651 | 14.96718 | 36° | 16km/h | 20450m | 4.8m/s | -55.1°C | 5.4% | 0hPa | 2.6V | 00:00:00 | 00:00:00 | 00:00:00 | |
| DO3MHA-12 | 2026-08-31 03:21:05 | 48.38647 | 14.96713 | 37° | 18km/h | 20446m | 4.0m/s | -55.1°C | 5.5% | 0hPa | 2.6V | 00:00:00 | 01:32:14 | 00:00:00 | |
| SONDE2-11 | 2026-08-31 03:20:55 | 48.38605 | 14.96672 | 27° | 16km/h | 20391m | 3.8m/s | -54.9°C | 2.0% | -1.0hPa | 2.6V | 00:00:00 | 00:00:00 | 00:00:00 | |
| DF7PN | 2026-08-31 03:20:48 | 48.38583 | 14.96659 | 4° | 11km/h | 20355m | 5.1m/s | -54.7°C | -1.0% | -1.0hPa | 2.6V | 00:00:00 | 00:00:00 | 00:00:00 | |
| DO3MHA-12 | 2026-08-31 03:20:45 | 48.38576 | 14.96658 | 8° | 13km/h | 20345m | 5.6m/s | -54.6°C | 5.3% | 0hPa | 2.6V | 00:00:00 | 01:31:54 | 00:00:00 | |
| OE8JPQ-2 | 2026-08-31 03:20:43 | 48.38567 | 14.96656 | 4° | 11km/h | 20335m | 5.5m/s | -54.6°C | 5.2% | 0hPa | 2.6V | 00:00:00 | 00:00:00 | 00:00:00 | |
| OE3JTB-15 | 2026-08-31 03:20:41 | 48.38560 | 14.96657 | 356° | 11km/h | 20325m | 4.8m/s | -54.6°C | 5.2% | 0hPa | 2.6V | 00:00:00 | 00:00:00 | 08:30:00 | |
| S52SK | 2026-08-31 03:20:40 | 48.38560 | 14.96657 | 357° | 13km/h | 20325m | 4.8m/s | -54.6°C | 2.2% | 0hPa | 2.6V | 00:00:00 | 00:00:00 | 00:00:00 | |
| DL6DJ-15 | 2026-08-31 03:20:39 | 48.38553 | 14.96656 | 9° | 13km/h | 20315m | 3.3m/s | -54.6°C | 2.1% | -1.0hPa | 2.6V | 00:00:00 | 00:00:00 | 00:00:00 | |
| DO3MHA-12 | 2026-08-31 03:20:36 | 48.38544 | 14.96653 | 26° | 11km/h | 20294m | 4.9m/s | -54.7°C | 5.4% | 0hPa | 2.6V | 00:00:00 | 01:31:44 | 00:00:00 | |
| OE5MMP-10 | 2026-08-31 03:20:35 | 48.38544 | 14.96653 | 26° | 11km/h | 20294m | 4.9m/s | -54.7°C | 5.4% | 0hPa | 2.6V | 00:00:00 | 01:31:44 | 08:30:00 | |
| S52SK | 2026-08-31 03:20:34 | 48.38544 | 14.96653 | 26° | 9km/h | 20294m | 5.0m/s | -54.7°C | 2.3% | 0hPa | 2.6V | 00:00:00 | 00:00:00 | 00:00:00 | |
| OE5DRO-10 | 2026-08-31 03:20:30 | 48.38534 | 14.96647 | 9° | 11km/h | 20268m | 4.4m/s | -54.7°C | 5.3% | 0hPa | 2.6V | 00:00:00 | 00:00:00 | 00:00:00 | |
| OK1ALN | 2026-08-31 03:20:29 | 48.38534 | 14.96647 | 9° | 13km/h | 20268m | 4.5m/s | -54.7°C | 2.2% | 0hPa | 2.6V | 00:00:00 | 00:00:00 | 00:00:00 | |
| DO3MHA-12 | 2026-08-31 03:20:26 | 48.38517 | 14.96652 | 346° | 11km/h | 20243m | 4.1m/s | -54.8°C | 5.4% | 0hPa | 2.6V | 00:00:00 | 01:31:34 | 00:00:00 | |
| OE5MMP-10 | 2026-08-31 03:20:25 | 48.38517 | 14.96652 | 346° | 11km/h | 20243m | 4.1m/s | -54.8°C | 5.4% | 0hPa | 2.6V | 00:00:00 | 01:31:34 | 00:00:00 | |
| SONDE2-11 | 2026-08-31 03:20:24 | 48.38511 | 14.96656 | 322° | 11km/h | 20233m | 6.1m/s | -54.8°C | 2.1% | -1.0hPa | 2.6V | 00:00:00 | 00:00:00 | 00:00:00 | |
| OE5FHM-15 | 2026-08-31 03:20:22 | 48.38508 | 14.96659 | 324° | 16km/h | 20228m | 4.4m/s | -54.7°C | 5.4% | 0hPa | 2.6V | 00:00:00 | 01:31:31 | 00:00:00 | |
| DB0UT-7 | 2026-08-31 03:20:21 | 48.38506 | 14.96661 | 339° | 16km/h | 20223m | 5.7m/s | -54.7°C | 5.4% | 0hPa | 2.6V | 00:00:00 | 01:31:30 | 00:00:00 | |
| PG1ADW-2 | 2026-08-31 03:20:16 | 48.38494 | 14.96667 | 355° | 9km/h | 20198m | 3.9m/s | -55.1°C | 5.7% | 0hPa | 2.6V | 00:00:00 | 01:31:25 | 00:00:00 | |
| OE5MMP-10 | 2026-08-31 03:20:15 | 48.38492 | 14.96668 | 338° | 9km/h | 20194m | 3.7m/s | -55.1°C | 5.7% | 0hPa | 2.6V | 00:00:00 | 01:31:24 | 00:00:00 | |
| OE3OSB-13 | 2026-08-31 03:20:13 | 48.38489 | 14.96677 | 287° | 11km/h | 20178m | 5.0m/s | -55.2°C | 2.4% | -1.0hPa | 2.6V | 00:00:00 | 00:00:00 | 00:00:00 | |
| OE3JTB-15 | 2026-08-31 03:20:12 | 48.38489 | 14.96677 | 288° | 13km/h | 20178m | 5.0m/s | -55.1°C | 5.7% | 0hPa | 2.6V | 00:00:00 | 00:00:00 | 00:00:00 | |
| OE5DRO-10 | 2026-08-31 03:20:11 | 48.38488 | 14.96681 | 295° | 11km/h | 20173m | 5.0m/s | -55.1°C | 5.8% | 0hPa | 2.6V | 00:00:00 | 00:00:00 | 00:00:00 | |
| OK1ALN | 2026-08-31 03:20:09 | 48.38486 | 14.96684 | 297° | 11km/h | 20169m | 4.3m/s | -55.1°C | 2.5% | 0hPa | 2.6V | 00:00:00 | 00:00:00 | 00:00:00 | |
| DL6DJ-15 | 2026-08-31 03:20:08 | 48.38485 | 14.96691 | 265° | 5km/h | 20158m | 4.9m/s | -55.1°C | 2.3% | -1.0hPa | 2.6V | 00:00:00 | 00:00:00 | 00:00:00 | |
| OE5DXL-15 | 2026-08-31 03:20:06 | 48.38486 | 14.96695 | 293° | 13km/h | 20149m | 5.5m/s | -55.0°C | 5.6% | 0hPa | 2.6V | 00:00:00 | 00:00:00 | 00:00:00 | |
| OE5MMP-10 | 2026-08-31 03:20:05 | 48.38485 | 14.96694 | 22° | 11km/h | 20144m | 5.0m/s | -55.0°C | 5.5% | 0hPa | 2.6V | 00:00:00 | 01:31:14 | 00:00:00 | |
| DO3MHA-12 | 2026-08-31 03:20:03 | 48.38481 | 14.96693 | 5° | 13km/h | 20133m | 5.8m/s | -55.0°C | 5.6% | 0hPa | 2.6V | 00:00:00 | 01:31:12 | 08:30:00 | |
| SONDE2-11 | 2026-08-31 03:19:53 | 48.38445 | 14.96711 | 11° | 15km/h | 20078m | 5.0m/s | -55.1°C | 2.2% | -1.0hPa | 2.6V | 00:00:00 | 00:00:00 | 00:00:00 | |
| OE5DRO-10 | 2026-08-31 03:19:52 | 48.38445 | 14.96711 | 12° | 15km/h | 20078m | 4.9m/s | -55.1°C | 5.5% | 0hPa | 2.6V | 00:00:00 | 00:00:00 | 00:00:00 | |
| OK1ALN | 2026-08-31 03:19:48 | 48.38435 | 14.96704 | 26° | 13km/h | 20063m | 5.1m/s | -55.2°C | 2.4% | 0hPa | 2.6V | 00:00:00 | 00:00:00 | 00:00:00 | |
| OE5MMP-10 | 2026-08-31 03:19:45 | 48.38420 | 14.96696 | 17° | 13km/h | 20043m | 6.0m/s | -55.2°C | 5.6% | 0hPa | 2.6V | 00:00:00 | 01:30:54 | 00:00:00 | |
| OE3JTB-15 | 2026-08-31 03:19:43 | 48.38416 | 14.96693 | 45° | 16km/h | 20032m | 4.0m/s | -55.3°C | 5.6% | 0hPa | 2.6V | 00:00:00 | 01:30:52 | 00:00:00 | |
| OE3OSB-13 | 2026-08-31 03:19:41 | 48.38413 | 14.96689 | 29° | 11km/h | 20022m | 5.1m/s | -55.3°C | 2.3% | -1.0hPa | 2.6V | 00:00:00 | 00:00:00 | 00:00:00 | |
| DL6DJ-15 | 2026-08-31 03:19:37 | 48.38403 | 14.96681 | 33° | 15km/h | 20002m | 6.1m/s | -55.2°C | 2.2% | -1.0hPa | 2.6V | 00:00:00 | 00:00:00 | 00:00:00 | |
| OE5DXL-15 | 2026-08-31 03:19:36 | 48.38398 | 14.96677 | 37° | 20km/h | 19997m | 5.1m/s | -55.2°C | 5.6% | 0hPa | 2.6V | 00:00:00 | 00:00:00 | 00:00:00 | |
| OE5MMP-10 | 2026-08-31 03:19:35 | 48.38394 | 14.96671 | 45° | 20km/h | 19992m | 3.7m/s | -55.1°C | 5.5% | 0hPa | 2.6V | 00:00:00 | 01:30:44 | 00:00:00 | |
| OE5WHR-10 | 2026-08-31 03:19:33 | 48.38386 | 14.96655 | 66° | 16km/h | 19983m | 4.7m/s | -55.1°C | 5.4% | 0hPa | 2.7V | 00:00:00 | 00:00:00 | 00:00:00 | |
| S52SK | 2026-08-31 03:19:28 | 48.38378 | 14.96628 | 48° | 18km/h | 19964m | 5.6m/s | -55.2°C | 2.1% | 0hPa | 2.6V | 00:00:00 | 00:00:00 | 00:00:00 | |
| OK1ALN | 2026-08-31 03:19:27 | 48.38375 | 14.96624 | 39° | 15km/h | 19959m | 4.8m/s | -55.2°C | 2.1% | 0hPa | 2.6V | 00:00:00 | 00:00:00 | 00:00:00 | |
| OE5MMP-10 | 2026-08-31 03:19:25 | 48.38365 | 14.96618 | 15° | 16km/h | 19944m | 6.4m/s | -55.1°C | 5.3% | 0hPa | 2.6V | 00:00:00 | 01:30:34 | 00:00:00 | |
| DO3MHA-12 | 2026-08-31 03:19:23 | 48.38356 | 14.96613 | 27° | 16km/h | 19935m | 3.1m/s | -55.1°C | 5.3% | 0hPa | 2.6V | 00:00:00 | 01:30:32 | 00:00:00 | |
| SONDE2-11 | 2026-08-31 03:19:22 | 48.38350 | 14.96606 | 58° | 13km/h | 19925m | 5.5m/s | -55.2°C | 2.1% | -1.0hPa | 2.6V | 00:00:00 | 00:00:00 | 00:00:00 | |
| PG1ADW-2 | 2026-08-31 03:19:16 | 48.38343 | 14.96578 | 60° | 20km/h | 19899m | 5.4m/s | -55.5°C | 5.5% | 0hPa | 2.6V | 00:00:00 | 00:00:00 | 00:00:00 | |
| OE5MMP-10 | 2026-08-31 03:19:15 | 48.38341 | 14.96573 | 56° | 22km/h | 19894m | 4.4m/s | -55.6°C | 5.6% | 0hPa | 2.6V | 00:00:00 | 01:30:24 | 00:00:00 | |
| OE3JTB-15 | 2026-08-31 03:19:14 | 48.38339 | 14.96569 | 44° | 18km/h | 19890m | 3.2m/s | -55.6°C | 5.5% | 0hPa | 2.6V | 00:00:00 | 00:00:00 | 00:00:00 | |
| DO3MHA-12 | 2026-08-31 03:19:13 | 48.38336 | 14.96564 | 39° | 20km/h | 19886m | 5.4m/s | -55.6°C | 5.6% | 0hPa | 2.6V | 00:00:00 | 01:30:22 | 00:00:00 | |
| OE5WHR-10 | 2026-08-31 03:19:12 | 48.38331 | 14.96559 | 41° | 20km/h | 19881m | 4.9m/s | -55.6°C | 5.5% | 0hPa | 2.6V | 00:00:00 | 00:00:00 | 00:00:00 | |
| OE3OSB-13 | 2026-08-31 03:19:10 | 48.38322 | 14.96544 | 51° | 26km/h | 19871m | 5.5m/s | -55.6°C | 2.2% | -1.0hPa | 2.6V | 00:00:00 | 00:00:00 | 00:00:00 | |
| DB0UT-7 | 2026-08-31 03:19:09 | 48.38318 | 14.96536 | 58° | 18km/h | 19867m | 4.5m/s | -55.5°C | 5.5% | 0hPa | 2.6V | 00:00:00 | 00:00:00 | 00:00:00 | |
| OK1ALN | 2026-08-31 03:19:07 | 48.38314 | 14.96529 | 57° | 22km/h | 19862m | 4.6m/s | -55.6°C | 2.3% | 0hPa | 2.6V | 00:00:00 | 00:00:00 | 00:00:00 | |
| OE5DXL-15 | 2026-08-31 03:19:06 | 48.38308 | 14.96516 | 48° | 18km/h | 19851m | 4.6m/s | -55.6°C | 5.6% | 0hPa | 2.6V | 00:00:00 | 00:00:00 | 00:00:00 | |
| OE5MMP-10 | 2026-08-31 03:19:05 | 48.38305 | 14.96511 | 53° | 18km/h | 19846m | 6.3m/s | -55.6°C | 5.6% | 0hPa | 2.6V | 00:00:00 | 01:30:14 | 08:30:00 | |
| SONDE2-11 | 2026-08-31 03:18:51 | 48.38266 | 14.96431 | 46° | 15km/h | 19771m | 4.2m/s | -55.9°C | 2.4% | -1.0hPa | 2.6V | 00:00:00 | 00:00:00 | 00:00:00 | |
| OK1ALN | 2026-08-31 03:18:46 | 48.38259 | 14.96417 | 65° | 15km/h | 19758m | 4.7m/s | -55.9°C | 2.6% | 0hPa | 2.6V | 00:00:00 | 00:00:00 | 00:00:00 | |
| OE3JTB-15 | 2026-08-31 03:18:45 | 48.38255 | 14.96408 | 50° | 22km/h | 19748m | 4.9m/s | -56.0°C | 5.8% | 0hPa | 2.6V | 00:00:00 | 00:00:00 | 00:00:00 | |
| DO3MHA-12 | 2026-08-31 03:18:40 | 48.38240 | 14.96383 | 41° | 27km/h | 19722m | 5.0m/s | -56.2°C | 5.8% | 0hPa | 2.6V | 00:00:00 | 01:29:49 | 00:00:00 | |
| DB0UT-7 | 2026-08-31 03:18:39 | 48.38234 | 14.96375 | 44° | 11km/h | 19718m | 4.4m/s | -56.1°C | 5.8% | 0hPa | 2.6V | 00:00:00 | 01:29:48 | 00:00:00 | |
| OE5DXL-15 | 2026-08-31 03:18:36 | 48.38218 | 14.96347 | 53° | 20km/h | 19703m | 3.7m/s | -56.1°C | 5.7% | 0hPa | 2.6V | 00:00:00 | 00:00:00 | 00:00:00 | |
| OE5MMP-10 | 2026-08-31 03:18:35 | 48.38214 | 14.96339 | 49° | 22km/h | 19699m | 5.6m/s | -56.0°C | 5.7% | 0hPa | 2.6V | 00:00:00 | 01:29:44 | 00:00:00 | |
| OE5WHR-10 | 2026-08-31 03:18:30 | 48.38192 | 14.96310 | 40° | 18km/h | 19674m | 5.4m/s | -55.8°C | 5.7% | 0hPa | 2.6V | 00:00:00 | 00:00:00 | 08:30:00 | |
| OE5MMP-10 | 2026-08-31 03:18:25 | 48.38173 | 14.96286 | 44° | 20km/h | 19649m | 4.0m/s | -55.6°C | 5.6% | 0hPa | 2.7V | 00:00:00 | 01:29:34 | 00:00:00 | |
| SP3BTT-10 | 2026-08-31 03:18:24 | 48.38168 | 14.96280 | 39° | 16km/h | 19644m | 5.8m/s | -55.6°C | 5.5% | 0hPa | 2.7V | 00:00:00 | 00:00:00 | 00:00:00 | |
| SONDE2-11 | 2026-08-31 03:18:19 | 48.38152 | 14.96252 | 66° | 20km/h | 19621m | 4.7m/s | -55.5°C | 2.2% | -1.0hPa | 2.7V | 00:00:00 | 00:00:00 | 00:00:00 | |
| OE5DRO-10 | 2026-08-31 03:18:17 | 48.38148 | 14.96239 | 63° | 16km/h | 19611m | 4.8m/s | -55.4°C | 5.5% | 0hPa | 2.7V | 00:00:00 | 00:00:00 | 00:00:00 | |
| OE3JTB-15 | 2026-08-31 03:18:16 | 48.38146 | 14.96234 | 60° | 16km/h | 19606m | 5.7m/s | -55.3°C | 5.5% | 0hPa | 2.7V | 00:00:00 | 01:29:25 | 00:00:00 | |
| OE5MMP-10 | 2026-08-31 03:18:15 | 48.38144 | 14.96229 | 52° | 16km/h | 19600m | 6.1m/s | -55.3°C | 5.5% | 0hPa | 2.7V | 00:00:00 | 01:29:24 | 00:00:00 | |
| DK5PH-5 | 2026-08-31 03:18:12 | 48.38134 | 14.96216 | 33° | 18km/h | 19586m | 6.2m/s | 0°C | 0% | 0hPa | 2.7V | 00:00:00 | 01:29:21 | 00:00:00 | |
| OE5WHR-10 | 2026-08-31 03:18:09 | 48.38126 | 14.96207 | 47° | 16km/h | 19571m | 5.4m/s | -55.2°C | 5.4% | 0hPa | 2.7V | 00:00:00 | 00:00:00 | 00:00:00 | |
| OE3OSB-13 | 2026-08-31 03:18:08 | 48.38123 | 14.96202 | 50° | 16km/h | 19566m | 3.6m/s | -55.3°C | 2.2% | -1.0hPa | 2.7V | 00:00:00 | 00:00:00 | 00:00:00 | |
| OE5DXL-15 | 2026-08-31 03:18:06 | 48.38119 | 14.96191 | 62° | 18km/h | 19557m | 6.7m/s | -55.5°C | 5.5% | 0hPa | 2.7V | 00:00:00 | 00:00:00 | 00:00:00 | |
| OE5MMP-10 | 2026-08-31 03:18:05 | 48.38117 | 14.96186 | 65° | 16km/h | 19551m | 5.1m/s | -55.5°C | 5.5% | 0hPa | 2.7V | 00:00:00 | 01:29:14 | 00:00:00 | |
| OE5REO-15 | 2026-08-31 03:18:03 | 48.38115 | 14.96180 | 69° | 18km/h | 19546m | 4.4m/s | -55.6°C | 0% | 0hPa | 2.6V | 00:00:00 | 00:00:00 | 00:00:00 | |
| SONDE2-11 | 2026-08-31 03:17:57 | 48.38094 | 14.96078 | 75° | 22km/h | 19467m | 5.6m/s | -56.1°C | 2.5% | -1.0hPa | 2.6V | 00:00:00 | 00:00:00 | 00:00:00 | |
| PG1ADW-2 | 2026-08-31 03:17:56 | 48.38103 | 14.96136 | 77° | 20km/h | 19507m | 6.0m/s | -55.8°C | 5.8% | 0hPa | 2.6V | 00:00:00 | 00:00:00 | 00:00:00 | |
| OE5MMP-10 | 2026-08-31 03:17:55 | 48.38102 | 14.96129 | 84° | 20km/h | 19502m | 4.2m/s | -55.9°C | 5.7% | 0hPa | 2.6V | 00:00:00 | 01:29:04 | 00:00:00 | |
| SP3BTT-10 | 2026-08-31 03:17:54 | 48.38101 | 14.96123 | 84° | 16km/h | 19498m | 4.4m/s | -55.9°C | 5.8% | 0hPa | 2.6V | 00:00:00 | 00:00:00 | 00:00:00 | |
| OE5WHR-10 | 2026-08-31 03:17:48 | 48.38094 | 14.96078 | 76° | 18km/h | 19468m | 5.6m/s | -56.1°C | 6.0% | 0hPa | 2.6V | 00:00:00 | 01:28:57 | 00:00:00 | |
| OE3JTB-15 | 2026-08-31 03:17:47 | 48.38093 | 14.96070 | 87° | 16km/h | 19462m | 4.7m/s | -56.1°C | 6.0% | 0hPa | 2.6V | 00:00:00 | 00:00:00 | 00:00:00 | |
| OE5MMP-10 | 2026-08-31 03:17:45 | 48.38094 | 14.96053 | 97° | 20km/h | 19453m | 3.0m/s | -56.1°C | 5.9% | 0hPa | 2.7V | 00:00:00 | 01:28:54 | 00:00:00 | |
| OK1ALN | 2026-08-31 03:17:44 | 48.38094 | 14.96053 | 98° | 22km/h | 19453m | 3.1m/s | -56.1°C | 2.6% | 0hPa | 2.7V | 00:00:00 | 00:00:00 | 00:00:00 | |
| DK5PH-5 | 2026-08-31 03:17:42 | 48.38094 | 14.96029 | 81° | 16km/h | 19439m | 3.3m/s | 0°C | 0% | 0hPa | 2.7V | 00:00:00 | 01:28:51 | 00:00:00 | |
| OE5DRO-10 | 2026-08-31 03:17:39 | 48.38092 | 14.96008 | 81° | 15km/h | 19423m | 5.5m/s | -56.2°C | 5.8% | 0hPa | 2.7V | 00:00:00 | 00:00:00 | 00:00:00 | |
| OE3OSB-13 | 2026-08-31 03:17:37 | 48.38091 | 14.95993 | 86° | 18km/h | 19414m | 5.6m/s | -56.3°C | 2.3% | -1.0hPa | 2.7V | 00:00:00 | 00:00:00 | 00:00:00 | |
| OE5DXL-15 | 2026-08-31 03:17:36 | 48.38091 | 14.95986 | 84° | 11km/h | 19409m | 4.7m/s | -56.3°C | 5.8% | 0hPa | 2.7V | 00:00:00 | 00:00:00 | 00:00:00 | |
| OE5MMP-10 | 2026-08-31 03:17:35 | 48.38090 | 14.95980 | 76° | 16km/h | 19404m | 4.2m/s | -56.3°C | 5.8% | 0hPa | 2.6V | 00:00:00 | 01:28:44 | 08:30:00 | |
| DL6DJ-15 | 2026-08-31 03:17:33 | 48.38085 | 14.95962 | 63° | 18km/h | 19391m | 4.0m/s | -56.5°C | 2.4% | -1.0hPa | 2.6V | 00:00:00 | 00:00:00 | 00:00:00 | |
| OE5WHR-10 | 2026-08-31 03:17:27 | 48.38076 | 14.95936 | 58° | 7km/h | 19367m | 3.5m/s | -56.5°C | 5.9% | 0hPa | 2.6V | 00:00:00 | 00:00:00 | 00:00:00 | |
| OE5MMP-10 | 2026-08-31 03:17:25 | 48.38072 | 14.95927 | 51° | 9km/h | 19357m | 4.4m/s | -56.5°C | 5.9% | 0hPa | 2.6V | 00:00:00 | 01:28:34 | 00:00:00 | |
| OK1ALN | 2026-08-31 03:17:24 | 48.38072 | 14.95927 | 51° | 9km/h | 19357m | 4.5m/s | -56.5°C | 2.5% | 0hPa | 2.6V | 00:00:00 | 00:00:00 | 00:00:00 | |
| OE5REO-15 | 2026-08-31 03:17:23 | 48.38070 | 14.95925 | 42° | 7km/h | 19352m | 4.7m/s | -56.5°C | 0% | 0hPa | 2.6V | 00:00:00 | 00:00:00 | 00:00:00 | |
| SP3BTT-10 | 2026-08-31 03:17:22 | 48.38067 | 14.95919 | 42° | 7km/h | 19343m | 3.3m/s | -56.5°C | 5.9% | 0hPa | 2.6V | 00:00:00 | 00:00:00 | 00:00:00 | |
| OE5DRO-10 | 2026-08-31 03:17:20 | 48.38062 | 14.95916 | 14° | 7km/h | 19333m | 6.1m/s | -56.5°C | 5.8% | 0hPa | 2.7V | 00:00:00 | 00:00:00 | 00:00:00 | |
| OE3JTB-15 | 2026-08-31 03:17:18 | 48.38058 | 14.95913 | 37° | 7km/h | 19323m | 4.2m/s | -56.6°C | 6.0% | 0hPa | 2.7V | 00:00:00 | 00:00:00 | 00:00:00 | |
| SONDE2-11 | 2026-08-31 03:17:17 | 48.38057 | 14.95912 | 36° | 5km/h | 19319m | 3.9m/s | -56.6°C | 2.4% | -1.0hPa | 2.7V | 00:00:00 | 00:00:00 | 00:00:00 | |
| PG1ADW-2 | 2026-08-31 03:17:16 | 48.38056 | 14.95911 | 8° | 7km/h | 19314m | 6.0m/s | -56.5°C | 5.9% | 0hPa | 2.7V | 00:00:00 | 00:00:00 | 00:00:00 | |
| OE5MMP-10 | 2026-08-31 03:17:15 | 48.38055 | 14.95911 | 333° | 7km/h | 19308m | 5.2m/s | -56.5°C | 6.0% | 0hPa | 2.7V | 00:00:00 | 01:28:24 | 00:00:00 | |
| OE8JPQ-2 | 2026-08-31 03:17:14 | 48.38055 | 14.95911 | 46° | 5km/h | 19302m | 5.6m/s | -56.5°C | 6.0% | 0hPa | 2.7V | 00:00:00 | 01:28:23 | 00:00:00 | |
| OE5FHM-15 | 2026-08-31 03:17:12 | 48.38054 | 14.95909 | 65° | 9km/h | 19294m | 4.6m/s | -56.4°C | 6.0% | 0hPa | 2.7V | 00:00:00 | 01:28:21 | 00:00:00 | |
| OE5REO-15 | 2026-08-31 03:17:07 | 48.38049 | 14.95906 | 17° | 13km/h | 19274m | 3.5m/s | 0°C | 0% | 0hPa | 2.7V | 00:00:00 | 00:00:00 | 00:00:00 | |
| OE3OSB-13 | 2026-08-31 03:17:06 | 48.38042 | 14.95905 | 354° | 11km/h | 19265m | 4.5m/s | -56.3°C | 2.5% | -1.0hPa | 2.7V | 00:00:00 | 00:00:00 | 00:00:00 | |
| OE5MMP-10 | 2026-08-31 03:17:05 | 48.38039 | 14.95905 | 351° | 7km/h | 19261m | 4.5m/s | -56.3°C | 6.0% | 0hPa | 2.7V | 00:00:00 | 01:28:14 | 00:00:00 | |
| OK1ALN | 2026-08-31 03:17:03 | 48.38037 | 14.95905 | 12° | 9km/h | 19256m | 5.4m/s | -56.3°C | 2.6% | 0hPa | 2.7V | 00:00:00 | 00:00:00 | 00:00:00 | |
| DL6DJ-15 | 2026-08-31 03:17:02 | 48.38033 | 14.95900 | 68° | 4km/h | 19242m | 5.1m/s | -56.2°C | 2.6% | -1.0hPa | 2.7V | 00:00:00 | 00:00:00 | 00:00:00 | |
| SONDE2-11 | 2026-08-31 03:16:46 | 48.38008 | 14.95872 | 68° | 2km/h | 19171m | 4.5m/s | -55.6°C | 2.7% | -1.0hPa | 2.7V | 00:00:00 | 00:00:00 | 00:00:00 | |
| OE5MMP-10 | 2026-08-31 03:16:45 | 48.38008 | 14.95870 | 68° | 11km/h | 19166m | 5.8m/s | -55.6°C | 6.2% | 0hPa | 2.7V | 00:00:00 | 01:27:54 | 00:00:00 | |
| OE5DRO-10 | 2026-08-31 03:16:42 | 48.38002 | 14.95862 | 30° | 13km/h | 19153m | 5.2m/s | -55.5°C | 6.1% | 0hPa | 2.7V | 00:00:00 | 00:00:00 | 00:00:00 | |
| OE5FHM-15 | 2026-08-31 03:16:41 | 48.37999 | 14.95860 | 26° | 16km/h | 19148m | 4.7m/s | -55.5°C | 6.1% | 0hPa | 2.7V | 00:00:00 | 01:27:50 | 00:00:00 | |
| OE8JPQ-2 | 2026-08-31 03:16:37 | 48.37988 | 14.95849 | 56° | 20km/h | 19130m | 4.0m/s | -55.4°C | 5.9% | 0hPa | 2.7V | 00:00:00 | 00:00:00 | 08:30:00 | |
| OE5DXL-15 | 2026-08-31 03:16:36 | 48.37986 | 14.95845 | 58° | 16km/h | 19125m | 5.2m/s | -55.4°C | 5.9% | 0hPa | 2.6V | 00:00:00 | 00:00:00 | 00:00:00 | |
| OE5MMP-10 | 2026-08-31 03:16:35 | 48.37985 | 14.95842 | 55° | 11km/h | 19119m | 5.0m/s | -55.4°C | 5.9% | 0hPa | 2.6V | 00:00:00 | 01:27:44 | 00:00:00 | |
| DL6DJ-15 | 2026-08-31 03:16:31 | 48.37977 | 14.95828 | 44° | 9km/h | 19096m | 5.0m/s | -55.5°C | 2.4% | -1.0hPa | 2.7V | 00:00:00 | 00:00:00 | 00:00:00 | |
| OE5MMP-10 | 2026-08-31 03:16:25 | 48.37964 | 14.95807 | 51° | 20km/h | 19073m | 5.0m/s | -55.5°C | 5.5% | 0hPa | 2.7V | 00:00:00 | 01:27:34 | 00:00:00 | |
| OE5WHR-10 | 2026-08-31 03:16:24 | 48.37961 | 14.95802 | 46° | 20km/h | 19068m | 5.1m/s | -55.5°C | 5.6% | 0hPa | 2.7V | 00:00:00 | 00:00:00 | 00:00:00 | |
| OE5DRO-10 | 2026-08-31 03:16:23 | 48.37958 | 14.95797 | 40° | 20km/h | 19064m | 3.9m/s | -55.5°C | 5.6% | 0hPa | 2.6V | 00:00:00 | 00:00:00 | 00:00:00 | |
| SP3BTT-10 | 2026-08-31 03:16:21 | 48.37951 | 14.95788 | 48° | 20km/h | 19054m | 5.8m/s | -55.4°C | 5.6% | 0hPa | 2.6V | 00:00:00 | 00:00:00 | 00:00:00 | |
| OE3JTB-15 | 2026-08-31 03:16:20 | 48.37948 | 14.95782 | 54° | 22km/h | 19049m | 4.1m/s | -55.4°C | 5.6% | 0hPa | 2.6V | 00:00:00 | 00:00:00 | 08:30:00 | |
| PG1ADW-2 | 2026-08-31 03:16:16 | 48.37936 | 14.95757 | 59° | 20km/h | 19030m | 4.8m/s | -55.4°C | 5.4% | 0hPa | 2.7V | 00:00:00 | 01:27:25 | 00:00:00 | |
| OE5MMP-10 | 2026-08-31 03:16:15 | 48.37934 | 14.95751 | 55° | 20km/h | 19025m | 5.5m/s | -55.4°C | 5.5% | 0hPa | 2.7V | 00:00:00 | 01:27:24 | 00:00:00 | |
| OM5KV | 2026-08-31 03:16:14 | 48.37934 | 14.95751 | 55° | 20km/h | 19025m | 5.5m/s | -55.5°C | 2.4% | 0hPa | 2.7V | 00:00:00 | 00:00:00 | 00:00:00 | |
| OM5KV | 2026-08-31 03:16:12 | 48.37927 | 14.95739 | 49° | 18km/h | 19016m | 5.8m/s | -55.5°C | 2.4% | 0hPa | 2.7V | 00:00:00 | 00:00:00 | 00:00:00 | |
| OE5FHM-15 | 2026-08-31 03:16:11 | 48.37922 | 14.95731 | 42° | 26km/h | 19005m | 3.5m/s | -55.6°C | 5.7% | 0hPa | 2.7V | 00:00:00 | 01:27:20 | 00:00:00 | |
| OE8JPQ-2 | 2026-08-31 03:16:07 | 48.37907 | 14.95710 | 54° | 24km/h | 18988m | 3.9m/s | -55.9°C | 5.7% | 0hPa | 2.6V | 00:00:00 | 00:00:00 | 00:00:00 | |
| OE5DXL-15 | 2026-08-31 03:16:06 | 48.37904 | 14.95703 | 62° | 27km/h | 18983m | 5.2m/s | -55.9°C | 5.7% | 0hPa | 2.6V | 00:00:00 | 00:00:00 | 08:30:00 | |
| OE5MMP-10 | 2026-08-31 03:16:05 | 48.37902 | 14.95696 | 72° | 24km/h | 18978m | 4.3m/s | -56.0°C | 5.8% | 0hPa | 2.6V | 00:00:00 | 01:27:14 | 08:30:00 | |
| OE5DRO-10 | 2026-08-31 03:16:04 | 48.37901 | 14.95689 | 78° | 24km/h | 18973m | 4.0m/s | -56.0°C | 5.8% | 0hPa | 2.6V | 00:00:00 | 00:00:00 | 00:00:00 | |
| OE5WHR-10 | 2026-08-31 03:16:03 | 48.37900 | 14.95681 | 82° | 26km/h | 18969m | 4.8m/s | -56.0°C | 5.8% | 0hPa | 2.7V | 00:00:00 | 00:00:00 | 00:00:00 | |
| OK1ALN | 2026-08-31 03:16:01 | 48.37899 | 14.95672 | 83° | 26km/h | 18964m | 5.3m/s | -56.1°C | 2.6% | 0hPa | 2.7V | 00:00:00 | 00:00:00 | 00:00:00 | |
| DL6DJ-15 | 2026-08-31 03:16:00 | 48.37896 | 14.95645 | 75° | 20km/h | 18948m | 4.0m/s | -56.0°C | 2.4% | -1.0hPa | 2.7V | 00:00:00 | 00:00:00 | 00:00:00 | |
| SONDE2-11 | 2026-08-31 03:15:44 | 48.37867 | 14.95504 | 69° | 31km/h | 18876m | 5.2m/s | -56.6°C | 2.4% | -1.0hPa | 2.7V | 00:00:00 | 00:00:00 | 00:00:00 | |
| DB0UT-7 | 2026-08-31 03:15:43 | 48.37864 | 14.95492 | 68° | 33km/h | 18871m | 3.7m/s | 0°C | 0% | 0hPa | 2.7V | 00:00:00 | 01:26:52 | 00:00:00 | |
| OE5WHR-10 | 2026-08-31 03:15:42 | 48.37862 | 14.95481 | 69° | 35km/h | 18867m | 5.6m/s | -56.5°C | 5.8% | 0hPa | 2.7V | 00:00:00 | 01:26:51 | 00:00:00 | |
| OE5FHM-15 | 2026-08-31 03:15:41 | 48.37858 | 14.95469 | 71° | 33km/h | 18861m | 5.8m/s | -56.5°C | 5.9% | 0hPa | 2.7V | 00:00:00 | 01:26:50 | 00:00:00 | |
| OK1ALN | 2026-08-31 03:15:39 | 48.37856 | 14.95457 | 74° | 35km/h | 18856m | 2.9m/s | -56.5°C | 2.6% | 0hPa | 2.7V | 00:00:00 | 00:00:00 | 00:00:00 | |
| OE5DXL-15 | 2026-08-31 03:15:36 | 48.37848 | 14.95410 | 74° | 33km/h | 18838m | 5.1m/s | -56.5°C | 5.8% | 0hPa | 2.7V | 00:00:00 | 00:00:00 | 00:00:00 | |
| OE5MMP-10 | 2026-08-31 03:15:35 | 48.37845 | 14.95398 | 70° | 35km/h | 18832m | 5.0m/s | -56.5°C | 5.9% | 0hPa | 2.7V | 00:00:00 | 01:26:44 | 00:00:00 | |
| OE3OSB-13 | 2026-08-31 03:15:33 | 48.37836 | 14.95361 | 68° | 33km/h | 18818m | 4.1m/s | -56.6°C | 2.4% | -1.0hPa | 2.6V | 00:00:00 | 00:00:00 | 00:00:00 | |
| OM5KV | 2026-08-31 03:15:29 | 48.37829 | 14.95336 | 62° | 37km/h | 18808m | 5.8m/s | -56.7°C | 2.6% | 0hPa | 2.6V | 00:00:00 | 00:00:00 | 00:00:00 | |
| DL6DJ-15 | 2026-08-31 03:15:28 | 48.37818 | 14.95314 | 51° | 35km/h | 18799m | 3.6m/s | -56.7°C | 2.5% | -1.0hPa | 2.6V | 00:00:00 | 00:00:00 | 00:00:00 | |
| OE5DRO-10 | 2026-08-31 03:15:26 | 48.37809 | 14.95291 | 68° | 31km/h | 18789m | 5.1m/s | -56.6°C | 6.0% | 0hPa | 2.6V | 00:00:00 | 00:00:00 | 00:00:00 | |
| OE5MMP-10 | 2026-08-31 03:15:25 | 48.37806 | 14.95279 | 75° | 29km/h | 18785m | 4.5m/s | -56.6°C | 5.9% | 0hPa | 2.6V | 00:00:00 | 01:26:34 | 00:00:00 | |
| OE8JPQ-2 | 2026-08-31 03:15:23 | 48.37802 | 14.95253 | 74° | 29km/h | 18776m | 5.4m/s | -56.7°C | 5.8% | 0hPa | 2.6V | 00:00:00 | 00:00:00 | 00:00:00 | |
| OE3JTB-15 | 2026-08-31 03:15:22 | 48.37799 | 14.95243 | 69° | 29km/h | 18770m | 5.8m/s | -56.6°C | 5.8% | 0hPa | 2.7V | 00:00:00 | 01:26:31 | 00:00:00 | |
| OE5WHR-10 | 2026-08-31 03:15:21 | 48.37797 | 14.95234 | 61° | 29km/h | 18764m | 5.3m/s | -56.6°C | 5.8% | 0hPa | 2.7V | 00:00:00 | 00:00:00 | 08:30:00 | |
| OM5KV | 2026-08-31 03:15:20 | 48.37796 | 14.95234 | 61° | 26km/h | 18764m | 5.4m/s | -56.7°C | 2.5% | 0hPa | 2.7V | 00:00:00 | 00:00:00 | 00:00:00 | |
| OK1ALN | 2026-08-31 03:15:18 | 48.37790 | 14.95217 | 60° | 27km/h | 18755m | 5.8m/s | -56.7°C | 2.5% | 0hPa | 2.7V | 00:00:00 | 00:00:00 | 00:00:00 | |
| PG1ADW-2 | 2026-08-31 03:15:16 | 48.37777 | 14.95194 | 45° | 29km/h | 18739m | 3.7m/s | -56.7°C | 5.8% | 0hPa | 2.7V | 00:00:00 | 00:00:00 | 00:00:00 | |
| OM5KV | 2026-08-31 03:15:15 | 48.37772 | 14.95186 | 50° | 29km/h | 18735m | 5.3m/s | -56.7°C | 2.5% | 0hPa | 2.7V | 00:00:00 | 00:00:00 | 00:00:00 | |
| DB0UT-7 | 2026-08-31 03:15:13 | 48.37762 | 14.95166 | 53° | 29km/h | 18724m | 4.0m/s | 0°C | 0% | 0hPa | 2.7V | 00:00:00 | 00:00:00 | 00:00:00 | |
| OM5KV | 2026-08-31 03:15:12 | 48.37762 | 14.95166 | 54° | 40km/h | 18724m | 4.1m/s | -56.7°C | 2.6% | 0hPa | 2.7V | 00:00:00 | 00:00:00 | 00:00:00 | |
| OE5FHM-15 | 2026-08-31 03:15:11 | 48.37749 | 14.95143 | 52° | 27km/h | 18715m | 5.4m/s | -56.8°C | 5.9% | 0hPa | 2.7V | 00:00:00 | 01:26:20 | 00:00:00 | |
| OM5KV | 2026-08-31 03:15:08 | 48.37739 | 14.95124 | 54° | 27km/h | 18705m | 3.9m/s | -57.0°C | 2.6% | 0hPa | 2.7V | 00:00:00 | 00:00:00 | 00:00:00 | |
| OE5DRO-10 | 2026-08-31 03:15:07 | 48.37731 | 14.95107 | 54° | 27km/h | 18695m | 5.1m/s | -57.0°C | 6.1% | 0hPa | 2.7V | 00:00:00 | 00:00:00 | 08:30:00 | |
| OE5DXL-15 | 2026-08-31 03:15:06 | 48.37727 | 14.95099 | 55° | 27km/h | 18690m | 5.4m/s | -57.0°C | 6.1% | 0hPa | 2.6V | 00:00:00 | 00:00:00 | 00:00:00 | |
| OE5MMP-10 | 2026-08-31 03:15:05 | 48.37723 | 14.95091 | 59° | 27km/h | 18685m | 3.5m/s | -57.0°C | 6.1% | 0hPa | 2.6V | 00:00:00 | 01:26:14 | 00:00:00 | |
| DO3MHA-12 | 2026-08-31 03:15:03 | 48.37715 | 14.95074 | 47° | 26km/h | 18676m | 5.1m/s | -57.0°C | 6.2% | 0hPa | 2.6V | 00:00:00 | 01:26:12 | 00:00:00 | |
| OE3OSB-13 | 2026-08-31 03:15:02 | 48.37704 | 14.95061 | 38° | 26km/h | 18667m | 4.6m/s | -57.0°C | 2.6% | -1.0hPa | 2.6V | 00:00:00 | 00:00:00 | 00:00:00 | |
| DL6DJ-15 | 2026-08-31 03:14:57 | 48.37688 | 14.95030 | 55° | 26km/h | 18647m | 5.3m/s | -57.1°C | 2.7% | -1.0hPa | 2.6V | 00:00:00 | 00:00:00 | 00:00:00 | |
| PG1ADW-2 | 2026-08-31 03:14:56 | 48.37684 | 14.95022 | 53° | 27km/h | 18642m | 4.3m/s | -57.0°C | 6.0% | 0hPa | 2.6V | 00:00:00 | 01:26:05 | 00:00:00 | |
| OE5MMP-10 | 2026-08-31 03:14:55 | 48.37680 | 14.95014 | 57° | 29km/h | 18638m | 5.5m/s | -57.0°C | 6.0% | 0hPa | 2.7V | 00:00:00 | 01:26:04 | 00:00:00 | |
| OE3JTB-15 | 2026-08-31 03:14:53 | 48.37675 | 14.94997 | 65° | 29km/h | 18628m | 3.7m/s | -56.9°C | 6.1% | 0hPa | 2.7V | 00:00:00 | 00:00:00 | 00:00:00 | |
| DO3MHA-12 | 2026-08-31 03:14:49 | 48.37658 | 14.94966 | 50° | 29km/h | 18607m | 4.7m/s | -56.8°C | 6.0% | 0hPa | 2.6V | 00:00:00 | 01:25:58 | 00:00:00 | |
| OE5DRO-10 | 2026-08-31 03:14:48 | 48.37653 | 14.94956 | 48° | 31km/h | 18603m | 4.0m/s | -56.8°C | 6.1% | 0hPa | 2.6V | 00:00:00 | 00:00:00 | 00:00:00 | |
| OE5MMP-10 | 2026-08-31 03:14:45 | 48.37634 | 14.94929 | 47° | 26km/h | 18588m | 5.0m/s | -56.9°C | 6.1% | 0hPa | 2.6V | 00:00:00 | 01:25:54 | 00:00:00 | |
| SONDE2-11 | 2026-08-31 03:14:42 | 48.37621 | 14.94903 | 50° | 24km/h | 18573m | 6.1m/s | -57.3°C | 2.7% | -1.0hPa | 2.6V | 00:00:00 | 00:00:00 | 00:00:00 | |
| OE5FHM-15 | 2026-08-31 03:14:41 | 48.37617 | 14.94896 | 49° | 29km/h | 18568m | 4.5m/s | -57.7°C | 6.5% | 0hPa | 2.6V | 00:00:00 | 01:25:50 | 00:00:00 | |
| OE5WHR-10 | 2026-08-31 03:14:39 | 48.37610 | 14.94884 | 56° | 31km/h | 18557m | 3.9m/s | -58.0°C | 6.7% | 0hPa | 2.6V | 00:00:00 | 01:25:48 | 00:00:00 | |
| OM5KV | 2026-08-31 03:14:38 | 48.37610 | 14.94884 | 57° | 24km/h | 18557m | 4.0m/s | -58.1°C | 3.1% | 0hPa | 2.6V | 00:00:00 | 00:00:00 | 00:00:00 | |
| S52SK | 2026-08-31 03:14:37 | 48.37607 | 14.94876 | 51° | 24km/h | 18553m | 3.6m/s | -58.1°C | 3.1% | 0hPa | 2.6V | 00:00:00 | 00:00:00 | 00:00:00 | |
| OE5DXL-15 | 2026-08-31 03:14:36 | 48.37597 | 14.94863 | 38° | 29km/h | 18544m | 4.6m/s | -57.9°C | 6.7% | 0hPa | 2.6V | 00:00:00 | 00:00:00 | 00:00:00 | |
| OE5MMP-10 | 2026-08-31 03:14:35 | 48.37591 | 14.94856 | 40° | 35km/h | 18539m | 4.1m/s | -57.9°C | 6.6% | 0hPa | 2.6V | 00:00:00 | 01:25:44 | 08:30:00 | |
| OM5KV | 2026-08-31 03:14:32 | 48.37579 | 14.94837 | 51° | 37km/h | 18529m | 3.7m/s | -57.9°C | 3.1% | 0hPa | 2.7V | 00:00:00 | 00:00:00 | 00:00:00 | |
| OE3OSB-13 | 2026-08-31 03:14:31 | 48.37560 | 14.94806 | 46° | 33km/h | 18516m | 5.0m/s | -58.1°C | 2.8% | -1.0hPa | 2.7V | 00:00:00 | 00:00:00 | 00:00:00 | |
| OE5DRO-10 | 2026-08-31 03:14:29 | 48.37554 | 14.94796 | 47° | 29km/h | 18511m | 4.2m/s | -58.1°C | 6.6% | 0hPa | 2.7V | 00:00:00 | 00:00:00 | 00:00:00 | |
| OM5KV | 2026-08-31 03:14:27 | 48.37549 | 14.94786 | 51° | 33km/h | 18507m | 4.8m/s | -58.1°C | 3.1% | 0hPa | 2.7V | 00:00:00 | 00:00:00 | 00:00:00 | |
| DL6DJ-15 | 2026-08-31 03:14:26 | 48.37538 | 14.94768 | 43° | 29km/h | 18496m | 5.7m/s | 0°C | -1.0% | -1.0hPa | 2.7V | 00:00:00 | 00:00:00 | 00:00:00 | |
| OE5MMP-10 | 2026-08-31 03:14:25 | 48.37532 | 14.94761 | 37° | 27km/h | 18491m | 4.8m/s | -58.2°C | 6.8% | 0hPa | 2.7V | 00:00:00 | 01:25:34 | 00:00:00 | |
| OE3JTB-15 | 2026-08-31 03:14:24 | 48.37527 | 14.94756 | 31° | 24km/h | 18487m | 3.7m/s | -58.2°C | 6.7% | 0hPa | 2.7V | 00:00:00 | 00:00:00 | 00:00:00 | |
| OM5KV | 2026-08-31 03:14:21 | 48.37515 | 14.94744 | 39° | 29km/h | 18477m | 4.1m/s | -58.2°C | 3.1% | 0hPa | 2.7V | 00:00:00 | 00:00:00 | 00:00:00 | |
| OE8JPQ-2 | 2026-08-31 03:14:19 | 48.37499 | 14.94724 | 46° | 26km/h | 18461m | 5.5m/s | -58.3°C | 6.8% | 0hPa | 2.7V | 00:00:00 | 00:00:00 | 00:00:00 | |
| OE5WHR-10 | 2026-08-31 03:14:18 | 48.37494 | 14.94716 | 54° | 24km/h | 18456m | 4.7m/s | -58.3°C | 6.9% | 0hPa | 2.6V | 00:00:00 | 00:00:00 | 00:00:00 | |
| OK1ALN | 2026-08-31 03:14:17 | 48.37494 | 14.94716 | 54° | 29km/h | 18456m | 4.8m/s | -58.4°C | 3.1% | 0hPa | 2.6V | 00:00:00 | 00:00:00 | 00:00:00 | |
| PG1ADW-2 | 2026-08-31 03:14:16 | 48.37486 | 14.94699 | 58° | 24km/h | 18447m | 6.4m/s | -58.2°C | 6.7% | 0hPa | 2.6V | 00:00:00 | 00:00:00 | 00:00:00 | |
| OE5MMP-10 | 2026-08-31 03:14:15 | 48.37482 | 14.94691 | 49° | 26km/h | 18441m | 5.1m/s | -58.3°C | 6.7% | 0hPa | 2.6V | 00:00:00 | 01:25:24 | 00:00:00 | |
| OE5FHM-15 | 2026-08-31 03:14:11 | 48.37460 | 14.94668 | 16° | 33km/h | 18423m | 5.3m/s | -58.2°C | 6.7% | 0hPa | 2.6V | 00:00:00 | 01:25:20 | 00:00:00 | |
| OE5DRO-10 | 2026-08-31 03:14:10 | 48.37455 | 14.94666 | 17° | 20km/h | 18418m | 3.4m/s | -58.2°C | 6.7% | 0hPa | 2.6V | 00:00:00 | 00:00:00 | 00:00:00 | |
| OM5KV | 2026-08-31 03:14:09 | 48.37455 | 14.94666 | 17° | 24km/h | 18418m | 3.5m/s | -58.2°C | 3.0% | 0hPa | 2.6V | 00:00:00 | 00:00:00 | 00:00:00 | |
| DB0UT-7 | 2026-08-31 03:14:08 | 48.37444 | 14.94658 | 36° | 22km/h | 18409m | 5.3m/s | 0°C | 0% | 0hPa | 2.6V | 00:00:00 | 01:25:17 | 00:00:00 | |
| OE5DXL-15 | 2026-08-31 03:14:06 | 48.37434 | 14.94644 | 47° | 18km/h | 18399m | 4.9m/s | -58.0°C | 6.5% | 0hPa | 2.6V | 00:00:00 | 00:00:00 | 00:00:00 | |
| OE5MMP-10 | 2026-08-31 03:14:05 | 48.37430 | 14.94638 | 49° | 20km/h | 18393m | 5.9m/s | -58.0°C | 6.4% | 0hPa | 2.6V | 00:00:00 | 01:25:14 | 00:00:00 | |
| OM5KV | 2026-08-31 03:14:03 | 48.37427 | 14.94631 | 50° | 22km/h | 18388m | 5.2m/s | -58.0°C | 2.9% | 0hPa | 2.6V | 00:00:00 | 00:00:00 | 00:00:00 | |
| OE8JPQ-2 | 2026-08-31 03:13:59 | 48.37409 | 14.94604 | 29° | 18km/h | 18362m | 5.4m/s | -57.9°C | 6.4% | 0hPa | 2.6V | 00:00:00 | 00:00:00 | 00:00:00 | |
| OE5WHR-10 | 2026-08-31 03:13:57 | 48.37402 | 14.94597 | 37° | 16km/h | 18353m | 5.1m/s | -57.8°C | 6.5% | 0hPa | 2.6V | 00:00:00 | 00:00:00 | 00:00:00 | |
| PG1ADW-2 | 2026-08-31 03:13:56 | 48.37398 | 14.94593 | 43° | 16km/h | 18347m | 5.2m/s | -57.8°C | 6.5% | 0hPa | 2.6V | 00:00:00 | 00:00:00 | 08:30:00 | |
| OE5MMP-10 | 2026-08-31 03:13:55 | 48.37394 | 14.94587 | 53° | 18km/h | 18342m | 5.1m/s | -57.8°C | 6.5% | 0hPa | 2.7V | 00:00:00 | 01:25:04 | 00:00:00 | |
| OM5KV | 2026-08-31 03:13:54 | 48.37394 | 14.94587 | 54° | 22km/h | 18342m | 5.1m/s | -57.8°C | 2.9% | 0hPa | 2.7V | 00:00:00 | 00:00:00 | 00:00:00 | |
| OE5DRO-10 | 2026-08-31 03:13:51 | 48.37383 | 14.94565 | 43° | 15km/h | 18323m | 5.5m/s | -57.6°C | 6.5% | 0hPa | 2.7V | 00:00:00 | 00:00:00 | 00:00:00 | |
| OE5MMP-10 | 2026-08-31 03:13:45 | 48.37361 | 14.94539 | 44° | 15km/h | 18294m | 5.7m/s | -57.5°C | 6.5% | 0hPa | 2.7V | 00:00:00 | 01:24:54 | 00:00:00 | |
| SP3BTT-10 | 2026-08-31 03:13:41 | 48.37349 | 14.94526 | 32° | 22km/h | 18274m | 3.3m/s | -57.3°C | 6.6% | 0hPa | 2.7V | 00:00:00 | 00:00:00 | 00:00:00 | |
| SONDE2-11 | 2026-08-31 03:13:40 | 48.37346 | 14.94524 | 20° | 13km/h | 18269m | 6.0m/s | -57.3°C | 2.8% | -1.0hPa | 2.7V | 00:00:00 | 00:00:00 | 00:00:00 | |
| OE8JPQ-2 | 2026-08-31 03:13:39 | 48.37343 | 14.94522 | 17° | 13km/h | 18264m | 5.1m/s | -57.3°C | 6.6% | 0hPa | 2.7V | 00:00:00 | 01:24:48 | 00:00:00 | |
| OM5KV | 2026-08-31 03:13:38 | 48.37343 | 14.94522 | 18° | 15km/h | 18264m | 5.2m/s | -57.3°C | 3.0% | 0hPa | 2.7V | 00:00:00 | 00:00:00 | 00:00:00 | |
| OE5WHR-10 | 2026-08-31 03:13:36 | 48.37334 | 14.94515 | 33° | 11km/h | 18250m | 3.8m/s | -57.2°C | 6.7% | 0hPa | 2.7V | 00:00:00 | 01:24:45 | 00:00:00 | |
| OE5MMP-10 | 2026-08-31 03:13:35 | 48.37331 | 14.94513 | 27° | 11km/h | 18244m | 5.9m/s | -57.1°C | 6.7% | 0hPa | 2.7V | 00:00:00 | 01:24:44 | 00:00:00 | |
| OM5KV | 2026-08-31 03:13:33 | 48.37327 | 14.94511 | 23° | 13km/h | 18239m | 4.3m/s | -57.1°C | 3.1% | 0hPa | 2.6V | 00:00:00 | 00:00:00 | 00:00:00 | |
| OE5DRO-10 | 2026-08-31 03:13:32 | 48.37322 | 14.94506 | 45° | 11km/h | 18230m | 5.4m/s | -57.0°C | 6.8% | 0hPa | 2.6V | 00:00:00 | 00:00:00 | 00:00:00 | |
| OM5KV | 2026-08-31 03:13:28 | 48.37318 | 14.94498 | 40° | 7km/h | 18216m | 4.7m/s | -56.9°C | 3.3% | 0hPa | 2.6V | 00:00:00 | 00:00:00 | 00:00:00 | |
| OM5KV | 2026-08-31 03:13:27 | 48.37317 | 14.94496 | 33° | 9km/h | 18211m | 4.6m/s | -56.9°C | 3.3% | 0hPa | 2.6V | 00:00:00 | 00:00:00 | 00:00:00 | |
| OE3JTB-15 | 2026-08-31 03:13:26 | 48.37313 | 14.94491 | 38° | 13km/h | 18202m | 3.4m/s | -56.8°C | 7.0% | 0hPa | 2.6V | 00:00:00 | 00:00:00 | 00:00:00 | |
| OE5MMP-10 | 2026-08-31 03:13:25 | 48.37310 | 14.94489 | 25° | 11km/h | 18198m | 5.2m/s | -56.7°C | 6.9% | 0hPa | 2.6V | 00:00:00 | 01:24:34 | 00:00:00 | |
| OM5KV | 2026-08-31 03:13:21 | 48.37300 | 14.94485 | 21° | 15km/h | 18183m | 6.0m/s | -56.7°C | 3.4% | 0hPa | 2.6V | 00:00:00 | 00:00:00 | 00:00:00 | |
| S52SK | 2026-08-31 03:13:20 | 48.37297 | 14.94483 | 47° | 13km/h | 18178m | 3.5m/s | -56.6°C | 3.3% | 0hPa | 2.6V | 00:00:00 | 00:00:00 | 00:00:00 | |
| OE8JPQ-2 | 2026-08-31 03:13:19 | 48.37295 | 14.94476 | 70° | 13km/h | 18169m | 5.6m/s | -56.5°C | 6.9% | 0hPa | 2.6V | 00:00:00 | 00:00:00 | 08:30:00 | |
| PG1ADW-2 | 2026-08-31 03:13:16 | 48.37293 | 14.94466 | 78° | 13km/h | 18153m | 6.2m/s | -56.3°C | 6.8% | 0hPa | 2.7V | 00:00:00 | 00:00:00 | 00:00:00 | |
| OE5WHR-10 | 2026-08-31 03:13:15 | 48.37292 | 14.94461 | 72° | 11km/h | 18148m | 4.4m/s | -56.3°C | 6.9% | 0hPa | 2.7V | 00:00:00 | 00:00:00 | 00:00:00 | |
| OE5DRO-10 | 2026-08-31 03:13:13 | 48.37289 | 14.94450 | 58° | 11km/h | 18138m | 5.5m/s | -56.3°C | 6.8% | 0hPa | 2.6V | 00:00:00 | 00:00:00 | 00:00:00 | |
| OM5KV | 2026-08-31 03:13:11 | 48.37287 | 14.94446 | 39° | 11km/h | 18133m | 4.6m/s | -56.3°C | 3.4% | 0hPa | 2.6V | 00:00:00 | 00:00:00 | 00:00:00 | |
| OM5KV | 2026-08-31 03:13:10 | 48.37285 | 14.94444 | 23° | 9km/h | 18130m | 2.1m/s | -56.3°C | 3.5% | 0hPa | 2.6V | 00:00:00 | 00:00:00 | 00:00:00 | |
| SONDE2-11 | 2026-08-31 03:13:09 | 48.37280 | 14.94442 | 24° | 9km/h | 18120m | 6.0m/s | -56.2°C | 3.0% | -1.0hPa | 2.6V | 00:00:00 | 00:00:00 | 00:00:00 | |
| OE5DXL-15 | 2026-08-31 03:13:06 | 48.37274 | 14.94437 | 38° | 15km/h | 18106m | 4.7m/s | -56.2°C | 6.6% | 0hPa | 2.6V | 00:00:00 | 00:00:00 | 00:00:00 | |
| OE5MMP-10 | 2026-08-31 03:13:05 | 48.37273 | 14.94434 | 68° | 13km/h | 18101m | 5.6m/s | -56.2°C | 6.6% | 0hPa | 2.6V | 00:00:00 | 01:24:14 | 08:30:00 | |
| OM5KV | 2026-08-31 03:13:04 | 48.37273 | 14.94434 | 68° | 11km/h | 18101m | 5.6m/s | -56.2°C | 3.2% | 0hPa | 2.6V | 00:00:00 | 00:00:00 | 00:00:00 | |
| OE3OSB-13 | 2026-08-31 03:12:57 | 48.37271 | 14.94395 | 56° | 7km/h | 18062m | 5.8m/s | -55.9°C | 3.2% | -1.0hPa | 2.6V | 00:00:00 | 00:00:00 | 00:00:00 | |
| DL6DJ-15 | 2026-08-31 03:12:53 | 48.37272 | 14.94380 | 73° | 13km/h | 18033m | 5.3m/s | 0°C | -1.0% | -1.0hPa | 2.6V | 00:00:00 | 00:00:00 | 00:00:00 | |
| OM5KV | 2026-08-31 03:12:49 | 48.37268 | 14.94371 | 37° | 16km/h | 18022m | 4.7m/s | -55.8°C | 3.3% | 0hPa | 2.6V | 00:00:00 | 00:00:00 | 00:00:00 | |
| OE5MMP-10 | 2026-08-31 03:12:45 | 48.37262 | 14.94345 | 105° | 20km/h | 17995m | 6.9m/s | -55.7°C | 6.7% | 0hPa | 2.6V | 00:00:00 | 01:23:54 | 00:00:00 | |
| OM5KV | 2026-08-31 03:12:43 | 48.37263 | 14.94339 | 103° | 16km/h | 17988m | 6.4m/s | -55.7°C | 3.5% | 0hPa | 2.6V | 00:00:00 | 00:00:00 | 00:00:00 | |
| OM5KV | 2026-08-31 03:12:38 | 48.37263 | 14.94308 | 81° | 20km/h | 17963m | 5.9m/s | -55.9°C | 3.4% | 0hPa | 2.6V | 00:00:00 | 00:00:00 | 00:00:00 | |
| OE8JPQ-2 | 2026-08-31 03:12:37 | 48.37261 | 14.94290 | 83° | 29km/h | 17954m | 5.1m/s | -55.9°C | 6.7% | 0hPa | 2.6V | 00:00:00 | 01:23:46 | 00:00:00 | |
| OE5DXL-15 | 2026-08-31 03:12:36 | 48.37260 | 14.94280 | 84° | 29km/h | 17948m | 6.2m/s | -56.0°C | 6.9% | 0hPa | 2.6V | 00:00:00 | 00:00:00 | 00:00:00 | |
| OE5MMP-10 | 2026-08-31 03:12:35 | 48.37259 | 14.94271 | 80° | 27km/h | 17942m | 5.8m/s | -55.9°C | 6.8% | 0hPa | 2.6V | 00:00:00 | 01:23:44 | 00:00:00 | |
| OK1ALN | 2026-08-31 03:12:34 | 48.37259 | 14.94271 | 80° | 22km/h | 17942m | 5.9m/s | -56.0°C | 3.5% | 0hPa | 2.6V | 00:00:00 | 00:00:00 | 00:00:00 | |
| OE5WHR-10 | 2026-08-31 03:12:33 | 48.37257 | 14.94254 | 85° | 29km/h | 17931m | 5.9m/s | -55.9°C | 6.7% | 0hPa | 2.6V | 00:00:00 | 01:23:42 | 00:00:00 | |
| OM5KV | 2026-08-31 03:12:32 | 48.37257 | 14.94254 | 86° | 24km/h | 17931m | 6.0m/s | -55.9°C | 3.4% | 0hPa | 2.6V | 00:00:00 | 00:00:00 | 00:00:00 | |
| OM5KV | 2026-08-31 03:12:30 | 48.37256 | 14.94234 | 84° | 29km/h | 17920m | 5.1m/s | -55.9°C | 3.3% | 0hPa | 2.6V | 00:00:00 | 00:00:00 | 00:00:00 | |
| OE3JTB-15 | 2026-08-31 03:12:28 | 48.37250 | 14.94203 | 67° | 29km/h | 17905m | 4.1m/s | -55.8°C | 6.4% | 0hPa | 2.6V | 00:00:00 | 01:23:37 | 00:00:00 | |
| OE3OSB-13 | 2026-08-31 03:12:26 | 48.37245 | 14.94182 | 70° | 33km/h | 17895m | 4.8m/s | -55.7°C | 3.1% | -1.0hPa | 2.6V | 00:00:00 | 00:00:00 | 00:00:00 | |
| OE5MMP-10 | 2026-08-31 03:12:25 | 48.37242 | 14.94170 | 72° | 33km/h | 17890m | 5.5m/s | -55.7°C | 6.5% | 0hPa | 2.6V | 00:00:00 | 01:23:34 | 00:00:00 | |
| OM5KV | 2026-08-31 03:12:20 | 48.37231 | 14.94121 | 70° | 37km/h | 17869m | 5.6m/s | -55.9°C | 3.2% | 0hPa | 2.6V | 00:00:00 | 00:00:00 | 00:00:00 | |
| OE8JPQ-2 | 2026-08-31 03:12:17 | 48.37219 | 14.94075 | 73° | 29km/h | 17848m | 5.5m/s | -56.4°C | 6.7% | 0hPa | 2.6V | 00:00:00 | 00:00:00 | 00:00:00 | |
| PG1ADW-2 | 2026-08-31 03:12:16 | 48.37217 | 14.94065 | 71° | 29km/h | 17843m | 4.8m/s | -56.6°C | 6.7% | 0hPa | 2.6V | 00:00:00 | 01:23:25 | 00:00:00 | |
| OK1ALN | 2026-08-31 03:12:13 | 48.37213 | 14.94045 | 78° | 24km/h | 17833m | 6.3m/s | -56.7°C | 3.5% | 0hPa | 2.6V | 00:00:00 | 00:00:00 | 00:00:00 | |
| OE5WHR-10 | 2026-08-31 03:12:12 | 48.37210 | 14.94029 | 75° | 27km/h | 17824m | 4.5m/s | -56.9°C | 7.0% | 0hPa | 2.6V | 00:00:00 | 00:00:00 | 08:30:00 | |
| S52SK | 2026-08-31 03:12:11 | 48.37210 | 14.94029 | 75° | 22km/h | 17824m | 4.5m/s | -56.9°C | 3.5% | 0hPa | 2.6V | 00:00:00 | 00:00:00 | 00:00:00 | |
| OM5KV | 2026-08-31 03:12:08 | 48.37203 | 14.93999 | 71° | 31km/h | 17808m | 4.9m/s | -57.1°C | 3.4% | 0hPa | 2.6V | 00:00:00 | 00:00:00 | 00:00:00 | |
| SONDE2-11 | 2026-08-31 03:12:07 | 48.37199 | 14.93976 | 82° | 29km/h | 17797m | 5.5m/s | -57.2°C | 3.2% | -1.0hPa | 2.6V | 00:00:00 | 00:00:00 | 00:00:00 | |
| OE5DXL-15 | 2026-08-31 03:12:06 | 48.37198 | 14.93964 | 79° | 27km/h | 17792m | 5.3m/s | -57.1°C | 6.8% | 0hPa | 2.6V | 00:00:00 | 00:00:00 | 00:00:00 | |
| OE5MMP-10 | 2026-08-31 03:12:05 | 48.37196 | 14.93953 | 72° | 29km/h | 17787m | 4.8m/s | -57.1°C | 6.7% | 0hPa | 2.6V | 00:00:00 | 01:23:14 | 00:00:00 | |
| OM5KV | 2026-08-31 03:12:02 | 48.37189 | 14.93933 | 58° | 27km/h | 17776m | 6.3m/s | -57.2°C | 3.3% | 0hPa | 2.6V | 00:00:00 | 00:00:00 | 00:00:00 | |
| OM5KV | 2026-08-31 03:12:01 | 48.37181 | 14.93917 | 48° | 27km/h | 17766m | 3.8m/s | -57.2°C | 3.4% | 0hPa | 2.6V | 00:00:00 | 00:00:00 | 00:00:00 | |
| OE3JTB-15 | 2026-08-31 03:11:59 | 48.37171 | 14.93899 | 52° | 26km/h | 17756m | 3.9m/s | -57.1°C | 7.0% | 0hPa | 2.6V | 00:00:00 | 00:00:00 | 08:30:00 | |
| OE8JPQ-2 | 2026-08-31 03:11:57 | 48.37162 | 14.93880 | 59° | 27km/h | 17745m | 4.6m/s | -57.0°C | 7.2% | 0hPa | 2.7V | 00:00:00 | 00:00:00 | 00:00:00 | |
| PG1ADW-2 | 2026-08-31 03:11:56 | 48.37159 | 14.93872 | 64° | 26km/h | 17741m | 4.4m/s | -57.0°C | 7.1% | 0hPa | 2.7V | 00:00:00 | 00:00:00 | 00:00:00 | |
| OE5MMP-10 | 2026-08-31 03:11:55 | 48.37156 | 14.93865 | 61° | 26km/h | 17736m | 5.1m/s | -56.9°C | 7.1% | 0hPa | 2.6V | 00:00:00 | 01:23:04 | 00:00:00 | |
| OM5KV | 2026-08-31 03:11:53 | 48.37153 | 14.93858 | 54° | 22km/h | 17730m | 6.5m/s | -57.0°C | 3.6% | 0hPa | 2.6V | 00:00:00 | 00:00:00 | 00:00:00 | |
| OK1ALN | 2026-08-31 03:11:52 | 48.37150 | 14.93851 | 51° | 22km/h | 17725m | 4.3m/s | -57.0°C | 3.7% | 0hPa | 2.6V | 00:00:00 | 00:00:00 | 00:00:00 | |
| OE5WHR-10 | 2026-08-31 03:11:51 | 48.37143 | 14.93838 | 53° | 27km/h | 17715m | 4.3m/s | -56.9°C | 7.3% | 0hPa | 2.6V | 00:00:00 | 00:00:00 | 00:00:00 | |
| OM5KV | 2026-08-31 03:11:47 | 48.37130 | 14.93819 | 40° | 27km/h | 17699m | 4.3m/s | -56.8°C | 3.8% | 0hPa | 2.6V | 00:00:00 | 00:00:00 | 00:00:00 | |
| OE5MMP-10 | 2026-08-31 03:11:45 | 48.37114 | 14.93793 | 55° | 27km/h | 17685m | 4.3m/s | -56.8°C | 7.3% | 0hPa | 2.6V | 00:00:00 | 01:22:54 | 00:00:00 | |
| OM5KV | 2026-08-31 03:11:41 | 48.37100 | 14.93763 | 55° | 29km/h | 17671m | 3.4m/s | -56.8°C | 3.6% | 0hPa | 2.6V | 00:00:00 | 00:00:00 | 00:00:00 | |
| OM5KV | 2026-08-31 03:11:39 | 48.37092 | 14.93745 | 64° | 26km/h | 17660m | 5.8m/s | -56.8°C | 3.7% | 0hPa | 2.6V | 00:00:00 | 00:00:00 | 00:00:00 | |
| OE5DRO-10 | 2026-08-31 03:11:38 | 48.37087 | 14.93729 | 61° | 26km/h | 17650m | 5.4m/s | -56.7°C | 7.1% | 0hPa | 2.6V | 00:00:00 | 00:00:00 | 00:00:00 | |
| OE5DXL-15 | 2026-08-31 03:11:36 | 48.37082 | 14.93714 | 67° | 29km/h | 17639m | 5.7m/s | -56.6°C | 6.8% | 0hPa | 2.6V | 00:00:00 | 00:00:00 | 08:30:00 | |
| OE5MMP-10 | 2026-08-31 03:11:35 | 48.37080 | 14.93707 | 76° | 27km/h | 17635m | 4.3m/s | -56.6°C | 6.7% | 0hPa | 2.6V | 00:00:00 | 01:22:44 | 08:30:00 | |
| OK1ALN | 2026-08-31 03:11:32 | 48.37076 | 14.93690 | 68° | 26km/h | 17624m | 6.7m/s | -56.6°C | 3.3% | 0hPa | 2.6V | 00:00:00 | 00:00:00 | 00:00:00 | |
| OE5WHR-10 | 2026-08-31 03:11:30 | 48.37070 | 14.93660 | 73° | 29km/h | 17608m | 4.1m/s | -56.4°C | 6.5% | 0hPa | 2.6V | 00:00:00 | 01:22:39 | 00:00:00 | |
| OE3OSB-13 | 2026-08-31 03:11:24 | 48.37056 | 14.93595 | 72° | 24km/h | 17578m | 5.2m/s | -56.2°C | 3.0% | -1.0hPa | 2.6V | 00:00:00 | 00:00:00 | 00:00:00 | |
| OM5KV | 2026-08-31 03:11:20 | 48.37053 | 14.93569 | 83° | 26km/h | 17565m | 3.5m/s | -56.2°C | 3.1% | 0hPa | 2.6V | 00:00:00 | 00:00:00 | 00:00:00 | |
| OE5DRO-10 | 2026-08-31 03:11:19 | 48.37049 | 14.93549 | 72° | 33km/h | 17556m | 4.6m/s | -56.1°C | 6.5% | 0hPa | 2.6V | 00:00:00 | 00:00:00 | 00:00:00 | |
| OE8JPQ-2 | 2026-08-31 03:11:17 | 48.37045 | 14.93525 | 77° | 33km/h | 17546m | 3.8m/s | -56.1°C | 6.5% | 0hPa | 2.6V | 00:00:00 | 00:00:00 | 00:00:00 | |
| SP3BTT-10 | 2026-08-31 03:11:16 | 48.37043 | 14.93512 | 74° | 31km/h | 17542m | 4.2m/s | -56.1°C | 6.3% | 0hPa | 2.6V | 00:00:00 | 00:00:00 | 08:30:00 | |
| OE5MMP-10 | 2026-08-31 03:11:15 | 48.37040 | 14.93500 | 70° | 31km/h | 17536m | 5.8m/s | -56.1°C | 6.3% | 0hPa | 2.6V | 00:00:00 | 01:22:24 | 00:00:00 | |
| OK1ALN | 2026-08-31 03:11:11 | 48.37033 | 14.93464 | 77° | 31km/h | 17523m | 3.6m/s | -56.1°C | 3.1% | 0hPa | 2.6V | 00:00:00 | 00:00:00 | 00:00:00 | |
| OE5WHR-10 | 2026-08-31 03:11:09 | 48.37026 | 14.93434 | 74° | 31km/h | 17507m | 5.4m/s | -56.0°C | 6.2% | 0hPa | 2.6V | 00:00:00 | 00:00:00 | 00:00:00 | |
| OM5KV | 2026-08-31 03:11:08 | 48.37027 | 14.93434 | 75° | 27km/h | 17507m | 5.4m/s | -56.1°C | 3.0% | 0hPa | 2.6V | 00:00:00 | 00:00:00 | 00:00:00 | |
| OE5DXL-15 | 2026-08-31 03:11:06 | 48.37019 | 14.93401 | 68° | 31km/h | 17493m | 4.8m/s | -55.9°C | 6.2% | 0hPa | 2.6V | 00:00:00 | 00:00:00 | 00:00:00 | |
| OE5MMP-10 | 2026-08-31 03:11:05 | 48.37016 | 14.93389 | 69° | 31km/h | 17489m | 4.6m/s | -55.9°C | 6.2% | 0hPa | 2.6V | 00:00:00 | 01:22:14 | 00:00:00 | |
| S52SK | 2026-08-31 03:11:04 | 48.37016 | 14.93389 | 69° | 33km/h | 17489m | 4.6m/s | -55.9°C | 3.0% | 0hPa | 2.6V | 00:00:00 | 00:00:00 | 00:00:00 | |
| OM5KV | 2026-08-31 03:11:03 | 48.37013 | 14.93377 | 74° | 35km/h | 17483m | 5.4m/s | -55.9°C | 3.1% | 0hPa | 2.6V | 00:00:00 | 00:00:00 | 00:00:00 | |
| OE3OSB-13 | 2026-08-31 03:10:53 | 48.36990 | 14.93260 | 80° | 27km/h | 17432m | 4.5m/s | -56.2°C | 2.7% | -1.0hPa | 2.6V | 00:00:00 | 00:00:00 | 00:00:00 | |
| DL6DJ-15 | 2026-08-31 03:10:49 | 48.36985 | 14.93196 | 83° | 37km/h | 17408m | 5.9m/s | 0°C | -1.0% | -1.0hPa | 2.6V | 00:00:00 | 00:00:00 | 00:00:00 | |
| OE5WHR-10 | 2026-08-31 03:10:48 | 48.36984 | 14.93196 | 84° | 31km/h | 17408m | 5.8m/s | -56.2°C | 6.4% | 0hPa | 2.6V | 00:00:00 | 00:00:00 | 00:00:00 | |
| SP3BTT-10 | 2026-08-31 03:10:46 | 48.36981 | 14.93169 | 77° | 33km/h | 17399m | 3.7m/s | -56.2°C | 6.2% | 0hPa | 2.6V | 00:00:00 | 00:00:00 | 00:00:00 | |
| OE5MMP-10 | 2026-08-31 03:10:45 | 48.36979 | 14.93157 | 79° | 29km/h | 17394m | 5.2m/s | -56.2°C | 6.2% | 0hPa | 2.6V | 00:00:00 | 01:21:54 | 00:00:00 | |
| OM5KV | 2026-08-31 03:10:44 | 48.36979 | 14.93157 | 80° | 33km/h | 17394m | 5.3m/s | -56.3°C | 2.9% | 0hPa | 2.6V | 00:00:00 | 00:00:00 | 00:00:00 | |
| OM5KV | 2026-08-31 03:10:42 | 48.36977 | 14.93133 | 85° | 31km/h | 17385m | 4.3m/s | -56.2°C | 3.0% | 0hPa | 2.6V | 00:00:00 | 00:00:00 | 00:00:00 | |
| OE5DRO-10 | 2026-08-31 03:10:41 | 48.36975 | 14.93110 | 86° | 31km/h | 17375m | 4.7m/s | -56.1°C | 6.2% | 0hPa | 2.6V | 00:00:00 | 00:00:00 | 00:00:00 | |
| OM5KV | 2026-08-31 03:10:38 | 48.36975 | 14.93088 | 95° | 27km/h | 17366m | 3.7m/s | -56.2°C | 3.1% | 0hPa | 2.6V | 00:00:00 | 00:00:00 | 00:00:00 | |
| OE8JPQ-2 | 2026-08-31 03:10:37 | 48.36975 | 14.93067 | 88° | 33km/h | 17356m | 4.6m/s | -56.1°C | 6.4% | 0hPa | 2.6V | 00:00:00 | 01:21:46 | 00:00:00 | |
| OE5DXL-15 | 2026-08-31 03:10:36 | 48.36975 | 14.93056 | 91° | 33km/h | 17351m | 5.4m/s | -56.1°C | 6.3% | 0hPa | 2.6V | 00:00:00 | 00:00:00 | 00:00:00 | |
| OE5MMP-10 | 2026-08-31 03:10:35 | 48.36975 | 14.93045 | 94° | 33km/h | 17346m | 3.8m/s | -56.1°C | 6.3% | 0hPa | 2.6V | 00:00:00 | 01:21:44 | 00:00:00 | |
| OE3JTB-15 | 2026-08-31 03:10:32 | 48.36974 | 14.93011 | 83° | 35km/h | 17333m | 4.2m/s | -56.1°C | 6.2% | 0hPa | 2.7V | 00:00:00 | 00:00:00 | 00:00:00 | |
| OM5KV | 2026-08-31 03:10:30 | 48.36973 | 14.92999 | 87° | 33km/h | 17328m | 5.3m/s | -56.1°C | 3.0% | 0hPa | 2.7V | 00:00:00 | 00:00:00 | 00:00:00 | |
| OE5WHR-10 | 2026-08-31 03:10:27 | 48.36971 | 14.92945 | 87° | 35km/h | 17308m | 5.9m/s | -56.1°C | 6.4% | 0hPa | 2.7V | 00:00:00 | 01:21:36 | 00:00:00 | |
| OM5KV | 2026-08-31 03:10:25 | 48.36970 | 14.92920 | 87° | 33km/h | 17299m | 4.0m/s | -56.1°C | 3.1% | 0hPa | 2.7V | 00:00:00 | 00:00:00 | 00:00:00 | |
| OE5DRO-10 | 2026-08-31 03:10:22 | 48.36967 | 14.92883 | 85° | 35km/h | 17284m | 5.2m/s | -56.1°C | 6.6% | 0hPa | 2.7V | 00:00:00 | 00:00:00 | 00:00:00 | |
| DL6DJ-15 | 2026-08-31 03:10:18 | 48.36961 | 14.92804 | 85° | 35km/h | 17254m | 4.4m/s | 0°C | -1.0% | -1.0hPa | 2.6V | 00:00:00 | 00:00:00 | 00:00:00 | |
| SP3BTT-10 | 2026-08-31 03:10:16 | 48.36961 | 14.92804 | 86° | 38km/h | 17255m | 4.4m/s | -56.1°C | 6.6% | 0hPa | 2.6V | 00:00:00 | 00:00:00 | 00:00:00 | |
| OE5MMP-10 | 2026-08-31 03:10:15 | 48.36960 | 14.92791 | 82° | 35km/h | 17250m | 5.3m/s | -56.1°C | 6.6% | 0hPa | 2.6V | 00:00:00 | 01:21:24 | 00:00:00 | |
| OM5KV | 2026-08-31 03:10:11 | 48.36958 | 14.92752 | 85° | 33km/h | 17236m | 3.8m/s | -56.2°C | 3.4% | 0hPa | 2.6V | 00:00:00 | 00:00:00 | 00:00:00 | |
| OK1ALN | 2026-08-31 03:10:10 | 48.36956 | 14.92739 | 82° | 35km/h | 17231m | 5.6m/s | -56.2°C | 3.3% | 0hPa | 2.6V | 00:00:00 | 00:00:00 | 00:00:00 | |
| OE5WHR-10 | 2026-08-31 03:10:06 | 48.36951 | 14.92674 | 79° | 40km/h | 17207m | 5.2m/s | -56.0°C | 6.5% | 0hPa | 2.6V | 00:00:00 | 00:00:00 | 00:00:00 | |
| OE5MMP-10 | 2026-08-31 03:10:05 | 48.36949 | 14.92662 | 77° | 38km/h | 17202m | 4.4m/s | -56.0°C | 6.4% | 0hPa | 2.6V | 00:00:00 | 01:21:14 | 08:30:00 | |
| OE3JTB-15 | 2026-08-31 03:10:03 | 48.36946 | 14.92637 | 87° | 42km/h | 17192m | 3.6m/s | -55.9°C | 6.4% | 0hPa | 2.6V | 00:00:00 | 00:00:00 | 00:00:00 | |
| OE8JPQ-2 | 2026-08-31 03:10:02 | 48.36945 | 14.92623 | 88° | 44km/h | 17188m | 4.2m/s | -55.9°C | 6.3% | 0hPa | 2.6V | 00:00:00 | 00:00:00 | 08:30:00 | |
| OE3OSB-13 | 2026-08-31 03:09:51 | 48.36940 | 14.92450 | 83° | 40km/h | 17132m | 5.8m/s | -56.0°C | 3.1% | -1.0hPa | 2.7V | 00:00:00 | 00:00:00 | 00:00:00 | |
| DL6DJ-15 | 2026-08-31 03:09:47 | 48.36941 | 14.92370 | 96° | 44km/h | 17106m | 5.7m/s | 0°C | -1.0% | -1.0hPa | 2.7V | 00:00:00 | 00:00:00 | 00:00:00 | |
| SP3BTT-10 | 2026-08-31 03:09:46 | 48.36941 | 14.92370 | 97° | 40km/h | 17106m | 5.6m/s | -55.8°C | 6.7% | 0hPa | 2.7V | 00:00:00 | 00:00:00 | 00:00:00 | |
| OE5WHR-10 | 2026-08-31 03:09:45 | 48.36942 | 14.92353 | 96° | 40km/h | 17102m | 3.3m/s | -55.9°C | 6.7% | 0hPa | 2.7V | 00:00:00 | 00:00:00 | 00:00:00 | |
| OE5DRO-10 | 2026-08-31 03:09:44 | 48.36943 | 14.92336 | 95° | 40km/h | 17097m | 5.3m/s | -55.9°C | 6.7% | 0hPa | 2.7V | 00:00:00 | 00:00:00 | 00:00:00 | |
| OM5KV | 2026-08-31 03:09:43 | 48.36943 | 14.92336 | 95° | 47km/h | 17097m | 5.3m/s | -55.9°C | 3.4% | 0hPa | 2.7V | 00:00:00 | 00:00:00 | 00:00:00 | |
| OE8JPQ-2 | 2026-08-31 03:09:41 | 48.36946 | 14.92282 | 95° | 38km/h | 17083m | 5.0m/s | -55.8°C | 6.6% | 0hPa | 2.7V | 00:00:00 | 00:00:00 | 00:00:00 | |
| S52SK | 2026-08-31 03:09:40 | 48.36946 | 14.92282 | 96° | 46km/h | 17083m | 5.0m/s | -55.8°C | 3.3% | 0hPa | 2.7V | 00:00:00 | 00:00:00 | 00:00:00 | |
| OM5KV | 2026-08-31 03:09:37 | 48.36946 | 14.92233 | 87° | 42km/h | 17068m | 6.3m/s | -55.7°C | 3.3% | 0hPa | 2.7V | 00:00:00 | 00:00:00 | 00:00:00 | |
| OE5DXL-15 | 2026-08-31 03:09:36 | 48.36945 | 14.92203 | 91° | 38km/h | 17056m | 5.7m/s | -55.7°C | 6.5% | 0hPa | 2.7V | 00:00:00 | 00:00:00 | 00:00:00 | |
| OE5MMP-10 | 2026-08-31 03:09:35 | 48.36945 | 14.92190 | 96° | 35km/h | 17052m | 3.8m/s | -55.7°C | 6.6% | 0hPa | 2.7V | 00:00:00 | 01:20:44 | 00:00:00 | |
| OE3JTB-15 | 2026-08-31 03:09:34 | 48.36946 | 14.92177 | 95° | 38km/h | 17047m | 6.5m/s | -55.7°C | 6.5% | 0hPa | 2.7V | 00:00:00 | 01:20:43 | 00:00:00 | |
| OM5KV | 2026-08-31 03:09:31 | 48.36947 | 14.92150 | 93° | 35km/h | 17036m | 4.3m/s | -55.8°C | 3.5% | 0hPa | 2.7V | 00:00:00 | 00:00:00 | 00:00:00 | |
| OK1ALN | 2026-08-31 03:09:29 | 48.36947 | 14.92125 | 92° | 31km/h | 17025m | 4.7m/s | -55.9°C | 3.5% | 0hPa | 2.7V | 00:00:00 | 00:00:00 | 00:00:00 | |
| OM5KV | 2026-08-31 03:09:28 | 48.36947 | 14.92112 | 86° | 33km/h | 17019m | 6.4m/s | -55.9°C | 3.5% | 0hPa | 2.7V | 00:00:00 | 00:00:00 | 00:00:00 | |
| OE5MMP-10 | 2026-08-31 03:09:25 | 48.36942 | 14.92056 | 85° | 37km/h | 16999m | 4.6m/s | -56.0°C | 7.1% | 0hPa | 2.7V | 00:00:00 | 01:20:34 | 00:00:00 | |
| OE5WHR-10 | 2026-08-31 03:09:24 | 48.36941 | 14.92040 | 83° | 40km/h | 16993m | 6.2m/s | -56.0°C | 7.2% | 0hPa | 2.7V | 00:00:00 | 01:20:33 | 00:00:00 | |
| OM5KV | 2026-08-31 03:09:23 | 48.36941 | 14.92040 | 84° | 44km/h | 16993m | 6.3m/s | -56.0°C | 3.9% | 0hPa | 2.7V | 00:00:00 | 00:00:00 | 00:00:00 | |
| OE5FHM-15 | 2026-08-31 03:09:22 | 48.36938 | 14.92008 | 83° | 42km/h | 16984m | 4.2m/s | -56.2°C | 7.4% | 0hPa | 2.7V | 00:00:00 | 01:20:31 | 08:30:00 | |
| OE8JPQ-2 | 2026-08-31 03:09:21 | 48.36937 | 14.91993 | 87° | 40km/h | 16979m | 6.7m/s | -56.4°C | 7.5% | 0hPa | 2.6V | 00:00:00 | 01:20:30 | 00:00:00 | |
| OE3OSB-13 | 2026-08-31 03:09:20 | 48.36937 | 14.91980 | 90° | 33km/h | 16973m | 4.4m/s | -56.5°C | 3.9% | -1.0hPa | 2.6V | 00:00:00 | 00:00:00 | 00:00:00 | |
| OM5KV | 2026-08-31 03:09:17 | 48.36936 | 14.91955 | 87° | 33km/h | 16963m | 4.3m/s | -56.5°C | 4.0% | 0hPa | 2.6V | 00:00:00 | 00:00:00 | 00:00:00 | |
| SP3BTT-10 | 2026-08-31 03:09:16 | 48.36936 | 14.91932 | 93° | 44km/h | 16955m | 5.6m/s | -56.5°C | 7.5% | 0hPa | 2.6V | 00:00:00 | 00:00:00 | 00:00:00 | |
| OE5MMP-10 | 2026-08-31 03:09:15 | 48.36936 | 14.91919 | 94° | 44km/h | 16949m | 4.4m/s | -56.5°C | 7.5% | 0hPa | 2.6V | 00:00:00 | 01:20:24 | 00:00:00 | |
| OM5KV | 2026-08-31 03:09:11 | 48.36935 | 14.91871 | 84° | 47km/h | 16935m | 4.0m/s | -56.6°C | 3.9% | 0hPa | 2.6V | 00:00:00 | 00:00:00 | 00:00:00 | |
| OK1ALN | 2026-08-31 03:09:08 | 48.36931 | 14.91818 | 82° | 46km/h | 16920m | 5.2m/s | -56.7°C | 3.8% | 0hPa | 2.6V | 00:00:00 | 00:00:00 | 00:00:00 | |
| OM5KV | 2026-08-31 03:09:07 | 48.36929 | 14.91801 | 78° | 44km/h | 16915m | 4.8m/s | -56.7°C | 3.8% | 0hPa | 2.6V | 00:00:00 | 00:00:00 | 00:00:00 | |
| OE5DXL-15 | 2026-08-31 03:09:06 | 48.36924 | 14.91770 | 80° | 46km/h | 16905m | 5.9m/s | -56.6°C | 7.5% | 0hPa | 2.6V | 00:00:00 | 00:00:00 | 00:00:00 | |
| OE3JTB-15 | 2026-08-31 03:09:05 | 48.36923 | 14.91754 | 84° | 46km/h | 16901m | 4.0m/s | -56.6°C | 7.4% | 0hPa | 2.6V | 00:00:00 | 00:00:00 | 00:00:00 | |
| SONDE2-11 | 2026-08-31 03:09:01 | 48.36874 | 14.91503 | 68° | 47km/h | 16823m | 5.9m/s | -56.9°C | 3.6% | -1.0hPa | 2.6V | 00:00:00 | 00:00:00 | 00:00:00 | |
| OE3OSB-13 | 2026-08-31 03:08:49 | 48.36865 | 14.91469 | 68° | 46km/h | 16815m | 5.9m/s | -56.9°C | 3.5% | -1.0hPa | 2.6V | 00:00:00 | 00:00:00 | 00:00:00 | |
| OM5KV | 2026-08-31 03:08:48 | 48.36869 | 14.91486 | 68° | 47km/h | 16819m | 3.2m/s | -56.9°C | 3.7% | 0hPa | 2.6V | 00:00:00 | 00:00:00 | 00:00:00 | |
| OE5DRO-10 | 2026-08-31 03:08:47 | 48.36861 | 14.91453 | 71° | 46km/h | 16809m | 5.2m/s | -56.9°C | 7.3% | 0hPa | 2.6V | 00:00:00 | 00:00:00 | 00:00:00 | |
| SP3BTT-10 | 2026-08-31 03:08:46 | 48.36857 | 14.91437 | 68° | 46km/h | 16804m | 5.5m/s | -56.9°C | 7.2% | 0hPa | 2.6V | 00:00:00 | 00:00:00 | 00:00:00 | |
| OM5KV | 2026-08-31 03:08:43 | 48.36847 | 14.91405 | 67° | 46km/h | 16794m | 4.6m/s | -56.9°C | 3.7% | 0hPa | 2.6V | 00:00:00 | 00:00:00 | 00:00:00 | |
| OE5WHR-10 | 2026-08-31 03:08:42 | 48.36838 | 14.91373 | 67° | 47km/h | 16784m | 4.6m/s | -56.9°C | 7.4% | 0hPa | 2.6V | 00:00:00 | 00:00:00 | 00:00:00 | |
| OE8JPQ-2 | 2026-08-31 03:08:39 | 48.36821 | 14.91329 | 58° | 49km/h | 16770m | 6.4m/s | -56.8°C | 7.5% | 0hPa | 2.6V | 00:00:00 | 00:00:00 | 00:00:00 | |
| OM5KV | 2026-08-31 03:08:38 | 48.36821 | 14.91329 | 59° | 42km/h | 16770m | 6.5m/s | -56.9°C | 4.0% | 0hPa | 2.6V | 00:00:00 | 00:00:00 | 00:00:00 | |
| OM5KV | 2026-08-31 03:08:37 | 48.36816 | 14.91315 | 57° | 42km/h | 16765m | 4.6m/s | -56.9°C | 4.1% | 0hPa | 2.6V | 00:00:00 | 00:00:00 | 00:00:00 | |
| OE5DXL-15 | 2026-08-31 03:08:36 | 48.36803 | 14.91290 | 52° | 46km/h | 16755m | 3.7m/s | -56.8°C | 7.7% | 0hPa | 2.6V | 00:00:00 | 00:00:00 | 00:00:00 | |
| OE5MMP-10 | 2026-08-31 03:08:35 | 48.36796 | 14.91276 | 55° | 49km/h | 16750m | 5.2m/s | -56.8°C | 7.6% | 0hPa | 2.7V | 00:00:00 | 01:19:44 | 08:30:00 | |
| OM5KV | 2026-08-31 03:08:33 | 48.36790 | 14.91262 | 61° | 46km/h | 16745m | 5.4m/s | -56.9°C | 4.1% | 0hPa | 2.6V | 00:00:00 | 00:00:00 | 00:00:00 | |
| SONDE2-11 | 2026-08-31 03:08:29 | 48.36755 | 14.91183 | 56° | 49km/h | 16720m | 5.3m/s | -56.9°C | 3.6% | -1.0hPa | 2.6V | 00:00:00 | 00:00:00 | 00:00:00 | |
| OE5DRO-10 | 2026-08-31 03:08:28 | 48.36748 | 14.91167 | 56° | 46km/h | 16716m | 4.2m/s | -56.8°C | 7.1% | 0hPa | 2.6V | 00:00:00 | 00:00:00 | 00:00:00 | |
| OK1ALN | 2026-08-31 03:08:27 | 48.36748 | 14.91167 | 56° | 51km/h | 16716m | 4.2m/s | -56.9°C | 3.7% | 0hPa | 2.6V | 00:00:00 | 00:00:00 | 00:00:00 | |
| OM5KV | 2026-08-31 03:08:26 | 48.36740 | 14.91151 | 53° | 53km/h | 16710m | 6.6m/s | -56.9°C | 3.7% | 0hPa | 2.6V | 00:00:00 | 00:00:00 | 00:00:00 | |
| OE5MMP-10 | 2026-08-31 03:08:25 | 48.36722 | 14.91120 | 48° | 47km/h | 16700m | 5.2m/s | -56.8°C | 6.9% | 0hPa | 2.6V | 00:00:00 | 01:19:34 | 00:00:00 | |
| OM5KV | 2026-08-31 03:08:24 | 48.36722 | 14.91120 | 48° | 53km/h | 16700m | 5.3m/s | -56.9°C | 3.5% | 0hPa | 2.6V | 00:00:00 | 00:00:00 | 00:00:00 | |
| OE5FHM-15 | 2026-08-31 03:08:22 | 48.36696 | 14.91078 | 47° | 53km/h | 16682m | 5.8m/s | -56.8°C | 6.9% | 0hPa | 2.6V | 00:00:00 | 01:19:31 | 00:00:00 | |
| OE5WHR-10 | 2026-08-31 03:08:21 | 48.36688 | 14.91064 | 46° | 40km/h | 16677m | 5.7m/s | -56.9°C | 7.1% | 0hPa | 2.6V | 00:00:00 | 01:19:30 | 00:00:00 | |
| OM5KV | 2026-08-31 03:08:20 | 48.36688 | 14.91064 | 47° | 47km/h | 16677m | 5.7m/s | -56.9°C | 3.7% | 0hPa | 2.6V | 00:00:00 | 00:00:00 | 00:00:00 | |
| OE3OSB-13 | 2026-08-31 03:08:18 | 48.36657 | 14.91016 | 43° | 44km/h | 16658m | 4.6m/s | -57.1°C | 3.5% | -1.0hPa | 2.6V | 00:00:00 | 00:00:00 | 00:00:00 | |
| SP3BTT-10 | 2026-08-31 03:08:16 | 48.36649 | 14.91004 | 47° | 38km/h | 16654m | 5.0m/s | -57.1°C | 7.1% | 0hPa | 2.6V | 00:00:00 | 00:00:00 | 00:00:00 | |
| OE5MMP-10 | 2026-08-31 03:08:15 | 48.36642 | 14.90992 | 52° | 40km/h | 16649m | 4.5m/s | -57.2°C | 7.1% | 0hPa | 2.6V | 00:00:00 | 01:19:24 | 00:00:00 | |
| S52SK | 2026-08-31 03:08:12 | 48.36629 | 14.90966 | 53° | 42km/h | 16640m | 4.9m/s | -57.4°C | 3.8% | 0hPa | 2.6V | 00:00:00 | 00:00:00 | 00:00:00 | |
| OM5KV | 2026-08-31 03:08:11 | 48.36623 | 14.90953 | 57° | 40km/h | 16635m | 4.6m/s | -57.5°C | 3.9% | 0hPa | 2.6V | 00:00:00 | 00:00:00 | 00:00:00 | |
| OE5DRO-10 | 2026-08-31 03:08:09 | 48.36608 | 14.90916 | 59° | 37km/h | 16621m | 5.7m/s | -57.5°C | 7.6% | 0hPa | 2.6V | 00:00:00 | 00:00:00 | 00:00:00 | |
| OE3JTB-15 | 2026-08-31 03:08:07 | 48.36598 | 14.90892 | 55° | 37km/h | 16611m | 5.5m/s | -57.5°C | 7.8% | 0hPa | 2.6V | 00:00:00 | 01:19:16 | 00:00:00 | |
| OE5DXL-15 | 2026-08-31 03:08:06 | 48.36592 | 14.90880 | 58° | 37km/h | 16606m | 4.9m/s | -57.5°C | 7.9% | 0hPa | 2.6V | 00:00:00 | 00:00:00 | 00:00:00 | |
| OE5MMP-10 | 2026-08-31 03:08:05 | 48.36587 | 14.90868 | 57° | 37km/h | 16602m | 2.9m/s | -57.5°C | 7.9% | 0hPa | 2.6V | 00:00:00 | 01:19:14 | 00:00:00 | |
| SONDE2-11 | 2026-08-31 03:07:58 | 48.36555 | 14.90786 | 54° | 37km/h | 16569m | 4.4m/s | -58.0°C | 4.2% | -1.0hPa | 2.6V | 00:00:00 | 00:00:00 | 00:00:00 | |
| OE3OSB-13 | 2026-08-31 03:07:47 | 48.36476 | 14.90667 | 49° | 29km/h | 16511m | 5.0m/s | -57.7°C | 4.2% | -1.0hPa | 2.6V | 00:00:00 | 00:00:00 | 00:00:00 | |
| SP3BTT-10 | 2026-08-31 03:07:46 | 48.36475 | 14.90667 | 50° | 33km/h | 16512m | 5.0m/s | -57.6°C | 8.0% | 0hPa | 2.6V | 00:00:00 | 00:00:00 | 00:00:00 | |
| OE5MMP-10 | 2026-08-31 03:07:45 | 48.36470 | 14.90658 | 46° | 33km/h | 16507m | 4.3m/s | -57.6°C | 7.9% | 0hPa | 2.6V | 00:00:00 | 01:18:54 | 00:00:00 | |
| OM5KV | 2026-08-31 03:07:44 | 48.36470 | 14.90658 | 46° | 29km/h | 16507m | 4.4m/s | -57.6°C | 4.3% | 0hPa | 2.6V | 00:00:00 | 00:00:00 | 00:00:00 | |
| NBG1-10 | 2026-08-31 03:07:40 | 48.36442 | 14.90614 | 55° | 42km/h | 16482m | 4.3m/s | 0°C | 0% | 0hPa | 2.6V | 00:00:00 | 01:18:49 | 00:00:00 | |
| OE5WHR-10 | 2026-08-31 03:07:39 | 48.36437 | 14.90603 | 55° | 35km/h | 16477m | 5.3m/s | -57.9°C | 7.8% | 0hPa | 2.6V | 00:00:00 | 00:00:00 | 00:00:00 | |
| OE3JTB-15 | 2026-08-31 03:07:38 | 48.36432 | 14.90593 | 51° | 35km/h | 16472m | 5.5m/s | -58.1°C | 7.7% | 0hPa | 2.6V | 00:00:00 | 00:00:00 | 08:30:00 | |
| PG1ADW-2 | 2026-08-31 03:07:36 | 48.36421 | 14.90572 | 57° | 35km/h | 16462m | 5.5m/s | -58.2°C | 7.7% | 0hPa | 2.6V | 00:00:00 | 00:00:00 | 00:00:00 | |
| OE5MMP-10 | 2026-08-31 03:07:35 | 48.36416 | 14.90560 | 57° | 37km/h | 16457m | 4.3m/s | -58.4°C | 7.8% | 0hPa | 2.6V | 00:00:00 | 01:18:44 | 00:00:00 | |
| OM5KV | 2026-08-31 03:07:33 | 48.36411 | 14.90548 | 57° | 37km/h | 16452m | 5.7m/s | -58.6°C | 4.2% | 0hPa | 2.7V | 00:00:00 | 00:00:00 | 00:00:00 | |
| OE5DRO-10 | 2026-08-31 03:07:31 | 48.36397 | 14.90514 | 64° | 33km/h | 16437m | 6.1m/s | -58.5°C | 7.9% | 0hPa | 2.7V | 00:00:00 | 00:00:00 | 00:00:00 | |
| OM5KV | 2026-08-31 03:07:29 | 48.36393 | 14.90501 | 66° | 38km/h | 16432m | 4.8m/s | -58.6°C | 4.1% | 0hPa | 2.6V | 00:00:00 | 00:00:00 | 00:00:00 | |
| OM5KV | 2026-08-31 03:07:27 | 48.36386 | 14.90475 | 67° | 37km/h | 16422m | 3.5m/s | -58.5°C | 4.2% | 0hPa | 2.6V | 00:00:00 | 00:00:00 | 00:00:00 | |
| OK1ALN | 2026-08-31 03:07:26 | 48.36382 | 14.90463 | 67° | 38km/h | 16417m | 5.6m/s | -58.5°C | 4.1% | 0hPa | 2.6V | 00:00:00 | 00:00:00 | 00:00:00 | |
| OE5MMP-10 | 2026-08-31 03:07:25 | 48.36374 | 14.90435 | 65° | 33km/h | 16407m | 5.2m/s | -58.4°C | 7.8% | 0hPa | 2.6V | 00:00:00 | 01:18:34 | 00:00:00 | |
| OM5KV | 2026-08-31 03:07:23 | 48.36370 | 14.90423 | 65° | 35km/h | 16402m | 4.3m/s | -58.4°C | 4.1% | 0hPa | 2.6V | 00:00:00 | 00:00:00 | 00:00:00 | |
| OM5KV | 2026-08-31 03:07:22 | 48.36366 | 14.90411 | 68° | 35km/h | 16398m | 3.7m/s | -58.4°C | 4.0% | 0hPa | 2.6V | 00:00:00 | 00:00:00 | 00:00:00 | |
| OE5WHR-10 | 2026-08-31 03:07:18 | 48.36354 | 14.90354 | 68° | 31km/h | 16374m | 4.6m/s | -58.1°C | 7.7% | 0hPa | 2.6V | 00:00:00 | 01:18:27 | 00:00:00 | |
| OM5KV | 2026-08-31 03:07:17 | 48.36354 | 14.90354 | 68° | 27km/h | 16374m | 4.7m/s | -58.2°C | 4.0% | 0hPa | 2.6V | 00:00:00 | 00:00:00 | 00:00:00 | |
| PG1ADW-2 | 2026-08-31 03:07:16 | 48.36347 | 14.90334 | 59° | 31km/h | 16363m | 4.4m/s | -58.1°C | 7.7% | 0hPa | 2.6V | 00:00:00 | 00:00:00 | 00:00:00 | |
| OE5MMP-10 | 2026-08-31 03:07:15 | 48.36343 | 14.90323 | 62° | 33km/h | 16359m | 4.7m/s | -58.1°C | 7.8% | 0hPa | 2.6V | 00:00:00 | 01:18:24 | 00:00:00 | |
| OM5KV | 2026-08-31 03:07:11 | 48.36331 | 14.90285 | 66° | 37km/h | 16344m | 5.4m/s | -58.1°C | 4.1% | 0hPa | 2.6V | 00:00:00 | 00:00:00 | 00:00:00 | |
| OM5KV | 2026-08-31 03:07:10 | 48.36327 | 14.90273 | 64° | 35km/h | 16339m | 3.5m/s | -58.1°C | 4.1% | 0hPa | 2.6V | 00:00:00 | 00:00:00 | 00:00:00 | |
| OE3JTB-15 | 2026-08-31 03:07:09 | 48.36320 | 14.90251 | 68° | 24km/h | 16331m | 4.5m/s | -58.0°C | 7.7% | 0hPa | 2.6V | 00:00:00 | 00:00:00 | 00:00:00 | |
| OE5DRO-10 | 2026-08-31 03:07:08 | 48.36317 | 14.90240 | 68° | 24km/h | 16326m | 5.0m/s | -58.0°C | 7.7% | 0hPa | 2.6V | 00:00:00 | 00:00:00 | 00:00:00 | |
| OM5KV | 2026-08-31 03:07:06 | 48.36314 | 14.90230 | 67° | 27km/h | 16321m | 5.2m/s | -58.1°C | 4.1% | 0hPa | 2.6V | 00:00:00 | 00:00:00 | 00:00:00 | |
| OE5MMP-10 | 2026-08-31 03:07:05 | 48.36308 | 14.90213 | 60° | 26km/h | 16311m | 3.6m/s | -58.1°C | 7.9% | 0hPa | 2.6V | 00:00:00 | 01:18:14 | 08:30:00 | |
| OM5KV | 2026-08-31 03:07:01 | 48.36298 | 14.90186 | 60° | 29km/h | 16296m | 5.7m/s | -58.2°C | 4.2% | 0hPa | 2.6V | 00:00:00 | 00:00:00 | 00:00:00 | |
| OE3OSB-13 | 2026-08-31 03:06:44 | 48.36253 | 14.90048 | 73° | 26km/h | 16206m | 6.3m/s | -58.2°C | 4.1% | -1.0hPa | 2.6V | 00:00:00 | 00:00:00 | 00:00:00 | |
| OM5KV | 2026-08-31 03:06:42 | 48.36251 | 14.90039 | 72° | 26km/h | 16200m | 4.1m/s | -58.2°C | 4.3% | 0hPa | 2.6V | 00:00:00 | 00:00:00 | 00:00:00 | |
| OE3JTB-15 | 2026-08-31 03:06:40 | 48.36244 | 14.90014 | 76° | 33km/h | 16188m | 4.2m/s | -58.2°C | 8.0% | 0hPa | 2.6V | 00:00:00 | 01:17:49 | 00:00:00 | |
| OE8JPQ-2 | 2026-08-31 03:06:37 | 48.36244 | 14.89989 | 96° | 33km/h | 16174m | 4.9m/s | -58.2°C | 8.0% | 0hPa | 2.6V | 00:00:00 | 00:00:00 | 00:00:00 | |
| OE5WHR-10 | 2026-08-31 03:06:36 | 48.36244 | 14.89980 | 90° | 33km/h | 16168m | 6.5m/s | -58.2°C | 8.0% | 0hPa | 2.6V | 00:00:00 | 00:00:00 | 00:00:00 | |
| OE5MMP-10 | 2026-08-31 03:06:35 | 48.36244 | 14.89970 | 82° | 31km/h | 16162m | 6.0m/s | -58.2°C | 8.1% | 0hPa | 2.6V | 00:00:00 | 01:17:44 | 00:00:00 | |
| OE5DRO-10 | 2026-08-31 03:06:30 | 48.36240 | 14.89914 | 93° | 35km/h | 16137m | 4.8m/s | -58.3°C | 8.1% | 0hPa | 2.6V | 00:00:00 | 00:00:00 | 08:30:00 | |
| OE5MMP-10 | 2026-08-31 03:06:25 | 48.36239 | 14.89850 | 89° | 35km/h | 16114m | 4.3m/s | -58.1°C | 8.1% | 0hPa | 2.7V | 00:00:00 | 01:17:34 | 00:00:00 | |
| OM5KV | 2026-08-31 03:06:24 | 48.36239 | 14.89850 | 89° | 33km/h | 16114m | 4.3m/s | -58.2°C | 4.4% | 0hPa | 2.7V | 00:00:00 | 00:00:00 | 00:00:00 | |
| SP3BTT-10 | 2026-08-31 03:06:21 | 48.36243 | 14.89797 | 101° | 44km/h | 16094m | 5.6m/s | -58.1°C | 8.2% | 0hPa | 2.7V | 00:00:00 | 00:00:00 | 00:00:00 | |
| OM5KV | 2026-08-31 03:06:19 | 48.36245 | 14.89784 | 100° | 37km/h | 16089m | 4.8m/s | -58.1°C | 4.5% | 0hPa | 2.7V | 00:00:00 | 00:00:00 | 00:00:00 | |
| OE8JPQ-2 | 2026-08-31 03:06:17 | 48.36249 | 14.89744 | 95° | 40km/h | 16073m | 5.4m/s | -57.9°C | 8.3% | 0hPa | 2.7V | 00:00:00 | 01:17:26 | 00:00:00 | |
| PG1ADW-2 | 2026-08-31 03:06:16 | 48.36249 | 14.89731 | 89° | 42km/h | 16068m | 4.7m/s | -57.9°C | 8.4% | 0hPa | 2.7V | 00:00:00 | 00:00:00 | 00:00:00 | |
| OE5WHR-10 | 2026-08-31 03:06:15 | 48.36249 | 14.89717 | 88° | 44km/h | 16063m | 5.2m/s | -57.9°C | 8.4% | 0hPa | 2.7V | 00:00:00 | 01:17:24 | 00:00:00 | |
| OM5KV | 2026-08-31 03:06:14 | 48.36248 | 14.89717 | 88° | 37km/h | 16063m | 5.2m/s | -58.0°C | 4.6% | 0hPa | 2.7V | 00:00:00 | 00:00:00 | 00:00:00 | |
| OE3OSB-13 | 2026-08-31 03:06:13 | 48.36248 | 14.89689 | 89° | 38km/h | 16052m | 4.8m/s | -58.0°C | 4.5% | -1.0hPa | 2.7V | 00:00:00 | 00:00:00 | 00:00:00 | |
| OE3JTB-15 | 2026-08-31 03:06:11 | 48.36248 | 14.89658 | 92° | 49km/h | 16042m | 4.2m/s | -58.0°C | 8.6% | 0hPa | 2.7V | 00:00:00 | 00:00:00 | 00:00:00 | |
| OE5DXL-15 | 2026-08-31 03:06:06 | 48.36255 | 14.89584 | 95° | 51km/h | 16019m | 5.2m/s | -57.9°C | 8.4% | 0hPa | 2.6V | 00:00:00 | 00:00:00 | 00:00:00 | |
| OE5MMP-10 | 2026-08-31 03:06:05 | 48.36255 | 14.89569 | 91° | 47km/h | 16014m | 4.4m/s | -57.9°C | 8.3% | 0hPa | 2.6V | 00:00:00 | 01:17:14 | 00:00:00 | |
| OK1ALN | 2026-08-31 03:06:04 | 48.36255 | 14.89569 | 91° | 38km/h | 16014m | 4.5m/s | -57.9°C | 4.6% | 0hPa | 2.7V | 00:00:00 | 00:00:00 | 00:00:00 | |
| OM5KV | 2026-08-31 03:06:02 | 48.36255 | 14.89538 | 91° | 44km/h | 16003m | 6.3m/s | -57.9°C | 4.5% | 0hPa | 2.7V | 00:00:00 | 00:00:00 | 00:00:00 | |
| OM5KV | 2026-08-31 03:06:01 | 48.36255 | 14.89521 | 92° | 46km/h | 15998m | 4.7m/s | -57.8°C | 4.5% | 0hPa | 2.7V | 00:00:00 | 00:00:00 | 00:00:00 | |
| OE8JPQ-2 | 2026-08-31 03:05:57 | 48.36255 | 14.89429 | 95° | 60km/h | 15969m | 4.5m/s | -57.8°C | 8.0% | 0hPa | 2.7V | 00:00:00 | 00:00:00 | 00:00:00 | |
| PG1ADW-2 | 2026-08-31 03:05:56 | 48.36256 | 14.89408 | 97° | 55km/h | 15963m | 6.3m/s | -57.8°C | 7.9% | 0hPa | 2.7V | 00:00:00 | 00:00:00 | 00:00:00 | |
| OE5MMP-10 | 2026-08-31 03:05:55 | 48.36258 | 14.89388 | 99° | 53km/h | 15957m | 6.4m/s | -57.8°C | 7.9% | 0hPa | 2.6V | 00:00:00 | 01:17:04 | 00:00:00 | |
| OE5WHR-10 | 2026-08-31 03:05:54 | 48.36259 | 14.89368 | 97° | 57km/h | 15951m | 5.0m/s | -57.8°C | 7.9% | 0hPa | 2.6V | 00:00:00 | 00:00:00 | 08:30:00 | |
| OE5DRO-10 | 2026-08-31 03:05:52 | 48.36261 | 14.89327 | 93° | 57km/h | 15941m | 5.6m/s | -57.8°C | 7.8% | 0hPa | 2.7V | 00:00:00 | 00:00:00 | 00:00:00 | |
| SP3BTT-10 | 2026-08-31 03:05:51 | 48.36262 | 14.89307 | 90° | 55km/h | 15936m | 4.2m/s | -57.7°C | 7.8% | 0hPa | 2.7V | 00:00:00 | 00:00:00 | 08:30:00 | |
| OM5KV | 2026-08-31 03:05:49 | 48.36262 | 14.89286 | 90° | 51km/h | 15931m | 5.5m/s | -57.7°C | 4.2% | 0hPa | 2.7V | 00:00:00 | 00:00:00 | 00:00:00 | |
| OE5MMP-10 | 2026-08-31 03:05:45 | 48.36262 | 14.89186 | 95° | 57km/h | 15907m | 4.7m/s | -57.5°C | 7.5% | 0hPa | 2.7V | 00:00:00 | 01:16:54 | 00:00:00 | |
| OK1ALN | 2026-08-31 03:05:44 | 48.36262 | 14.89186 | 96° | 57km/h | 15907m | 4.7m/s | -57.5°C | 4.0% | 0hPa | 2.7V | 00:00:00 | 00:00:00 | 00:00:00 | |
| OE3JTB-15 | 2026-08-31 03:05:42 | 48.36269 | 14.89123 | 102° | 62km/h | 15893m | 4.8m/s | -57.5°C | 7.4% | 0hPa | 2.7V | 00:00:00 | 00:00:00 | 00:00:00 | |
| OE5DXL-15 | 2026-08-31 03:05:36 | 48.36278 | 14.88993 | 96° | 64km/h | 15864m | 4.5m/s | -57.7°C | 7.9% | 0hPa | 2.7V | 00:00:00 | 00:00:00 | 00:00:00 | |
| OE5MMP-10 | 2026-08-31 03:05:35 | 48.36279 | 14.88970 | 95° | 62km/h | 15859m | 5.2m/s | -57.8°C | 8.0% | 0hPa | 2.6V | 00:00:00 | 01:16:44 | 08:30:00 | |
| OM5KV | 2026-08-31 03:05:34 | 48.36279 | 14.88970 | 96° | 60km/h | 15859m | 5.2m/s | -57.8°C | 4.3% | 0hPa | 2.6V | 00:00:00 | 00:00:00 | 00:00:00 | |
| OE5WHR-10 | 2026-08-31 03:05:33 | 48.36282 | 14.88924 | 96° | 64km/h | 15850m | 4.8m/s | -57.8°C | 8.0% | 0hPa | 2.6V | 00:00:00 | 00:00:00 | 00:00:00 | |
| S52SK | 2026-08-31 03:05:30 | 48.36284 | 14.88877 | 96° | 66km/h | 15838m | 5.9m/s | -57.8°C | 4.3% | 0hPa | 2.6V | 00:00:00 | 00:00:00 | 00:00:00 | |
| OM5KV | 2026-08-31 03:05:28 | 48.36288 | 14.88828 | 98° | 62km/h | 15828m | 5.0m/s | -57.9°C | 4.3% | 0hPa | 2.6V | 00:00:00 | 00:00:00 | 00:00:00 | |
| OE5MMP-10 | 2026-08-31 03:05:25 | 48.36293 | 14.88740 | 90° | 64km/h | 15806m | 4.3m/s | -58.1°C | 7.9% | 0hPa | 2.6V | 00:00:00 | 01:16:34 | 00:00:00 | |
| OK1ALN | 2026-08-31 03:05:23 | 48.36293 | 14.88719 | 91° | 55km/h | 15801m | 6.4m/s | -58.2°C | 4.2% | 0hPa | 2.6V | 00:00:00 | 00:00:00 | 00:00:00 | |
| DO3MHA-12 | 2026-08-31 03:05:22 | 48.36294 | 14.88676 | 92° | 66km/h | 15790m | 4.2m/s | -58.0°C | 7.9% | 0hPa | 2.6V | 00:00:00 | 01:16:31 | 00:00:00 | |
| SP3BTT-10 | 2026-08-31 03:05:21 | 48.36294 | 14.88653 | 91° | 66km/h | 15785m | 6.2m/s | -58.0°C | 7.9% | 0hPa | 2.6V | 00:00:00 | 00:00:00 | 00:00:00 | |
| PG1ADW-2 | 2026-08-31 03:05:16 | 48.36295 | 14.88521 | 89° | 64km/h | 15757m | 4.6m/s | -57.9°C | 8.0% | 0hPa | 2.6V | 00:00:00 | 00:00:00 | 00:00:00 | |
| OE5MMP-10 | 2026-08-31 03:05:15 | 48.36294 | 14.88495 | 89° | 64km/h | 15753m | 4.1m/s | -57.8°C | 8.0% | 0hPa | 2.6V | 00:00:00 | 01:16:24 | 00:00:00 | |
| OE5DRO-10 | 2026-08-31 03:05:14 | 48.36294 | 14.88470 | 89° | 64km/h | 15748m | 5.2m/s | -57.8°C | 7.9% | 0hPa | 2.6V | 00:00:00 | 00:00:00 | 00:00:00 | |
| OE3JTB-15 | 2026-08-31 03:05:13 | 48.36293 | 14.88446 | 88° | 64km/h | 15743m | 4.9m/s | -57.8°C | 8.0% | 0hPa | 2.6V | 00:00:00 | 01:16:22 | 00:00:00 | |
| OE5WHR-10 | 2026-08-31 03:05:12 | 48.36292 | 14.88422 | 87° | 64km/h | 15737m | 5.8m/s | -57.7°C | 7.9% | 0hPa | 2.6V | 00:00:00 | 01:16:21 | 00:00:00 | |
| OE3OSB-13 | 2026-08-31 03:05:11 | 48.36291 | 14.88397 | 84° | 64km/h | 15732m | 4.5m/s | -57.8°C | 4.1% | -1.0hPa | 2.6V | 00:00:00 | 00:00:00 | 00:00:00 | |
| DO3MHA-12 | 2026-08-31 03:05:10 | 48.36290 | 14.88373 | 87° | 64km/h | 15727m | 5.3m/s | -57.7°C | 8.0% | 0hPa | 2.6V | 00:00:00 | 01:16:19 | 08:30:00 | |
| OM5KV | 2026-08-31 03:05:09 | 48.36290 | 14.88373 | 88° | 66km/h | 15727m | 5.4m/s | -57.8°C | 4.4% | 0hPa | 2.6V | 00:00:00 | 00:00:00 | 00:00:00 | |
| OE5DXL-15 | 2026-08-31 03:05:06 | 48.36288 | 14.88275 | 88° | 66km/h | 15707m | 4.9m/s | -57.9°C | 8.1% | 0hPa | 2.6V | 00:00:00 | 00:00:00 | 00:00:00 | |
| OE5MMP-10 | 2026-08-31 03:05:05 | 48.36287 | 14.88252 | 88° | 64km/h | 15702m | 5.0m/s | -58.0°C | 8.1% | 0hPa | 2.6V | 00:00:00 | 01:16:14 | 00:00:00 | |
| OM5KV | 2026-08-31 03:05:04 | 48.36287 | 14.88252 | 88° | 60km/h | 15702m | 5.0m/s | -58.0°C | 4.5% | 0hPa | 2.7V | 00:00:00 | 00:00:00 | 00:00:00 | |
| OM5KV | 2026-08-31 03:05:03 | 48.36286 | 14.88229 | 87° | 60km/h | 15697m | 5.4m/s | -58.0°C | 4.6% | 0hPa | 2.7V | 00:00:00 | 00:00:00 | 00:00:00 | |
| OE5FHM-15 | 2026-08-31 03:05:02 | 48.36284 | 14.88183 | 86° | 68km/h | 15687m | 4.7m/s | -58.0°C | 8.3% | 0hPa | 2.7V | 00:00:00 | 01:16:11 | 00:00:00 | |
| SONDE2-11 | 2026-08-31 03:04:52 | 48.36266 | 14.87937 | 81° | 60km/h | 15641m | 4.3m/s | -58.0°C | 4.7% | -1.0hPa | 2.6V | 00:00:00 | 00:00:00 | 00:00:00 | |
| SP3BTT-10 | 2026-08-31 03:04:51 | 48.36264 | 14.87914 | 83° | 68km/h | 15637m | 4.6m/s | -57.9°C | 8.7% | 0hPa | 2.6V | 00:00:00 | 00:00:00 | 00:00:00 | |
| DO3MHA-12 | 2026-08-31 03:04:46 | 48.36250 | 14.87793 | 81° | 69km/h | 15615m | 4.5m/s | -57.7°C | 8.8% | 0hPa | 2.6V | 00:00:00 | 01:15:55 | 00:00:00 | |
| OE5MMP-10 | 2026-08-31 03:04:45 | 48.36247 | 14.87767 | 82° | 69km/h | 15610m | 4.6m/s | -57.7°C | 8.8% | 0hPa | 2.6V | 00:00:00 | 01:15:54 | 00:00:00 | |
| OE3JTB-15 | 2026-08-31 03:04:44 | 48.36245 | 14.87741 | 81° | 66km/h | 15605m | 4.4m/s | -57.6°C | 8.9% | 0hPa | 2.6V | 00:00:00 | 00:00:00 | 00:00:00 | |
| OE8JPQ-2 | 2026-08-31 03:04:42 | 48.36238 | 14.87687 | 79° | 68km/h | 15596m | 5.3m/s | -57.6°C | 9.0% | 0hPa | 2.7V | 00:00:00 | 00:00:00 | 00:00:00 | |
| OK1ALN | 2026-08-31 03:04:41 | 48.36238 | 14.87687 | 79° | 71km/h | 15596m | 5.3m/s | -57.6°C | 5.2% | 0hPa | 2.7V | 00:00:00 | 00:00:00 | 00:00:00 | |
| OE3OSB-13 | 2026-08-31 03:04:40 | 48.36231 | 14.87634 | 81° | 71km/h | 15586m | 4.5m/s | -57.6°C | 5.1% | -1.0hPa | 2.7V | 00:00:00 | 00:00:00 | 00:00:00 | |
| OE5DXL-15 | 2026-08-31 03:04:36 | 48.36223 | 14.87531 | 83° | 66km/h | 15566m | 5.2m/s | -57.6°C | 9.4% | 0hPa | 2.7V | 00:00:00 | 00:00:00 | 00:00:00 | |
| OE5MMP-10 | 2026-08-31 03:04:35 | 48.36220 | 14.87506 | 83° | 68km/h | 15561m | 5.6m/s | -57.6°C | 9.4% | 0hPa | 2.7V | 00:00:00 | 01:15:44 | 00:00:00 | |
| DO3MHA-12 | 2026-08-31 03:04:34 | 48.36218 | 14.87480 | 82° | 68km/h | 15555m | 5.5m/s | -57.5°C | 9.5% | 0hPa | 2.7V | 00:00:00 | 01:15:43 | 00:00:00 | |
| OE5FHM-15 | 2026-08-31 03:04:32 | 48.36212 | 14.87428 | 82° | 64km/h | 15546m | 4.7m/s | -57.5°C | 9.4% | 0hPa | 2.7V | 00:00:00 | 01:15:41 | 00:00:00 | |
| OE5WHR-10 | 2026-08-31 03:04:30 | 48.36208 | 14.87377 | 85° | 64km/h | 15536m | 5.1m/s | -57.5°C | 9.2% | 0hPa | 2.7V | 00:00:00 | 00:00:00 | 00:00:00 | |
| OM5KV | 2026-08-31 03:04:29 | 48.36209 | 14.87377 | 86° | 68km/h | 15536m | 5.2m/s | -57.5°C | 5.4% | 0hPa | 2.7V | 00:00:00 | 00:00:00 | 00:00:00 | |
| OE5MMP-10 | 2026-08-31 03:04:25 | 48.36201 | 14.87255 | 87° | 62km/h | 15512m | 5.8m/s | -57.3°C | 8.8% | 0hPa | 2.7V | 00:00:00 | 01:15:34 | 00:00:00 | |
| DO3MHA-12 | 2026-08-31 03:04:24 | 48.36200 | 14.87233 | 86° | 66km/h | 15506m | 4.5m/s | -57.3°C | 8.7% | 0hPa | 2.7V | 00:00:00 | 01:15:33 | 00:00:00 | |
| OM5KV | 2026-08-31 03:04:23 | 48.36200 | 14.87233 | 87° | 58km/h | 15506m | 4.6m/s | -57.4°C | 5.1% | 0hPa | 2.7V | 00:00:00 | 00:00:00 | 00:00:00 | |
| OE8JPQ-2 | 2026-08-31 03:04:22 | 48.36197 | 14.87190 | 81° | 66km/h | 15497m | 4.9m/s | -57.2°C | 8.8% | 0hPa | 2.7V | 00:00:00 | 00:00:00 | 00:00:00 | |
| SP3BTT-10 | 2026-08-31 03:04:21 | 48.36195 | 14.87168 | 83° | 62km/h | 15491m | 5.4m/s | -57.2°C | 8.8% | 0hPa | 2.7V | 00:00:00 | 00:00:00 | 00:00:00 | |
| OM5KV | 2026-08-31 03:04:19 | 48.36193 | 14.87145 | 82° | 62km/h | 15486m | 4.3m/s | -57.2°C | 5.1% | 0hPa | 2.7V | 00:00:00 | 00:00:00 | 00:00:00 | |
| OE5DRO-10 | 2026-08-31 03:04:17 | 48.36183 | 14.87070 | 77° | 64km/h | 15471m | 4.5m/s | -57.1°C | 8.7% | 0hPa | 2.7V | 00:00:00 | 00:00:00 | 00:00:00 | |
| PG1ADW-2 | 2026-08-31 03:04:16 | 48.36179 | 14.87045 | 77° | 64km/h | 15466m | 4.9m/s | -57.1°C | 8.8% | 0hPa | 2.7V | 00:00:00 | 01:15:25 | 00:00:00 | |
| OE3JTB-15 | 2026-08-31 03:04:15 | 48.36175 | 14.87019 | 80° | 62km/h | 15462m | 3.6m/s | -57.1°C | 8.7% | 0hPa | 2.7V | 00:00:00 | 00:00:00 | 00:00:00 | |
| DO3MHA-12 | 2026-08-31 03:04:14 | 48.36172 | 14.86993 | 82° | 64km/h | 15458m | 5.1m/s | -57.1°C | 8.6% | 0hPa | 2.7V | 00:00:00 | 01:15:23 | 00:00:00 | |
| OM5KV | 2026-08-31 03:04:11 | 48.36168 | 14.86941 | 83° | 66km/h | 15448m | 5.1m/s | -57.3°C | 5.0% | 0hPa | 2.7V | 00:00:00 | 00:00:00 | 00:00:00 | |
| OE5WHR-10 | 2026-08-31 03:04:09 | 48.36157 | 14.86870 | 76° | 60km/h | 15434m | 5.1m/s | -57.4°C | 8.6% | 0hPa | 2.7V | 00:00:00 | 01:15:18 | 00:00:00 | |
| OM5KV | 2026-08-31 03:04:08 | 48.36157 | 14.86870 | 77° | 62km/h | 15434m | 5.2m/s | -57.4°C | 5.0% | 0hPa | 2.7V | 00:00:00 | 00:00:00 | 00:00:00 | |
| OE5DXL-15 | 2026-08-31 03:04:06 | 48.36144 | 14.86801 | 74° | 58km/h | 15419m | 4.2m/s | -57.3°C | 8.6% | 0hPa | 2.7V | 00:00:00 | 00:00:00 | 00:00:00 | |
| OE5MMP-10 | 2026-08-31 03:04:05 | 48.36140 | 14.86778 | 75° | 60km/h | 15414m | 5.3m/s | -57.3°C | 8.6% | 0hPa | 2.7V | 00:00:00 | 01:15:14 | 08:30:00 | |
| OE5FHM-15 | 2026-08-31 03:04:02 | 48.36128 | 14.86710 | 76° | 57km/h | 15400m | 4.2m/s | -57.4°C | 8.6% | 0hPa | 2.6V | 00:00:00 | 01:15:11 | 00:00:00 | |
| OK1ALN | 2026-08-31 03:04:00 | 48.36124 | 14.86687 | 77° | 62km/h | 15396m | 4.8m/s | -57.5°C | 5.0% | 0hPa | 2.6V | 00:00:00 | 00:00:00 | 00:00:00 | |
| OE5DRO-10 | 2026-08-31 03:03:58 | 48.36114 | 14.86621 | 76° | 57km/h | 15381m | 3.8m/s | -57.9°C | 9.1% | 0hPa | 2.6V | 00:00:00 | 00:00:00 | 00:00:00 | |
| PG1ADW-2 | 2026-08-31 03:03:56 | 48.36105 | 14.86579 | 71° | 57km/h | 15371m | 4.4m/s | -57.9°C | 9.2% | 0hPa | 2.6V | 00:00:00 | 00:00:00 | 00:00:00 | |
| OE5MMP-10 | 2026-08-31 03:03:55 | 48.36100 | 14.86558 | 70° | 58km/h | 15366m | 5.3m/s | -57.9°C | 9.3% | 0hPa | 2.7V | 00:00:00 | 01:15:04 | 00:00:00 | |
| SP3BTT-10 | 2026-08-31 03:03:51 | 48.36076 | 14.86476 | 67° | 57km/h | 15346m | 3.8m/s | -57.8°C | 9.3% | 0hPa | 2.7V | 00:00:00 | 00:00:00 | 00:00:00 | |
| OM5KV | 2026-08-31 03:03:50 | 48.36076 | 14.86476 | 68° | 62km/h | 15346m | 3.8m/s | -57.9°C | 5.5% | 0hPa | 2.7V | 00:00:00 | 00:00:00 | 00:00:00 | |
| OE5WHR-10 | 2026-08-31 03:03:48 | 48.36061 | 14.86411 | 73° | 55km/h | 15333m | 4.8m/s | -57.7°C | 9.3% | 0hPa | 2.7V | 00:00:00 | 00:00:00 | 00:00:00 | |
| OE3JTB-15 | 2026-08-31 03:03:46 | 48.36052 | 14.86369 | 75° | 55km/h | 15324m | 5.1m/s | -57.7°C | 9.2% | 0hPa | 2.7V | 00:00:00 | 01:14:55 | 00:00:00 | |
| OE5MMP-10 | 2026-08-31 03:03:45 | 48.36048 | 14.86349 | 73° | 55km/h | 15319m | 4.2m/s | -57.6°C | 9.2% | 0hPa | 2.7V | 00:00:00 | 01:14:54 | 00:00:00 | |
| OM5KV | 2026-08-31 03:03:43 | 48.36044 | 14.86329 | 72° | 55km/h | 15314m | 5.6m/s | -57.6°C | 5.4% | 0hPa | 2.7V | 00:00:00 | 00:00:00 | 00:00:00 | |
| OE8JPQ-2 | 2026-08-31 03:03:42 | 48.36034 | 14.86289 | 69° | 55km/h | 15303m | 5.5m/s | -57.5°C | 9.0% | 0hPa | 2.7V | 00:00:00 | 00:00:00 | 08:30:00 | |
| OK1ALN | 2026-08-31 03:03:40 | 48.36029 | 14.86270 | 69° | 53km/h | 15297m | 6.0m/s | -57.5°C | 5.4% | 0hPa | 2.7V | 00:00:00 | 00:00:00 | 00:00:00 | |
| OE5DRO-10 | 2026-08-31 03:03:39 | 48.36019 | 14.86233 | 68° | 55km/h | 15287m | 5.2m/s | -57.5°C | 9.1% | 0hPa | 2.7V | 00:00:00 | 00:00:00 | 08:30:00 | |
| OE3OSB-13 | 2026-08-31 03:03:38 | 48.36014 | 14.86214 | 68° | 53km/h | 15282m | 4.5m/s | -57.5°C | 5.1% | -1.0hPa | 2.7V | 00:00:00 | 00:00:00 | 00:00:00 | |
| OE5DXL-15 | 2026-08-31 03:03:36 | 48.36005 | 14.86176 | 72° | 55km/h | 15273m | 4.2m/s | -57.5°C | 9.1% | 0hPa | 2.7V | 00:00:00 | 00:00:00 | 00:00:00 | |
| OE5MMP-10 | 2026-08-31 03:03:35 | 48.36001 | 14.86156 | 73° | 55km/h | 15268m | 4.9m/s | -57.5°C | 9.1% | 0hPa | 2.7V | 00:00:00 | 01:14:44 | 00:00:00 | |
| OE5FHM-15 | 2026-08-31 03:03:32 | 48.35989 | 14.86098 | 72° | 57km/h | 15254m | 4.1m/s | -57.5°C | 9.2% | 0hPa | 2.7V | 00:00:00 | 01:14:41 | 00:00:00 | |
| OM5KV | 2026-08-31 03:03:31 | 48.35988 | 14.86098 | 72° | 55km/h | 15254m | 4.2m/s | -57.6°C | 5.5% | 0hPa | 2.7V | 00:00:00 | 00:00:00 | 00:00:00 | |
| OE5WHR-10 | 2026-08-31 03:03:27 | 48.35969 | 14.85997 | 73° | 55km/h | 15231m | 4.2m/s | -57.7°C | 9.6% | 0hPa | 2.7V | 00:00:00 | 00:00:00 | 00:00:00 | |
| DO3MHA-12 | 2026-08-31 03:03:26 | 48.35964 | 14.85977 | 73° | 51km/h | 15226m | 5.2m/s | -57.7°C | 9.4% | 0hPa | 2.7V | 00:00:00 | 01:14:35 | 00:00:00 | |
| OE5MMP-10 | 2026-08-31 03:03:25 | 48.35960 | 14.85956 | 74° | 51km/h | 15221m | 4.0m/s | -57.7°C | 9.4% | 0hPa | 2.7V | 00:00:00 | 01:14:34 | 00:00:00 | |
| SP3BTT-10 | 2026-08-31 03:03:21 | 48.35947 | 14.85877 | 77° | 68km/h | 15203m | 4.8m/s | -57.9°C | 9.5% | 0hPa | 2.7V | 00:00:00 | 00:00:00 | 00:00:00 | |
| OE5DRO-10 | 2026-08-31 03:03:20 | 48.35943 | 14.85858 | 77° | 58km/h | 15198m | 4.8m/s | -58.0°C | 9.5% | 0hPa | 2.7V | 00:00:00 | 00:00:00 | 00:00:00 | |
| OE8JPQ-2 | 2026-08-31 03:03:19 | 48.35941 | 14.85840 | 79° | 58km/h | 15193m | 4.5m/s | -58.1°C | 9.7% | 0hPa | 2.7V | 00:00:00 | 00:00:00 | 00:00:00 | |
| OE3JTB-15 | 2026-08-31 03:03:17 | 48.35937 | 14.85803 | 81° | 62km/h | 15184m | 3.8m/s | -58.1°C | 9.7% | 0hPa | 2.7V | 00:00:00 | 00:00:00 | 08:30:00 | |
| PG1ADW-2 | 2026-08-31 03:03:16 | 48.35934 | 14.85785 | 80° | 60km/h | 15180m | 4.9m/s | -58.0°C | 9.6% | 0hPa | 2.7V | 00:00:00 | 00:00:00 | 00:00:00 | |
| OE5MMP-10 | 2026-08-31 03:03:15 | 48.35932 | 14.85767 | 77° | 58km/h | 15175m | 4.2m/s | -58.0°C | 9.7% | 0hPa | 2.7V | 00:00:00 | 01:14:24 | 00:00:00 | |
| OM5KV | 2026-08-31 03:03:13 | 48.35929 | 14.85748 | 78° | 49km/h | 15171m | 3.5m/s | -58.0°C | 5.8% | 0hPa | 2.7V | 00:00:00 | 00:00:00 | 00:00:00 | |
| OM5KV | 2026-08-31 03:03:11 | 48.35924 | 14.85710 | 80° | 55km/h | 15162m | 4.1m/s | -58.0°C | 5.9% | 0hPa | 2.7V | 00:00:00 | 00:00:00 | 00:00:00 | |
| S52SK | 2026-08-31 03:03:10 | 48.35921 | 14.85689 | 78° | 58km/h | 15157m | 5.7m/s | -57.9°C | 5.9% | 0hPa | 2.7V | 00:00:00 | 00:00:00 | 00:00:00 | |
| OE3OSB-13 | 2026-08-31 03:03:07 | 48.35908 | 14.85596 | 81° | 62km/h | 15139m | 4.0m/s | -57.9°C | 5.8% | -1.0hPa | 2.7V | 00:00:00 | 00:00:00 | 00:00:00 | |
| OE5WHR-10 | 2026-08-31 03:03:06 | 48.35906 | 14.85572 | 82° | 64km/h | 15135m | 4.0m/s | -57.8°C | 10.0% | 0hPa | 2.7V | 00:00:00 | 01:14:15 | 00:00:00 | |
| OE5MMP-10 | 2026-08-31 03:03:05 | 48.35903 | 14.85548 | 81° | 66km/h | 15130m | 5.2m/s | -57.8°C | 10.1% | 0hPa | 2.7V | 00:00:00 | 01:14:14 | 00:00:00 | |
| S52SK | 2026-08-31 03:03:04 | 48.35903 | 14.85548 | 81° | 66km/h | 15130m | 5.2m/s | -57.9°C | 6.2% | 0hPa | 2.7V | 00:00:00 | 00:00:00 | 00:00:00 | |
| OE5FHM-15 | 2026-08-31 03:03:02 | 48.35897 | 14.85474 | 84° | 68km/h | 15117m | 4.6m/s | -57.7°C | 9.9% | 0hPa | 2.7V | 00:00:00 | 01:14:11 | 00:00:00 | |
| OE5DRO-10 | 2026-08-31 03:03:00 | 48.35893 | 14.85423 | 84° | 66km/h | 15107m | 4.7m/s | -57.7°C | 9.9% | 0hPa | 2.7V | 00:00:00 | 00:00:00 | 00:00:00 | |
| OK1ALN | 2026-08-31 03:02:59 | 48.35891 | 14.85398 | 84° | 66km/h | 15102m | 4.3m/s | -57.8°C | 5.8% | 0hPa | 2.7V | 00:00:00 | 00:00:00 | 00:00:00 | |
| PG1ADW-2 | 2026-08-31 03:02:56 | 48.35885 | 14.85328 | 81° | 66km/h | 15089m | 4.7m/s | -57.7°C | 9.4% | 0hPa | 2.7V | 00:00:00 | 01:14:05 | 00:00:00 | |
| OM5KV | 2026-08-31 03:02:50 | 48.35871 | 14.85211 | 80° | 66km/h | 15066m | 5.3m/s | -58.0°C | 5.7% | 0hPa | 2.7V | 00:00:00 | 00:00:00 | 00:00:00 | |
| OM5KV | 2026-08-31 03:02:49 | 48.35868 | 14.85187 | 78° | 68km/h | 15061m | 5.4m/s | -58.1°C | 5.8% | 0hPa | 2.7V | 00:00:00 | 00:00:00 | 00:00:00 | |
| OE3JTB-15 | 2026-08-31 03:02:48 | 48.35860 | 14.85137 | 79° | 69km/h | 15051m | 5.0m/s | -58.1°C | 9.4% | 0hPa | 2.7V | 00:00:00 | 00:00:00 | 00:00:00 | |
| OE5MMP-10 | 2026-08-31 03:02:45 | 48.35849 | 14.85063 | 79° | 69km/h | 15037m | 4.1m/s | -58.0°C | 9.4% | 0hPa | 2.7V | 00:00:00 | 01:13:54 | 00:00:00 | |
| DO3MHA-12 | 2026-08-31 03:02:43 | 48.35843 | 14.85012 | 82° | 71km/h | 15028m | 4.0m/s | -58.0°C | 9.2% | 0hPa | 2.7V | 00:00:00 | 01:13:52 | 00:00:00 | |
| OE5DRO-10 | 2026-08-31 03:02:41 | 48.35838 | 14.84962 | 80° | 71km/h | 15019m | 3.8m/s | -58.0°C | 9.2% | 0hPa | 2.7V | 00:00:00 | 00:00:00 | 00:00:00 | |
| OE8JPQ-2 | 2026-08-31 03:02:38 | 48.35827 | 14.84885 | 77° | 71km/h | 15006m | 4.0m/s | -58.0°C | 9.0% | 0hPa | 2.7V | 00:00:00 | 00:00:00 | 00:00:00 | |
| OK1ALN | 2026-08-31 03:02:37 | 48.35827 | 14.84885 | 78° | 71km/h | 15006m | 4.1m/s | -58.0°C | 5.3% | 0hPa | 2.7V | 00:00:00 | 00:00:00 | 00:00:00 | |
| OE5DXL-15 | 2026-08-31 03:02:36 | 48.35818 | 14.84833 | 74° | 73km/h | 14997m | 4.7m/s | -58.1°C | 9.3% | 0hPa | 2.7V | 00:00:00 | 00:00:00 | 08:30:00 | |
| OE5MMP-10 | 2026-08-31 03:02:35 | 48.35813 | 14.84806 | 75° | 73km/h | 14992m | 5.0m/s | -58.1°C | 9.3% | 0hPa | 2.7V | 00:00:00 | 01:13:44 | 08:30:00 | |
| DO3MHA-12 | 2026-08-31 03:02:33 | 48.35802 | 14.84753 | 71° | 71km/h | 14983m | 4.5m/s | -58.1°C | 9.5% | 0hPa | 2.7V | 00:00:00 | 01:13:42 | 00:00:00 | |
| OE5FHM-15 | 2026-08-31 03:02:32 | 48.35795 | 14.84727 | 69° | 73km/h | 14979m | 4.3m/s | -58.1°C | 9.5% | 0hPa | 2.7V | 00:00:00 | 01:13:41 | 00:00:00 | |
| OM5KV | 2026-08-31 03:02:27 | 48.35769 | 14.84624 | 70° | 75km/h | 14961m | 4.2m/s | -58.2°C | 6.0% | 0hPa | 2.7V | 00:00:00 | 00:00:00 | 00:00:00 | |
| OM5KV | 2026-08-31 03:02:26 | 48.35762 | 14.84599 | 71° | 71km/h | 14956m | 5.4m/s | -58.2°C | 5.9% | 0hPa | 2.7V | 00:00:00 | 00:00:00 | 00:00:00 | |
| OE5MMP-10 | 2026-08-31 03:02:25 | 48.35750 | 14.84548 | 73° | 71km/h | 14948m | 4.3m/s | -58.2°C | 9.7% | 0hPa | 2.7V | 00:00:00 | 01:13:34 | 00:00:00 | |
| OE5WHR-10 | 2026-08-31 03:02:24 | 48.35745 | 14.84522 | 74° | 73km/h | 14943m | 4.8m/s | -58.2°C | 9.7% | 0hPa | 2.7V | 00:00:00 | 00:00:00 | 00:00:00 | |
| DO3MHA-12 | 2026-08-31 03:02:22 | 48.35735 | 14.84472 | 74° | 73km/h | 14933m | 5.2m/s | -58.2°C | 9.9% | 0hPa | 2.7V | 00:00:00 | 01:13:31 | 08:30:00 | |
| OM5KV | 2026-08-31 03:02:20 | 48.35730 | 14.84447 | 74° | 69km/h | 14928m | 3.8m/s | -58.3°C | 5.9% | 0hPa | 2.7V | 00:00:00 | 00:00:00 | 00:00:00 | |
| OE3JTB-15 | 2026-08-31 03:02:19 | 48.35719 | 14.84395 | 73° | 75km/h | 14919m | 4.0m/s | -58.2°C | 9.7% | 0hPa | 2.7V | 00:00:00 | 01:13:28 | 00:00:00 | |
| OE8JPQ-2 | 2026-08-31 03:02:18 | 48.35714 | 14.84369 | 72° | 73km/h | 14915m | 4.6m/s | -58.2°C | 9.7% | 0hPa | 2.7V | 00:00:00 | 00:00:00 | 00:00:00 | |
| SONDE2-11 | 2026-08-31 03:02:17 | 48.35708 | 14.84344 | 71° | 69km/h | 14910m | 3.6m/s | 0°C | -1.0% | -1.0hPa | 2.7V | 00:00:00 | 00:00:00 | 00:00:00 | |
| PG1ADW-2 | 2026-08-31 03:02:16 | 48.35703 | 14.84318 | 73° | 75km/h | 14907m | 4.1m/s | -58.2°C | 9.6% | 0hPa | 2.7V | 00:00:00 | 00:00:00 | 00:00:00 | |
| OE5MMP-10 | 2026-08-31 03:02:15 | 48.35697 | 14.84291 | 74° | 75km/h | 14902m | 4.8m/s | -58.3°C | 9.6% | 0hPa | 2.7V | 00:00:00 | 01:13:24 | 00:00:00 | |
| DO3MHA-12 | 2026-08-31 03:02:12 | 48.35682 | 14.84206 | 76° | 73km/h | 14889m | 4.3m/s | -58.4°C | 9.4% | 0hPa | 2.7V | 00:00:00 | 01:13:21 | 00:00:00 | |
| SP3BTT-10 | 2026-08-31 03:02:09 | 48.35666 | 14.84125 | 70° | 75km/h | 14875m | 5.3m/s | 0°C | 0% | 0hPa | 2.7V | 00:00:00 | 00:00:00 | 00:00:00 | |
| OE5DXL-15 | 2026-08-31 03:02:06 | 48.35644 | 14.84048 | 66° | 75km/h | 14861m | 5.0m/s | -58.4°C | 9.0% | 0hPa | 2.7V | 00:00:00 | 01:13:15 | 00:00:00 | |
| OE5MMP-10 | 2026-08-31 03:02:05 | 48.35636 | 14.84023 | 66° | 75km/h | 14857m | 4.2m/s | -58.4°C | 9.0% | 0hPa | 2.7V | 00:00:00 | 01:13:14 | 00:00:00 | |
| OM5KV | 2026-08-31 03:02:04 | 48.35636 | 14.84023 | 66° | 71km/h | 14857m | 4.3m/s | -58.4°C | 5.2% | 0hPa | 2.7V | 00:00:00 | 00:00:00 | 00:00:00 | |
| DO3MHA-12 | 2026-08-31 03:02:02 | 48.35614 | 14.83947 | 70° | 75km/h | 14843m | 4.9m/s | -58.4°C | 9.1% | 0hPa | 2.7V | 00:00:00 | 01:13:11 | 00:00:00 | |
| S52SK | 2026-08-31 03:01:59 | 48.35603 | 14.83894 | 73° | 75km/h | 14835m | 4.8m/s | -58.5°C | 5.3% | 0hPa | 2.7V | 00:00:00 | 00:00:00 | 00:00:00 | |
| OE8JPQ-2 | 2026-08-31 03:01:58 | 48.35591 | 14.83839 | 73° | 71km/h | 14826m | 4.4m/s | -58.4°C | 9.0% | 0hPa | 2.7V | 00:00:00 | 01:13:07 | 00:00:00 | |
| PG1ADW-2 | 2026-08-31 03:01:56 | 48.35579 | 14.83785 | 71° | 75km/h | 14816m | 4.4m/s | -58.5°C | 9.1% | 0hPa | 2.7V | 00:00:00 | 00:00:00 | 08:30:00 | |
| OE5MMP-10 | 2026-08-31 03:01:55 | 48.35573 | 14.83758 | 70° | 77km/h | 14811m | 4.7m/s | -58.5°C | 9.1% | 0hPa | 2.7V | 00:00:00 | 01:13:04 | 00:00:00 | |
| S52SK | 2026-08-31 03:01:53 | 48.35566 | 14.83730 | 69° | 77km/h | 14807m | 3.5m/s | -58.6°C | 5.4% | 0hPa | 2.7V | 00:00:00 | 00:00:00 | 00:00:00 | |
| DO3MHA-12 | 2026-08-31 03:01:52 | 48.35551 | 14.83677 | 68° | 75km/h | 14798m | 4.0m/s | -58.5°C | 9.2% | 0hPa | 2.7V | 00:00:00 | 01:13:01 | 00:00:00 | |
| OM5KV | 2026-08-31 03:01:51 | 48.35551 | 14.83677 | 69° | 75km/h | 14798m | 4.0m/s | -58.5°C | 5.4% | 0hPa | 2.7V | 00:00:00 | 00:00:00 | 00:00:00 | |
| OE3JTB-15 | 2026-08-31 03:01:50 | 48.35536 | 14.83623 | 68° | 73km/h | 14790m | 4.3m/s | -58.4°C | 9.1% | 0hPa | 2.7V | 00:00:00 | 00:00:00 | 00:00:00 | |
| OM5KV | 2026-08-31 03:01:46 | 48.35516 | 14.83542 | 72° | 75km/h | 14776m | 4.3m/s | -58.4°C | 5.2% | 0hPa | 2.7V | 00:00:00 | 00:00:00 | 00:00:00 | |
| OE5MMP-10 | 2026-08-31 03:01:45 | 48.35503 | 14.83488 | 72° | 73km/h | 14766m | 4.1m/s | -58.3°C | 9.0% | 0hPa | 2.7V | 00:00:00 | 01:12:54 | 00:00:00 | |
| OE5DRO-10 | 2026-08-31 03:01:44 | 48.35497 | 14.83461 | 71° | 73km/h | 14761m | 5.1m/s | -58.3°C | 9.0% | 0hPa | 2.7V | 00:00:00 | 00:00:00 | 00:00:00 | |
| DO3MHA-12 | 2026-08-31 03:01:42 | 48.35485 | 14.83409 | 71° | 73km/h | 14753m | 4.7m/s | -58.2°C | 8.9% | 0hPa | 2.7V | 00:00:00 | 01:12:51 | 00:00:00 | |
| OM5KV | 2026-08-31 03:01:41 | 48.35485 | 14.83409 | 71° | 73km/h | 14753m | 4.7m/s | -58.3°C | 5.1% | 0hPa | 2.7V | 00:00:00 | 00:00:00 | 00:00:00 | |
| SP3BTT-10 | 2026-08-31 03:01:39 | 48.35465 | 14.83330 | 70° | 71km/h | 14740m | 4.5m/s | 0°C | 0% | 0hPa | 2.7V | 00:00:00 | 00:00:00 | 00:00:00 | |
| PG1ADW-2 | 2026-08-31 03:01:36 | 48.35447 | 14.83251 | 70° | 71km/h | 14725m | 4.6m/s | -58.2°C | 8.9% | 0hPa | 2.7V | 00:00:00 | 01:12:45 | 00:00:00 | |
| OM5KV | 2026-08-31 03:01:35 | 48.35447 | 14.83251 | 71° | 71km/h | 14725m | 4.6m/s | -58.2°C | 5.1% | 0hPa | 2.7V | 00:00:00 | 00:00:00 | 00:00:00 | |
| OM5KV | 2026-08-31 03:01:33 | 48.35434 | 14.83201 | 70° | 71km/h | 14716m | 4.4m/s | -58.2°C | 5.2% | 0hPa | 2.7V | 00:00:00 | 00:00:00 | 00:00:00 | |
| DO3MHA-12 | 2026-08-31 03:01:32 | 48.35421 | 14.83151 | 71° | 71km/h | 14706m | 4.3m/s | -58.1°C | 8.9% | 0hPa | 2.7V | 00:00:00 | 01:12:41 | 00:00:00 | |
| OE5MMP-10 | 2026-08-31 03:01:25 | 48.35375 | 14.82974 | 68° | 71km/h | 14673m | 4.9m/s | -57.9°C | 8.8% | 0hPa | 2.7V | 00:00:00 | 01:12:34 | 00:00:00 | |
| OM5KV | 2026-08-31 03:01:24 | 48.35375 | 14.82974 | 68° | 69km/h | 14673m | 4.9m/s | -57.9°C | 5.1% | 0hPa | 2.7V | 00:00:00 | 00:00:00 | 00:00:00 | |
| OM5KV | 2026-08-31 03:01:23 | 48.35368 | 14.82949 | 69° | 71km/h | 14669m | 4.2m/s | -57.9°C | 5.1% | 0hPa | 2.7V | 00:00:00 | 00:00:00 | 00:00:00 | |
| DO3MHA-12 | 2026-08-31 03:01:22 | 48.35355 | 14.82900 | 67° | 69km/h | 14660m | 3.9m/s | -57.9°C | 8.8% | 0hPa | 2.7V | 00:00:00 | 01:12:31 | 00:00:00 | |
| OE5WHR-10 | 2026-08-31 03:01:21 | 48.35348 | 14.82876 | 68° | 68km/h | 14656m | 3.7m/s | -57.8°C | 8.8% | 0hPa | 2.7V | 00:00:00 | 00:00:00 | 00:00:00 | |
| OM5KV | 2026-08-31 03:01:17 | 48.35327 | 14.82801 | 68° | 71km/h | 14644m | 4.6m/s | -57.8°C | 5.1% | 0hPa | 2.7V | 00:00:00 | 00:00:00 | 00:00:00 | |
| PG1ADW-2 | 2026-08-31 03:01:16 | 48.35314 | 14.82752 | 69° | 68km/h | 14634m | 5.0m/s | -57.7°C | 8.8% | 0hPa | 2.7V | 00:00:00 | 00:00:00 | 00:00:00 | |
| OE5MMP-10 | 2026-08-31 03:01:15 | 48.35307 | 14.82727 | 68° | 68km/h | 14629m | 4.0m/s | -57.7°C | 8.7% | 0hPa | 2.7V | 00:00:00 | 01:12:24 | 00:00:00 | |
| DO3MHA-12 | 2026-08-31 03:01:12 | 48.35286 | 14.82656 | 66° | 68km/h | 14616m | 5.1m/s | -57.7°C | 8.5% | 0hPa | 2.7V | 00:00:00 | 01:12:21 | 00:00:00 | |
| SP3BTT-10 | 2026-08-31 03:01:09 | 48.35265 | 14.82585 | 66° | 68km/h | 14603m | 4.0m/s | 0°C | 0% | 0hPa | 2.7V | 00:00:00 | 00:00:00 | 00:00:00 | |
| OE5DXL-15 | 2026-08-31 03:01:06 | 48.35246 | 14.82515 | 69° | 66km/h | 14590m | 3.5m/s | -57.9°C | 8.6% | 0hPa | 2.7V | 00:00:00 | 00:00:00 | 00:00:00 | |
| OE5MMP-10 | 2026-08-31 03:01:05 | 48.35240 | 14.82491 | 69° | 68km/h | 14586m | 4.5m/s | -57.9°C | 8.6% | 0hPa | 2.7V | 00:00:00 | 01:12:14 | 08:30:00 | |
| OE5FHM-15 | 2026-08-31 03:01:02 | 48.35222 | 14.82421 | 72° | 66km/h | 14573m | 4.0m/s | -57.9°C | 8.7% | 0hPa | 2.7V | 00:00:00 | 01:12:11 | 00:00:00 | |
| OE5WHR-10 | 2026-08-31 03:01:00 | 48.35211 | 14.82373 | 70° | 68km/h | 14564m | 4.1m/s | -57.8°C | 8.6% | 0hPa | 2.7V | 00:00:00 | 01:12:09 | 00:00:00 | |
| OM5KV | 2026-08-31 03:00:59 | 48.35211 | 14.82373 | 71° | 68km/h | 14564m | 4.2m/s | -57.9°C | 5.0% | 0hPa | 2.7V | 00:00:00 | 00:00:00 | 00:00:00 | |
| PG1ADW-2 | 2026-08-31 03:00:56 | 48.35190 | 14.82275 | 74° | 66km/h | 14546m | 4.8m/s | -57.8°C | 8.8% | 0hPa | 2.7V | 00:00:00 | 00:00:00 | 00:00:00 | |
| OE5MMP-10 | 2026-08-31 03:00:55 | 48.35186 | 14.82251 | 75° | 68km/h | 14542m | 3.5m/s | -57.8°C | 8.8% | 0hPa | 2.7V | 00:00:00 | 01:12:04 | 00:00:00 | |
| OM5KV | 2026-08-31 03:00:54 | 48.35186 | 14.82251 | 75° | 66km/h | 14542m | 3.6m/s | -57.9°C | 5.2% | 0hPa | 2.7V | 00:00:00 | 00:00:00 | 00:00:00 | |
| OM5KV | 2026-08-31 03:00:53 | 48.35181 | 14.82227 | 77° | 66km/h | 14538m | 4.3m/s | -57.9°C | 5.2% | 0hPa | 2.7V | 00:00:00 | 00:00:00 | 00:00:00 | |
| DO3MHA-12 | 2026-08-31 03:00:52 | 48.35173 | 14.82178 | 76° | 68km/h | 14530m | 4.7m/s | -57.9°C | 9.1% | 0hPa | 2.7V | 00:00:00 | 01:12:01 | 08:30:00 | |
| OM5KV | 2026-08-31 03:00:49 | 48.35164 | 14.82129 | 75° | 68km/h | 14521m | 3.0m/s | -58.0°C | 5.5% | 0hPa | 2.7V | 00:00:00 | 00:00:00 | 00:00:00 | |
| S52SK | 2026-08-31 03:00:48 | 48.35160 | 14.82104 | 76° | 68km/h | 14517m | 5.1m/s | -58.0°C | 5.5% | 0hPa | 2.7V | 00:00:00 | 00:00:00 | 00:00:00 | |
| OE8JPQ-2 | 2026-08-31 03:00:46 | 48.35146 | 14.82030 | 73° | 66km/h | 14503m | 4.1m/s | -58.1°C | 9.5% | 0hPa | 2.7V | 00:00:00 | 00:00:00 | 00:00:00 | |
| OE5MMP-10 | 2026-08-31 03:00:45 | 48.35141 | 14.82006 | 73° | 66km/h | 14499m | 4.3m/s | -58.1°C | 9.5% | 0hPa | 2.7V | 00:00:00 | 01:11:54 | 00:00:00 | |
| OM5KV | 2026-08-31 03:00:43 | 48.35136 | 14.81982 | 74° | 68km/h | 14494m | 4.9m/s | -58.2°C | 5.7% | 0hPa | 2.7V | 00:00:00 | 00:00:00 | 00:00:00 | |
| DO3MHA-12 | 2026-08-31 03:00:42 | 48.35126 | 14.81932 | 74° | 64km/h | 14486m | 3.4m/s | -58.2°C | 9.7% | 0hPa | 2.7V | 00:00:00 | 01:11:51 | 00:00:00 | |
| OE5WHR-10 | 2026-08-31 03:00:39 | 48.35113 | 14.81862 | 76° | 62km/h | 14473m | 4.7m/s | -58.1°C | 9.9% | 0hPa | 2.7V | 00:00:00 | 00:00:00 | 00:00:00 | |
| OE5DXL-15 | 2026-08-31 03:00:36 | 48.35101 | 14.81792 | 76° | 60km/h | 14459m | 4.3m/s | -58.0°C | 9.9% | 0hPa | 2.7V | 00:00:00 | 00:00:00 | 00:00:00 | |
| OE5MMP-10 | 2026-08-31 03:00:35 | 48.35097 | 14.81768 | 76° | 64km/h | 14455m | 4.2m/s | -58.0°C | 9.9% | 0hPa | 2.7V | 00:00:00 | 01:11:44 | 00:00:00 | |
| OK1ALN | 2026-08-31 03:00:34 | 48.35097 | 14.81768 | 77° | 64km/h | 14455m | 4.3m/s | -58.1°C | 6.0% | 0hPa | 2.7V | 00:00:00 | 00:00:00 | 00:00:00 | |
| OE3OSB-13 | 2026-08-31 03:00:32 | 48.35082 | 14.81672 | 78° | 64km/h | 14438m | 3.9m/s | -58.0°C | 5.9% | -1.0hPa | 2.7V | 00:00:00 | 00:00:00 | 00:00:00 | |
| OE5DRO-10 | 2026-08-31 03:00:28 | 48.35073 | 14.81600 | 82° | 60km/h | 14426m | 4.8m/s | -57.8°C | 9.9% | 0hPa | 2.7V | 00:00:00 | 00:00:00 | 00:00:00 | |
| OE8JPQ-2 | 2026-08-31 03:00:26 | 48.35069 | 14.81553 | 84° | 66km/h | 14416m | 5.1m/s | -57.8°C | 10.0% | 0hPa | 2.7V | 00:00:00 | 01:11:35 | 00:00:00 | |
| OE5MMP-10 | 2026-08-31 03:00:25 | 48.35067 | 14.81530 | 84° | 60km/h | 14412m | 3.3m/s | -57.8°C | 9.9% | 0hPa | 2.7V | 00:00:00 | 01:11:34 | 00:00:00 | |
| OE3JTB-15 | 2026-08-31 03:00:23 | 48.35063 | 14.81485 | 82° | 57km/h | 14403m | 4.6m/s | -57.7°C | 10.0% | 0hPa | 2.7V | 00:00:00 | 00:00:00 | 00:00:00 | |
| DO3MHA-12 | 2026-08-31 03:00:22 | 48.35061 | 14.81463 | 81° | 60km/h | 14399m | 2.9m/s | -57.7°C | 10.1% | 0hPa | 2.7V | 00:00:00 | 01:11:31 | 00:00:00 | |
| OM5KV | 2026-08-31 03:00:21 | 48.35061 | 14.81463 | 81° | 58km/h | 14399m | 3.0m/s | -57.7°C | 6.3% | 0hPa | 2.7V | 00:00:00 | 00:00:00 | 00:00:00 | |
| OE5WHR-10 | 2026-08-31 03:00:18 | 48.35049 | 14.81374 | 76° | 57km/h | 14384m | 4.3m/s | -57.6°C | 10.1% | 0hPa | 2.7V | 00:00:00 | 00:00:00 | 00:00:00 | |
| OM5KV | 2026-08-31 03:00:17 | 48.35049 | 14.81374 | 77° | 60km/h | 14384m | 4.4m/s | -57.7°C | 6.3% | 0hPa | 2.7V | 00:00:00 | 00:00:00 | 00:00:00 | |
| PG1ADW-2 | 2026-08-31 03:00:16 | 48.35042 | 14.81329 | 80° | 57km/h | 14376m | 4.4m/s | -57.6°C | 10.2% | 0hPa | 2.7V | 00:00:00 | 01:11:25 | 00:00:00 | |
| OE5MMP-10 | 2026-08-31 03:00:15 | 48.35040 | 14.81306 | 82° | 57km/h | 14372m | 3.4m/s | -57.6°C | 10.2% | 0hPa | 2.7V | 00:00:00 | 01:11:24 | 00:00:00 | |
| OK1ALN | 2026-08-31 03:00:14 | 48.35040 | 14.81306 | 82° | 62km/h | 14372m | 3.4m/s | -57.6°C | 6.4% | 0hPa | 2.7V | 00:00:00 | 00:00:00 | 00:00:00 | |
| DO3MHA-12 | 2026-08-31 03:00:12 | 48.35033 | 14.81241 | 82° | 55km/h | 14359m | 3.7m/s | -57.6°C | 10.3% | 0hPa | 2.7V | 00:00:00 | 01:11:21 | 00:00:00 | |
| OM5KV | 2026-08-31 03:00:10 | 48.35031 | 14.81221 | 81° | 55km/h | 14354m | 5.2m/s | -57.6°C | 6.5% | 0hPa | 2.7V | 00:00:00 | 00:00:00 | 00:00:00 | |
| OE5DRO-10 | 2026-08-31 03:00:09 | 48.35026 | 14.81179 | 81° | 57km/h | 14346m | 4.1m/s | -57.5°C | 10.4% | 0hPa | 2.7V | 00:00:00 | 00:00:00 | 00:00:00 | |
| OE5DXL-15 | 2026-08-31 03:00:06 | 48.35021 | 14.81119 | 81° | 62km/h | 14334m | 4.4m/s | -57.4°C | 10.5% | 0hPa | 2.7V | 00:00:00 | 00:00:00 | 00:00:00 | |
| OE5MMP-10 | 2026-08-31 03:00:05 | 48.35018 | 14.81097 | 81° | 57km/h | 14330m | 3.7m/s | -57.5°C | 10.6% | 0hPa | 2.7V | 00:00:00 | 01:11:14 | 00:00:00 | |
| OM5KV | 2026-08-31 03:00:04 | 48.35018 | 14.81097 | 81° | 57km/h | 14330m | 3.7m/s | -57.5°C | 6.7% | 0hPa | 2.7V | 00:00:00 | 00:00:00 | 00:00:00 | |
| OM5KV | 2026-08-31 03:00:00 | 48.35011 | 14.81013 | 86° | 57km/h | 14312m | 3.8m/s | -57.5°C | 6.8% | 0hPa | 2.7V | 00:00:00 | 00:00:00 | 00:00:00 | |
| OM5KV | 2026-08-31 02:59:58 | 48.35010 | 14.80972 | 91° | 55km/h | 14303m | 4.3m/s | -57.4°C | 6.8% | 0hPa | 2.7V | 00:00:00 | 00:00:00 | 00:00:00 | |
| OE5WHR-10 | 2026-08-31 02:59:57 | 48.35010 | 14.80929 | 89° | 66km/h | 14295m | 4.7m/s | -57.4°C | 10.7% | 0hPa | 2.7V | 00:00:00 | 01:11:06 | 00:00:00 | |
| PG1ADW-2 | 2026-08-31 02:59:56 | 48.35010 | 14.80907 | 87° | 66km/h | 14291m | 3.8m/s | -57.4°C | 10.7% | 0hPa | 2.7V | 00:00:00 | 00:00:00 | 00:00:00 | |
| OE5MMP-10 | 2026-08-31 02:59:55 | 48.35009 | 14.80886 | 86° | 58km/h | 14286m | 4.5m/s | -57.5°C | 10.7% | 0hPa | 2.7V | 00:00:00 | 01:11:04 | 00:00:00 | |
| OK1ALN | 2026-08-31 02:59:54 | 48.35008 | 14.80864 | 87° | 57km/h | 14282m | 4.3m/s | -57.6°C | 7.0% | 0hPa | 2.7V | 00:00:00 | 00:00:00 | 00:00:00 | |
| OM5KV | 2026-08-31 02:59:53 | 48.35008 | 14.80864 | 87° | 57km/h | 14282m | 4.3m/s | -57.6°C | 7.0% | 0hPa | 2.7V | 00:00:00 | 00:00:00 | 00:00:00 | |
| DO3MHA-12 | 2026-08-31 02:59:52 | 48.35008 | 14.80821 | 94° | 64km/h | 14273m | 4.2m/s | -57.5°C | 10.8% | 0hPa | 2.7V | 00:00:00 | 01:11:01 | 00:00:00 | |
| OE5DRO-10 | 2026-08-31 02:59:50 | 48.35009 | 14.80777 | 94° | 68km/h | 14265m | 4.3m/s | -57.6°C | 10.8% | 0hPa | 2.7V | 00:00:00 | 00:00:00 | 00:00:00 | |
| OM5KV | 2026-08-31 02:59:48 | 48.35010 | 14.80756 | 92° | 53km/h | 14260m | 4.8m/s | -57.7°C | 7.1% | 0hPa | 2.7V | 00:00:00 | 00:00:00 | 00:00:00 | |
| OM5KV | 2026-08-31 02:59:47 | 48.35009 | 14.80735 | 86° | 57km/h | 14256m | 3.4m/s | -57.8°C | 7.3% | 0hPa | 2.7V | 00:00:00 | 00:00:00 | 00:00:00 | |
| OE5MMP-10 | 2026-08-31 02:59:45 | 48.34999 | 14.80665 | 73° | 75km/h | 14239m | 6.2m/s | -58.1°C | 11.6% | 0hPa | 2.7V | 00:00:00 | 01:10:54 | 00:00:00 | |
| DO3MHA-12 | 2026-08-31 02:59:42 | 48.34983 | 14.80581 | 75° | 69km/h | 14221m | 4.5m/s | -58.4°C | 12.1% | 0hPa | 2.7V | 00:00:00 | 01:10:51 | 00:00:00 | |
| OE8JPQ-2 | 2026-08-31 02:59:41 | 48.34977 | 14.80551 | 75° | 86km/h | 14216m | 4.8m/s | -58.4°C | 12.3% | 0hPa | 2.7V | 00:00:00 | 00:00:00 | 08:30:00 | |
| OM5KV | 2026-08-31 02:59:37 | 48.34966 | 14.80465 | 85° | 69km/h | 14202m | 5.2m/s | -58.6°C | 8.2% | 0hPa | 2.7V | 00:00:00 | 00:00:00 | 00:00:00 | |
| OE5WHR-10 | 2026-08-31 02:59:36 | 48.34962 | 14.80416 | 87° | 69km/h | 14193m | 4.0m/s | -58.7°C | 12.6% | 0hPa | 2.7V | 00:00:00 | 00:00:00 | 08:30:00 | |
| OE5MMP-10 | 2026-08-31 02:59:35 | 48.34962 | 14.80392 | 86° | 68km/h | 14188m | 5.1m/s | -58.8°C | 12.6% | 0hPa | 2.7V | 00:00:00 | 01:10:44 | 08:30:00 | |
| DO3MHA-12 | 2026-08-31 02:59:32 | 48.34955 | 14.80323 | 76° | 71km/h | 14174m | 5.4m/s | -58.7°C | 12.5% | 0hPa | 2.7V | 00:00:00 | 01:10:41 | 00:00:00 | |
| OE5DRO-10 | 2026-08-31 02:59:31 | 48.34951 | 14.80300 | 74° | 73km/h | 14169m | 4.3m/s | -58.7°C | 12.5% | 0hPa | 2.7V | 00:00:00 | 00:00:00 | 00:00:00 | |
| S52SK | 2026-08-31 02:59:30 | 48.34951 | 14.80300 | 75° | 64km/h | 14169m | 4.4m/s | -58.8°C | 8.3% | 0hPa | 2.7V | 00:00:00 | 00:00:00 | 00:00:00 | |
| OE3OSB-13 | 2026-08-31 02:59:29 | 48.34941 | 14.80250 | 74° | 71km/h | 14159m | 4.9m/s | -58.7°C | 8.3% | -1.0hPa | 2.7V | 00:00:00 | 00:00:00 | 00:00:00 | |
| OE5MMP-10 | 2026-08-31 02:59:25 | 48.34933 | 14.80140 | 92° | 73km/h | 14140m | 5.5m/s | -58.6°C | 13.2% | 0hPa | 2.7V | 00:00:00 | 01:10:34 | 00:00:00 | |
| OM5KV | 2026-08-31 02:59:24 | 48.34933 | 14.80140 | 93° | 75km/h | 14140m | 5.5m/s | -58.7°C | 8.9% | 0hPa | 2.7V | 00:00:00 | 00:00:00 | 00:00:00 | |
| DO3MHA-12 | 2026-08-31 02:59:22 | 48.34935 | 14.80056 | 92° | 75km/h | 14123m | 4.6m/s | -58.8°C | 14.0% | 0hPa | 2.7V | 00:00:00 | 01:10:31 | 08:30:00 | |
| OM5KV | 2026-08-31 02:59:18 | 48.34934 | 14.79971 | 88° | 73km/h | 14108m | 6.0m/s | -58.9°C | 9.7% | 0hPa | 2.7V | 00:00:00 | 00:00:00 | 00:00:00 | |
| PG1ADW-2 | 2026-08-31 02:59:16 | 48.34927 | 14.79892 | 76° | 88km/h | 14095m | 4.7m/s | -58.8°C | 14.1% | 0hPa | 2.7V | 00:00:00 | 00:00:00 | 00:00:00 | |
| OE5WHR-10 | 2026-08-31 02:59:15 | 48.34923 | 14.79866 | 77° | 89km/h | 14090m | 3.5m/s | -58.9°C | 14.3% | 0hPa | 2.7V | 00:00:00 | 00:00:00 | 00:00:00 | |
| DO3MHA-12 | 2026-08-31 02:59:12 | 48.34916 | 14.79773 | 91° | 91km/h | 14076m | 6.6m/s | -59.1°C | 14.7% | 0hPa | 2.7V | 00:00:00 | 01:10:21 | 00:00:00 | |
| OK1ALN | 2026-08-31 02:59:11 | 48.34916 | 14.79773 | 91° | 89km/h | 14076m | 6.6m/s | -59.2°C | 10.1% | 0hPa | 2.7V | 00:00:00 | 00:00:00 | 00:00:00 | |
| OM5KV | 2026-08-31 02:59:08 | 48.34919 | 14.79673 | 94° | 84km/h | 14053m | 6.6m/s | -59.1°C | 10.1% | 0hPa | 2.7V | 00:00:00 | 00:00:00 | 00:00:00 | |
| OM5KV | 2026-08-31 02:59:07 | 48.34920 | 14.79641 | 93° | 84km/h | 14046m | 6.9m/s | -59.0°C | 10.0% | 0hPa | 2.7V | 00:00:00 | 00:00:00 | 00:00:00 | |
| OE5DXL-15 | 2026-08-31 02:59:06 | 48.34920 | 14.79574 | 90° | 97km/h | 14030m | 7.5m/s | -58.8°C | 14.8% | 0hPa | 2.7V | 00:00:00 | 00:00:00 | 00:00:00 | |
| OE5MMP-10 | 2026-08-31 02:59:05 | 48.34920 | 14.79538 | 89° | 93km/h | 14023m | 5.5m/s | -58.8°C | 15.1% | 0hPa | 2.7V | 00:00:00 | 01:10:14 | 00:00:00 | |
| OE5FHM-15 | 2026-08-31 02:59:02 | 48.34920 | 14.79430 | 94° | 99km/h | 14006m | 4.5m/s | -58.9°C | 15.3% | 0hPa | 2.7V | 00:00:00 | 01:10:11 | 00:00:00 | |
| OM5KV | 2026-08-31 02:59:01 | 48.34920 | 14.79430 | 95° | 91km/h | 14006m | 4.6m/s | -58.9°C | 10.7% | 0hPa | 2.7V | 00:00:00 | 00:00:00 | 00:00:00 | |
| OE3OSB-13 | 2026-08-31 02:58:58 | 48.34927 | 14.79292 | 94° | 89km/h | 13983m | 4.1m/s | -59.1°C | 11.4% | -1.0hPa | 2.7V | 00:00:00 | 00:00:00 | 00:00:00 | |
| OE3JTB-15 | 2026-08-31 02:58:56 | 48.34932 | 14.79223 | 97° | 100km/h | 13974m | 3.0m/s | -59.3°C | 17.2% | 0hPa | 2.7V | 00:00:00 | 00:00:00 | 08:30:00 | |
| OE5MMP-10 | 2026-08-31 02:58:55 | 48.34934 | 14.79187 | 95° | 89km/h | 13969m | 5.3m/s | -59.4°C | 17.2% | 0hPa | 2.7V | 00:00:00 | 01:10:04 | 00:00:00 | |
| OE5WHR-10 | 2026-08-31 02:58:54 | 48.34935 | 14.79151 | 92° | 99km/h | 13964m | 5.1m/s | -59.5°C | 17.5% | 0hPa | 2.7V | 00:00:00 | 01:10:03 | 00:00:00 | |
| OE5DRO-10 | 2026-08-31 02:58:53 | 48.34935 | 14.79133 | 89° | 99km/h | 13958m | 5.7m/s | -59.6°C | 17.6% | 0hPa | 2.7V | 00:00:00 | 00:00:00 | 00:00:00 | |
| DO3MHA-12 | 2026-08-31 02:58:52 | 48.34934 | 14.79083 | 87° | 95km/h | 13953m | 4.6m/s | -59.6°C | 17.6% | 0hPa | 2.7V | 00:00:00 | 01:10:01 | 00:00:00 | |
| OE8JPQ-2 | 2026-08-31 02:58:51 | 48.34932 | 14.79051 | 87° | 102km/h | 13948m | 5.3m/s | -59.6°C | 17.5% | 0hPa | 2.7V | 00:00:00 | 00:00:00 | 00:00:00 | |
| OM5KV | 2026-08-31 02:58:50 | 48.34932 | 14.79051 | 87° | 84km/h | 13948m | 5.3m/s | -59.7°C | 12.5% | 0hPa | 2.7V | 00:00:00 | 00:00:00 | 00:00:00 | |
| OE5MMP-10 | 2026-08-31 02:58:45 | 48.34929 | 14.78845 | 88° | 108km/h | 13912m | 5.5m/s | -60.0°C | 19.0% | 0hPa | 2.7V | 00:00:00 | 01:09:54 | 00:00:00 | |
| OM5KV | 2026-08-31 02:58:44 | 48.34929 | 14.78845 | 88° | 108km/h | 13912m | 5.5m/s | -60.0°C | 13.7% | 0hPa | 2.7V | 00:00:00 | 00:00:00 | 00:00:00 | |
| DO3MHA-12 | 2026-08-31 02:58:42 | 48.34926 | 14.78719 | 90° | 106km/h | 13896m | 4.9m/s | -60.1°C | 19.8% | 0hPa | 2.7V | 00:00:00 | 01:09:51 | 00:00:00 | |
| OM5KV | 2026-08-31 02:58:39 | 48.34926 | 14.78638 | 91° | 106km/h | 13886m | 5.6m/s | -60.2°C | 14.8% | 0hPa | 2.7V | 00:00:00 | 00:00:00 | 00:00:00 | |
| OM5KV | 2026-08-31 02:58:38 | 48.34926 | 14.78597 | 89° | 106km/h | 13880m | 5.2m/s | -60.2°C | 15.1% | 0hPa | 2.7V | 00:00:00 | 00:00:00 | 00:00:00 | |
| OE5DXL-15 | 2026-08-31 02:58:36 | 48.34923 | 14.78477 | 87° | 108km/h | 13865m | 5.3m/s | -60.2°C | 21.5% | 0hPa | 2.7V | 00:00:00 | 00:00:00 | 00:00:00 | |
| OE5MMP-10 | 2026-08-31 02:58:35 | 48.34921 | 14.78437 | 87° | 106km/h | 13860m | 5.2m/s | -60.2°C | 21.7% | 0hPa | 2.7V | 00:00:00 | 01:09:44 | 00:00:00 | |
| OE5DRO-10 | 2026-08-31 02:58:34 | 48.34920 | 14.78398 | 87° | 108km/h | 13855m | 4.4m/s | -60.2°C | 21.9% | 0hPa | 2.7V | 00:00:00 | 00:00:00 | 00:00:00 | |
| OE5WHR-10 | 2026-08-31 02:58:33 | 48.34918 | 14.78358 | 87° | 108km/h | 13850m | 5.0m/s | -60.2°C | 22.0% | 0hPa | 2.7V | 00:00:00 | 00:00:00 | 00:00:00 | |
| DO3MHA-12 | 2026-08-31 02:58:32 | 48.34916 | 14.78318 | 87° | 106km/h | 13845m | 4.5m/s | -60.2°C | 22.2% | 0hPa | 2.7V | 00:00:00 | 01:09:41 | 00:00:00 | |
| OE8JPQ-2 | 2026-08-31 02:58:31 | 48.34915 | 14.78278 | 87° | 108km/h | 13840m | 4.9m/s | 0°C | 0% | 0hPa | 2.7V | 00:00:00 | 01:09:40 | 00:00:00 | |
| OK1ALN | 2026-08-31 02:58:29 | 48.34914 | 14.78238 | 89° | 106km/h | 13835m | 6.3m/s | 0°C | 0% | 0hPa | 2.7V | 00:00:00 | 00:00:00 | 00:00:00 | |
| OM5KV | 2026-08-31 02:58:28 | 48.34913 | 14.78198 | 90° | 106km/h | 13830m | 4.1m/s | -60.4°C | 17.2% | 0hPa | 2.7V | 00:00:00 | 00:00:00 | 00:00:00 | |
| OE3JTB-15 | 2026-08-31 02:58:27 | 48.34912 | 14.78117 | 90° | 106km/h | 13820m | 5.3m/s | -60.5°C | 23.2% | 0hPa | 2.7V | 00:00:00 | 00:00:00 | 00:00:00 | |
| OE5MMP-10 | 2026-08-31 02:58:25 | 48.34911 | 14.78038 | 89° | 111km/h | 13808m | 6.2m/s | -60.6°C | 23.6% | 0hPa | 2.7V | 00:00:00 | 01:09:34 | 00:00:00 | |
| OM5KV | 2026-08-31 02:58:22 | 48.34907 | 14.77917 | 86° | 110km/h | 13793m | 5.6m/s | -60.8°C | 18.2% | 0hPa | 2.7V | 00:00:00 | 00:00:00 | 00:00:00 | |
| OM5KV | 2026-08-31 02:58:20 | 48.34904 | 14.77875 | 85° | 111km/h | 13787m | 6.0m/s | -60.9°C | 18.3% | 0hPa | 2.7V | 00:00:00 | 00:00:00 | 00:00:00 | |
| S52SK | 2026-08-31 02:58:19 | 48.34901 | 14.77833 | 84° | 113km/h | 13782m | 6.0m/s | -60.9°C | 18.7% | 0hPa | 2.7V | 00:00:00 | 00:00:00 | 00:00:00 | |
| OE5MMP-10 | 2026-08-31 02:58:15 | 48.34886 | 14.77617 | 85° | 106km/h | 13756m | 4.7m/s | -61.0°C | 26.0% | 0hPa | 2.7V | 00:00:00 | 01:09:24 | 00:00:00 | |
| OM5KV | 2026-08-31 02:58:14 | 48.34886 | 14.77617 | 86° | 108km/h | 13756m | 4.8m/s | -61.0°C | 19.6% | 0hPa | 2.7V | 00:00:00 | 00:00:00 | 00:00:00 | |
| PG1ADW-2 | 2026-08-31 02:58:13 | 48.34880 | 14.77539 | 83° | 106km/h | 13747m | 4.6m/s | -61.0°C | 26.3% | 0hPa | 2.7V | 00:00:00 | 00:00:00 | 00:00:00 | |
| OE5WHR-10 | 2026-08-31 02:58:12 | 48.34876 | 14.77501 | 82° | 106km/h | 13742m | 5.8m/s | -61.0°C | 26.3% | 0hPa | 2.7V | 00:00:00 | 00:00:00 | 00:00:00 | |
| OE8JPQ-2 | 2026-08-31 02:58:11 | 48.34872 | 14.77461 | 81° | 106km/h | 13736m | 4.5m/s | 0°C | 0% | 0hPa | 2.7V | 00:00:00 | 00:00:00 | 00:00:00 | |
| OM5KV | 2026-08-31 02:58:10 | 48.34872 | 14.77461 | 81° | 106km/h | 13736m | 4.6m/s | -61.1°C | 20.3% | 0hPa | 2.7V | 00:00:00 | 00:00:00 | 00:00:00 | |
| OK1ALN | 2026-08-31 02:58:08 | 48.34864 | 14.77380 | 84° | 110km/h | 13726m | 5.9m/s | 0°C | 0% | 0hPa | 2.7V | 00:00:00 | 00:00:00 | 00:00:00 | |
| OE5DXL-15 | 2026-08-31 02:58:06 | 48.34857 | 14.77256 | 86° | 104km/h | 13711m | 6.5m/s | -61.1°C | 26.6% | 0hPa | 2.7V | 00:00:00 | 00:00:00 | 08:30:00 | |
| DO3MHA-12 | 2026-08-31 02:58:02 | 48.34844 | 14.77103 | 79° | 106km/h | 13687m | 5.4m/s | -61.4°C | 28.0% | 0hPa | 2.7V | 00:00:00 | 01:09:11 | 00:00:00 | |
| OE5FHM-15 | 2026-08-31 02:58:00 | 48.34834 | 14.77030 | 78° | 106km/h | 13674m | 5.3m/s | -61.6°C | 29.2% | 0hPa | 2.7V | 00:00:00 | 01:09:09 | 00:00:00 | |
| OM5KV | 2026-08-31 02:57:58 | 48.34822 | 14.76952 | 78° | 106km/h | 13663m | 6.7m/s | -61.6°C | 22.2% | 0hPa | 2.7V | 00:00:00 | 00:00:00 | 00:00:00 | |
| OE5DRO-10 | 2026-08-31 02:57:56 | 48.34809 | 14.76872 | 77° | 106km/h | 13651m | 5.6m/s | -61.5°C | 29.1% | 0hPa | 2.7V | 00:00:00 | 00:00:00 | 08:30:00 | |
| OE5MMP-10 | 2026-08-31 02:57:55 | 48.34803 | 14.76831 | 78° | 106km/h | 13645m | 5.9m/s | -61.5°C | 29.3% | 0hPa | 2.7V | 00:00:00 | 01:09:04 | 00:00:00 | |
| PG1ADW-2 | 2026-08-31 02:57:53 | 48.34790 | 14.76750 | 78° | 104km/h | 13635m | 4.8m/s | -61.5°C | 29.3% | 0hPa | 2.7V | 00:00:00 | 00:00:00 | 00:00:00 | |
| DO3MHA-12 | 2026-08-31 02:57:52 | 48.34784 | 14.76710 | 77° | 104km/h | 13630m | 5.2m/s | -61.5°C | 28.8% | 0hPa | 2.7V | 00:00:00 | 01:09:01 | 08:30:00 | |
| OE5WHR-10 | 2026-08-31 02:57:51 | 48.34778 | 14.76671 | 76° | 104km/h | 13624m | 6.2m/s | -61.5°C | 28.9% | 0hPa | 2.7V | 00:00:00 | 01:09:00 | 00:00:00 | |
| OK1ALN | 2026-08-31 02:57:47 | 48.34760 | 14.76556 | 78° | 104km/h | 13610m | 5.3m/s | 0°C | 0% | 0hPa | 2.7V | 00:00:00 | 00:00:00 | 00:00:00 | |
| OM5KV | 2026-08-31 02:57:46 | 48.34754 | 14.76518 | 77° | 104km/h | 13604m | 6.3m/s | -61.7°C | 22.2% | 0hPa | 2.7V | 00:00:00 | 00:00:00 | 00:00:00 | |
| OE5MMP-10 | 2026-08-31 02:57:45 | 48.34742 | 14.76441 | 78° | 106km/h | 13591m | 5.6m/s | -61.7°C | 29.5% | 0hPa | 2.7V | 00:00:00 | 01:08:54 | 00:00:00 | |
| DO3MHA-12 | 2026-08-31 02:57:42 | 48.34727 | 14.76325 | 81° | 104km/h | 13573m | 5.8m/s | -61.7°C | 29.3% | 0hPa | 2.7V | 00:00:00 | 01:08:51 | 00:00:00 | |
| OM5KV | 2026-08-31 02:57:40 | 48.34723 | 14.76286 | 83° | 106km/h | 13568m | 4.9m/s | -61.7°C | 22.3% | 0hPa | 2.7V | 00:00:00 | 00:00:00 | 00:00:00 | |
| OM5KV | 2026-08-31 02:57:39 | 48.34719 | 14.76246 | 83° | 106km/h | 13562m | 5.4m/s | -61.6°C | 22.0% | 0hPa | 2.7V | 00:00:00 | 00:00:00 | 00:00:00 | |
| OE5DRO-10 | 2026-08-31 02:57:37 | 48.34710 | 14.76126 | 85° | 104km/h | 13544m | 5.5m/s | -61.4°C | 28.6% | 0hPa | 2.7V | 00:00:00 | 00:00:00 | 00:00:00 | |
| OE5DXL-15 | 2026-08-31 02:57:36 | 48.34708 | 14.76086 | 85° | 104km/h | 13538m | 5.9m/s | -61.4°C | 28.5% | 0hPa | 2.7V | 00:00:00 | 00:00:00 | 00:00:00 | |
| OE5MMP-10 | 2026-08-31 02:57:35 | 48.34705 | 14.76047 | 85° | 102km/h | 13533m | 5.8m/s | -61.4°C | 28.5% | 0hPa | 2.7V | 00:00:00 | 01:08:44 | 00:00:00 | |
| OM5KV | 2026-08-31 02:57:34 | 48.34705 | 14.76047 | 86° | 104km/h | 13533m | 5.8m/s | -61.4°C | 21.7% | 0hPa | 2.7V | 00:00:00 | 00:00:00 | 00:00:00 | |
| PG1ADW-2 | 2026-08-31 02:57:33 | 48.34700 | 14.75969 | 84° | 104km/h | 13520m | 6.8m/s | -61.3°C | 28.0% | 0hPa | 2.7V | 00:00:00 | 01:08:42 | 00:00:00 | |
| DO3MHA-12 | 2026-08-31 02:57:32 | 48.34697 | 14.75931 | 84° | 104km/h | 13514m | 6.0m/s | -61.2°C | 27.7% | 0hPa | 2.7V | 00:00:00 | 01:08:41 | 00:00:00 | |
| OE8JPQ-2 | 2026-08-31 02:57:31 | 48.34694 | 14.75892 | 84° | 106km/h | 13508m | 6.6m/s | 0°C | 0% | 0hPa | 2.7V | 00:00:00 | 01:08:40 | 00:00:00 | |
| OE5WHR-10 | 2026-08-31 02:57:30 | 48.34691 | 14.75854 | 85° | 104km/h | 13501m | 7.3m/s | -61.1°C | 27.1% | 0hPa | 2.7V | 00:00:00 | 00:00:00 | 00:00:00 | |
| OE3JTB-15 | 2026-08-31 02:57:29 | 48.34689 | 14.75816 | 86° | 106km/h | 13493m | 6.5m/s | -61.1°C | 27.0% | 0hPa | 2.7V | 00:00:00 | 00:00:00 | 00:00:00 | |
| OM5KV | 2026-08-31 02:57:27 | 48.34687 | 14.75776 | 86° | 104km/h | 13487m | 5.6m/s | -61.1°C | 20.5% | 0hPa | 2.7V | 00:00:00 | 00:00:00 | 00:00:00 | |
| OE5MMP-10 | 2026-08-31 02:57:25 | 48.34682 | 14.75657 | 87° | 106km/h | 13470m | 6.2m/s | -61.0°C | 26.3% | 0hPa | 2.7V | 00:00:00 | 01:08:34 | 00:00:00 | |
| OK1ALN | 2026-08-31 02:57:24 | 48.34682 | 14.75657 | 88° | 106km/h | 13470m | 6.2m/s | 0°C | 0% | 0hPa | 2.7V | 00:00:00 | 00:00:00 | 00:00:00 | |
| OM5KV | 2026-08-31 02:57:23 | 48.34681 | 14.75617 | 87° | 106km/h | 13464m | 5.3m/s | -61.0°C | 19.8% | 0hPa | 2.7V | 00:00:00 | 00:00:00 | 00:00:00 | |
| OE5DRO-10 | 2026-08-31 02:57:18 | 48.34665 | 14.75379 | 86° | 104km/h | 13433m | 4.5m/s | -60.9°C | 26.1% | 0hPa | 2.7V | 00:00:00 | 00:00:00 | 00:00:00 | |
| OM5KV | 2026-08-31 02:57:17 | 48.34665 | 14.75379 | 87° | 104km/h | 13433m | 4.6m/s | -61.0°C | 19.7% | 0hPa | 2.7V | 00:00:00 | 00:00:00 | 00:00:00 | |
| OM5KV | 2026-08-31 02:57:16 | 48.34663 | 14.75339 | 88° | 106km/h | 13429m | 4.2m/s | -61.0°C | 19.6% | 0hPa | 2.7V | 00:00:00 | 00:00:00 | 00:00:00 | |
| OE5MMP-10 | 2026-08-31 02:57:15 | 48.34660 | 14.75257 | 88° | 102km/h | 13420m | 4.4m/s | -60.9°C | 26.1% | 0hPa | 2.7V | 00:00:00 | 01:08:24 | 00:00:00 | |
| S52SK | 2026-08-31 02:57:14 | 48.34661 | 14.75257 | 88° | 108km/h | 13420m | 4.5m/s | -60.9°C | 19.7% | 0hPa | 2.7V | 00:00:00 | 00:00:00 | 00:00:00 | |
| PG1ADW-2 | 2026-08-31 02:57:13 | 48.34658 | 14.75177 | 89° | 102km/h | 13410m | 5.3m/s | -60.8°C | 25.9% | 0hPa | 2.7V | 00:00:00 | 00:00:00 | 00:00:00 | |
| OM5KV | 2026-08-31 02:57:12 | 48.34658 | 14.75177 | 90° | 104km/h | 13410m | 5.3m/s | -60.9°C | 19.6% | 0hPa | 2.7V | 00:00:00 | 00:00:00 | 00:00:00 | |
| OE8JPQ-2 | 2026-08-31 02:57:11 | 48.34657 | 14.75099 | 89° | 102km/h | 13400m | 5.1m/s | 0°C | 0% | 0hPa | 2.7V | 00:00:00 | 00:00:00 | 00:00:00 | |
| OM5KV | 2026-08-31 02:57:10 | 48.34657 | 14.75099 | 90° | 102km/h | 13400m | 5.2m/s | -60.8°C | 19.8% | 0hPa | 2.7V | 00:00:00 | 00:00:00 | 00:00:00 | |
| OE5WHR-10 | 2026-08-31 02:57:09 | 48.34654 | 14.75022 | 86° | 102km/h | 13390m | 4.7m/s | -60.8°C | 26.4% | 0hPa | 2.7V | 00:00:00 | 00:00:00 | 00:00:00 | |
| S52SK | 2026-08-31 02:57:08 | 48.34654 | 14.75022 | 86° | 99km/h | 13390m | 4.8m/s | -60.8°C | 20.1% | 0hPa | 2.7V | 00:00:00 | 00:00:00 | 00:00:00 | |
| OE5DXL-15 | 2026-08-31 02:57:06 | 48.34648 | 14.74908 | 85° | 102km/h | 13376m | 4.3m/s | -60.7°C | 26.6% | 0hPa | 2.7V | 00:00:00 | 00:00:00 | 00:00:00 | |
| OE5MMP-10 | 2026-08-31 02:57:05 | 48.34645 | 14.74869 | 84° | 104km/h | 13371m | 4.7m/s | -60.7°C | 26.5% | 0hPa | 2.7V | 00:00:00 | 01:08:14 | 00:00:00 | |
| OK1ALN | 2026-08-31 02:57:03 | 48.34642 | 14.74829 | 85° | 106km/h | 13366m | 4.4m/s | 0°C | 0% | 0hPa | 2.7V | 00:00:00 | 00:00:00 | 00:00:00 | |
| DO3MHA-12 | 2026-08-31 02:57:02 | 48.34638 | 14.74749 | 88° | 104km/h | 13356m | 5.0m/s | -60.7°C | 26.7% | 0hPa | 2.7V | 00:00:00 | 01:08:11 | 00:00:00 | |
| OE3OSB-13 | 2026-08-31 02:56:54 | 48.34623 | 14.74437 | 80° | 100km/h | 13316m | 6.5m/s | -60.6°C | 20.9% | -1.0hPa | 2.7V | 00:00:00 | 00:00:00 | 00:00:00 | |
| PG1ADW-2 | 2026-08-31 02:56:53 | 48.34619 | 14.74399 | 81° | 100km/h | 13310m | 5.6m/s | -60.6°C | 28.2% | 0hPa | 2.7V | 00:00:00 | 00:00:00 | 00:00:00 | |
| DO3MHA-12 | 2026-08-31 02:56:52 | 48.34614 | 14.74362 | 81° | 106km/h | 13305m | 4.2m/s | -60.6°C | 28.2% | 0hPa | 2.7V | 00:00:00 | 01:08:01 | 00:00:00 | |
| OE8JPQ-2 | 2026-08-31 02:56:51 | 48.34610 | 14.74324 | 81° | 100km/h | 13300m | 6.3m/s | 0°C | 0% | 0hPa | 2.7V | 00:00:00 | 00:00:00 | 00:00:00 | |
| OM5KV | 2026-08-31 02:56:49 | 48.34606 | 14.74285 | 82° | 104km/h | 13294m | 5.4m/s | -60.6°C | 21.3% | 0hPa | 2.7V | 00:00:00 | 00:00:00 | 00:00:00 | |
| OE5WHR-10 | 2026-08-31 02:56:48 | 48.34597 | 14.74207 | 83° | 97km/h | 13282m | 5.7m/s | -60.5°C | 27.8% | 0hPa | 2.7V | 00:00:00 | 01:07:57 | 00:00:00 | |
| OE5MMP-10 | 2026-08-31 02:56:45 | 48.34586 | 14.74085 | 82° | 99km/h | 13266m | 5.9m/s | -60.4°C | 28.1% | 0hPa | 2.7V | 00:00:00 | 01:07:54 | 00:00:00 | |
| DO3MHA-12 | 2026-08-31 02:56:42 | 48.34576 | 14.73967 | 83° | 93km/h | 13247m | 5.7m/s | -60.4°C | 28.4% | 0hPa | 2.7V | 00:00:00 | 01:07:51 | 00:00:00 | |
| OE5DRO-10 | 2026-08-31 02:56:40 | 48.34570 | 14.73892 | 84° | 93km/h | 13235m | 7.1m/s | -60.3°C | 28.1% | 0hPa | 2.7V | 00:00:00 | 00:00:00 | 00:00:00 | |
| OK1ALN | 2026-08-31 02:56:37 | 48.34562 | 14.73786 | 84° | 91km/h | 13216m | 6.3m/s | 0°C | 0% | 0hPa | 2.7V | 00:00:00 | 00:00:00 | 00:00:00 | |
| OE5DXL-15 | 2026-08-31 02:56:36 | 48.34559 | 14.73752 | 82° | 95km/h | 13209m | 6.7m/s | -60.2°C | 28.3% | 0hPa | 2.7V | 00:00:00 | 00:00:00 | 00:00:00 | |
| OE5MMP-10 | 2026-08-31 02:56:35 | 48.34555 | 14.73719 | 78° | 93km/h | 13202m | 6.6m/s | -60.1°C | 28.6% | 0hPa | 2.7V | 00:00:00 | 01:07:44 | 08:30:00 | |
| PG1ADW-2 | 2026-08-31 02:56:33 | 48.34544 | 14.73652 | 77° | 93km/h | 13191m | 5.3m/s | -60.1°C | 29.0% | 0hPa | 2.7V | 00:00:00 | 00:00:00 | 00:00:00 | |
| DO3MHA-12 | 2026-08-31 02:56:32 | 48.34539 | 14.73618 | 77° | 93km/h | 13186m | 4.3m/s | -60.0°C | 29.0% | 0hPa | 2.7V | 00:00:00 | 01:07:41 | 00:00:00 | |
| OE8JPQ-2 | 2026-08-31 02:56:31 | 48.34534 | 14.73583 | 78° | 95km/h | 13181m | 5.2m/s | 0°C | 0% | 0hPa | 2.7V | 00:00:00 | 01:07:40 | 00:00:00 | |
| OE5FHM-15 | 2026-08-31 02:56:28 | 48.34523 | 14.73479 | 85° | 97km/h | 13163m | 6.0m/s | -59.8°C | 28.3% | 0hPa | 2.7V | 00:00:00 | 01:07:37 | 00:00:00 | |
| OE5WHR-10 | 2026-08-31 02:56:27 | 48.34521 | 14.73444 | 86° | 95km/h | 13157m | 6.4m/s | -59.8°C | 28.2% | 0hPa | 2.7V | 00:00:00 | 00:00:00 | 08:30:00 | |
| OE5MMP-10 | 2026-08-31 02:56:25 | 48.34517 | 14.73373 | 85° | 93km/h | 13144m | 6.2m/s | -59.7°C | 28.2% | 0hPa | 2.7V | 00:00:00 | 01:07:34 | 00:00:00 | |
| OE3OSB-13 | 2026-08-31 02:56:23 | 48.34511 | 14.73301 | 82° | 93km/h | 13131m | 6.0m/s | -59.7°C | 21.7% | -1.0hPa | 2.7V | 00:00:00 | 00:00:00 | 00:00:00 | |
| DO3MHA-12 | 2026-08-31 02:56:22 | 48.34508 | 14.73267 | 84° | 93km/h | 13126m | 4.8m/s | -59.7°C | 28.3% | 0hPa | 2.7V | 00:00:00 | 01:07:31 | 08:30:00 | |
| OE5DRO-10 | 2026-08-31 02:56:21 | 48.34506 | 14.73233 | 85° | 97km/h | 13121m | 6.0m/s | -59.6°C | 28.2% | 0hPa | 2.7V | 00:00:00 | 00:00:00 | 00:00:00 | |
| OM5KV | 2026-08-31 02:56:18 | 48.34503 | 14.73164 | 89° | 93km/h | 13109m | 4.5m/s | -59.6°C | 22.3% | 0hPa | 2.7V | 00:00:00 | 00:00:00 | 00:00:00 | |
| OE5MMP-10 | 2026-08-31 02:56:15 | 48.34496 | 14.73021 | 83° | 99km/h | 13088m | 5.1m/s | -59.4°C | 29.2% | 0hPa | 2.7V | 00:00:00 | 01:07:24 | 00:00:00 | |
| PG1ADW-2 | 2026-08-31 02:56:13 | 48.34490 | 14.72949 | 84° | 99km/h | 13079m | 5.9m/s | -59.4°C | 29.5% | 0hPa | 2.7V | 00:00:00 | 01:07:22 | 00:00:00 | |
| DO3MHA-12 | 2026-08-31 02:56:12 | 48.34488 | 14.72914 | 85° | 100km/h | 13073m | 4.3m/s | -59.3°C | 29.9% | 0hPa | 2.7V | 00:00:00 | 01:07:21 | 00:00:00 | |
| OE8JPQ-2 | 2026-08-31 02:56:09 | 48.34481 | 14.72802 | 86° | 102km/h | 13060m | 4.3m/s | 0°C | 0% | 0hPa | 2.7V | 00:00:00 | 00:00:00 | 00:00:00 | |
| S52SK | 2026-08-31 02:56:07 | 48.34479 | 14.72764 | 87° | 102km/h | 13056m | 5.2m/s | -59.2°C | 23.7% | 0hPa | 2.7V | 00:00:00 | 00:00:00 | 00:00:00 | |
| OE5WHR-10 | 2026-08-31 02:56:06 | 48.34475 | 14.72687 | 85° | 100km/h | 13047m | 4.8m/s | -59.1°C | 30.3% | 0hPa | 2.7V | 00:00:00 | 00:00:00 | 00:00:00 | |
| OE5MMP-10 | 2026-08-31 02:56:05 | 48.34472 | 14.72648 | 84° | 99km/h | 13042m | 4.6m/s | -59.1°C | 30.5% | 0hPa | 2.7V | 00:00:00 | 01:07:14 | 00:00:00 | |
| DO3MHA-12 | 2026-08-31 02:56:02 | 48.34463 | 14.72535 | 83° | 99km/h | 13027m | 4.8m/s | -59.0°C | 30.5% | 0hPa | 2.7V | 00:00:00 | 01:07:11 | 00:00:00 | |
| OM5KV | 2026-08-31 02:56:00 | 48.34459 | 14.72498 | 82° | 99km/h | 13022m | 5.3m/s | -59.0°C | 24.3% | 0hPa | 2.7V | 00:00:00 | 00:00:00 | 00:00:00 | |
| OE5FHM-15 | 2026-08-31 02:55:58 | 48.34449 | 14.72386 | 85° | 104km/h | 13007m | 4.5m/s | -58.8°C | 31.1% | 0hPa | 2.7V | 00:00:00 | 01:07:07 | 00:00:00 | |
| OM5KV | 2026-08-31 02:55:56 | 48.34447 | 14.72349 | 85° | 99km/h | 13002m | 4.8m/s | -58.9°C | 24.5% | 0hPa | 2.7V | 00:00:00 | 00:00:00 | 00:00:00 | |
| OE5MMP-10 | 2026-08-31 02:55:55 | 48.34441 | 14.72274 | 84° | 102km/h | 12992m | 4.3m/s | -58.8°C | 31.2% | 0hPa | 2.7V | 00:00:00 | 01:07:04 | 00:00:00 | |
| OM5KV | 2026-08-31 02:55:54 | 48.34441 | 14.72274 | 84° | 99km/h | 12992m | 4.4m/s | -58.8°C | 24.8% | 0hPa | 2.7V | 00:00:00 | 00:00:00 | 00:00:00 | |
| PG1ADW-2 | 2026-08-31 02:55:53 | 48.34436 | 14.72199 | 85° | 106km/h | 12982m | 4.9m/s | -58.8°C | 31.3% | 0hPa | 2.7V | 00:00:00 | 00:00:00 | 08:30:00 | |
| DO3MHA-12 | 2026-08-31 02:55:52 | 48.34433 | 14.72160 | 84° | 104km/h | 12977m | 4.9m/s | -58.8°C | 31.3% | 0hPa | 2.7V | 00:00:00 | 01:07:01 | 00:00:00 | |
| OM5KV | 2026-08-31 02:55:48 | 48.34423 | 14.72045 | 84° | 102km/h | 12963m | 5.2m/s | -58.9°C | 26.0% | 0hPa | 2.7V | 00:00:00 | 00:00:00 | 00:00:00 | |
| OE5WHR-10 | 2026-08-31 02:55:45 | 48.34414 | 14.71890 | 86° | 106km/h | 12944m | 4.5m/s | -58.9°C | 32.6% | 0hPa | 2.7V | 00:00:00 | 01:06:54 | 00:00:00 | |
| OE5DRO-10 | 2026-08-31 02:55:43 | 48.34411 | 14.71807 | 88° | 106km/h | 12934m | 4.8m/s | -58.8°C | 32.5% | 0hPa | 2.7V | 00:00:00 | 00:00:00 | 00:00:00 | |
| DO3MHA-12 | 2026-08-31 02:55:42 | 48.34410 | 14.71766 | 88° | 108km/h | 12929m | 5.4m/s | -58.8°C | 32.5% | 0hPa | 2.7V | 00:00:00 | 01:06:51 | 00:00:00 | |
| OE5DXL-15 | 2026-08-31 02:55:36 | 48.34401 | 14.71524 | 86° | 104km/h | 12899m | 6.5m/s | -58.7°C | 32.2% | 0hPa | 2.7V | 00:00:00 | 00:00:00 | 00:00:00 | |
| OE5MMP-10 | 2026-08-31 02:55:35 | 48.34399 | 14.71483 | 87° | 106km/h | 12892m | 5.8m/s | -58.7°C | 32.6% | 0hPa | 2.7V | 00:00:00 | 01:06:44 | 00:00:00 | |
| PG1ADW-2 | 2026-08-31 02:55:33 | 48.34395 | 14.71402 | 86° | 102km/h | 12883m | 5.2m/s | -58.7°C | 32.6% | 0hPa | 2.7V | 00:00:00 | 00:00:00 | 00:00:00 | |
| DO3MHA-12 | 2026-08-31 02:55:32 | 48.34393 | 14.71362 | 87° | 104km/h | 12878m | 4.8m/s | -58.7°C | 32.7% | 0hPa | 2.7V | 00:00:00 | 01:06:41 | 00:00:00 | |
| OE5FHM-15 | 2026-08-31 02:55:28 | 48.34388 | 14.71202 | 87° | 104km/h | 12857m | 5.0m/s | -58.6°C | 34.6% | 0hPa | 2.7V | 00:00:00 | 01:06:37 | 00:00:00 | |
| OE5MMP-10 | 2026-08-31 02:55:25 | 48.34381 | 14.71085 | 85° | 102km/h | 12843m | 4.9m/s | -58.5°C | 34.8% | 0hPa | 2.7V | 00:00:00 | 01:06:34 | 00:00:00 | |
| OE5WHR-10 | 2026-08-31 02:55:24 | 48.34379 | 14.71045 | 85° | 104km/h | 12838m | 4.3m/s | -58.5°C | 34.7% | 0hPa | 2.7V | 00:00:00 | 00:00:00 | 00:00:00 | |
| DO3MHA-12 | 2026-08-31 02:55:22 | 48.34373 | 14.70967 | 83° | 100km/h | 12829m | 4.8m/s | -58.4°C | 34.4% | 0hPa | 2.7V | 00:00:00 | 01:06:31 | 00:00:00 | |
| OE3OSB-13 | 2026-08-31 02:55:21 | 48.34370 | 14.70929 | 82° | 100km/h | 12824m | 4.2m/s | -58.4°C | 27.1% | -1.0hPa | 2.7V | 00:00:00 | 00:00:00 | 00:00:00 | |
| OE5MMP-10 | 2026-08-31 02:55:15 | 48.34355 | 14.70703 | 87° | 106km/h | 12793m | 5.2m/s | -58.1°C | 33.9% | 0hPa | 2.7V | 00:00:00 | 01:06:24 | 00:00:00 | |
| PG1ADW-2 | 2026-08-31 02:55:13 | 48.34351 | 14.70627 | 87° | 106km/h | 12782m | 5.0m/s | -58.1°C | 34.7% | 0hPa | 2.7V | 00:00:00 | 00:00:00 | 00:00:00 | |
| DO3MHA-12 | 2026-08-31 02:55:12 | 48.34349 | 14.70588 | 86° | 108km/h | 12777m | 4.5m/s | -58.1°C | 35.0% | 0hPa | 2.7V | 00:00:00 | 01:06:21 | 00:00:00 | |
| OE3JTB-15 | 2026-08-31 02:55:09 | 48.34343 | 14.70465 | 85° | 106km/h | 12762m | 4.7m/s | -58.1°C | 35.8% | 0hPa | 2.7V | 00:00:00 | 00:00:00 | 00:00:00 | |
| OE5DXL-15 | 2026-08-31 02:55:06 | 48.34335 | 14.70343 | 86° | 106km/h | 12749m | 4.5m/s | -58.0°C | 35.8% | 0hPa | 2.7V | 00:00:00 | 00:00:00 | 00:00:00 | |
| OE5MMP-10 | 2026-08-31 02:55:05 | 48.34332 | 14.70301 | 86° | 106km/h | 12745m | 4.3m/s | -58.0°C | 35.7% | 0hPa | 2.7V | 00:00:00 | 01:06:14 | 08:30:00 | |
| OE5WHR-10 | 2026-08-31 02:55:03 | 48.34328 | 14.70222 | 85° | 106km/h | 12735m | 4.8m/s | -58.0°C | 35.8% | 0hPa | 2.7V | 00:00:00 | 00:00:00 | 00:00:00 | |
| DO3MHA-12 | 2026-08-31 02:55:02 | 48.34326 | 14.70183 | 85° | 106km/h | 12731m | 4.3m/s | -58.0°C | 36.0% | 0hPa | 2.7V | 00:00:00 | 01:06:11 | 00:00:00 | |
| OE3OSB-13 | 2026-08-31 02:54:50 | 48.34298 | 14.69705 | 84° | 104km/h | 12674m | 4.0m/s | -58.0°C | 29.8% | -1.0hPa | 2.7V | 00:00:00 | 00:00:00 | 00:00:00 | |
| DO3MHA-12 | 2026-08-31 02:54:49 | 48.34295 | 14.69666 | 85° | 104km/h | 12670m | 5.0m/s | -57.9°C | 37.2% | 0hPa | 2.7V | 00:00:00 | 01:05:58 | 08:30:00 | |
| OE5DRO-10 | 2026-08-31 02:54:46 | 48.34287 | 14.69545 | 86° | 106km/h | 12657m | 3.9m/s | -58.0°C | 38.0% | 0hPa | 2.7V | 00:00:00 | 00:00:00 | 00:00:00 | |
| OE5MMP-10 | 2026-08-31 02:54:45 | 48.34285 | 14.69505 | 85° | 104km/h | 12652m | 4.6m/s | -58.0°C | 38.2% | 0hPa | 2.7V | 00:00:00 | 01:05:54 | 00:00:00 | |
| OE5WHR-10 | 2026-08-31 02:54:41 | 48.34275 | 14.69347 | 86° | 110km/h | 12634m | 4.0m/s | -58.1°C | 38.1% | 0hPa | 2.7V | 00:00:00 | 01:05:50 | 00:00:00 | |
| OE3JTB-15 | 2026-08-31 02:54:40 | 48.34273 | 14.69308 | 86° | 110km/h | 12629m | 5.2m/s | -58.1°C | 38.0% | 0hPa | 2.7V | 00:00:00 | 00:00:00 | 00:00:00 | |
| DO3MHA-12 | 2026-08-31 02:54:39 | 48.34271 | 14.69270 | 86° | 106km/h | 12625m | 4.0m/s | -58.1°C | 38.4% | 0hPa | 2.7V | 00:00:00 | 01:05:48 | 00:00:00 | |
| OE5DXL-15 | 2026-08-31 02:54:36 | 48.34266 | 14.69153 | 87° | 110km/h | 12611m | 4.7m/s | -58.1°C | 38.4% | 0hPa | 2.7V | 00:00:00 | 00:00:00 | 00:00:00 | |
| OE5MMP-10 | 2026-08-31 02:54:35 | 48.34264 | 14.69114 | 86° | 110km/h | 12607m | 4.6m/s | -58.1°C | 38.7% | 0hPa | 2.7V | 00:00:00 | 01:05:44 | 00:00:00 | |
| PG1ADW-2 | 2026-08-31 02:54:33 | 48.34260 | 14.69034 | 87° | 111km/h | 12599m | 4.8m/s | -58.2°C | 38.7% | 0hPa | 2.7V | 00:00:00 | 00:00:00 | 00:00:00 | |
| OM5KV | 2026-08-31 02:54:30 | 48.34257 | 14.68951 | 89° | 110km/h | 12590m | 3.8m/s | -58.2°C | 31.5% | 0hPa | 2.7V | 00:00:00 | 00:00:00 | 00:00:00 | |
| DO3MHA-12 | 2026-08-31 02:54:29 | 48.34254 | 14.68868 | 87° | 113km/h | 12581m | 4.4m/s | -58.1°C | 38.6% | 0hPa | 2.7V | 00:00:00 | 01:05:38 | 00:00:00 | |
| OE5FHM-15 | 2026-08-31 02:54:28 | 48.34252 | 14.68825 | 87° | 110km/h | 12576m | 4.4m/s | -58.1°C | 38.4% | 0hPa | 2.7V | 00:00:00 | 01:05:37 | 00:00:00 | |
| OE5DRO-10 | 2026-08-31 02:54:27 | 48.34250 | 14.68781 | 87° | 110km/h | 12571m | 5.4m/s | -58.1°C | 38.3% | 0hPa | 2.7V | 00:00:00 | 00:00:00 | 00:00:00 | |
| OE5MMP-10 | 2026-08-31 02:54:25 | 48.34245 | 14.68695 | 85° | 111km/h | 12561m | 4.6m/s | -58.1°C | 38.3% | 0hPa | 2.7V | 00:00:00 | 01:05:34 | 00:00:00 | |
| OM5KV | 2026-08-31 02:54:23 | 48.34242 | 14.68652 | 85° | 115km/h | 12557m | 3.9m/s | -58.1°C | 31.3% | 0hPa | 2.7V | 00:00:00 | 00:00:00 | 00:00:00 | |
| OE5WHR-10 | 2026-08-31 02:54:20 | 48.34230 | 14.68481 | 84° | 108km/h | 12537m | 4.6m/s | -58.1°C | 39.0% | 0hPa | 2.7V | 00:00:00 | 00:00:00 | 00:00:00 | |
| DO3MHA-12 | 2026-08-31 02:54:19 | 48.34228 | 14.68440 | 85° | 108km/h | 12533m | 3.7m/s | -58.1°C | 39.0% | 0hPa | 2.7V | 00:00:00 | 01:05:28 | 00:00:00 | |
| OE5MMP-10 | 2026-08-31 02:54:15 | 48.34218 | 14.68277 | 84° | 108km/h | 12515m | 5.1m/s | -58.0°C | 39.5% | 0hPa | 2.7V | 00:00:00 | 01:05:24 | 00:00:00 | |
| PG1ADW-2 | 2026-08-31 02:54:13 | 48.34212 | 14.68197 | 84° | 110km/h | 12507m | 5.2m/s | -58.0°C | 39.6% | 0hPa | 2.7V | 00:00:00 | 00:00:00 | 00:00:00 | |
| OE3JTB-15 | 2026-08-31 02:54:11 | 48.34205 | 14.68114 | 83° | 111km/h | 12497m | 4.9m/s | -58.0°C | 39.6% | 0hPa | 2.7V | 00:00:00 | 01:05:20 | 00:00:00 | |
| OM5KV | 2026-08-31 02:54:10 | 48.34205 | 14.68114 | 83° | 110km/h | 12497m | 4.9m/s | -58.1°C | 32.5% | 0hPa | 2.7V | 00:00:00 | 00:00:00 | 00:00:00 | |
| DO3MHA-12 | 2026-08-31 02:54:09 | 48.34198 | 14.68032 | 82° | 110km/h | 12489m | 3.3m/s | -58.0°C | 40.1% | 0hPa | 2.7V | 00:00:00 | 01:05:18 | 00:00:00 | |
| OE5DRO-10 | 2026-08-31 02:54:08 | 48.34194 | 14.67991 | 83° | 111km/h | 12485m | 4.9m/s | -58.0°C | 39.7% | 0hPa | 2.7V | 00:00:00 | 00:00:00 | 00:00:00 | |
| OE5DXL-15 | 2026-08-31 02:54:06 | 48.34187 | 14.67908 | 83° | 111km/h | 12476m | 4.2m/s | -57.9°C | 39.7% | 0hPa | 2.7V | 00:00:00 | 00:00:00 | 00:00:00 | |
| OE5MMP-10 | 2026-08-31 02:54:05 | 48.34184 | 14.67868 | 83° | 111km/h | 12472m | 4.3m/s | -57.9°C | 39.9% | 0hPa | 2.7V | 00:00:00 | 01:05:14 | 00:00:00 | |
| OM5KV | 2026-08-31 02:54:04 | 48.34184 | 14.67868 | 83° | 108km/h | 12472m | 4.3m/s | -57.9°C | 32.8% | 0hPa | 2.7V | 00:00:00 | 00:00:00 | 00:00:00 | |
| OE3OSB-13 | 2026-08-31 02:53:48 | 48.34144 | 14.67108 | 86° | 115km/h | 12388m | 5.6m/s | -57.6°C | 32.8% | -1.0hPa | 2.7V | 00:00:00 | 00:00:00 | 00:00:00 | |
| OM5KV | 2026-08-31 02:53:46 | 48.34144 | 14.67108 | 87° | 117km/h | 12389m | 5.6m/s | -57.6°C | 33.2% | 0hPa | 2.7V | 00:00:00 | 00:00:00 | 00:00:00 | |
| OE5MMP-10 | 2026-08-31 02:53:45 | 48.34140 | 14.67022 | 87° | 113km/h | 12380m | 3.1m/s | -57.6°C | 40.8% | 0hPa | 2.7V | 00:00:00 | 01:04:54 | 00:00:00 | |
| OM5KV | 2026-08-31 02:53:44 | 48.34140 | 14.67022 | 88° | 111km/h | 12380m | 3.2m/s | -57.6°C | 33.7% | 0hPa | 2.7V | 00:00:00 | 00:00:00 | 00:00:00 | |
| OE3JTB-15 | 2026-08-31 02:53:42 | 48.34138 | 14.66896 | 90° | 113km/h | 12367m | 4.3m/s | -57.6°C | 40.5% | 0hPa | 2.7V | 00:00:00 | 00:00:00 | 08:30:00 | |
| S52SK | 2026-08-31 02:53:40 | 48.34138 | 14.66854 | 91° | 111km/h | 12362m | 5.6m/s | -57.6°C | 33.5% | 0hPa | 2.7V | 00:00:00 | 00:00:00 | 00:00:00 | |
| DO3MHA-12 | 2026-08-31 02:53:39 | 48.34139 | 14.66767 | 92° | 113km/h | 12353m | 3.9m/s | -57.5°C | 40.6% | 0hPa | 2.7V | 00:00:00 | 01:04:48 | 00:00:00 | |
| OE5WHR-10 | 2026-08-31 02:53:38 | 48.34140 | 14.66723 | 92° | 113km/h | 12349m | 4.5m/s | -57.5°C | 40.2% | 0hPa | 2.7V | 00:00:00 | 01:04:47 | 00:00:00 | |
| OE5DXL-15 | 2026-08-31 02:53:36 | 48.34141 | 14.66636 | 92° | 111km/h | 12338m | 4.9m/s | -57.4°C | 40.7% | 0hPa | 2.7V | 00:00:00 | 00:00:00 | 08:30:00 | |
| OE5MMP-10 | 2026-08-31 02:53:35 | 48.34142 | 14.66593 | 91° | 113km/h | 12333m | 4.0m/s | -57.4°C | 40.7% | 0hPa | 2.7V | 00:00:00 | 01:04:44 | 08:30:00 | |
| S52SK | 2026-08-31 02:53:34 | 48.34142 | 14.66593 | 92° | 113km/h | 12333m | 4.1m/s | -57.5°C | 33.6% | 0hPa | 2.7V | 00:00:00 | 00:00:00 | 00:00:00 | |
| PG1ADW-2 | 2026-08-31 02:53:33 | 48.34141 | 14.66506 | 90° | 111km/h | 12325m | 3.5m/s | -57.4°C | 40.5% | 0hPa | 2.7V | 00:00:00 | 01:04:42 | 00:00:00 | |
| OE5DRO-10 | 2026-08-31 02:53:30 | 48.34141 | 14.66380 | 91° | 111km/h | 12311m | 3.6m/s | -57.3°C | 40.6% | 0hPa | 2.7V | 00:00:00 | 00:00:00 | 00:00:00 | |
| DO3MHA-12 | 2026-08-31 02:53:29 | 48.34141 | 14.66337 | 91° | 113km/h | 12306m | 5.1m/s | -57.3°C | 40.5% | 0hPa | 2.7V | 00:00:00 | 01:04:38 | 00:00:00 | |
| OM5KV | 2026-08-31 02:53:28 | 48.34141 | 14.66337 | 91° | 113km/h | 12306m | 5.1m/s | -57.3°C | 33.5% | 0hPa | 2.7V | 00:00:00 | 00:00:00 | 00:00:00 | |
| OE5FHM-15 | 2026-08-31 02:53:27 | 48.34142 | 14.66251 | 92° | 115km/h | 12298m | 4.6m/s | -57.2°C | 40.0% | 0hPa | 2.7V | 00:00:00 | 01:04:36 | 00:00:00 | |
| OE5MMP-10 | 2026-08-31 02:53:25 | 48.34143 | 14.66165 | 92° | 111km/h | 12289m | 3.7m/s | -57.2°C | 40.1% | 0hPa | 2.7V | 00:00:00 | 01:04:34 | 00:00:00 | |
| DO3MHA-12 | 2026-08-31 02:53:19 | 48.34145 | 14.65910 | 91° | 111km/h | 12263m | 4.4m/s | -57.0°C | 39.9% | 0hPa | 2.7V | 00:00:00 | 01:04:28 | 08:30:00 | |
| OE3OSB-13 | 2026-08-31 02:53:17 | 48.34146 | 14.65784 | 91° | 110km/h | 12249m | 4.6m/s | -57.0°C | 32.4% | -1.0hPa | 2.7V | 00:00:00 | 00:00:00 | 00:00:00 | |
| OE5MMP-10 | 2026-08-31 02:53:15 | 48.34147 | 14.65742 | 92° | 111km/h | 12244m | 4.4m/s | -56.9°C | 39.7% | 0hPa | 2.7V | 00:00:00 | 01:04:24 | 00:00:00 | |
| OE3JTB-15 | 2026-08-31 02:53:13 | 48.34149 | 14.65658 | 92° | 115km/h | 12236m | 4.7m/s | -56.8°C | 39.2% | 0hPa | 2.7V | 00:00:00 | 00:00:00 | 00:00:00 | |
| OE5DRO-10 | 2026-08-31 02:53:11 | 48.34150 | 14.65574 | 92° | 115km/h | 12227m | 4.3m/s | -56.8°C | 39.2% | 0hPa | 2.7V | 00:00:00 | 00:00:00 | 00:00:00 | |
| DO3MHA-12 | 2026-08-31 02:53:09 | 48.34152 | 14.65489 | 92° | 113km/h | 12218m | 4.4m/s | -56.7°C | 39.2% | 0hPa | 2.7V | 00:00:00 | 01:04:18 | 00:00:00 | |
| OE5DXL-15 | 2026-08-31 02:53:06 | 48.34154 | 14.65362 | 92° | 117km/h | 12205m | 4.3m/s | -56.6°C | 39.3% | 0hPa | 2.7V | 00:00:00 | 00:00:00 | 00:00:00 | |
| OE5MMP-10 | 2026-08-31 02:53:05 | 48.34155 | 14.65318 | 93° | 115km/h | 12201m | 4.3m/s | -56.6°C | 39.2% | 0hPa | 2.7V | 00:00:00 | 01:04:14 | 00:00:00 | |
| OM5KV | 2026-08-31 02:53:04 | 48.34156 | 14.65318 | 94° | 115km/h | 12201m | 4.3m/s | -56.6°C | 32.5% | 0hPa | 2.7V | 00:00:00 | 00:00:00 | 00:00:00 | |
| OE3OSB-13 | 2026-08-31 02:52:46 | 48.34176 | 14.64432 | 90° | 117km/h | 12114m | 3.9m/s | -56.3°C | 32.7% | -1.0hPa | 2.7V | 00:00:00 | 00:00:00 | 00:00:00 | |
| OE5MMP-10 | 2026-08-31 02:52:45 | 48.34176 | 14.64432 | 91° | 117km/h | 12114m | 3.9m/s | -56.2°C | 39.7% | 0hPa | 2.7V | 00:00:00 | 01:03:54 | 00:00:00 | |
| OE3JTB-15 | 2026-08-31 02:52:44 | 48.34176 | 14.64387 | 90° | 119km/h | 12110m | 4.3m/s | -56.2°C | 39.4% | 0hPa | 2.7V | 00:00:00 | 01:03:53 | 00:00:00 | |
| OE5FHM-15 | 2026-08-31 02:52:43 | 48.34176 | 14.64343 | 91° | 119km/h | 12105m | 4.8m/s | -56.2°C | 39.5% | 0hPa | 2.7V | 00:00:00 | 01:03:52 | 00:00:00 | |
| DO3MHA-12 | 2026-08-31 02:52:39 | 48.34181 | 14.64169 | 94° | 119km/h | 12088m | 5.0m/s | -56.1°C | 39.6% | 0hPa | 2.7V | 00:00:00 | 01:03:48 | 00:00:00 | |
| OE5DXL-15 | 2026-08-31 02:52:36 | 48.34186 | 14.64035 | 93° | 119km/h | 12075m | 4.4m/s | -56.0°C | 39.8% | 0hPa | 2.7V | 00:00:00 | 00:00:00 | 00:00:00 | |
| OE5WHR-10 | 2026-08-31 02:52:35 | 48.34187 | 14.63990 | 93° | 119km/h | 12071m | 3.5m/s | -56.0°C | 39.6% | 0hPa | 2.7V | 00:00:00 | 01:03:44 | 00:00:00 | |
| OE5HKT-10 | 2026-08-31 02:52:33 | 48.34189 | 14.63898 | 93° | 122km/h | 12063m | 4.7m/s | -55.9°C | 40.0% | 0hPa | 2.7V | 00:00:00 | 00:00:00 | 00:00:00 | |
| DO3MHA-12 | 2026-08-31 02:52:29 | 48.34193 | 14.63717 | 92° | 119km/h | 12046m | 5.1m/s | -55.8°C | 40.0% | 0hPa | 2.7V | 00:00:00 | 01:03:38 | 00:00:00 | |
| OM5KV | 2026-08-31 02:52:28 | 48.34193 | 14.63717 | 92° | 120km/h | 12046m | 5.2m/s | -55.9°C | 33.4% | 0hPa | 2.7V | 00:00:00 | 00:00:00 | 00:00:00 | |
| OM5KV | 2026-08-31 02:52:26 | 48.34194 | 14.63626 | 91° | 119km/h | 12038m | 4.5m/s | -55.8°C | 33.4% | 0hPa | 2.7V | 00:00:00 | 00:00:00 | 00:00:00 | |
| OE5MMP-10 | 2026-08-31 02:52:25 | 48.34194 | 14.63537 | 91° | 119km/h | 12029m | 4.0m/s | -55.7°C | 39.9% | 0hPa | 2.7V | 00:00:00 | 01:03:34 | 00:00:00 | |
| S52SK | 2026-08-31 02:52:23 | 48.34195 | 14.63492 | 92° | 119km/h | 12025m | 5.4m/s | -55.7°C | 33.4% | 0hPa | 2.7V | 00:00:00 | 00:00:00 | 00:00:00 | |
| OM5KV | 2026-08-31 02:52:22 | 48.34196 | 14.63447 | 93° | 120km/h | 12020m | 3.1m/s | -55.7°C | 33.5% | 0hPa | 2.7V | 00:00:00 | 00:00:00 | 00:00:00 | |
| DO3MHA-12 | 2026-08-31 02:52:19 | 48.34200 | 14.63265 | 92° | 119km/h | 12003m | 3.9m/s | -55.5°C | 40.1% | 0hPa | 2.7V | 00:00:00 | 01:03:28 | 00:00:00 | |
| OE3JTB-15 | 2026-08-31 02:52:15 | 48.34203 | 14.63085 | 91° | 120km/h | 11986m | 4.9m/s | -55.4°C | 39.7% | 0hPa | 2.7V | 00:00:00 | 00:00:00 | 00:00:00 | |
| OE5WHR-10 | 2026-08-31 02:52:14 | 48.34203 | 14.63040 | 91° | 120km/h | 11981m | 4.8m/s | -55.4°C | 40.0% | 0hPa | 2.7V | 00:00:00 | 00:00:00 | 00:00:00 | |
| OE5FHM-15 | 2026-08-31 02:52:13 | 48.34203 | 14.62995 | 92° | 120km/h | 11977m | 3.6m/s | -55.4°C | 40.0% | 0hPa | 2.7V | 00:00:00 | 01:03:22 | 08:30:00 | |
| OM5KV | 2026-08-31 02:52:10 | 48.34204 | 14.62861 | 91° | 119km/h | 11964m | 4.4m/s | -55.3°C | 33.5% | 0hPa | 2.7V | 00:00:00 | 00:00:00 | 00:00:00 | |
| DO3MHA-12 | 2026-08-31 02:52:09 | 48.34204 | 14.62815 | 91° | 119km/h | 11960m | 4.1m/s | -55.2°C | 40.2% | 0hPa | 2.7V | 00:00:00 | 01:03:18 | 00:00:00 | |
| OE5DXL-15 | 2026-08-31 02:52:06 | 48.34204 | 14.62680 | 91° | 122km/h | 11947m | 3.5m/s | -55.1°C | 40.1% | 0hPa | 2.7V | 00:00:00 | 00:00:00 | 00:00:00 | |
| OE5MMP-10 | 2026-08-31 02:52:05 | 48.34205 | 14.62636 | 92° | 120km/h | 11943m | 4.9m/s | -55.1°C | 39.6% | 0hPa | 2.7V | 00:00:00 | 01:03:14 | 08:30:00 | |
| OM5KV | 2026-08-31 02:52:04 | 48.34205 | 14.62636 | 93° | 119km/h | 11943m | 5.0m/s | -55.2°C | 33.2% | 0hPa | 2.7V | 00:00:00 | 00:00:00 | 00:00:00 | |
| DO3MHA-12 | 2026-08-31 02:51:59 | 48.34211 | 14.62363 | 91° | 124km/h | 11916m | 5.2m/s | -55.0°C | 39.0% | 0hPa | 2.7V | 00:00:00 | 01:03:08 | 00:00:00 | |
| OE5MMP-10 | 2026-08-31 02:51:55 | 48.34210 | 14.62176 | 91° | 124km/h | 11898m | 5.3m/s | -54.8°C | 39.1% | 0hPa | 2.7V | 00:00:00 | 01:03:04 | 00:00:00 | |
| OE5WHR-10 | 2026-08-31 02:51:53 | 48.34211 | 14.62083 | 92° | 124km/h | 11889m | 4.3m/s | -54.8°C | 39.2% | 0hPa | 2.7V | 00:00:00 | 00:00:00 | 00:00:00 | |
| OM5KV | 2026-08-31 02:51:52 | 48.34211 | 14.62083 | 93° | 122km/h | 11889m | 4.4m/s | -54.8°C | 32.9% | 0hPa | 2.7V | 00:00:00 | 00:00:00 | 00:00:00 | |
| DO3MHA-12 | 2026-08-31 02:51:49 | 48.34215 | 14.61893 | 93° | 126km/h | 11871m | 5.2m/s | -54.7°C | 39.6% | 0hPa | 2.7V | 00:00:00 | 01:02:58 | 08:30:00 | |
| OM5KV | 2026-08-31 02:51:48 | 48.34215 | 14.61893 | 94° | 124km/h | 11871m | 5.3m/s | -54.8°C | 33.2% | 0hPa | 2.7V | 00:00:00 | 00:00:00 | 00:00:00 | |
| OE5HKT-10 | 2026-08-31 02:51:47 | 48.34218 | 14.61799 | 92° | 122km/h | 11863m | 4.3m/s | -54.7°C | 39.3% | 0hPa | 2.7V | 00:00:00 | 00:00:00 | 00:00:00 | |
| OE3JTB-15 | 2026-08-31 02:51:46 | 48.34219 | 14.61752 | 93° | 124km/h | 11859m | 3.6m/s | -54.6°C | 38.9% | 0hPa | 2.7V | 00:00:00 | 00:00:00 | 00:00:00 | |
| OE5MMP-10 | 2026-08-31 02:51:45 | 48.34221 | 14.61705 | 94° | 124km/h | 11855m | 5.8m/s | -54.6°C | 38.5% | 0hPa | 2.7V | 00:00:00 | 01:02:54 | 00:00:00 | |
| OE5FHM-15 | 2026-08-31 02:51:43 | 48.34225 | 14.61610 | 94° | 124km/h | 11844m | 5.9m/s | -54.5°C | 38.7% | 0hPa | 2.7V | 00:00:00 | 01:02:52 | 00:00:00 | |
| OM5KV | 2026-08-31 02:51:42 | 48.34225 | 14.61610 | 94° | 126km/h | 11844m | 5.9m/s | -54.6°C | 32.4% | 0hPa | 2.7V | 00:00:00 | 00:00:00 | 00:00:00 | |
| OM5KV | 2026-08-31 02:51:40 | 48.34226 | 14.61513 | 90° | 130km/h | 11833m | 5.2m/s | -54.5°C | 33.1% | 0hPa | 2.7V | 00:00:00 | 00:00:00 | 00:00:00 | |
| DO3MHA-12 | 2026-08-31 02:51:39 | 48.34224 | 14.61416 | 88° | 120km/h | 11822m | 6.4m/s | -54.4°C | 39.1% | 0hPa | 2.7V | 00:00:00 | 01:02:48 | 00:00:00 | |
| OE5DXL-15 | 2026-08-31 02:51:36 | 48.34219 | 14.61279 | 88° | 122km/h | 11807m | 4.4m/s | -54.3°C | 39.2% | 0hPa | 2.7V | 00:00:00 | 00:00:00 | 00:00:00 | |
| OE5MMP-10 | 2026-08-31 02:51:35 | 48.34218 | 14.61234 | 89° | 122km/h | 11803m | 4.2m/s | -54.2°C | 39.0% | 0hPa | 2.7V | 00:00:00 | 01:02:44 | 00:00:00 | |
| PG1ADW-2 | 2026-08-31 02:51:33 | 48.34216 | 14.61146 | 89° | 124km/h | 11792m | 4.9m/s | -54.2°C | 39.1% | 0hPa | 2.7V | 00:00:00 | 00:00:00 | 00:00:00 | |
| OE5WHR-10 | 2026-08-31 02:51:32 | 48.34216 | 14.61101 | 91° | 124km/h | 11787m | 5.5m/s | -54.2°C | 39.3% | 0hPa | 2.7V | 00:00:00 | 01:02:41 | 00:00:00 | |
| OM5KV | 2026-08-31 02:51:31 | 48.34216 | 14.61101 | 91° | 119km/h | 11787m | 5.5m/s | -54.2°C | 33.1% | 0hPa | 2.7V | 00:00:00 | 00:00:00 | 00:00:00 | |
| DO3MHA-12 | 2026-08-31 02:51:29 | 48.34218 | 14.60958 | 91° | 124km/h | 11774m | 5.0m/s | -54.1°C | 39.3% | 0hPa | 2.7V | 00:00:00 | 01:02:38 | 00:00:00 | |
| OE5MMP-10 | 2026-08-31 02:51:25 | 48.34216 | 14.60765 | 90° | 122km/h | 11753m | 7.3m/s | -53.9°C | 39.1% | 0hPa | 2.7V | 00:00:00 | 01:02:34 | 00:00:00 | |
| DO3MHA-12 | 2026-08-31 02:51:19 | 48.34212 | 14.60488 | 88° | 126km/h | 11720m | 5.0m/s | -53.8°C | 39.7% | 0hPa | 2.7V | 00:00:00 | 01:02:28 | 00:00:00 | |
| S52SK | 2026-08-31 02:51:18 | 48.34212 | 14.60488 | 89° | 120km/h | 11720m | 5.1m/s | -53.8°C | 33.5% | 0hPa | 2.7V | 00:00:00 | 00:00:00 | 00:00:00 | |
| OE3JTB-15 | 2026-08-31 02:51:17 | 48.34209 | 14.60397 | 88° | 122km/h | 11708m | 7.4m/s | -53.7°C | 39.5% | 0hPa | 2.7V | 00:00:00 | 01:02:26 | 00:00:00 | |
| OE5MMP-10 | 2026-08-31 02:51:15 | 48.34206 | 14.60301 | 87° | 124km/h | 11696m | 5.2m/s | -53.6°C | 39.9% | 0hPa | 2.7V | 00:00:00 | 01:02:24 | 00:00:00 | |
| OE3OSB-13 | 2026-08-31 02:51:12 | 48.34202 | 14.60155 | 88° | 130km/h | 11679m | 4.6m/s | -53.5°C | 33.1% | -1.0hPa | 2.7V | 00:00:00 | 00:00:00 | 00:00:00 | |
| OE5WHR-10 | 2026-08-31 02:51:11 | 48.34201 | 14.60106 | 89° | 122km/h | 11674m | 5.9m/s | -53.4°C | 39.1% | 0hPa | 2.7V | 00:00:00 | 00:00:00 | 00:00:00 | |
| OM5KV | 2026-08-31 02:51:10 | 48.34201 | 14.60106 | 90° | 128km/h | 11674m | 5.9m/s | -53.5°C | 33.1% | 0hPa | 2.7V | 00:00:00 | 00:00:00 | 00:00:00 | |
| DO3MHA-12 | 2026-08-31 02:51:09 | 48.34199 | 14.60012 | 90° | 120km/h | 11663m | 4.9m/s | -53.4°C | 38.9% | 0hPa | 2.7V | 00:00:00 | 01:02:18 | 00:00:00 | |
| OE5DXL-15 | 2026-08-31 02:51:06 | 48.34196 | 14.59878 | 88° | 120km/h | 11649m | 4.0m/s | -53.3°C | 39.4% | 0hPa | 2.7V | 00:00:00 | 00:00:00 | 00:00:00 | |
| OE5MMP-10 | 2026-08-31 02:51:05 | 48.34194 | 14.59834 | 87° | 122km/h | 11645m | 4.7m/s | -53.3°C | 39.1% | 0hPa | 2.7V | 00:00:00 | 01:02:14 | 00:00:00 | |
| DB0NH | 2026-08-31 02:50:59 | 48.34186 | 14.59556 | 91° | 124km/h | 11617m | 5.1m/s | -53.1°C | 39.3% | 0hPa | 2.7V | 00:00:00 | 01:02:08 | 08:30:00 | |
| OE5DRO-10 | 2026-08-31 02:50:58 | 48.34186 | 14.59508 | 91° | 120km/h | 11612m | 4.7m/s | -53.1°C | 39.6% | 0hPa | 2.7V | 00:00:00 | 00:00:00 | 00:00:00 | |
| OE5MMP-10 | 2026-08-31 02:50:55 | 48.34186 | 14.59367 | 89° | 120km/h | 11599m | 5.7m/s | -53.0°C | 38.9% | 0hPa | 2.7V | 00:00:00 | 01:02:04 | 00:00:00 | |
| PG1ADW-2 | 2026-08-31 02:50:53 | 48.34183 | 14.59272 | 88° | 120km/h | 11590m | 5.1m/s | -52.9°C | 39.1% | 0hPa | 2.7V | 00:00:00 | 01:02:02 | 00:00:00 | |
| OE5WHR-10 | 2026-08-31 02:50:50 | 48.34181 | 14.59134 | 90° | 122km/h | 11575m | 5.0m/s | -52.8°C | 39.7% | 0hPa | 2.9V | 00:00:00 | 00:00:00 | 00:00:00 | |
| DO3MHA-12 | 2026-08-31 02:50:49 | 48.34181 | 14.59090 | 91° | 119km/h | 11570m | 4.3m/s | -52.8°C | 39.9% | 0hPa | 2.9V | 00:00:00 | 01:01:58 | 00:00:00 | |
| OE3JTB-15 | 2026-08-31 02:50:48 | 48.34182 | 14.59045 | 92° | 120km/h | 11566m | 4.1m/s | -52.8°C | 39.7% | 0hPa | 2.9V | 00:00:00 | 00:00:00 | 00:00:00 | |
| OE5MMP-10 | 2026-08-31 02:50:45 | 48.34183 | 14.58907 | 91° | 120km/h | 11552m | 6.0m/s | -52.7°C | 38.8% | 0hPa | 2.7V | 00:00:00 | 01:01:54 | 00:00:00 | |
| OE5FHM-15 | 2026-08-31 02:50:43 | 48.34184 | 14.58817 | 93° | 120km/h | 11539m | 6.1m/s | -52.6°C | 39.4% | 0hPa | 2.7V | 00:00:00 | 01:01:52 | 00:00:00 | |
| OE3OSB-13 | 2026-08-31 02:50:41 | 48.34185 | 14.58727 | 89° | 119km/h | 11529m | 4.5m/s | -52.6°C | 33.3% | -1.0hPa | 2.7V | 00:00:00 | 00:00:00 | 00:00:00 | |
| DO3MHA-12 | 2026-08-31 02:50:39 | 48.34183 | 14.58636 | 89° | 124km/h | 11521m | 5.1m/s | -52.5°C | 38.8% | 0hPa | 2.7V | 00:00:00 | 01:01:48 | 00:00:00 | |
| OM5KV | 2026-08-31 02:50:38 | 48.34183 | 14.58636 | 89° | 122km/h | 11521m | 5.2m/s | -52.5°C | 33.0% | 0hPa | 2.7V | 00:00:00 | 00:00:00 | 00:00:00 | |
| OE5DXL-15 | 2026-08-31 02:50:36 | 48.34181 | 14.58496 | 89° | 120km/h | 11507m | 4.5m/s | -52.4°C | 38.9% | 0hPa | 2.7V | 00:00:00 | 00:00:00 | 00:00:00 | |
| OE5MMP-10 | 2026-08-31 02:50:35 | 48.34180 | 14.58449 | 89° | 122km/h | 11501m | 6.5m/s | -52.4°C | 38.5% | 0hPa | 2.9V | 00:00:00 | 01:01:44 | 08:30:00 | |
| PG1ADW-2 | 2026-08-31 02:50:33 | 48.34180 | 14.58353 | 90° | 120km/h | 11490m | 5.1m/s | -52.3°C | 38.1% | 0hPa | 2.9V | 00:00:00 | 00:00:00 | 00:00:00 | |
| OE5HKT-10 | 2026-08-31 02:50:32 | 48.34179 | 14.58304 | 89° | 119km/h | 11484m | 5.8m/s | -52.2°C | 38.0% | 0hPa | 2.9V | 00:00:00 | 01:01:41 | 00:00:00 | |
| DB0NH | 2026-08-31 02:50:29 | 48.34175 | 14.58163 | 88° | 124km/h | 11469m | 4.9m/s | -52.1°C | 37.2% | 0hPa | 2.9V | 00:00:00 | 01:01:38 | 00:00:00 | |
| OE5MMP-10 | 2026-08-31 02:50:25 | 48.34173 | 14.57990 | 92° | 119km/h | 11445m | 4.9m/s | -52.0°C | 37.5% | 0hPa | 2.9V | 00:00:00 | 01:01:34 | 00:00:00 | |
| OM5KV | 2026-08-31 02:50:24 | 48.34173 | 14.57990 | 92° | 111km/h | 11445m | 4.9m/s | -52.0°C | 31.9% | 0hPa | 2.9V | 00:00:00 | 00:00:00 | 00:00:00 | |
| OE5DRO-10 | 2026-08-31 02:50:20 | 48.34172 | 14.57762 | 89° | 119km/h | 11423m | 4.7m/s | -51.8°C | 37.2% | 0hPa | 2.9V | 00:00:00 | 00:00:00 | 00:00:00 | |
| DO3MHA-12 | 2026-08-31 02:50:19 | 48.34171 | 14.57715 | 89° | 117km/h | 11418m | 4.3m/s | -51.8°C | 37.3% | 0hPa | 2.9V | 00:00:00 | 01:01:28 | 08:30:00 | |
| OM5KV | 2026-08-31 02:50:18 | 48.34172 | 14.57715 | 90° | 120km/h | 11418m | 4.3m/s | -51.9°C | 31.6% | 0hPa | 2.7V | 00:00:00 | 00:00:00 | 00:00:00 | |
| OE5MMP-10 | 2026-08-31 02:50:15 | 48.34168 | 14.57536 | 88° | 117km/h | 11400m | 4.0m/s | -51.7°C | 36.3% | 0hPa | 2.7V | 00:00:00 | 01:01:24 | 00:00:00 | |
| OE5FHM-15 | 2026-08-31 02:50:13 | 48.34165 | 14.57448 | 88° | 119km/h | 11391m | 4.2m/s | -51.6°C | 35.9% | 0hPa | 2.7V | 00:00:00 | 01:01:22 | 00:00:00 | |
| OM5KV | 2026-08-31 02:50:12 | 48.34166 | 14.57448 | 88° | 117km/h | 11391m | 4.3m/s | -51.6°C | 30.4% | 0hPa | 2.7V | 00:00:00 | 00:00:00 | 00:00:00 | |
| OE5HKT-10 | 2026-08-31 02:50:11 | 48.34163 | 14.57359 | 89° | 119km/h | 11382m | 4.8m/s | -51.5°C | 35.8% | 0hPa | 2.7V | 00:00:00 | 00:00:00 | 08:30:00 | |
| OE3OSB-13 | 2026-08-31 02:50:10 | 48.34163 | 14.57314 | 89° | 115km/h | 11378m | 3.9m/s | -51.5°C | 30.2% | -1.0hPa | 2.7V | 00:00:00 | 00:00:00 | 00:00:00 | |
| DO3MHA-12 | 2026-08-31 02:50:09 | 48.34162 | 14.57270 | 89° | 117km/h | 11374m | 4.0m/s | -51.4°C | 35.7% | 0hPa | 2.7V | 00:00:00 | 01:01:18 | 00:00:00 | |
| OE5WHR-10 | 2026-08-31 02:50:08 | 48.34161 | 14.57225 | 89° | 119km/h | 11370m | 3.9m/s | -51.4°C | 35.9% | 0hPa | 2.7V | 00:00:00 | 00:00:00 | 08:30:00 | |
| OE5DXL-15 | 2026-08-31 02:50:06 | 48.34159 | 14.57136 | 88° | 120km/h | 11362m | 4.6m/s | -51.3°C | 35.9% | 0hPa | 2.9V | 00:00:00 | 00:00:00 | 00:00:00 | |
| OE5MMP-10 | 2026-08-31 02:50:05 | 48.34158 | 14.57091 | 88° | 119km/h | 11359m | 2.8m/s | -51.3°C | 36.0% | 0hPa | 2.9V | 00:00:00 | 01:01:14 | 00:00:00 | |
| OE5DRO-10 | 2026-08-31 02:50:01 | 48.34151 | 14.56914 | 88° | 120km/h | 11343m | 4.1m/s | -51.2°C | 35.5% | 0hPa | 2.9V | 00:00:00 | 00:00:00 | 00:00:00 | |
| OM5KV | 2026-08-31 02:50:00 | 48.34151 | 14.56914 | 89° | 117km/h | 11343m | 4.1m/s | -51.2°C | 30.2% | 0hPa | 2.9V | 00:00:00 | 00:00:00 | 00:00:00 | |
| OE5MMP-10 | 2026-08-31 02:49:55 | 48.34144 | 14.56644 | 88° | 122km/h | 11321m | 3.6m/s | -51.0°C | 36.0% | 0hPa | 2.9V | 00:00:00 | 01:01:04 | 00:00:00 | |
| PG1ADW-2 | 2026-08-31 02:49:53 | 48.34142 | 14.56552 | 89° | 122km/h | 11313m | 4.5m/s | -50.9°C | 35.8% | 0hPa | 2.9V | 00:00:00 | 00:00:00 | 08:30:00 | |
| OM5KV | 2026-08-31 02:49:51 | 48.34141 | 14.56505 | 89° | 122km/h | 11309m | 3.3m/s | -51.0°C | 30.6% | 0hPa | 2.9V | 00:00:00 | 00:00:00 | 00:00:00 | |
| OE5HKT-10 | 2026-08-31 02:49:50 | 48.34138 | 14.56412 | 87° | 122km/h | 11301m | 3.5m/s | -50.9°C | 36.2% | 0hPa | 2.9V | 00:00:00 | 00:00:00 | 00:00:00 | |
| DO3MHA-12 | 2026-08-31 02:49:49 | 48.34137 | 14.56365 | 88° | 120km/h | 11297m | 4.5m/s | -50.8°C | 36.2% | 0hPa | 2.9V | 00:00:00 | 01:00:58 | 00:00:00 | |
| OE3JTB-15 | 2026-08-31 02:49:48 | 48.34135 | 14.56319 | 87° | 122km/h | 11293m | 2.7m/s | -50.8°C | 36.6% | 0hPa | 2.7V | 00:00:00 | 01:00:57 | 00:00:00 | |
| OE5WHR-10 | 2026-08-31 02:49:47 | 48.34133 | 14.56274 | 87° | 122km/h | 11290m | 3.2m/s | -50.8°C | 36.2% | 0hPa | 2.7V | 00:00:00 | 00:00:00 | 00:00:00 | |
| OE5MMP-10 | 2026-08-31 02:49:45 | 48.34129 | 14.56182 | 87° | 120km/h | 11282m | 3.4m/s | -50.8°C | 36.8% | 0hPa | 2.7V | 00:00:00 | 01:00:54 | 00:00:00 | |
| OE5FHM-15 | 2026-08-31 02:49:43 | 48.34126 | 14.56091 | 88° | 124km/h | 11275m | 3.5m/s | -50.7°C | 36.7% | 0hPa | 2.7V | 00:00:00 | 01:00:52 | 00:00:00 | |
| OE5DRO-10 | 2026-08-31 02:49:42 | 48.34125 | 14.56045 | 88° | 122km/h | 11271m | 4.3m/s | -50.7°C | 36.5% | 0hPa | 2.7V | 00:00:00 | 00:00:00 | 00:00:00 | |
| DO3MHA-12 | 2026-08-31 02:49:39 | 48.34121 | 14.55906 | 89° | 122km/h | 11258m | 4.4m/s | -50.6°C | 37.1% | 0hPa | 2.7V | 00:00:00 | 01:00:48 | 00:00:00 | |
| OE5DXL-15 | 2026-08-31 02:49:36 | 48.34118 | 14.55768 | 88° | 124km/h | 11247m | 3.5m/s | -50.5°C | 37.4% | 0hPa | 2.7V | 00:00:00 | 00:00:00 | 00:00:00 | |
| OE5MMP-10 | 2026-08-31 02:49:35 | 48.34117 | 14.55722 | 88° | 124km/h | 11243m | 3.1m/s | -50.5°C | 37.5% | 0hPa | 2.7V | 00:00:00 | 01:00:44 | 00:00:00 | |
| PG1ADW-2 | 2026-08-31 02:49:33 | 48.34115 | 14.55630 | 89° | 124km/h | 11236m | 3.4m/s | -50.5°C | 38.0% | 0hPa | 2.9V | 00:00:00 | 01:00:42 | 00:00:00 | |
| OM5KV | 2026-08-31 02:49:32 | 48.34116 | 14.55630 | 89° | 120km/h | 11236m | 3.5m/s | -50.5°C | 32.6% | 0hPa | 2.9V | 00:00:00 | 00:00:00 | 00:00:00 | |
| OE5HKT-10 | 2026-08-31 02:49:29 | 48.34113 | 14.55444 | 90° | 120km/h | 11221m | 4.2m/s | -50.4°C | 38.4% | 0hPa | 2.9V | 00:00:00 | 01:00:38 | 00:00:00 | |
| OM5KV | 2026-08-31 02:49:28 | 48.34113 | 14.55444 | 91° | 124km/h | 11221m | 4.3m/s | -50.4°C | 33.0% | 0hPa | 2.9V | 00:00:00 | 00:00:00 | 00:00:00 | |
| OE5WHR-10 | 2026-08-31 02:49:26 | 48.34111 | 14.55301 | 88° | 124km/h | 11210m | 2.9m/s | -50.3°C | 39.2% | 0hPa | 2.9V | 00:00:00 | 01:00:35 | 00:00:00 | |
| OE5MMP-10 | 2026-08-31 02:49:25 | 48.34110 | 14.55253 | 88° | 124km/h | 11207m | 3.9m/s | -50.3°C | 38.6% | 0hPa | 2.9V | 00:00:00 | 01:00:34 | 00:00:00 | |
| OE5DRO-10 | 2026-08-31 02:49:23 | 48.34108 | 14.55158 | 89° | 124km/h | 11199m | 2.9m/s | -50.3°C | 39.2% | 0hPa | 2.9V | 00:00:00 | 00:00:00 | 08:30:00 | |
| DB0NH | 2026-08-31 02:49:22 | 48.34106 | 14.55112 | 88° | 122km/h | 11196m | 3.5m/s | -50.3°C | 38.6% | 0hPa | 2.7V | 00:00:00 | 01:00:31 | 00:00:00 | |
| OM5KV | 2026-08-31 02:49:21 | 48.34106 | 14.55112 | 89° | 122km/h | 11196m | 3.6m/s | -50.3°C | 33.2% | 0hPa | 2.7V | 00:00:00 | 00:00:00 | 00:00:00 | |
| DO3MHA-12 | 2026-08-31 02:49:19 | 48.34103 | 14.54971 | 88° | 124km/h | 11184m | 3.1m/s | -50.2°C | 39.1% | 0hPa | 2.7V | 00:00:00 | 01:00:28 | 00:00:00 | |
| OM5KV | 2026-08-31 02:49:17 | 48.34101 | 14.54924 | 89° | 124km/h | 11181m | 3.4m/s | -50.2°C | 33.5% | 0hPa | 2.9V | 00:00:00 | 00:00:00 | 00:00:00 | |
| OE5MMP-10 | 2026-08-31 02:49:15 | 48.34097 | 14.54782 | 88° | 124km/h | 11170m | 3.0m/s | -50.1°C | 38.8% | 0hPa | 2.9V | 00:00:00 | 01:00:24 | 00:00:00 | |
| OE5FHM-15 | 2026-08-31 02:49:13 | 48.34095 | 14.54686 | 90° | 122km/h | 11163m | 3.8m/s | -50.0°C | 39.1% | 0hPa | 2.9V | 00:00:00 | 01:00:22 | 00:00:00 | |
| OM5KV | 2026-08-31 02:49:11 | 48.34095 | 14.54639 | 90° | 124km/h | 11160m | 3.3m/s | -50.1°C | 33.8% | 0hPa | 2.7V | 00:00:00 | 00:00:00 | 00:00:00 | |
| DO3MHA-12 | 2026-08-31 02:49:09 | 48.34094 | 14.54499 | 90° | 122km/h | 11148m | 4.0m/s | -49.9°C | 40.3% | 0hPa | 2.7V | 00:00:00 | 01:00:18 | 00:00:00 | |
| OE3OSB-13 | 2026-08-31 02:49:08 | 48.34093 | 14.54452 | 88° | 120km/h | 11145m | 3.1m/s | -50.0°C | 34.6% | -1.0hPa | 2.7V | 00:00:00 | 00:00:00 | 00:00:00 | |
| OM5KV | 2026-08-31 02:49:06 | 48.34090 | 14.54359 | 86° | 126km/h | 11138m | 3.2m/s | -49.9°C | 35.2% | 0hPa | 2.7V | 00:00:00 | 00:00:00 | 00:00:00 | |
| OE5WHR-10 | 2026-08-31 02:49:05 | 48.34087 | 14.54311 | 85° | 122km/h | 11134m | 4.0m/s | -49.8°C | 40.6% | 0hPa | 2.7V | 00:00:00 | 00:00:00 | 00:00:00 | |
| DL6DJ-15 | 2026-08-31 02:49:04 | 48.34082 | 14.54216 | 85° | 122km/h | 11126m | 3.1m/s | 0°C | -1.0% | -1.0hPa | 2.9V | 00:00:00 | 00:00:00 | 00:00:00 | |
| DO3MHA-12 | 2026-08-31 02:48:59 | 48.34074 | 14.54034 | 89° | 120km/h | 11110m | 2.9m/s | -49.7°C | 42.4% | 0hPa | 2.9V | 00:00:00 | 01:00:08 | 00:00:00 | |
| OM5KV | 2026-08-31 02:48:58 | 48.34074 | 14.54034 | 90° | 119km/h | 11110m | 3.0m/s | -49.7°C | 36.8% | 0hPa | 2.9V | 00:00:00 | 00:00:00 | 00:00:00 | |
| S52SK | 2026-08-31 02:48:56 | 48.34072 | 14.53945 | 89° | 119km/h | 11101m | 5.4m/s | -49.6°C | 37.2% | 0hPa | 2.9V | 00:00:00 | 00:00:00 | 00:00:00 | |
| PG1ADW-2 | 2026-08-31 02:48:53 | 48.34067 | 14.53762 | 87° | 122km/h | 11079m | 5.3m/s | -49.5°C | 45.7% | 0hPa | 2.9V | 00:00:00 | 00:00:00 | 00:00:00 | |
| DB0NH | 2026-08-31 02:48:52 | 48.34065 | 14.53716 | 86° | 122km/h | 11074m | 5.9m/s | -49.4°C | 47.0% | 0hPa | 2.9V | 00:00:00 | 01:00:01 | 00:00:00 | |
| OE3JTB-15 | 2026-08-31 02:48:50 | 48.34060 | 14.53622 | 87° | 120km/h | 11064m | 5.1m/s | -49.4°C | 49.9% | 0hPa | 2.7V | 00:00:00 | 00:00:00 | 00:00:00 | |
| DO3MHA-12 | 2026-08-31 02:48:49 | 48.34059 | 14.53576 | 87° | 122km/h | 11059m | 4.4m/s | -49.4°C | 51.4% | 0hPa | 2.7V | 00:00:00 | 00:59:58 | 08:30:00 | |
| OM5KV | 2026-08-31 02:48:48 | 48.34059 | 14.53576 | 88° | 122km/h | 11059m | 4.5m/s | -49.5°C | 45.2% | 0hPa | 2.9V | 00:00:00 | 00:00:00 | 00:00:00 | |
| OM5KV | 2026-08-31 02:48:46 | 48.34056 | 14.53484 | 88° | 120km/h | 11051m | 2.9m/s | -49.5°C | 47.6% | 0hPa | 2.9V | 00:00:00 | 00:00:00 | 00:00:00 | |
| OE5MMP-10 | 2026-08-31 02:48:45 | 48.34053 | 14.53392 | 88° | 122km/h | 11042m | 5.2m/s | -49.5°C | 55.6% | 0hPa | 2.9V | 00:00:00 | 00:59:54 | 00:00:00 | |
| OE5WHR-10 | 2026-08-31 02:48:44 | 48.34051 | 14.53345 | 88° | 122km/h | 11037m | 5.0m/s | -49.4°C | 56.6% | 0hPa | 2.9V | 00:00:00 | 00:00:00 | 00:00:00 | |
| OE5FHM-15 | 2026-08-31 02:48:43 | 48.34050 | 14.53298 | 88° | 120km/h | 11032m | 5.1m/s | -49.4°C | 57.8% | 0hPa | 2.9V | 00:00:00 | 00:59:52 | 00:00:00 | |
| OM5KV | 2026-08-31 02:48:42 | 48.34050 | 14.53298 | 89° | 122km/h | 11032m | 5.1m/s | -49.5°C | 51.2% | 0hPa | 2.9V | 00:00:00 | 00:00:00 | 00:00:00 | |
| OM5KV | 2026-08-31 02:48:41 | 48.34048 | 14.53251 | 88° | 120km/h | 11027m | 3.6m/s | -49.5°C | 52.0% | 0hPa | 2.9V | 00:00:00 | 00:00:00 | 00:00:00 | |
| DO3MHA-12 | 2026-08-31 02:48:39 | 48.34040 | 14.53113 | 84° | 122km/h | 11015m | 5.2m/s | -49.3°C | 58.6% | 0hPa | 2.9V | 00:00:00 | 00:59:48 | 00:00:00 | |
| OE3OSB-13 | 2026-08-31 02:48:37 | 48.34033 | 14.53021 | 83° | 122km/h | 11005m | 4.0m/s | -49.3°C | 52.5% | -1.0hPa | 2.9V | 00:00:00 | 00:00:00 | 00:00:00 | |
| OE5DXL-15 | 2026-08-31 02:48:36 | 48.34029 | 14.52974 | 83° | 119km/h | 11001m | 4.3m/s | -49.2°C | 59.0% | 0hPa | 2.9V | 00:00:00 | 00:00:00 | 00:00:00 | |
| OE5MMP-10 | 2026-08-31 02:48:35 | 48.34025 | 14.52927 | 83° | 120km/h | 10997m | 4.6m/s | -49.2°C | 59.1% | 0hPa | 2.9V | 00:00:00 | 00:59:44 | 00:00:00 | |
| PG1ADW-2 | 2026-08-31 02:48:33 | 48.34017 | 14.52834 | 82° | 120km/h | 10987m | 5.8m/s | -49.1°C | 58.7% | 0hPa | 2.7V | 00:00:00 | 00:00:00 | 00:00:00 | |
| OM5KV | 2026-08-31 02:48:31 | 48.34012 | 14.52787 | 83° | 124km/h | 10981m | 5.0m/s | -49.1°C | 52.3% | 0hPa | 2.7V | 00:00:00 | 00:00:00 | 00:00:00 | |
| DO3MHA-12 | 2026-08-31 02:48:29 | 48.34001 | 14.52653 | 84° | 119km/h | 10966m | 5.0m/s | -48.9°C | 58.3% | 0hPa | 2.7V | 00:00:00 | 00:59:38 | 00:00:00 | |
| OE5DRO-10 | 2026-08-31 02:48:26 | 48.33994 | 14.52521 | 88° | 119km/h | 10950m | 5.7m/s | -48.8°C | 58.2% | 0hPa | 2.7V | 00:00:00 | 00:00:00 | 00:00:00 | |
| OE5MMP-10 | 2026-08-31 02:48:25 | 48.33992 | 14.52475 | 87° | 120km/h | 10944m | 5.1m/s | -48.8°C | 58.3% | 0hPa | 2.7V | 00:00:00 | 00:59:34 | 00:00:00 | |
| OE5WHR-10 | 2026-08-31 02:48:23 | 48.33989 | 14.52383 | 87° | 117km/h | 10935m | 5.8m/s | -48.7°C | 57.5% | 0hPa | 2.7V | 00:00:00 | 00:59:32 | 00:00:00 | |
| DB0NH | 2026-08-31 02:48:22 | 48.33987 | 14.52337 | 87° | 115km/h | 10930m | 4.3m/s | -48.7°C | 57.8% | 0hPa | 2.7V | 00:00:00 | 00:59:31 | 00:00:00 | |
| OE3JTB-15 | 2026-08-31 02:48:20 | 48.33983 | 14.52246 | 86° | 115km/h | 10921m | 5.6m/s | -48.6°C | 56.1% | 0hPa | 2.7V | 00:00:00 | 00:59:29 | 00:00:00 | |
| DO3MHA-12 | 2026-08-31 02:48:19 | 48.33980 | 14.52200 | 86° | 117km/h | 10915m | 4.8m/s | -48.6°C | 55.9% | 0hPa | 2.7V | 00:00:00 | 00:59:28 | 00:00:00 | |
| OM5KV | 2026-08-31 02:48:18 | 48.33980 | 14.52200 | 86° | 122km/h | 10915m | 4.9m/s | -48.6°C | 49.6% | 0hPa | 2.9V | 00:00:00 | 00:00:00 | 00:00:00 | |
| OM5KV | 2026-08-31 02:48:16 | 48.33974 | 14.52108 | 85° | 119km/h | 10904m | 5.3m/s | -48.5°C | 49.2% | 0hPa | 2.9V | 00:00:00 | 00:00:00 | 00:00:00 | |
| OE5MMP-10 | 2026-08-31 02:48:15 | 48.33967 | 14.52017 | 83° | 115km/h | 10892m | 7.6m/s | -48.4°C | 54.8% | 0hPa | 2.9V | 00:00:00 | 00:59:24 | 00:00:00 | |
| OE5FHM-15 | 2026-08-31 02:48:13 | 48.33958 | 14.51924 | 81° | 111km/h | 10881m | 4.5m/s | -48.3°C | 55.8% | 0hPa | 2.9V | 00:00:00 | 00:59:22 | 00:00:00 | |
| OM5KV | 2026-08-31 02:48:12 | 48.33958 | 14.51924 | 81° | 124km/h | 10881m | 4.5m/s | -48.4°C | 49.5% | 0hPa | 2.9V | 00:00:00 | 00:00:00 | 00:00:00 | |
| OM5KV | 2026-08-31 02:48:11 | 48.33953 | 14.51878 | 82° | 119km/h | 10876m | 4.7m/s | -48.3°C | 49.4% | 0hPa | 2.9V | 00:00:00 | 00:00:00 | 00:00:00 | |
| DO3MHA-12 | 2026-08-31 02:48:08 | 48.33939 | 14.51717 | 81° | 111km/h | 10857m | 7.2m/s | -48.1°C | 53.2% | 0hPa | 2.9V | 00:00:00 | 00:59:17 | 00:00:00 | |
| OE5DRO-10 | 2026-08-31 02:48:07 | 48.33934 | 14.51677 | 81° | 111km/h | 10850m | 6.0m/s | -48.1°C | 53.4% | 0hPa | 2.9V | 00:00:00 | 00:00:00 | 00:00:00 | |
| OE5DXL-15 | 2026-08-31 02:48:06 | 48.33930 | 14.51634 | 83° | 111km/h | 10845m | 4.3m/s | -48.0°C | 53.4% | 0hPa | 2.9V | 00:00:00 | 00:00:00 | 00:00:00 | |
| OE5MMP-10 | 2026-08-31 02:48:05 | 48.33926 | 14.51590 | 84° | 111km/h | 10839m | 6.9m/s | -48.0°C | 52.7% | 0hPa | 2.9V | 00:00:00 | 00:59:14 | 00:00:00 | |
| OE5WHR-10 | 2026-08-31 02:48:02 | 48.33920 | 14.51461 | 86° | 110km/h | 10822m | 5.8m/s | -47.8°C | 52.3% | 0hPa | 2.9V | 00:00:00 | 00:00:00 | 00:00:00 | |
| OM5KV | 2026-08-31 02:48:01 | 48.33920 | 14.51460 | 87° | 108km/h | 10822m | 5.9m/s | -47.9°C | 46.4% | 0hPa | 2.7V | 00:00:00 | 00:00:00 | 00:00:00 | |
| OM5KV | 2026-08-31 02:47:59 | 48.33914 | 14.51380 | 84° | 108km/h | 10812m | 3.7m/s | -47.8°C | 46.5% | 0hPa | 2.7V | 00:00:00 | 00:00:00 | 00:00:00 | |
| DO3MHA-12 | 2026-08-31 02:47:58 | 48.33907 | 14.51297 | 84° | 111km/h | 10802m | 4.6m/s | -47.7°C | 52.0% | 0hPa | 2.7V | 00:00:00 | 00:59:07 | 00:00:00 | |
| OE5MMP-10 | 2026-08-31 02:47:55 | 48.33898 | 14.51170 | 86° | 110km/h | 10787m | 4.8m/s | -47.5°C | 51.8% | 0hPa | 2.7V | 00:00:00 | 00:59:04 | 00:00:00 | |
| PG1ADW-2 | 2026-08-31 02:47:53 | 48.33893 | 14.51084 | 85° | 108km/h | 10777m | 5.1m/s | -47.4°C | 51.1% | 0hPa | 2.7V | 00:00:00 | 00:00:00 | 00:00:00 | |
| DB0NH | 2026-08-31 02:47:52 | 48.33891 | 14.51041 | 85° | 106km/h | 10772m | 4.6m/s | -47.4°C | 51.4% | 0hPa | 2.9V | 00:00:00 | 00:59:01 | 00:00:00 | |
| OE3JTB-15 | 2026-08-31 02:47:51 | 48.33888 | 14.50998 | 86° | 106km/h | 10767m | 5.7m/s | -47.4°C | 51.3% | 0hPa | 2.9V | 00:00:00 | 00:00:00 | 00:00:00 | |
| OM5KV | 2026-08-31 02:47:50 | 48.33888 | 14.50998 | 87° | 111km/h | 10767m | 5.7m/s | -47.4°C | 45.6% | 0hPa | 2.9V | 00:00:00 | 00:00:00 | 00:00:00 | |
| S52SK | 2026-08-31 02:47:49 | 48.33887 | 14.50956 | 88° | 110km/h | 10761m | 5.3m/s | -47.4°C | 46.1% | 0hPa | 2.9V | 00:00:00 | 00:00:00 | 00:00:00 | |
| DO3MHA-12 | 2026-08-31 02:47:48 | 48.33883 | 14.50873 | 85° | 108km/h | 10752m | 4.3m/s | -47.3°C | 52.2% | 0hPa | 2.9V | 00:00:00 | 00:58:57 | 00:00:00 | |
| OM5KV | 2026-08-31 02:47:45 | 48.33876 | 14.50794 | 81° | 104km/h | 10742m | 4.5m/s | -47.3°C | 46.9% | 0hPa | 2.7V | 00:00:00 | 00:00:00 | 00:00:00 | |
| OM5KV | 2026-08-31 02:47:42 | 48.33863 | 14.50674 | 83° | 111km/h | 10727m | 4.4m/s | -47.2°C | 47.7% | 0hPa | 2.7V | 00:00:00 | 00:00:00 | 00:00:00 | |
| OE5WHR-10 | 2026-08-31 02:47:41 | 48.33856 | 14.50590 | 83° | 104km/h | 10718m | 5.5m/s | -47.1°C | 53.8% | 0hPa | 2.7V | 00:00:00 | 00:00:00 | 00:00:00 | |
| OE5FHM-15 | 2026-08-31 02:47:39 | 48.33851 | 14.50508 | 85° | 102km/h | 10708m | 3.7m/s | -47.0°C | 54.8% | 0hPa | 2.7V | 00:00:00 | 00:58:48 | 08:30:00 | |
| S52SK | 2026-08-31 02:47:38 | 48.33850 | 14.50508 | 86° | 108km/h | 10708m | 3.7m/s | -47.0°C | 48.9% | 0hPa | 2.9V | 00:00:00 | 00:00:00 | 00:00:00 | |
| DO3MHA-12 | 2026-08-31 02:47:37 | 48.33846 | 14.50426 | 86° | 100km/h | 10698m | 4.2m/s | -46.9°C | 55.1% | 0hPa | 2.9V | 00:00:00 | 00:58:46 | 00:00:00 | |
| OE5DXL-15 | 2026-08-31 02:47:36 | 48.33843 | 14.50386 | 86° | 102km/h | 10693m | 5.2m/s | -46.9°C | 54.8% | 0hPa | 2.9V | 00:00:00 | 00:00:00 | 00:00:00 | |
| OE5MMP-10 | 2026-08-31 02:47:35 | 48.33842 | 14.50347 | 86° | 100km/h | 10688m | 4.3m/s | -46.8°C | 55.0% | 0hPa | 2.7V | 00:00:00 | 00:58:44 | 08:30:00 | |
| PG1ADW-2 | 2026-08-31 02:47:33 | 48.33836 | 14.50270 | 82° | 102km/h | 10679m | 3.9m/s | -46.8°C | 54.1% | 0hPa | 2.7V | 00:00:00 | 00:00:00 | 00:00:00 | |
| OE5DRO-10 | 2026-08-31 02:47:29 | 48.33821 | 14.50125 | 81° | 104km/h | 10654m | 5.4m/s | -46.5°C | 52.8% | 0hPa | 2.7V | 00:00:00 | 00:00:00 | 00:00:00 | |
| OM5KV | 2026-08-31 02:47:28 | 48.33821 | 14.50125 | 81° | 100km/h | 10654m | 5.4m/s | -46.6°C | 47.1% | 0hPa | 2.7V | 00:00:00 | 00:00:00 | 00:00:00 | |
| DO3MHA-12 | 2026-08-31 02:47:27 | 48.33811 | 14.50047 | 80° | 104km/h | 10643m | 4.6m/s | -46.5°C | 53.3% | 0hPa | 2.7V | 00:00:00 | 00:58:36 | 00:00:00 | |
| OE5MMP-10 | 2026-08-31 02:47:25 | 48.33802 | 14.49967 | 83° | 102km/h | 10633m | 4.6m/s | -46.4°C | 53.6% | 0hPa | 2.7V | 00:00:00 | 00:58:34 | 00:00:00 | |
| OM5KV | 2026-08-31 02:47:24 | 48.33802 | 14.49967 | 83° | 108km/h | 10633m | 4.6m/s | -46.4°C | 47.8% | 0hPa | 2.7V | 00:00:00 | 00:00:00 | 00:00:00 | |
| DB0NH | 2026-08-31 02:47:22 | 48.33792 | 14.49849 | 84° | 102km/h | 10618m | 4.9m/s | 0°C | 0% | 0hPa | 2.7V | 00:00:00 | 00:58:31 | 00:00:00 | |
| OE5WHR-10 | 2026-08-31 02:47:20 | 48.33786 | 14.49773 | 82° | 102km/h | 10608m | 6.2m/s | -46.2°C | 53.4% | 0hPa | 2.7V | 00:00:00 | 00:58:29 | 00:00:00 | |
| OM5KV | 2026-08-31 02:47:19 | 48.33781 | 14.49736 | 81° | 100km/h | 10602m | 4.5m/s | -46.2°C | 48.0% | 0hPa | 2.7V | 00:00:00 | 00:00:00 | 00:00:00 | |
| DO3MHA-12 | 2026-08-31 02:47:17 | 48.33772 | 14.49661 | 80° | 104km/h | 10593m | 4.7m/s | -46.1°C | 53.6% | 0hPa | 2.7V | 00:00:00 | 00:58:26 | 08:30:00 | |
| OE5MMP-10 | 2026-08-31 02:47:15 | 48.33762 | 14.49583 | 79° | 104km/h | 10584m | 3.5m/s | -46.0°C | 53.6% | 0hPa | 2.9V | 00:00:00 | 00:58:24 | 00:00:00 | |
| PG1ADW-2 | 2026-08-31 02:47:13 | 48.33753 | 14.49504 | 82° | 102km/h | 10574m | 4.3m/s | -45.9°C | 53.5% | 0hPa | 2.9V | 00:00:00 | 00:00:00 | 00:00:00 | |
| OM5KV | 2026-08-31 02:47:12 | 48.33753 | 14.49504 | 82° | 106km/h | 10574m | 4.3m/s | -46.0°C | 47.8% | 0hPa | 2.9V | 00:00:00 | 00:00:00 | 00:00:00 | |
| OE5DRO-10 | 2026-08-31 02:47:10 | 48.33741 | 14.49386 | 82° | 100km/h | 10560m | 4.1m/s | -45.8°C | 54.0% | 0hPa | 2.9V | 00:00:00 | 00:00:00 | 00:00:00 | |
| OE5FHM-15 | 2026-08-31 02:47:07 | 48.33729 | 14.49270 | 81° | 104km/h | 10546m | 5.4m/s | -45.7°C | 54.1% | 0hPa | 2.9V | 00:00:00 | 00:58:16 | 00:00:00 | |
| OE5DXL-15 | 2026-08-31 02:47:06 | 48.33725 | 14.49232 | 80° | 104km/h | 10542m | 4.6m/s | -45.6°C | 54.5% | 0hPa | 2.9V | 00:00:00 | 00:00:00 | 00:00:00 | |
| OE5MMP-10 | 2026-08-31 02:47:05 | 48.33720 | 14.49194 | 80° | 100km/h | 10537m | 4.5m/s | -45.6°C | 54.5% | 0hPa | 2.9V | 00:00:00 | 00:58:14 | 00:00:00 | |
| OE3OSB-13 | 2026-08-31 02:47:04 | 48.33716 | 14.49156 | 80° | 100km/h | 10532m | 5.7m/s | -45.6°C | 48.8% | -1.0hPa | 2.9V | 00:00:00 | 00:00:00 | 00:00:00 | |
| OM5KV | 2026-08-31 02:47:01 | 48.33706 | 14.49081 | 79° | 99km/h | 10522m | 4.9m/s | -45.5°C | 49.5% | 0hPa | 2.9V | 00:00:00 | 00:00:00 | 00:00:00 | |
| DL6DJ-15 | 2026-08-31 02:47:00 | 48.33677 | 14.48859 | 83° | 100km/h | 10491m | 6.2m/s | 0°C | -1.0% | -1.0hPa | 2.9V | 00:00:00 | 00:00:00 | 00:00:00 | |
| OM5KV | 2026-08-31 02:46:59 | 48.33695 | 14.49008 | 79° | 99km/h | 10512m | 4.8m/s | -45.4°C | 49.9% | 0hPa | 2.9V | 00:00:00 | 00:00:00 | 00:00:00 | |
| DO3MHA-12 | 2026-08-31 02:46:57 | 48.33680 | 14.48897 | 82° | 104km/h | 10497m | 5.7m/s | -45.3°C | 54.5% | 0hPa | 2.9V | 00:00:00 | 00:58:06 | 00:00:00 | |
| OE5MMP-10 | 2026-08-31 02:46:55 | 48.33674 | 14.48821 | 84° | 106km/h | 10485m | 5.7m/s | -45.2°C | 54.6% | 0hPa | 2.9V | 00:00:00 | 00:58:04 | 00:00:00 | |
| OE3JTB-15 | 2026-08-31 02:46:53 | 48.33667 | 14.48745 | 81° | 108km/h | 10474m | 3.4m/s | -45.1°C | 54.7% | 0hPa | 2.9V | 00:00:00 | 00:58:02 | 00:00:00 | |
| DB0NH | 2026-08-31 02:46:52 | 48.33662 | 14.48707 | 81° | 108km/h | 10470m | 6.2m/s | 0°C | 0% | 0hPa | 2.9V | 00:00:00 | 00:58:01 | 00:00:00 | |
| OE5DRO-10 | 2026-08-31 02:46:51 | 48.33658 | 14.48668 | 79° | 108km/h | 10464m | 5.6m/s | -45.0°C | 53.4% | 0hPa | 2.9V | 00:00:00 | 00:00:00 | 00:00:00 | |
| DO3MHA-12 | 2026-08-31 02:46:47 | 48.33634 | 14.48507 | 79° | 106km/h | 10441m | 4.7m/s | -44.8°C | 52.8% | 0hPa | 2.9V | 00:00:00 | 00:57:56 | 00:00:00 | |
| OE5MMP-10 | 2026-08-31 02:46:45 | 48.33623 | 14.48426 | 78° | 106km/h | 10432m | 4.6m/s | -44.7°C | 51.8% | 0hPa | 2.9V | 00:00:00 | 00:57:54 | 00:00:00 | |
| OM5KV | 2026-08-31 02:46:44 | 48.33623 | 14.48426 | 79° | 108km/h | 10432m | 4.7m/s | -44.7°C | 46.4% | 0hPa | 2.9V | 00:00:00 | 00:00:00 | 00:00:00 | |
| OE5WHR-10 | 2026-08-31 02:46:38 | 48.33582 | 14.48154 | 79° | 108km/h | 10399m | 3.7m/s | -44.4°C | 51.9% | 0hPa | 2.9V | 00:00:00 | 00:00:00 | 00:00:00 | |
| OE5FHM-15 | 2026-08-31 02:46:37 | 48.33577 | 14.48114 | 79° | 110km/h | 10395m | 3.4m/s | -44.4°C | 51.8% | 0hPa | 2.9V | 00:00:00 | 00:57:46 | 00:00:00 | |
| OE5DXL-15 | 2026-08-31 02:46:36 | 48.33571 | 14.48074 | 78° | 110km/h | 10391m | 4.3m/s | -44.3°C | 51.6% | 0hPa | 2.9V | 00:00:00 | 00:00:00 | 00:00:00 | |
| OE5MMP-10 | 2026-08-31 02:46:35 | 48.33566 | 14.48034 | 79° | 108km/h | 10387m | 4.7m/s | -44.3°C | 51.7% | 0hPa | 2.9V | 00:00:00 | 00:57:44 | 00:00:00 | |
| PG1ADW-2 | 2026-08-31 02:46:33 | 48.33555 | 14.47954 | 80° | 108km/h | 10378m | 4.6m/s | -44.2°C | 51.3% | 0hPa | 2.9V | 00:00:00 | 00:00:00 | 00:00:00 | |
| OE5DRO-10 | 2026-08-31 02:46:32 | 48.33550 | 14.47913 | 80° | 108km/h | 10374m | 4.3m/s | -44.2°C | 51.0% | 0hPa | 2.9V | 00:00:00 | 00:00:00 | 08:30:00 | |
| OM5KV | 2026-08-31 02:46:31 | 48.33550 | 14.47913 | 80° | 110km/h | 10374m | 4.3m/s | -44.2°C | 45.8% | 0hPa | 2.9V | 00:00:00 | 00:00:00 | 00:00:00 | |
| DO3MHA-12 | 2026-08-31 02:46:27 | 48.33525 | 14.47713 | 78° | 110km/h | 10349m | 6.6m/s | -43.9°C | 49.3% | 0hPa | 2.9V | 00:00:00 | 00:57:36 | 00:00:00 | |
| S52SK | 2026-08-31 02:46:26 | 48.33525 | 14.47713 | 78° | 108km/h | 10349m | 6.6m/s | -44.0°C | 44.3% | 0hPa | 2.9V | 00:00:00 | 00:00:00 | 00:00:00 | |
| OE5MMP-10 | 2026-08-31 02:46:25 | 48.33513 | 14.47632 | 78° | 108km/h | 10337m | 5.7m/s | -43.8°C | 49.1% | 0hPa | 2.9V | 00:00:00 | 00:57:34 | 00:00:00 | |
| OE3JTB-15 | 2026-08-31 02:46:23 | 48.33501 | 14.47550 | 78° | 113km/h | 10326m | 4.2m/s | -43.7°C | 49.0% | 0hPa | 2.9V | 00:00:00 | 00:00:00 | 00:00:00 | |
| DB0NH | 2026-08-31 02:46:22 | 48.33495 | 14.47509 | 78° | 113km/h | 10321m | 5.9m/s | 0°C | 0% | 0hPa | 2.9V | 00:00:00 | 00:57:31 | 00:00:00 | |
| OM5KV | 2026-08-31 02:46:21 | 48.33495 | 14.47509 | 79° | 110km/h | 10321m | 5.9m/s | -43.7°C | 43.8% | 0hPa | 2.9V | 00:00:00 | 00:00:00 | 00:00:00 | |
| OM5KV | 2026-08-31 02:46:20 | 48.33489 | 14.47469 | 80° | 110km/h | 10316m | 5.0m/s | -43.7°C | 43.7% | 0hPa | 2.9V | 00:00:00 | 00:00:00 | 00:00:00 | |
| OE5WHR-10 | 2026-08-31 02:46:17 | 48.33469 | 14.47310 | 80° | 113km/h | 10294m | 5.3m/s | -43.5°C | 49.5% | 0hPa | 2.9V | 00:00:00 | 00:57:26 | 00:00:00 | |
| OE5MMP-10 | 2026-08-31 02:46:15 | 48.33458 | 14.47230 | 78° | 113km/h | 10283m | 5.8m/s | -43.4°C | 49.9% | 0hPa | 2.9V | 00:00:00 | 00:57:24 | 00:00:00 | |
| PG1ADW-2 | 2026-08-31 02:46:13 | 48.33446 | 14.47148 | 78° | 115km/h | 10271m | 6.1m/s | -43.3°C | 50.4% | 0hPa | 2.9V | 00:00:00 | 00:00:00 | 00:00:00 | |
| OM5KV | 2026-08-31 02:46:10 | 48.33434 | 14.47063 | 79° | 117km/h | 10260m | 5.7m/s | -43.3°C | 46.6% | 0hPa | 2.9V | 00:00:00 | 00:00:00 | 00:00:00 | |
| DO3MHA-12 | 2026-08-31 02:46:07 | 48.33409 | 14.46895 | 79° | 115km/h | 10238m | 6.8m/s | 0°C | 0% | 0hPa | 2.9V | 00:00:00 | 00:57:16 | 00:00:00 | |
| OE5DXL-15 | 2026-08-31 02:46:06 | 48.33403 | 14.46853 | 80° | 111km/h | 10231m | 7.2m/s | -43.0°C | 52.9% | 0hPa | 2.9V | 00:00:00 | 00:00:00 | 00:00:00 | |
| OE5MMP-10 | 2026-08-31 02:46:05 | 48.33398 | 14.46809 | 80° | 115km/h | 10225m | 4.6m/s | -43.0°C | 53.8% | 0hPa | 2.7V | 00:00:00 | 00:57:14 | 08:30:00 | |
| OM5KV | 2026-08-31 02:46:04 | 48.33398 | 14.46809 | 81° | 117km/h | 10225m | 4.7m/s | -43.0°C | 48.6% | 0hPa | 2.9V | 00:00:00 | 00:00:00 | 00:00:00 | |
| OE5HKT-10 | 2026-08-31 02:46:02 | 48.33380 | 14.46681 | 79° | 111km/h | 10207m | 7.3m/s | -42.8°C | 55.4% | 0hPa | 2.9V | 00:00:00 | 00:57:11 | 00:00:00 | |
| OM5KV | 2026-08-31 02:45:59 | 48.33369 | 14.46597 | 80° | 115km/h | 10194m | 7.8m/s | -42.8°C | 51.3% | 0hPa | 2.9V | 00:00:00 | 00:00:00 | 00:00:00 | |
| OM5KV | 2026-08-31 02:45:58 | 48.33358 | 14.46512 | 79° | 115km/h | 10179m | 8.0m/s | -42.7°C | 53.8% | 0hPa | 2.9V | 00:00:00 | 00:00:00 | 00:00:00 | |
| DO3MHA-12 | 2026-08-31 02:45:57 | 48.33351 | 14.46469 | 78° | 113km/h | 10172m | 6.7m/s | -42.6°C | 60.4% | 0hPa | 2.9V | 00:00:00 | 00:57:06 | 00:00:00 | |
| OE5WHR-10 | 2026-08-31 02:45:56 | 48.33345 | 14.46427 | 78° | 110km/h | 10166m | 5.3m/s | -42.6°C | 61.2% | 0hPa | 2.9V | 00:00:00 | 00:00:00 | 00:00:00 | |
| OE5MMP-10 | 2026-08-31 02:45:55 | 48.33339 | 14.46384 | 78° | 113km/h | 10160m | 6.8m/s | -42.5°C | 61.2% | 0hPa | 2.7V | 00:00:00 | 00:57:04 | 00:00:00 | |
| OE5DRO-10 | 2026-08-31 02:45:54 | 48.33332 | 14.46340 | 78° | 110km/h | 10153m | 5.7m/s | -42.5°C | 62.0% | 0hPa | 2.7V | 00:00:00 | 00:00:00 | 00:00:00 | |
| PG1ADW-2 | 2026-08-31 02:45:53 | 48.33326 | 14.46297 | 78° | 110km/h | 10147m | 5.5m/s | -42.5°C | 62.4% | 0hPa | 2.7V | 00:00:00 | 00:00:00 | 00:00:00 | |
| DB0NH | 2026-08-31 02:45:52 | 48.33320 | 14.46254 | 79° | 113km/h | 10141m | 6.5m/s | 0°C | 0% | 0hPa | 2.7V | 00:00:00 | 00:57:01 | 00:00:00 | |
| OE3JTB-15 | 2026-08-31 02:45:51 | 48.33314 | 14.46210 | 79° | 111km/h | 10135m | 6.2m/s | -42.4°C | 62.8% | 0hPa | 2.7V | 00:00:00 | 00:00:00 | 00:00:00 | |
| OM5KV | 2026-08-31 02:45:48 | 48.33303 | 14.46127 | 80° | 110km/h | 10123m | 6.3m/s | -42.3°C | 58.2% | 0hPa | 2.7V | 00:00:00 | 00:00:00 | 00:00:00 | |
| DO3MHA-12 | 2026-08-31 02:45:47 | 48.33293 | 14.46047 | 81° | 106km/h | 10111m | 5.3m/s | -42.2°C | 64.4% | 0hPa | 2.7V | 00:00:00 | 00:56:56 | 08:30:00 | |
| OM5KV | 2026-08-31 02:45:46 | 48.33293 | 14.46047 | 81° | 108km/h | 10111m | 5.3m/s | -42.2°C | 58.8% | 0hPa | 2.7V | 00:00:00 | 00:00:00 | 00:00:00 | |
| OE5MMP-10 | 2026-08-31 02:45:45 | 48.33283 | 14.45968 | 79° | 106km/h | 10099m | 5.3m/s | -42.1°C | 65.0% | 0hPa | 2.7V | 00:00:00 | 00:56:54 | 00:00:00 | |
| OM5KV | 2026-08-31 02:45:42 | 48.33272 | 14.45892 | 78° | 104km/h | 10088m | 5.2m/s | -42.0°C | 59.8% | 0hPa | 2.7V | 00:00:00 | 00:00:00 | 00:00:00 | |
| OE5HKT-10 | 2026-08-31 02:45:41 | 48.33259 | 14.45814 | 75° | 110km/h | 10077m | 5.2m/s | -41.9°C | 65.9% | 0hPa | 2.7V | 00:00:00 | 00:00:00 | 00:00:00 | |
| OM5KV | 2026-08-31 02:45:39 | 48.33251 | 14.45775 | 75° | 106km/h | 10072m | 5.0m/s | -41.9°C | 59.8% | 0hPa | 2.7V | 00:00:00 | 00:00:00 | 00:00:00 | |
| DO3MHA-12 | 2026-08-31 02:45:37 | 48.33230 | 14.45656 | 75° | 111km/h | 10056m | 5.8m/s | -41.7°C | 63.5% | 0hPa | 2.7V | 00:00:00 | 00:56:46 | 00:00:00 | |
| OE5DXL-15 | 2026-08-31 02:45:36 | 48.33223 | 14.45616 | 75° | 110km/h | 10050m | 5.8m/s | -41.7°C | 62.9% | 0hPa | 2.7V | 00:00:00 | 00:00:00 | 00:00:00 | |
| OE5WHR-10 | 2026-08-31 02:45:35 | 48.33215 | 14.45575 | 76° | 110km/h | 10043m | 6.4m/s | -41.7°C | 62.1% | 0hPa | 2.7V | 00:00:00 | 00:00:00 | 00:00:00 | |
| PG1ADW-2 | 2026-08-31 02:45:33 | 48.33202 | 14.45492 | 77° | 110km/h | 10032m | 5.8m/s | -41.6°C | 60.9% | 0hPa | 2.7V | 00:00:00 | 00:56:42 | 00:00:00 | |
| OE3OSB-13 | 2026-08-31 02:45:31 | 48.33182 | 14.45371 | 76° | 108km/h | 10015m | 4.9m/s | -41.5°C | 53.4% | -1.0hPa | 2.7V | 00:00:00 | 00:00:00 | 00:00:00 | |
| DO3MHA-12 | 2026-08-31 02:45:27 | 48.33163 | 14.45249 | 78° | 110km/h | 9999m | 5.5m/s | -41.3°C | 57.3% | 0hPa | 2.7V | 00:00:00 | 00:56:36 | 00:00:00 | |
| OM5KV | 2026-08-31 02:45:26 | 48.33163 | 14.45249 | 78° | 110km/h | 9999m | 5.6m/s | -41.3°C | 52.2% | 0hPa | 2.7V | 00:00:00 | 00:00:00 | 00:00:00 | |
| OE5MMP-10 | 2026-08-31 02:45:25 | 48.33152 | 14.45168 | 79° | 110km/h | 9988m | 5.0m/s | -41.2°C | 56.3% | 0hPa | 2.7V | 00:00:00 | 00:56:34 | 00:00:00 | |
| OE3JTB-15 | 2026-08-31 02:45:22 | 48.33134 | 14.45043 | 78° | 111km/h | 9970m | 7.1m/s | -41.0°C | 55.8% | 0hPa | 2.7V | 00:00:00 | 00:56:31 | 00:00:00 | |
| OE5HKT-10 | 2026-08-31 02:45:20 | 48.33122 | 14.44961 | 78° | 110km/h | 9957m | 5.6m/s | -40.9°C | 56.2% | 0hPa | 2.7V | 00:00:00 | 00:00:00 | 00:00:00 | |
| DO3MHA-12 | 2026-08-31 02:45:17 | 48.33104 | 14.44841 | 79° | 110km/h | 9940m | 5.1m/s | -40.8°C | 54.7% | 0hPa | 2.7V | 00:00:00 | 00:56:26 | 00:00:00 | |
| OE5DRO-10 | 2026-08-31 02:45:16 | 48.33098 | 14.44801 | 79° | 111km/h | 9934m | 6.0m/s | -40.7°C | 54.1% | 0hPa | 2.7V | 00:00:00 | 00:00:00 | 00:00:00 | |
| OE5MMP-10 | 2026-08-31 02:45:15 | 48.33092 | 14.44760 | 78° | 110km/h | 9928m | 6.0m/s | -40.6°C | 53.7% | 0hPa | 2.7V | 00:00:00 | 00:56:24 | 00:00:00 | |
| OE5WHR-10 | 2026-08-31 02:45:14 | 48.33086 | 14.44720 | 78° | 111km/h | 9922m | 6.7m/s | -40.6°C | 53.6% | 0hPa | 2.7V | 00:00:00 | 00:56:23 | 00:00:00 | |
| PG1ADW-2 | 2026-08-31 02:45:13 | 48.33081 | 14.44679 | 79° | 111km/h | 9915m | 5.8m/s | -40.5°C | 53.8% | 0hPa | 2.7V | 00:00:00 | 00:00:00 | 00:00:00 | |
| OM5KV | 2026-08-31 02:45:10 | 48.33070 | 14.44594 | 80° | 113km/h | 9904m | 4.5m/s | -40.5°C | 49.6% | 0hPa | 2.7V | 00:00:00 | 00:00:00 | 00:00:00 | |
| OE5FHM-15 | 2026-08-31 02:45:07 | 48.33048 | 14.44432 | 78° | 113km/h | 9885m | 5.0m/s | -40.3°C | 54.6% | 0hPa | 2.7V | 00:00:00 | 00:56:16 | 00:00:00 | |
| OE5DXL-15 | 2026-08-31 02:45:06 | 48.33042 | 14.44392 | 77° | 113km/h | 9879m | 5.4m/s | -40.2°C | 54.9% | 0hPa | 2.7V | 00:00:00 | 00:00:00 | 00:00:00 | |
| OE5MMP-10 | 2026-08-31 02:45:05 | 48.33035 | 14.44351 | 76° | 113km/h | 9874m | 4.6m/s | -40.2°C | 55.0% | 0hPa | 2.7V | 00:00:00 | 00:56:14 | 00:00:00 | |
| OM5KV | 2026-08-31 02:45:04 | 48.33035 | 14.44351 | 77° | 110km/h | 9874m | 4.7m/s | -40.2°C | 50.2% | 0hPa | 2.7V | 00:00:00 | 00:00:00 | 00:00:00 | |
| OE3OSB-13 | 2026-08-31 02:45:00 | 48.32997 | 14.44100 | 77° | 110km/h | 9837m | 7.7m/s | -39.8°C | 47.4% | -1.0hPa | 2.7V | 00:00:00 | 00:00:00 | 00:00:00 | |
| OE5HKT-10 | 2026-08-31 02:44:59 | 48.32997 | 14.44100 | 78° | 113km/h | 9837m | 7.6m/s | -39.8°C | 52.1% | 0hPa | 2.7V | 00:00:00 | 00:56:08 | 00:00:00 | |
| OM5KV | 2026-08-31 02:44:58 | 48.32997 | 14.44117 | 78° | 110km/h | 9837m | 7.7m/s | -39.8°C | 47.5% | 0hPa | 2.7V | 00:00:00 | 00:00:00 | 00:00:00 | |
| DO3MHA-12 | 2026-08-31 02:44:57 | 48.32986 | 14.44018 | 78° | 113km/h | 9822m | 6.9m/s | -39.6°C | 51.9% | 0hPa | 2.7V | 00:00:00 | 00:56:06 | 00:00:00 | |
| OE5MMP-10 | 2026-08-31 02:44:55 | 48.32973 | 14.43933 | 78° | 113km/h | 9809m | 6.8m/s | -39.5°C | 52.0% | 0hPa | 2.7V | 00:00:00 | 00:56:04 | 00:00:00 | |
| OE5WHR-10 | 2026-08-31 02:44:53 | 48.32961 | 14.43849 | 79° | 113km/h | 9796m | 4.9m/s | -39.4°C | 52.3% | 0hPa | 2.7V | 00:00:00 | 00:00:00 | 00:00:00 | |
| OE3JTB-15 | 2026-08-31 02:44:52 | 48.32955 | 14.43806 | 79° | 113km/h | 9790m | 6.5m/s | -39.4°C | 51.4% | 0hPa | 2.7V | 00:00:00 | 00:00:00 | 08:30:00 | |
| OM5KV | 2026-08-31 02:44:51 | 48.32956 | 14.43806 | 79° | 115km/h | 9790m | 6.5m/s | -39.4°C | 47.0% | 0hPa | 2.7V | 00:00:00 | 00:00:00 | 00:00:00 | |
| OM5KV | 2026-08-31 02:44:49 | 48.32943 | 14.43722 | 79° | 111km/h | 9777m | 7.2m/s | -39.3°C | 46.5% | 0hPa | 2.7V | 00:00:00 | 00:00:00 | 00:00:00 | |
| DO3MHA-12 | 2026-08-31 02:44:47 | 48.32926 | 14.43597 | 78° | 113km/h | 9758m | 6.5m/s | -39.1°C | 50.8% | 0hPa | 2.7V | 00:00:00 | 00:55:56 | 00:00:00 | |
| OE5MMP-10 | 2026-08-31 02:44:45 | 48.32914 | 14.43514 | 80° | 111km/h | 9747m | 5.6m/s | -39.0°C | 50.7% | 0hPa | 2.9V | 00:00:00 | 00:55:54 | 00:00:00 | |
| OM5KV | 2026-08-31 02:44:40 | 48.32893 | 14.43346 | 80° | 111km/h | 9724m | 5.8m/s | -38.8°C | 46.1% | 0hPa | 2.9V | 00:00:00 | 00:00:00 | 00:00:00 | |
| OE5HKT-10 | 2026-08-31 02:44:38 | 48.32876 | 14.43221 | 78° | 111km/h | 9708m | 5.0m/s | -38.6°C | 50.0% | 0hPa | 2.9V | 00:00:00 | 00:00:00 | 08:30:00 | |
| OE5FHM-15 | 2026-08-31 02:44:37 | 48.32870 | 14.43179 | 78° | 111km/h | 9702m | 5.8m/s | -38.6°C | 49.8% | 0hPa | 2.9V | 00:00:00 | 00:55:46 | 00:00:00 | |
| OE5DXL-15 | 2026-08-31 02:44:36 | 48.32865 | 14.43138 | 79° | 111km/h | 9697m | 5.6m/s | -38.5°C | 49.6% | 0hPa | 2.9V | 00:00:00 | 00:00:00 | 08:30:00 | |
| OE5MMP-10 | 2026-08-31 02:44:35 | 48.32859 | 14.43095 | 79° | 111km/h | 9691m | 5.8m/s | -38.5°C | 49.6% | 0hPa | 2.7V | 00:00:00 | 00:55:44 | 08:30:00 | |
| PG1ADW-2 | 2026-08-31 02:44:33 | 48.32847 | 14.43011 | 78° | 113km/h | 9679m | 5.7m/s | -38.3°C | 49.0% | 0hPa | 2.9V | 00:00:00 | 00:00:00 | 00:00:00 | |
| OE5WHR-10 | 2026-08-31 02:44:32 | 48.32842 | 14.42969 | 80° | 113km/h | 9673m | 5.6m/s | -38.3°C | 48.9% | 0hPa | 2.9V | 00:00:00 | 00:00:00 | 00:00:00 | |
| OM5KV | 2026-08-31 02:44:28 | 48.32826 | 14.42843 | 79° | 110km/h | 9656m | 6.3m/s | -38.2°C | 44.2% | 0hPa | 2.9V | 00:00:00 | 00:00:00 | 00:00:00 | |
| DO3MHA-12 | 2026-08-31 02:44:27 | 48.32815 | 14.42762 | 80° | 111km/h | 9644m | 6.0m/s | -38.0°C | 47.6% | 0hPa | 2.9V | 00:00:00 | 00:55:36 | 00:00:00 | |
| OE5MMP-10 | 2026-08-31 02:44:25 | 48.32804 | 14.42679 | 78° | 113km/h | 9632m | 5.2m/s | -37.9°C | 47.3% | 0hPa | 2.9V | 00:00:00 | 00:55:34 | 00:00:00 | |
| OM5KV | 2026-08-31 02:44:24 | 48.32804 | 14.42679 | 79° | 110km/h | 9632m | 5.3m/s | -38.0°C | 43.2% | 0hPa | 2.9V | 00:00:00 | 00:00:00 | 00:00:00 | |
| OE5DRO-10 | 2026-08-31 02:44:19 | 48.32771 | 14.42429 | 80° | 113km/h | 9598m | 5.5m/s | -37.6°C | 45.6% | 0hPa | 2.9V | 00:00:00 | 00:00:00 | 00:00:00 | |
| OE5HKT-10 | 2026-08-31 02:44:17 | 48.32760 | 14.42344 | 78° | 111km/h | 9587m | 5.7m/s | -37.5°C | 44.3% | 0hPa | 2.9V | 00:00:00 | 00:00:00 | 00:00:00 | |
| OE5MMP-10 | 2026-08-31 02:44:15 | 48.32749 | 14.42259 | 79° | 111km/h | 9576m | 6.0m/s | -37.5°C | 43.0% | 0hPa | 2.9V | 00:00:00 | 00:55:24 | 00:00:00 | |
| PG1ADW-2 | 2026-08-31 02:44:13 | 48.32737 | 14.42173 | 80° | 111km/h | 9564m | 4.9m/s | -37.4°C | 41.7% | 0hPa | 2.9V | 00:00:00 | 00:55:22 | 00:00:00 | |
| OM5KV | 2026-08-31 02:44:12 | 48.32737 | 14.42173 | 80° | 115km/h | 9564m | 5.0m/s | -37.4°C | 38.0% | 0hPa | 2.9V | 00:00:00 | 00:00:00 | 00:00:00 | |
| OE5WHR-10 | 2026-08-31 02:44:11 | 48.32726 | 14.42089 | 79° | 110km/h | 9554m | 5.7m/s | -37.3°C | 39.9% | 0hPa | 2.9V | 00:00:00 | 00:55:20 | 00:00:00 | |
| S52SK | 2026-08-31 02:44:08 | 48.32715 | 14.42008 | 80° | 111km/h | 9541m | 6.3m/s | -37.2°C | 34.2% | 0hPa | 2.9V | 00:00:00 | 00:00:00 | 00:00:00 | |
| DO3MHA-12 | 2026-08-31 02:44:07 | 48.32703 | 14.41925 | 79° | 111km/h | 9530m | 6.0m/s | -37.1°C | 36.3% | 0hPa | 2.9V | 00:00:00 | 00:55:16 | 00:00:00 | |
| OE5DXL-15 | 2026-08-31 02:44:06 | 48.32698 | 14.41885 | 79° | 110km/h | 9524m | 5.7m/s | -37.1°C | 35.6% | 0hPa | 2.9V | 00:00:00 | 00:00:00 | 00:00:00 | |
| OE5MMP-10 | 2026-08-31 02:44:05 | 48.32692 | 14.41843 | 80° | 111km/h | 9518m | 6.2m/s | -37.0°C | 34.7% | 0hPa | 2.9V | 00:00:00 | 00:55:14 | 00:00:00 | |
| S52SK | 2026-08-31 02:44:03 | 48.32687 | 14.41801 | 80° | 113km/h | 9512m | 5.1m/s | -37.0°C | 30.7% | 0hPa | 2.9V | 00:00:00 | 00:00:00 | 00:00:00 | |
| OE3OSB-13 | 2026-08-31 02:43:58 | 48.32652 | 14.41509 | 79° | 110km/h | 9471m | 5.6m/s | -36.7°C | 27.7% | -1.0hPa | 2.9V | 00:00:00 | 00:00:00 | 00:00:00 | |
| DO3MHA-12 | 2026-08-31 02:43:57 | 48.32652 | 14.41509 | 80° | 110km/h | 9471m | 5.5m/s | -36.7°C | 30.9% | 0hPa | 2.9V | 00:00:00 | 00:55:06 | 00:00:00 | |
| OE5HKT-10 | 2026-08-31 02:43:56 | 48.32647 | 14.41468 | 79° | 108km/h | 9466m | 5.7m/s | -36.6°C | 30.8% | 0hPa | 2.9V | 00:00:00 | 00:55:05 | 00:00:00 | |
| OE5MMP-10 | 2026-08-31 02:43:55 | 48.32642 | 14.41427 | 78° | 108km/h | 9460m | 5.8m/s | -36.6°C | 30.6% | 0hPa | 2.9V | 00:00:00 | 00:55:04 | 00:00:00 | |
| PG1ADW-2 | 2026-08-31 02:43:53 | 48.32630 | 14.41348 | 78° | 108km/h | 9448m | 6.1m/s | -36.5°C | 30.0% | 0hPa | 2.9V | 00:00:00 | 00:00:00 | 08:30:00 | |
| OE3JTB-15 | 2026-08-31 02:43:51 | 48.32618 | 14.41267 | 77° | 108km/h | 9436m | 5.5m/s | -36.4°C | 29.5% | 0hPa | 2.7V | 00:00:00 | 00:00:00 | 00:00:00 | |
| OE5WHR-10 | 2026-08-31 02:43:50 | 48.32612 | 14.41227 | 78° | 106km/h | 9430m | 6.2m/s | -36.4°C | 28.9% | 0hPa | 2.7V | 00:00:00 | 00:00:00 | 08:30:00 | |
| OM5KV | 2026-08-31 02:43:49 | 48.32612 | 14.41227 | 78° | 108km/h | 9430m | 6.2m/s | -36.4°C | 26.0% | 0hPa | 2.9V | 00:00:00 | 00:00:00 | 00:00:00 | |
| DO3MHA-12 | 2026-08-31 02:43:47 | 48.32596 | 14.41105 | 80° | 108km/h | 9413m | 5.7m/s | -36.2°C | 27.8% | 0hPa | 2.9V | 00:00:00 | 00:54:56 | 00:00:00 | |
| OE5MMP-10 | 2026-08-31 02:43:45 | 48.32586 | 14.41025 | 81° | 106km/h | 9402m | 5.2m/s | -36.1°C | 27.3% | 0hPa | 2.9V | 00:00:00 | 00:54:54 | 00:00:00 | |
| OM5KV | 2026-08-31 02:43:44 | 48.32587 | 14.41025 | 81° | 106km/h | 9402m | 5.2m/s | -36.2°C | 24.6% | 0hPa | 2.9V | 00:00:00 | 00:00:00 | 00:00:00 | |
| OE5DRO-10 | 2026-08-31 02:43:41 | 48.32565 | 14.40867 | 79° | 104km/h | 9379m | 6.5m/s | -35.9°C | 26.3% | 0hPa | 2.9V | 00:00:00 | 00:00:00 | 08:30:00 | |
| OM5KV | 2026-08-31 02:43:39 | 48.32560 | 14.40827 | 80° | 108km/h | 9373m | 5.4m/s | -36.0°C | 23.6% | 0hPa | 2.9V | 00:00:00 | 00:00:00 | 00:00:00 | |
| DO3MHA-12 | 2026-08-31 02:43:37 | 48.32543 | 14.40708 | 79° | 104km/h | 9357m | 6.4m/s | -35.8°C | 25.1% | 0hPa | 2.9V | 00:00:00 | 00:54:46 | 00:00:00 | |
| OE5DXL-15 | 2026-08-31 02:43:36 | 48.32538 | 14.40668 | 80° | 104km/h | 9351m | 5.1m/s | -35.8°C | 25.2% | 0hPa | 2.9V | 00:00:00 | 00:00:00 | 00:00:00 | |
| OE5MMP-10 | 2026-08-31 02:43:35 | 48.32533 | 14.40629 | 79° | 104km/h | 9346m | 4.6m/s | -35.8°C | 25.2% | 0hPa | 2.9V | 00:00:00 | 00:54:44 | 00:00:00 | |
| OE5FHM-15 | 2026-08-31 02:43:34 | 48.32528 | 14.40591 | 78° | 106km/h | 9341m | 6.2m/s | -35.7°C | 24.9% | 0hPa | 2.7V | 00:00:00 | 00:54:43 | 00:00:00 | |
| PG1ADW-2 | 2026-08-31 02:43:33 | 48.32522 | 14.40553 | 77° | 102km/h | 9335m | 4.6m/s | -35.7°C | 25.0% | 0hPa | 2.7V | 00:00:00 | 00:00:00 | 00:00:00 | |
| OE5WHR-10 | 2026-08-31 02:43:29 | 48.32497 | 14.40399 | 77° | 104km/h | 9314m | 5.5m/s | -35.5°C | 24.8% | 0hPa | 2.7V | 00:00:00 | 00:00:00 | 00:00:00 | |
| OM5KV | 2026-08-31 02:43:28 | 48.32497 | 14.40399 | 78° | 104km/h | 9314m | 5.5m/s | -35.6°C | 22.3% | 0hPa | 2.7V | 00:00:00 | 00:00:00 | 00:00:00 | |
| DO3MHA-12 | 2026-08-31 02:43:27 | 48.32486 | 14.40322 | 80° | 102km/h | 9303m | 4.7m/s | -35.4°C | 24.7% | 0hPa | 2.7V | 00:00:00 | 00:54:36 | 00:00:00 | |
| OE3OSB-13 | 2026-08-31 02:43:26 | 48.32481 | 14.40282 | 78° | 104km/h | 9298m | 5.1m/s | -35.4°C | 22.1% | -1.0hPa | 2.7V | 00:00:00 | 00:00:00 | 00:00:00 | |
| OE5MMP-10 | 2026-08-31 02:43:25 | 48.32476 | 14.40243 | 79° | 102km/h | 9293m | 5.7m/s | -35.3°C | 24.9% | 0hPa | 2.7V | 00:00:00 | 00:54:34 | 00:00:00 | |
| OM5KV | 2026-08-31 02:43:23 | 48.32471 | 14.40205 | 80° | 102km/h | 9288m | 4.9m/s | -35.3°C | 22.4% | 0hPa | 2.7V | 00:00:00 | 00:00:00 | 00:00:00 | |
| OE5DRO-10 | 2026-08-31 02:43:22 | 48.32461 | 14.40129 | 79° | 106km/h | 9277m | 6.4m/s | -35.2°C | 24.6% | 0hPa | 2.7V | 00:00:00 | 00:00:00 | 00:00:00 | |
| OM5KV | 2026-08-31 02:43:18 | 48.32445 | 14.40017 | 81° | 100km/h | 9258m | 7.5m/s | -35.0°C | 21.6% | 0hPa | 2.7V | 00:00:00 | 00:00:00 | 00:00:00 | |
| DO3MHA-12 | 2026-08-31 02:43:17 | 48.32436 | 14.39941 | 79° | 104km/h | 9245m | 6.4m/s | -34.9°C | 24.0% | 0hPa | 2.7V | 00:00:00 | 00:54:26 | 00:00:00 | |
| OM5KV | 2026-08-31 02:43:16 | 48.32436 | 14.39941 | 80° | 102km/h | 9245m | 6.4m/s | -34.9°C | 21.6% | 0hPa | 2.9V | 00:00:00 | 00:00:00 | 00:00:00 | |
| OE5MMP-10 | 2026-08-31 02:43:15 | 48.32427 | 14.39864 | 82° | 108km/h | 9232m | 7.2m/s | -34.8°C | 24.0% | 0hPa | 2.9V | 00:00:00 | 00:54:24 | 00:00:00 | |
| OE5HKT-10 | 2026-08-31 02:43:14 | 48.32423 | 14.39825 | 80° | 106km/h | 9225m | 5.8m/s | -34.8°C | 23.8% | 0hPa | 2.9V | 00:00:00 | 00:00:00 | 00:00:00 | |
| PG1ADW-2 | 2026-08-31 02:43:13 | 48.32418 | 14.39785 | 79° | 106km/h | 9219m | 6.4m/s | -34.7°C | 24.1% | 0hPa | 2.9V | 00:00:00 | 00:00:00 | 00:00:00 | |
| OM5KV | 2026-08-31 02:43:12 | 48.32418 | 14.39785 | 79° | 108km/h | 9219m | 6.5m/s | -34.8°C | 21.7% | 0hPa | 2.9V | 00:00:00 | 00:00:00 | 00:00:00 | |
| OM5KV | 2026-08-31 02:43:10 | 48.32406 | 14.39708 | 78° | 102km/h | 9206m | 6.4m/s | -34.7°C | 22.1% | 0hPa | 2.9V | 00:00:00 | 00:00:00 | 00:00:00 | |
| OE5WHR-10 | 2026-08-31 02:43:08 | 48.32391 | 14.39590 | 80° | 108km/h | 9189m | 5.4m/s | -34.4°C | 24.5% | 0hPa | 2.9V | 00:00:00 | 00:54:17 | 00:00:00 | |
| DO3MHA-12 | 2026-08-31 02:43:07 | 48.32385 | 14.39547 | 79° | 108km/h | 9183m | 5.3m/s | -34.4°C | 24.2% | 0hPa | 2.9V | 00:00:00 | 00:54:16 | 00:00:00 | |
| OE5DXL-15 | 2026-08-31 02:43:06 | 48.32379 | 14.39503 | 78° | 104km/h | 9178m | 3.8m/s | -34.4°C | 24.2% | 0hPa | 2.9V | 00:00:00 | 00:00:00 | 00:00:00 | |
| OE5MMP-10 | 2026-08-31 02:43:05 | 48.32372 | 14.39460 | 77° | 104km/h | 9174m | 4.6m/s | -34.3°C | 24.1% | 0hPa | 2.9V | 00:00:00 | 00:54:14 | 08:30:00 | |
| OE5FHM-15 | 2026-08-31 02:43:04 | 48.32365 | 14.39417 | 76° | 104km/h | 9170m | 4.3m/s | -34.3°C | 23.8% | 0hPa | 2.9V | 00:00:00 | 00:54:13 | 08:30:00 | |
| OE5DRO-10 | 2026-08-31 02:43:03 | 48.32357 | 14.39376 | 73° | 104km/h | 9165m | 5.7m/s | -34.2°C | 24.1% | 0hPa | 2.9V | 00:00:00 | 00:00:00 | 00:00:00 | |
| OM5KV | 2026-08-31 02:42:59 | 48.32332 | 14.39267 | 73° | 97km/h | 9146m | 6.0m/s | -34.2°C | 21.0% | 0hPa | 2.9V | 00:00:00 | 00:00:00 | 00:00:00 | |
| DO3MHA-12 | 2026-08-31 02:42:57 | 48.32312 | 14.39157 | 76° | 108km/h | 9127m | 7.5m/s | -34.0°C | 23.4% | 0hPa | 2.9V | 00:00:00 | 00:54:06 | 00:00:00 | |
| OE5MMP-10 | 2026-08-31 02:42:55 | 48.32299 | 14.39079 | 77° | 108km/h | 9113m | 7.3m/s | -33.9°C | 24.1% | 0hPa | 2.9V | 00:00:00 | 00:54:04 | 00:00:00 | |
| OE5HKT-10 | 2026-08-31 02:42:53 | 48.32287 | 14.39001 | 78° | 106km/h | 9100m | 5.6m/s | -33.8°C | 25.6% | 0hPa | 2.9V | 00:00:00 | 00:54:02 | 00:00:00 | |
| S52SK | 2026-08-31 02:42:52 | 48.32287 | 14.39001 | 79° | 108km/h | 9100m | 5.7m/s | -33.9°C | 23.2% | 0hPa | 2.9V | 00:00:00 | 00:00:00 | 00:00:00 | |
| DO3MHA-12 | 2026-08-31 02:42:47 | 48.32259 | 14.38758 | 74° | 99km/h | 9066m | 6.4m/s | -33.6°C | 23.5% | 0hPa | 2.9V | 00:00:00 | 00:53:56 | 08:30:00 | |
| OE5MMP-10 | 2026-08-31 02:42:45 | 48.32242 | 14.38684 | 70° | 99km/h | 9054m | 6.2m/s | -33.5°C | 22.8% | 0hPa | 2.9V | 00:00:00 | 00:53:54 | 00:00:00 | |
| OE5DRO-10 | 2026-08-31 02:42:44 | 48.32234 | 14.38649 | 72° | 104km/h | 9047m | 7.2m/s | -33.4°C | 22.6% | 0hPa | 2.9V | 00:00:00 | 00:00:00 | 00:00:00 | |
| OM5KV | 2026-08-31 02:42:42 | 48.32227 | 14.38616 | 74° | 91km/h | 9040m | 6.1m/s | -33.5°C | 20.2% | 0hPa | 2.7V | 00:00:00 | 00:00:00 | 00:00:00 | |
| OM5KV | 2026-08-31 02:42:38 | 48.32198 | 14.38477 | 75° | 102km/h | 9014m | 6.5m/s | -33.3°C | 19.3% | 0hPa | 2.7V | 00:00:00 | 00:00:00 | 00:00:00 | |
| DO3MHA-12 | 2026-08-31 02:42:37 | 48.32185 | 14.38401 | 78° | 108km/h | 9001m | 6.4m/s | -33.2°C | 21.2% | 0hPa | 2.7V | 00:00:00 | 00:53:46 | 00:00:00 | |
| OE5DXL-15 | 2026-08-31 02:42:36 | 48.32179 | 14.38360 | 77° | 108km/h | 8994m | 7.8m/s | -33.1°C | 21.2% | 0hPa | 2.7V | 00:00:00 | 00:00:00 | 00:00:00 | |
| OE5MMP-10 | 2026-08-31 02:42:35 | 48.32172 | 14.38318 | 76° | 108km/h | 8987m | 5.9m/s | -33.1°C | 21.5% | 0hPa | 2.7V | 00:00:00 | 00:53:44 | 00:00:00 | |
| OE5FHM-15 | 2026-08-31 02:42:34 | 48.32165 | 14.38276 | 76° | 108km/h | 8982m | 4.2m/s | -33.1°C | 21.8% | 0hPa | 2.9V | 00:00:00 | 00:53:43 | 00:00:00 | |
| PG1ADW-2 | 2026-08-31 02:42:33 | 48.32158 | 14.38234 | 76° | 106km/h | 8978m | 5.0m/s | -33.1°C | 21.4% | 0hPa | 2.9V | 00:00:00 | 00:00:00 | 00:00:00 | |
| OE5HKT-10 | 2026-08-31 02:42:31 | 48.32144 | 14.38156 | 75° | 104km/h | 8968m | 5.8m/s | -33.0°C | 20.6% | 0hPa | 2.9V | 00:00:00 | 00:00:00 | 00:00:00 | |
| DO3MHA-12 | 2026-08-31 02:42:27 | 48.32120 | 14.38005 | 77° | 104km/h | 8942m | 6.8m/s | -32.9°C | 19.5% | 0hPa | 2.9V | 00:00:00 | 00:53:36 | 00:00:00 | |
| OE5WHR-10 | 2026-08-31 02:42:26 | 48.32114 | 14.37966 | 78° | 108km/h | 8936m | 5.4m/s | -32.8°C | 19.3% | 0hPa | 2.9V | 00:00:00 | 00:00:00 | 00:00:00 | |
| OE5MMP-10 | 2026-08-31 02:42:25 | 48.32108 | 14.37927 | 79° | 104km/h | 8931m | 5.7m/s | -32.8°C | 19.4% | 0hPa | 2.9V | 00:00:00 | 00:53:34 | 00:00:00 | |
| OE3OSB-13 | 2026-08-31 02:42:24 | 48.32103 | 14.37887 | 79° | 106km/h | 8925m | 4.3m/s | -32.9°C | 17.3% | -1.0hPa | 2.9V | 00:00:00 | 00:00:00 | 00:00:00 | |
| OM5KV | 2026-08-31 02:42:21 | 48.32093 | 14.37808 | 80° | 104km/h | 8917m | 5.5m/s | -32.8°C | 17.4% | 0hPa | 2.9V | 00:00:00 | 00:00:00 | 00:00:00 | |
| OM5KV | 2026-08-31 02:42:19 | 48.32083 | 14.37732 | 80° | 102km/h | 8908m | 4.7m/s | -32.8°C | 17.0% | 0hPa | 2.9V | 00:00:00 | 00:00:00 | 00:00:00 | |
| DO3MHA-12 | 2026-08-31 02:42:17 | 48.32067 | 14.37618 | 78° | 113km/h | 8894m | 5.1m/s | -32.7°C | 18.2% | 0hPa | 2.9V | 00:00:00 | 00:53:26 | 00:00:00 | |
| OE5MMP-10 | 2026-08-31 02:42:15 | 48.32055 | 14.37536 | 79° | 111km/h | 8884m | 4.0m/s | -32.6°C | 17.8% | 0hPa | 2.9V | 00:00:00 | 00:53:24 | 00:00:00 | |
| PG1ADW-2 | 2026-08-31 02:42:13 | 48.32045 | 14.37449 | 83° | 110km/h | 8875m | 6.0m/s | -32.5°C | 17.5% | 0hPa | 2.9V | 00:00:00 | 00:00:00 | 00:00:00 | |
| OE5HKT-10 | 2026-08-31 02:42:10 | 48.32036 | 14.37322 | 84° | 110km/h | 8860m | 5.1m/s | -32.4°C | 17.6% | 0hPa | 2.9V | 00:00:00 | 00:00:00 | 00:00:00 | |
| OM5KV | 2026-08-31 02:42:09 | 48.32036 | 14.37322 | 85° | 111km/h | 8860m | 5.1m/s | -32.4°C | 15.7% | 0hPa | 2.9V | 00:00:00 | 00:00:00 | 00:00:00 | |
| OM5KV | 2026-08-31 02:42:08 | 48.32033 | 14.37280 | 85° | 113km/h | 8854m | 5.6m/s | -32.4°C | 15.0% | 0hPa | 2.9V | 00:00:00 | 00:00:00 | 00:00:00 | |
| DO3MHA-12 | 2026-08-31 02:42:07 | 48.32028 | 14.37195 | 87° | 108km/h | 8844m | 5.3m/s | -32.3°C | 17.1% | 0hPa | 2.9V | 00:00:00 | 00:53:16 | 00:00:00 | |
| OE5DRO-10 | 2026-08-31 02:42:06 | 48.32026 | 14.37154 | 87° | 106km/h | 8839m | 4.1m/s | -32.3°C | 17.0% | 0hPa | 2.9V | 00:00:00 | 00:00:00 | 00:00:00 | |
| OE5MMP-10 | 2026-08-31 02:42:05 | 48.32024 | 14.37116 | 84° | 108km/h | 8835m | 3.3m/s | -32.2°C | 16.7% | 0hPa | 2.9V | 00:00:00 | 00:53:14 | 00:00:00 | |
| OE5FHM-15 | 2026-08-31 02:42:04 | 48.32021 | 14.37079 | 81° | 102km/h | 8832m | 4.4m/s | -32.2°C | 16.9% | 0hPa | 2.9V | 00:00:00 | 00:53:13 | 00:00:00 | |
| DO3MHA-12 | 2026-08-31 02:41:57 | 48.31991 | 14.36792 | 84° | 106km/h | 8797m | 3.6m/s | -32.0°C | 16.9% | 0hPa | 2.9V | 00:00:00 | 00:53:06 | 00:00:00 | |
| OE5MMP-10 | 2026-08-31 02:41:55 | 48.31984 | 14.36710 | 83° | 100km/h | 8787m | 6.1m/s | -31.9°C | 15.9% | 0hPa | 2.9V | 00:00:00 | 00:53:04 | 00:00:00 | |
| OE3JTB-15 | 2026-08-31 02:41:54 | 48.31980 | 14.36669 | 81° | 99km/h | 8782m | 5.6m/s | -31.9°C | 16.4% | 0hPa | 2.9V | 00:00:00 | 00:00:00 | 00:00:00 | |
| PG1ADW-2 | 2026-08-31 02:41:53 | 48.31975 | 14.36627 | 79° | 99km/h | 8776m | 5.8m/s | -31.9°C | 16.7% | 0hPa | 2.7V | 00:00:00 | 00:00:00 | 00:00:00 | |
| OE5HKT-10 | 2026-08-31 02:41:49 | 48.31955 | 14.36473 | 82° | 100km/h | 8755m | 4.9m/s | -31.8°C | 17.9% | 0hPa | 2.9V | 00:00:00 | 00:52:58 | 00:00:00 | |
| DO3MHA-12 | 2026-08-31 02:41:47 | 48.31949 | 14.36405 | 84° | 100km/h | 8747m | 3.5m/s | -31.8°C | 18.5% | 0hPa | 2.9V | 00:00:00 | 00:52:56 | 00:00:00 | |
| S52SK | 2026-08-31 02:41:46 | 48.31949 | 14.36405 | 85° | 91km/h | 8747m | 3.5m/s | -31.8°C | 16.6% | 0hPa | 2.9V | 00:00:00 | 00:00:00 | 00:00:00 | |
| OE5MMP-10 | 2026-08-31 02:41:45 | 48.31944 | 14.36334 | 83° | 99km/h | 8740m | 4.0m/s | -31.7°C | 18.3% | 0hPa | 2.9V | 00:00:00 | 00:52:54 | 00:00:00 | |
| OE5WHR-10 | 2026-08-31 02:41:44 | 48.31940 | 14.36295 | 82° | 99km/h | 8736m | 4.0m/s | -31.7°C | 18.2% | 0hPa | 2.9V | 00:00:00 | 00:00:00 | 00:00:00 | |
| S52SK | 2026-08-31 02:41:41 | 48.31930 | 14.36213 | 79° | 113km/h | 8728m | 4.5m/s | -31.7°C | 16.0% | 0hPa | 2.9V | 00:00:00 | 00:00:00 | 00:00:00 | |
| OM5KV | 2026-08-31 02:41:39 | 48.31919 | 14.36134 | 79° | 100km/h | 8716m | 5.9m/s | -31.6°C | 16.4% | 0hPa | 2.9V | 00:00:00 | 00:00:00 | 00:00:00 | |
| DO3MHA-12 | 2026-08-31 02:41:37 | 48.31903 | 14.36032 | 76° | 97km/h | 8701m | 4.5m/s | -31.5°C | 18.2% | 0hPa | 2.9V | 00:00:00 | 00:52:46 | 00:00:00 | |
| OE5DXL-15 | 2026-08-31 02:41:36 | 48.31898 | 14.36001 | 78° | 99km/h | 8696m | 3.6m/s | -31.4°C | 18.5% | 0hPa | 2.9V | 00:00:00 | 00:00:00 | 00:00:00 | |
| OE5MMP-10 | 2026-08-31 02:41:35 | 48.31894 | 14.35969 | 80° | 100km/h | 8692m | 4.4m/s | -31.4°C | 18.6% | 0hPa | 2.9V | 00:00:00 | 00:52:44 | 08:30:00 | |
| OE5FHM-15 | 2026-08-31 02:41:34 | 48.31890 | 14.35935 | 82° | 100km/h | 8688m | 3.5m/s | -31.4°C | 18.1% | 0hPa | 2.9V | 00:00:00 | 00:52:43 | 00:00:00 | |
| PG1ADW-2 | 2026-08-31 02:41:33 | 48.31886 | 14.35898 | 81° | 100km/h | 8684m | 4.3m/s | -31.4°C | 17.8% | 0hPa | 2.9V | 00:00:00 | 00:52:42 | 00:00:00 | |
| OM5KV | 2026-08-31 02:41:29 | 48.31869 | 14.35781 | 77° | 108km/h | 8667m | 6.1m/s | -31.3°C | 15.4% | 0hPa | 2.9V | 00:00:00 | 00:00:00 | 00:00:00 | |
| DO3MHA-12 | 2026-08-31 02:41:27 | 48.31854 | 14.35667 | 82° | 97km/h | 8652m | 3.6m/s | -31.1°C | 16.9% | 0hPa | 2.9V | 00:00:00 | 00:52:36 | 00:00:00 | |
| OE5MMP-10 | 2026-08-31 02:41:25 | 48.31845 | 14.35595 | 77° | 97km/h | 8642m | 4.5m/s | -31.1°C | 17.0% | 0hPa | 2.9V | 00:00:00 | 00:52:34 | 00:00:00 | |
| OE5WHR-10 | 2026-08-31 02:41:23 | 48.31832 | 14.35524 | 75° | 100km/h | 8634m | 3.6m/s | -31.1°C | 16.0% | 0hPa | 2.9V | 00:00:00 | 00:00:00 | 00:00:00 | |
| OE3OSB-13 | 2026-08-31 02:41:22 | 48.31826 | 14.35489 | 76° | 95km/h | 8629m | 5.8m/s | -31.1°C | 14.0% | -1.0hPa | 2.9V | 00:00:00 | 00:00:00 | 00:00:00 | |
| OM5KV | 2026-08-31 02:41:19 | 48.31818 | 14.35418 | 84° | 97km/h | 8620m | 2.9m/s | -31.1°C | 14.2% | 0hPa | 2.9V | 00:00:00 | 00:00:00 | 00:00:00 | |
| DO3MHA-12 | 2026-08-31 02:41:17 | 48.31806 | 14.35308 | 78° | 100km/h | 8609m | 2.7m/s | -30.9°C | 17.3% | 0hPa | 2.9V | 00:00:00 | 00:52:26 | 08:30:00 | |
| OE5MMP-10 | 2026-08-31 02:41:15 | 48.31793 | 14.35233 | 75° | 100km/h | 8603m | 2.9m/s | -30.9°C | 17.1% | 0hPa | 2.9V | 00:00:00 | 00:52:24 | 00:00:00 | |
| PG1ADW-2 | 2026-08-31 02:41:13 | 48.31779 | 14.35153 | 78° | 97km/h | 8598m | 1.9m/s | -30.9°C | 17.4% | 0hPa | 2.9V | 00:00:00 | 00:00:00 | 00:00:00 | |
| OE3JTB-15 | 2026-08-31 02:41:10 | 48.31764 | 14.35039 | 78° | 91km/h | 8590m | 4.0m/s | -30.8°C | 17.3% | 0hPa | 2.9V | 00:00:00 | 00:00:00 | 00:00:00 | |
| OE5DRO-10 | 2026-08-31 02:41:09 | 48.31758 | 14.35004 | 75° | 95km/h | 8586m | 4.5m/s | -30.8°C | 18.0% | 0hPa | 2.9V | 00:00:00 | 00:00:00 | 00:00:00 | |
| OE5HKT-10 | 2026-08-31 02:41:07 | 48.31744 | 14.34936 | 72° | 95km/h | 8577m | 3.2m/s | -30.8°C | 18.0% | 0hPa | 2.9V | 00:00:00 | 00:00:00 | 00:00:00 | |
| OE5DXL-15 | 2026-08-31 02:41:06 | 48.31737 | 14.34901 | 75° | 91km/h | 8574m | 3.4m/s | -30.7°C | 18.4% | 0hPa | 2.9V | 00:00:00 | 00:00:00 | 00:00:00 | |
| OE5MMP-10 | 2026-08-31 02:41:05 | 48.31730 | 14.34864 | 78° | 97km/h | 8571m | 2.1m/s | -30.7°C | 18.2% | 0hPa | 2.9V | 00:00:00 | 00:52:14 | 00:00:00 | |
| OE5FHM-15 | 2026-08-31 02:41:04 | 48.31726 | 14.34826 | 81° | 89km/h | 8568m | 2.4m/s | -30.7°C | 17.8% | 0hPa | 2.9V | 00:00:00 | 00:52:13 | 00:00:00 | |
| OE5WHR-10 | 2026-08-31 02:41:02 | 48.31717 | 14.34748 | 81° | 91km/h | 8560m | 4.7m/s | -30.6°C | 16.5% | 0hPa | 2.9V | 00:00:00 | 00:52:11 | 00:00:00 | |
| OM5KV | 2026-08-31 02:41:01 | 48.31717 | 14.34748 | 81° | 100km/h | 8560m | 4.8m/s | -30.7°C | 14.8% | 0hPa | 2.9V | 00:00:00 | 00:00:00 | 00:00:00 | |
| OE3OSB-13 | 2026-08-31 02:40:51 | 48.31648 | 14.34375 | 81° | 86km/h | 8508m | 4.0m/s | -30.5°C | 16.8% | -1.0hPa | 2.9V | 00:00:00 | 00:00:00 | 00:00:00 | |
| OE5DRO-10 | 2026-08-31 02:40:50 | 48.31645 | 14.34343 | 82° | 86km/h | 8505m | 1.8m/s | -30.5°C | 19.1% | 0hPa | 2.9V | 00:00:00 | 00:00:00 | 08:30:00 | |
| OM5KV | 2026-08-31 02:40:49 | 48.31645 | 14.34343 | 82° | 88km/h | 8505m | 1.8m/s | -30.5°C | 17.3% | 0hPa | 2.9V | 00:00:00 | 00:00:00 | 00:00:00 | |
| OM5KV | 2026-08-31 02:40:47 | 48.31636 | 14.34275 | 78° | 95km/h | 8500m | 1.4m/s | -30.5°C | 17.9% | 0hPa | 2.9V | 00:00:00 | 00:00:00 | 00:00:00 | |
| OE5HKT-10 | 2026-08-31 02:40:46 | 48.31623 | 14.34204 | 72° | 84km/h | 8495m | 2.5m/s | -30.4°C | 19.4% | 0hPa | 2.9V | 00:00:00 | 00:51:55 | 00:00:00 | |
| OE5MMP-10 | 2026-08-31 02:40:45 | 48.31615 | 14.34170 | 70° | 82km/h | 8491m | 5.6m/s | -30.4°C | 19.2% | 0hPa | 2.9V | 00:00:00 | 00:51:54 | 00:00:00 | |
| DO3MHA-12 | 2026-08-31 02:40:43 | 48.31600 | 14.34107 | 72° | 82km/h | 8483m | 1.9m/s | -30.4°C | 19.7% | 0hPa | 2.9V | 00:00:00 | 00:51:52 | 00:00:00 | |
| OM5KV | 2026-08-31 02:40:42 | 48.31600 | 14.34107 | 73° | 82km/h | 8483m | 2.0m/s | -30.4°C | 17.9% | 0hPa | 2.9V | 00:00:00 | 00:00:00 | 00:00:00 | |
| OE5WHR-10 | 2026-08-31 02:40:41 | 48.31588 | 14.34048 | 76° | 84km/h | 8475m | 4.1m/s | -30.3°C | 20.7% | 0hPa | 2.9V | 00:00:00 | 00:00:00 | 08:30:00 | |
| OE5DXL-15 | 2026-08-31 02:40:36 | 48.31565 | 14.33904 | 84° | 82km/h | 8459m | 1.7m/s | -30.4°C | 27.4% | 0hPa | 2.9V | 00:00:00 | 00:00:00 | 00:00:00 | |
| OE5MMP-10 | 2026-08-31 02:40:35 | 48.31562 | 14.33873 | 85° | 86km/h | 8457m | 1.4m/s | -30.4°C | 28.7% | 0hPa | 2.9V | 00:00:00 | 00:51:44 | 00:00:00 | |
| OE5FHM-15 | 2026-08-31 02:40:34 | 48.31560 | 14.33841 | 85° | 82km/h | 8455m | 2.0m/s | -30.4°C | 30.7% | 0hPa | 2.9V | 00:00:00 | 00:51:43 | 00:00:00 | |
| PG1ADW-2 | 2026-08-31 02:40:33 | 48.31558 | 14.33809 | 83° | 82km/h | 8452m | 3.3m/s | -30.4°C | 34.6% | 0hPa | 2.9V | 00:00:00 | 00:00:00 | 00:00:00 | |
| DO3MHA-12 | 2026-08-31 02:40:31 | 48.31551 | 14.33744 | 79° | 84km/h | 8446m | 1.8m/s | -30.3°C | 56.3% | 0hPa | 2.9V | 00:00:00 | 00:51:40 | 00:00:00 | |
| S52SK | 2026-08-31 02:40:30 | 48.31551 | 14.33744 | 79° | 88km/h | 8446m | 1.9m/s | -30.3°C | 52.8% | 0hPa | 2.9V | 00:00:00 | 00:00:00 | 00:00:00 | |
| OE5MMP-10 | 2026-08-31 02:40:25 | 48.31528 | 14.33554 | 80° | 80km/h | 8438m | 0.6m/s | -29.9°C | 83.1% | 0hPa | 2.9V | 00:00:00 | 00:51:34 | 00:00:00 | |
| OM5KV | 2026-08-31 02:40:23 | 48.31524 | 14.33523 | 79° | 86km/h | 8437m | 1.0m/s | -30.0°C | 78.5% | 0hPa | 2.9V | 00:00:00 | 00:00:00 | 00:00:00 | |
| DO3MHA-12 | 2026-08-31 02:40:21 | 48.31507 | 14.33428 | 73° | 80km/h | 8434m | 3.5m/s | -29.9°C | 82.0% | 0hPa | 2.9V | 00:00:00 | 00:51:30 | 00:00:00 | |
| OE5WHR-10 | 2026-08-31 02:40:20 | 48.31501 | 14.33399 | 75° | 80km/h | 8430m | 2.9m/s | -29.8°C | 81.3% | 0hPa | 2.9V | 00:00:00 | 00:00:00 | 00:00:00 | |
| OM5KV | 2026-08-31 02:40:19 | 48.31501 | 14.33399 | 76° | 75km/h | 8430m | 2.9m/s | -29.9°C | 77.0% | 0hPa | 2.9V | 00:00:00 | 00:00:00 | 00:00:00 | |
| OM5KV | 2026-08-31 02:40:17 | 48.31494 | 14.33345 | 83° | 73km/h | 8427m | 0.8m/s | -29.9°C | 73.6% | 0hPa | 2.9V | 00:00:00 | 00:00:00 | 00:00:00 | |
| OE5MMP-10 | 2026-08-31 02:40:15 | 48.31486 | 14.33258 | 80° | 80km/h | 8420m | 2.0m/s | -29.8°C | 63.0% | 0hPa | 2.9V | 00:00:00 | 00:51:24 | 00:00:00 | |
| PG1ADW-2 | 2026-08-31 02:40:13 | 48.31475 | 14.33197 | 73° | 80km/h | 8414m | 4.9m/s | -29.8°C | 45.1% | 0hPa | 2.9V | 00:00:00 | 00:51:22 | 00:00:00 | |
| OE5DRO-10 | 2026-08-31 02:40:12 | 48.31469 | 14.33169 | 69° | 80km/h | 8410m | 2.2m/s | -29.8°C | 28.6% | 0hPa | 2.9V | 00:00:00 | 00:00:00 | 00:00:00 | |
| DO3MHA-12 | 2026-08-31 02:40:11 | 48.31461 | 14.33142 | 68° | 80km/h | 8408m | 2.3m/s | -29.8°C | 25.0% | 0hPa | 2.9V | 00:00:00 | 00:51:20 | 00:00:00 | |
| OM5KV | 2026-08-31 02:40:08 | 48.31445 | 14.33085 | 69° | 84km/h | 8400m | 4.4m/s | -29.8°C | 33.8% | 0hPa | 2.7V | 00:00:00 | 00:00:00 | 00:00:00 | |
| OM5KV | 2026-08-31 02:40:07 | 48.31438 | 14.33055 | 71° | 84km/h | 8395m | 4.0m/s | -29.7°C | 44.9% | 0hPa | 2.7V | 00:00:00 | 00:00:00 | 00:00:00 | |
| OE5DXL-15 | 2026-08-31 02:40:06 | 48.31425 | 14.32997 | 74° | 82km/h | 8388m | 2.9m/s | -29.6°C | 34.2% | 0hPa | 2.7V | 00:00:00 | 00:51:15 | 08:30:00 | |
| OE5MMP-10 | 2026-08-31 02:40:05 | 48.31419 | 14.32968 | 72° | 82km/h | 8384m | 3.8m/s | -29.6°C | 20.6% | 0hPa | 2.7V | 00:00:00 | 00:51:14 | 08:30:00 | |
| OE5HKT-10 | 2026-08-31 02:40:04 | 48.31413 | 14.32940 | 73° | 82km/h | 8380m | 4.5m/s | -29.6°C | 21.4% | 0hPa | 2.9V | 00:00:00 | 00:00:00 | 00:00:00 | |
| OM5KV | 2026-08-31 02:40:01 | 48.31401 | 14.32883 | 75° | 82km/h | 8372m | 3.6m/s | -29.7°C | 23.2% | 0hPa | 2.9V | 00:00:00 | 00:00:00 | 00:00:00 | |
| OE3OSB-13 | 2026-08-31 02:39:49 | 48.31313 | 14.32502 | 74° | 84km/h | 8352m | 3.1m/s | -29.6°C | 35.8% | -1.0hPa | 2.9V | 00:00:00 | 00:00:00 | 00:00:00 | |
| OE5MMP-10 | 2026-08-31 02:39:45 | 48.31280 | 14.32385 | 63° | 86km/h | 8349m | -0.3m/s | -29.6°C | 35.9% | 0hPa | 2.9V | 00:00:00 | 00:50:54 | 00:00:00 | |
| OM5KV | 2026-08-31 02:39:44 | 48.31280 | 14.32385 | 64° | 88km/h | 8349m | -0.3m/s | -29.6°C | 33.4% | 0hPa | 2.9V | 00:00:00 | 00:00:00 | 00:00:00 | |
| OE5HKT-10 | 2026-08-31 02:39:43 | 48.31260 | 14.32325 | 67° | 84km/h | 8350m | -0.8m/s | -29.7°C | 27.4% | 0hPa | 2.9V | 00:00:00 | 00:50:52 | 00:00:00 | |
| OE3JTB-15 | 2026-08-31 02:39:41 | 48.31245 | 14.32265 | 72° | 82km/h | 8348m | 1.0m/s | -29.7°C | 29.4% | 0hPa | 2.9V | 00:00:00 | 00:00:00 | 00:00:00 | |
| OE5WHR-10 | 2026-08-31 02:39:38 | 48.31231 | 14.32172 | 81° | 82km/h | 8346m | 1.6m/s | -29.6°C | 34.6% | 0hPa | 2.9V | 00:00:00 | 00:00:00 | 00:00:00 | |
| OE5DXL-15 | 2026-08-31 02:39:36 | 48.31224 | 14.32106 | 80° | 82km/h | 8345m | 0.7m/s | -29.6°C | 34.3% | 0hPa | 2.9V | 00:00:00 | 00:00:00 | 00:00:00 | |
| OE5MMP-10 | 2026-08-31 02:39:35 | 48.31220 | 14.32075 | 79° | 84km/h | 8343m | 1.9m/s | -29.7°C | 37.6% | 0hPa | 2.9V | 00:00:00 | 00:50:44 | 00:00:00 | |
| OE5FHM-15 | 2026-08-31 02:39:34 | 48.31216 | 14.32048 | 76° | 82km/h | 8342m | 0.4m/s | -29.7°C | 45.5% | 0hPa | 2.9V | 00:00:00 | 00:50:43 | 00:00:00 | |
| PG1ADW-2 | 2026-08-31 02:39:33 | 48.31210 | 14.32021 | 72° | 82km/h | 8342m | -0.1m/s | -29.5°C | 58.9% | 0hPa | 2.9V | 00:00:00 | 00:00:00 | 00:00:00 | |
| OM5KV | 2026-08-31 02:39:32 | 48.31210 | 14.32021 | 73° | 75km/h | 8342m | -0.2m/s | -29.5°C | 55.5% | 0hPa | 2.9V | 00:00:00 | 00:00:00 | 00:00:00 | |
| OM5KV | 2026-08-31 02:39:27 | 48.31173 | 14.31831 | 69° | 93km/h | 8333m | 3.3m/s | -29.3°C | 61.4% | 0hPa | 2.9V | 00:00:00 | 00:00:00 | 00:00:00 | |
| OM5KV | 2026-08-31 02:39:26 | 48.31173 | 14.31831 | 69° | 93km/h | 8333m | 3.3m/s | -29.3°C | 61.4% | 0hPa | 2.9V | 00:00:00 | 00:00:00 | 00:00:00 | |
| OE5MMP-10 | 2026-08-31 02:39:25 | 48.31154 | 14.31772 | 63° | 80km/h | 8329m | 1.9m/s | -29.1°C | 73.8% | 0hPa | 2.9V | 00:00:00 | 00:50:34 | 00:00:00 | |
| OE5HKT-10 | 2026-08-31 02:39:22 | 48.31132 | 14.31695 | 74° | 82km/h | 8323m | 1.3m/s | -29.1°C | 70.7% | 0hPa | 2.9V | 00:00:00 | 00:00:00 | 00:00:00 | |
| OM5KV | 2026-08-31 02:39:21 | 48.31132 | 14.31695 | 75° | 71km/h | 8323m | 1.3m/s | -29.1°C | 66.9% | 0hPa | 2.7V | 00:00:00 | 00:00:00 | 00:00:00 | |
| S52SK | 2026-08-31 02:39:19 | 48.31123 | 14.31640 | 78° | 80km/h | 8320m | 3.3m/s | -29.0°C | 69.3% | 0hPa | 2.7V | 00:00:00 | 00:00:00 | 00:00:00 | |
| OE3OSB-13 | 2026-08-31 02:39:18 | 48.31111 | 14.31578 | 69° | 88km/h | 8312m | 2.9m/s | -28.9°C | -1.0% | -1.0hPa | 2.7V | 00:00:00 | 00:00:00 | 00:00:00 | |
| OE5WHR-10 | 2026-08-31 02:39:17 | 48.31103 | 14.31547 | 66° | 78km/h | 8310m | 2.3m/s | -28.8°C | 74.7% | 0hPa | 2.7V | 00:00:00 | 00:00:00 | 00:00:00 | |
| OM5KV | 2026-08-31 02:39:16 | 48.31102 | 14.31546 | 66° | 89km/h | 8310m | 2.3m/s | -28.9°C | 70.8% | 0hPa | 2.7V | 00:00:00 | 00:00:00 | 00:00:00 | |
| OE5MMP-10 | 2026-08-31 02:39:15 | 48.31083 | 14.31487 | 63° | 80km/h | 8304m | 4.6m/s | -28.8°C | 73.1% | 0hPa | 2.7V | 00:00:00 | 00:50:24 | 00:00:00 | |
| PG1ADW-2 | 2026-08-31 02:39:13 | 48.31068 | 14.31434 | 72° | 77km/h | 8295m | 3.3m/s | -28.7°C | 75.4% | 0hPa | 2.7V | 00:00:00 | 00:00:00 | 00:00:00 | |
| OE3JTB-15 | 2026-08-31 02:39:12 | 48.31062 | 14.31408 | 74° | 69km/h | 8292m | 2.7m/s | -28.7°C | 74.1% | 0hPa | 2.7V | 00:00:00 | 00:50:21 | 00:00:00 | |
| OM5KV | 2026-08-31 02:39:09 | 48.31051 | 14.31351 | 73° | 84km/h | 8284m | 2.2m/s | -28.7°C | 68.3% | 0hPa | 2.7V | 00:00:00 | 00:00:00 | 00:00:00 | |
| OE5DXL-15 | 2026-08-31 02:39:06 | 48.31019 | 14.31230 | 70° | 62km/h | 8277m | 1.5m/s | -28.6°C | 68.6% | 0hPa | 2.7V | 00:00:00 | 00:00:00 | 00:00:00 | |
| OE5MMP-10 | 2026-08-31 02:39:05 | 48.31012 | 14.31200 | 73° | 75km/h | 8274m | 4.1m/s | -28.7°C | 61.5% | 0hPa | 2.7V | 00:00:00 | 00:50:14 | 00:00:00 | |
| OE5FHM-15 | 2026-08-31 02:39:04 | 48.31007 | 14.31170 | 77° | 60km/h | 8271m | 2.1m/s | -28.8°C | 58.3% | 0hPa | 2.7V | 00:00:00 | 00:50:13 | 00:00:00 | |
| OM5KV | 2026-08-31 02:39:03 | 48.31007 | 14.31170 | 78° | 82km/h | 8271m | 2.2m/s | -28.8°C | 55.0% | 0hPa | 2.7V | 00:00:00 | 00:00:00 | 00:00:00 | |
| OE3OSB-13 | 2026-08-31 02:38:47 | 48.30911 | 14.30780 | 80° | 47km/h | 8224m | 6.5m/s | 0°C | -1.0% | -1.0hPa | 2.7V | 00:00:00 | 00:00:00 | 00:00:00 | |
| OE5MMP-10 | 2026-08-31 02:38:45 | 48.30907 | 14.30739 | 84° | 53km/h | 8213m | 5.2m/s | -28.0°C | 67.4% | 0hPa | 2.7V | 00:00:00 | 00:49:54 | 00:00:00 | |
| OE3JTB-15 | 2026-08-31 02:38:43 | 48.30903 | 14.30697 | 78° | 55km/h | 8202m | 5.8m/s | -27.8°C | 70.8% | 0hPa | 2.7V | 00:00:00 | 00:00:00 | 08:30:00 | |
| OE5HKT-10 | 2026-08-31 02:38:40 | 48.30895 | 14.30646 | 84° | 57km/h | 8187m | 7.1m/s | -27.7°C | 69.0% | 0hPa | 2.9V | 00:00:00 | 00:49:49 | 00:00:00 | |
| OM5KV | 2026-08-31 02:38:39 | 48.30895 | 14.30646 | 85° | 46km/h | 8187m | 7.2m/s | -27.7°C | 65.5% | 0hPa | 2.9V | 00:00:00 | 00:00:00 | 00:00:00 | |
| OE5DXL-15 | 2026-08-31 02:38:36 | 48.30889 | 14.30560 | 81° | 57km/h | 8167m | 5.7m/s | -27.5°C | 69.0% | 0hPa | 2.9V | 00:00:00 | 00:00:00 | 00:00:00 | |
| OE5MMP-10 | 2026-08-31 02:38:35 | 48.30886 | 14.30537 | 78° | 57km/h | 8161m | 4.5m/s | -27.5°C | 69.6% | 0hPa | 2.9V | 00:00:00 | 00:49:44 | 08:30:00 | |
| OE5FHM-15 | 2026-08-31 02:38:34 | 48.30882 | 14.30516 | 77° | 57km/h | 8157m | 4.3m/s | -27.5°C | 69.7% | 0hPa | 2.9V | 00:00:00 | 00:49:43 | 08:30:00 | |
| PG1ADW-2 | 2026-08-31 02:38:33 | 48.30879 | 14.30496 | 76° | 57km/h | 8153m | 3.4m/s | -27.4°C | 69.7% | 0hPa | 2.9V | 00:00:00 | 00:00:00 | 00:00:00 | |
| OM5KV | 2026-08-31 02:38:28 | 48.30866 | 14.30411 | 74° | 62km/h | 8133m | 3.2m/s | -27.3°C | 64.3% | 0hPa | 2.9V | 00:00:00 | 00:00:00 | 00:00:00 | |
| OE5MMP-10 | 2026-08-31 02:38:25 | 48.30843 | 14.30336 | 64° | 55km/h | 8107m | 6.0m/s | -27.1°C | 64.5% | 0hPa | 2.9V | 00:00:00 | 00:49:34 | 00:00:00 | |
| OM5KV | 2026-08-31 02:38:22 | 48.30832 | 14.30297 | 69° | 60km/h | 8096m | 3.5m/s | -27.0°C | 61.4% | 0hPa | 2.9V | 00:00:00 | 00:00:00 | 00:00:00 | |
| OM5KV | 2026-08-31 02:38:20 | 48.30819 | 14.30254 | 62° | 64km/h | 8085m | 5.4m/s | -26.9°C | 60.6% | 0hPa | 2.9V | 00:00:00 | 00:00:00 | 00:00:00 | |
| OE5HKT-10 | 2026-08-31 02:38:19 | 48.30803 | 14.30217 | 57° | 58km/h | 8073m | 4.3m/s | -26.8°C | 63.5% | 0hPa | 2.9V | 00:00:00 | 00:00:00 | 08:30:00 | |
| OE5DRO-10 | 2026-08-31 02:38:17 | 48.30791 | 14.30184 | 70° | 60km/h | 8062m | 5.4m/s | -26.7°C | 63.5% | 0hPa | 2.9V | 00:00:00 | 00:00:00 | 00:00:00 | |
| OM5KV | 2026-08-31 02:38:16 | 48.30791 | 14.30184 | 70° | 47km/h | 8062m | 5.5m/s | -26.8°C | 60.3% | 0hPa | 2.9V | 00:00:00 | 00:00:00 | 00:00:00 | |
| OE5MMP-10 | 2026-08-31 02:38:15 | 48.30784 | 14.30144 | 79° | 60km/h | 8053m | 5.2m/s | -26.6°C | 64.5% | 0hPa | 2.9V | 00:00:00 | 00:49:24 | 00:00:00 | |
| OE5WHR-10 | 2026-08-31 02:38:14 | 48.30780 | 14.30121 | 77° | 62km/h | 8047m | 4.9m/s | -26.5°C | 68.0% | 0hPa | 2.9V | 00:00:00 | 00:00:00 | 00:00:00 | |
| PG1ADW-2 | 2026-08-31 02:38:13 | 48.30775 | 14.30096 | 73° | 60km/h | 8041m | 7.3m/s | -26.4°C | 71.7% | 0hPa | 2.9V | 00:00:00 | 00:00:00 | 00:00:00 | |
| OM5KV | 2026-08-31 02:38:11 | 48.30769 | 14.30071 | 65° | 68km/h | 8035m | 5.5m/s | -26.4°C | 72.2% | 0hPa | 2.9V | 00:00:00 | 00:00:00 | 00:00:00 | |
| DO3MHA-12 | 2026-08-31 02:38:10 | 48.30752 | 14.30030 | 58° | 58km/h | 8024m | 5.7m/s | -26.2°C | 76.5% | 0hPa | 2.9V | 00:00:00 | 00:49:19 | 00:00:00 | |
| S52SK | 2026-08-31 02:38:08 | 48.30745 | 14.30011 | 60° | 55km/h | 8018m | 7.5m/s | -26.2°C | 71.6% | 0hPa | 2.9V | 00:00:00 | 00:00:00 | 00:00:00 | |
| OE5DXL-15 | 2026-08-31 02:38:06 | 48.30729 | 14.29956 | 73° | 60km/h | 8000m | 5.5m/s | -26.1°C | 72.1% | 0hPa | 2.9V | 00:00:00 | 00:00:00 | 00:00:00 | |
| OE5MMP-10 | 2026-08-31 02:38:05 | 48.30724 | 14.29935 | 70° | 64km/h | 7995m | 6.0m/s | -26.0°C | 71.8% | 0hPa | 2.9V | 00:00:00 | 00:49:14 | 00:00:00 | |
| OE5FHM-15 | 2026-08-31 02:38:04 | 48.30718 | 14.29912 | 65° | 60km/h | 7989m | 4.9m/s | -26.0°C | 70.6% | 0hPa | 2.9V | 00:00:00 | 00:49:13 | 00:00:00 | |
| DO3MHA-12 | 2026-08-31 02:38:00 | 48.30688 | 14.29830 | 64° | 60km/h | 7964m | 5.7m/s | -25.7°C | 70.2% | 0hPa | 2.9V | 00:00:00 | 00:49:09 | 08:30:00 | |
| OE5HKT-10 | 2026-08-31 02:37:58 | 48.30673 | 14.29787 | 61° | 60km/h | 7950m | 6.4m/s | -25.6°C | 68.4% | 0hPa | 2.9V | 00:00:00 | 00:00:00 | 00:00:00 | |
| OE5MMP-10 | 2026-08-31 02:37:55 | 48.30644 | 14.29728 | 49° | 58km/h | 7933m | 5.3m/s | -25.5°C | 66.9% | 0hPa | 2.9V | 00:00:00 | 00:49:04 | 00:00:00 | |
| OM5KV | 2026-08-31 02:37:54 | 48.30644 | 14.29728 | 49° | 58km/h | 7933m | 5.3m/s | -25.5°C | 63.7% | 0hPa | 2.9V | 00:00:00 | 00:00:00 | 00:00:00 | |
| OE5WHR-10 | 2026-08-31 02:37:53 | 48.30628 | 14.29696 | 62° | 58km/h | 7922m | 5.9m/s | -25.4°C | 68.8% | 0hPa | 2.9V | 00:00:00 | 00:49:02 | 00:00:00 | |
| DO3MHA-12 | 2026-08-31 02:37:50 | 48.30613 | 14.29635 | 72° | 55km/h | 7907m | 4.3m/s | -25.2°C | 71.7% | 0hPa | 2.9V | 00:00:00 | 00:48:59 | 00:00:00 | |
| OM5KV | 2026-08-31 02:37:48 | 48.30607 | 14.29611 | 69° | 68km/h | 7902m | 6.0m/s | -25.2°C | 70.0% | 0hPa | 2.9V | 00:00:00 | 00:00:00 | 00:00:00 | |
| OM5KV | 2026-08-31 02:37:46 | 48.30592 | 14.29567 | 58° | 62km/h | 7890m | 5.4m/s | -25.1°C | 73.9% | 0hPa | 2.9V | 00:00:00 | 00:00:00 | 00:00:00 | |
| OE5MMP-10 | 2026-08-31 02:37:45 | 48.30575 | 14.29533 | 54° | 60km/h | 7880m | 4.6m/s | -24.9°C | 79.2% | 0hPa | 2.9V | 00:00:00 | 00:48:54 | 00:00:00 | |
| OM5KV | 2026-08-31 02:37:42 | 48.30562 | 14.29503 | 63° | 49km/h | 7871m | 4.0m/s | -24.8°C | 76.9% | 0hPa | 2.9V | 00:00:00 | 00:00:00 | 00:00:00 | |
| DO3MHA-12 | 2026-08-31 02:37:40 | 48.30543 | 14.29446 | 61° | 62km/h | 7855m | 6.0m/s | -24.6°C | 85.5% | 0hPa | 2.9V | 00:00:00 | 00:48:49 | 00:00:00 | |
| OE5DRO-10 | 2026-08-31 02:37:39 | 48.30534 | 14.29424 | 57° | 64km/h | 7850m | 4.3m/s | -24.6°C | 85.3% | 0hPa | 2.9V | 00:00:00 | 00:00:00 | 00:00:00 | |
| OE5HKT-10 | 2026-08-31 02:37:37 | 48.30511 | 14.29382 | 47° | 62km/h | 7841m | 4.3m/s | -24.6°C | 84.7% | 0hPa | 2.9V | 00:00:00 | 00:48:46 | 00:00:00 | |
| OE5DXL-15 | 2026-08-31 02:37:36 | 48.30500 | 14.29365 | 45° | 62km/h | 7837m | 4.8m/s | -24.5°C | 82.8% | 0hPa | 2.9V | 00:00:00 | 00:00:00 | 00:00:00 | |
| OE5MMP-10 | 2026-08-31 02:37:35 | 48.30489 | 14.29349 | 47° | 64km/h | 7832m | 3.9m/s | -24.6°C | 76.0% | 0hPa | 2.9V | 00:00:00 | 00:48:44 | 00:00:00 | |
| OE5FHM-15 | 2026-08-31 02:37:34 | 48.30480 | 14.29333 | 54° | 62km/h | 7828m | 3.5m/s | -24.6°C | 76.5% | 0hPa | 2.9V | 00:00:00 | 00:48:43 | 00:00:00 | |
| PG1ADW-2 | 2026-08-31 02:37:33 | 48.30474 | 14.29317 | 62° | 62km/h | 7825m | 4.6m/s | -24.5°C | 76.7% | 0hPa | 2.9V | 00:00:00 | 00:48:42 | 00:00:00 | |
| OE5WHR-10 | 2026-08-31 02:37:32 | 48.30468 | 14.29299 | 68° | 62km/h | 7820m | 4.4m/s | -24.4°C | 79.4% | 0hPa | 2.9V | 00:00:00 | 00:00:00 | 08:30:00 | |
| DO3MHA-12 | 2026-08-31 02:37:30 | 48.30458 | 14.29257 | 69° | 66km/h | 7810m | 5.0m/s | -24.2°C | 89.2% | 0hPa | 2.9V | 00:00:00 | 00:48:39 | 00:00:00 | |
| OM5KV | 2026-08-31 02:37:29 | 48.30458 | 14.29257 | 70° | 68km/h | 7810m | 5.1m/s | -24.3°C | 85.4% | 0hPa | 2.9V | 00:00:00 | 00:00:00 | 00:00:00 | |
| OE5MMP-10 | 2026-08-31 02:37:25 | 48.30415 | 14.29134 | 60° | 60km/h | 7784m | 6.7m/s | -24.0°C | 87.0% | 0hPa | 2.9V | 00:00:00 | 00:48:34 | 00:00:00 | |
| OM5KV | 2026-08-31 02:37:24 | 48.30415 | 14.29134 | 61° | 71km/h | 7784m | 6.8m/s | -24.0°C | 83.3% | 0hPa | 2.9V | 00:00:00 | 00:00:00 | 00:00:00 | |
| OM5KV | 2026-08-31 02:37:23 | 48.30406 | 14.29112 | 58° | 64km/h | 7778m | 5.7m/s | -24.0°C | 83.2% | 0hPa | 2.9V | 00:00:00 | 00:00:00 | 00:00:00 | |
| OE5DRO-10 | 2026-08-31 02:37:20 | 48.30377 | 14.29040 | 69° | 62km/h | 7759m | 5.7m/s | -23.8°C | 85.8% | 0hPa | 2.9V | 00:00:00 | 00:00:00 | 00:00:00 | |
| DO3MHA-12 | 2026-08-31 02:37:19 | 48.30372 | 14.29020 | 70° | 60km/h | 7754m | 3.8m/s | -23.8°C | 86.2% | 0hPa | 2.9V | 00:00:00 | 00:48:28 | 00:00:00 | |
| OM5KV | 2026-08-31 02:37:18 | 48.30372 | 14.29020 | 70° | 62km/h | 7754m | 3.9m/s | -23.9°C | 82.5% | 0hPa | 2.9V | 00:00:00 | 00:00:00 | 00:00:00 | |
| OM5KV | 2026-08-31 02:37:17 | 48.30366 | 14.28998 | 67° | 66km/h | 7750m | 3.9m/s | -23.8°C | 82.2% | 0hPa | 2.9V | 00:00:00 | 00:00:00 | 00:00:00 | |
| OE5HKT-10 | 2026-08-31 02:37:16 | 48.30349 | 14.28955 | 55° | 64km/h | 7741m | 4.2m/s | -23.7°C | 85.0% | 0hPa | 2.9V | 00:00:00 | 00:00:00 | 00:00:00 | |
| OE5MMP-10 | 2026-08-31 02:37:15 | 48.30340 | 14.28936 | 51° | 62km/h | 7737m | 4.3m/s | -23.6°C | 84.8% | 0hPa | 2.9V | 00:00:00 | 00:48:24 | 00:00:00 | |
| PG1ADW-2 | 2026-08-31 02:37:13 | 48.30322 | 14.28903 | 55° | 64km/h | 7727m | 4.9m/s | -23.6°C | 84.0% | 0hPa | 2.9V | 00:00:00 | 00:00:00 | 00:00:00 | |
| OM5KV | 2026-08-31 02:37:12 | 48.30322 | 14.28903 | 56° | 53km/h | 7727m | 4.9m/s | -23.6°C | 80.4% | 0hPa | 2.9V | 00:00:00 | 00:00:00 | 00:00:00 | |
| OE5WHR-10 | 2026-08-31 02:37:11 | 48.30309 | 14.28867 | 65° | 66km/h | 7718m | 4.3m/s | -23.5°C | 84.4% | 0hPa | 2.9V | 00:00:00 | 00:00:00 | 00:00:00 | |
| DO3MHA-12 | 2026-08-31 02:37:09 | 48.30295 | 14.28823 | 62° | 66km/h | 7709m | 4.2m/s | -23.4°C | 84.6% | 0hPa | 2.9V | 00:00:00 | 00:48:18 | 00:00:00 | |
| S52SK | 2026-08-31 02:37:07 | 48.30285 | 14.28800 | 58° | 75km/h | 7704m | 5.2m/s | -23.4°C | 80.3% | 0hPa | 2.9V | 00:00:00 | 00:00:00 | 00:00:00 | |
| OE5DXL-15 | 2026-08-31 02:37:06 | 48.30264 | 14.28756 | 53° | 60km/h | 7694m | 4.4m/s | -23.3°C | 84.5% | 0hPa | 2.9V | 00:00:00 | 00:00:00 | 00:00:00 | |
| OE5MMP-10 | 2026-08-31 02:37:05 | 48.30254 | 14.28736 | 54° | 66km/h | 7689m | 4.7m/s | -23.3°C | 85.3% | 0hPa | 2.9V | 00:00:00 | 00:48:14 | 08:30:00 | |
| OE5FHM-15 | 2026-08-31 02:37:04 | 48.30245 | 14.28718 | 58° | 58km/h | 7685m | 4.1m/s | -23.2°C | 85.8% | 0hPa | 2.9V | 00:00:00 | 00:48:13 | 00:00:00 | |
| S52SK | 2026-08-31 02:37:01 | 48.30230 | 14.28677 | 64° | 66km/h | 7676m | 5.4m/s | -23.2°C | 81.6% | 0hPa | 2.9V | 00:00:00 | 00:00:00 | 00:00:00 | |
| OE5DRO-10 | 2026-08-31 02:37:00 | 48.30213 | 14.28631 | 56° | 60km/h | 7665m | 3.9m/s | -23.1°C | 83.8% | 0hPa | 2.9V | 00:00:00 | 00:00:00 | 00:00:00 | |
| DO3MHA-12 | 2026-08-31 02:36:57 | 48.30179 | 14.28570 | 48° | 53km/h | 7653m | 3.9m/s | -23.1°C | 83.1% | 0hPa | 2.7V | 00:00:00 | 00:48:06 | 00:00:00 | |
| S52SK | 2026-08-31 02:36:56 | 48.30179 | 14.28570 | 48° | 60km/h | 7653m | 3.9m/s | -23.1°C | 79.7% | 0hPa | 2.9V | 00:00:00 | 00:00:00 | 00:00:00 | |
| OE5HKT-10 | 2026-08-31 02:36:55 | 48.30161 | 14.28536 | 59° | 57km/h | 7643m | 4.3m/s | -23.0°C | 83.0% | 0hPa | 2.9V | 00:00:00 | 00:00:00 | 00:00:00 | |
| OM5KV | 2026-08-31 02:36:54 | 48.30161 | 14.28536 | 60° | 55km/h | 7643m | 4.3m/s | -23.1°C | 79.6% | 0hPa | 2.9V | 00:00:00 | 00:00:00 | 00:00:00 | |
| PG1ADW-2 | 2026-08-31 02:36:53 | 48.30149 | 14.28497 | 69° | 57km/h | 7634m | 5.0m/s | -22.9°C | 82.5% | 0hPa | 2.9V | 00:00:00 | 00:00:00 | 00:00:00 | |
| OE5WHR-10 | 2026-08-31 02:36:50 | 48.30130 | 14.28427 | 66° | 57km/h | 7623m | 3.2m/s | -22.9°C | 82.2% | 0hPa | 2.9V | 00:00:00 | 00:47:59 | 00:00:00 | |
| OM5KV | 2026-08-31 02:36:49 | 48.30130 | 14.28427 | 67° | 68km/h | 7623m | 3.3m/s | -22.9°C | 78.8% | 0hPa | 2.9V | 00:00:00 | 00:00:00 | 00:00:00 | |
| OE3JTB-15 | 2026-08-31 02:36:47 | 48.30109 | 14.28364 | 61° | 53km/h | 7607m | 6.4m/s | -22.7°C | 80.2% | 0hPa | 2.9V | 00:00:00 | 00:00:00 | 00:00:00 | |
| OE5MMP-10 | 2026-08-31 02:36:45 | 48.30097 | 14.28332 | 65° | 53km/h | 7592m | 7.5m/s | -22.6°C | 78.3% | 0hPa | 2.9V | 00:00:00 | 00:47:54 | 00:00:00 | |
| OM5KV | 2026-08-31 02:36:43 | 48.30092 | 14.28316 | 66° | 44km/h | 7585m | 7.7m/s | -22.5°C | 74.4% | 0hPa | 2.9V | 00:00:00 | 00:00:00 | 00:00:00 | |
| OE5DRO-10 | 2026-08-31 02:36:41 | 48.30073 | 14.28263 | 58° | 57km/h | 7564m | 5.1m/s | -22.4°C | 78.4% | 0hPa | 2.9V | 00:00:00 | 00:00:00 | 00:00:00 | |
| OM5KV | 2026-08-31 02:36:38 | 48.30054 | 14.28224 | 50° | 64km/h | 7555m | 6.4m/s | -22.3°C | 75.3% | 0hPa | 2.9V | 00:00:00 | 00:00:00 | 00:00:00 | |
| OM5KV | 2026-08-31 02:36:37 | 48.30043 | 14.28207 | 48° | 57km/h | 7549m | 5.6m/s | -22.3°C | 75.6% | 0hPa | 2.9V | 00:00:00 | 00:00:00 | 00:00:00 | |
| OE5DXL-15 | 2026-08-31 02:36:36 | 48.30028 | 14.28177 | 58° | 49km/h | 7540m | 5.6m/s | -22.2°C | 81.0% | 0hPa | 2.9V | 00:00:00 | 00:00:00 | 00:00:00 | |
| OE5MMP-10 | 2026-08-31 02:36:35 | 48.30022 | 14.28162 | 66° | 57km/h | 7534m | 4.9m/s | -22.1°C | 81.4% | 0hPa | 2.9V | 00:00:00 | 00:47:44 | 00:00:00 | |
| OE5FHM-15 | 2026-08-31 02:36:34 | 48.30017 | 14.28144 | 68° | 51km/h | 7529m | 4.8m/s | -22.1°C | 80.5% | 0hPa | 2.9V | 00:00:00 | 00:47:43 | 00:00:00 | |
| PG1ADW-2 | 2026-08-31 02:36:33 | 48.30012 | 14.28125 | 67° | 49km/h | 7525m | 4.6m/s | -22.1°C | 81.1% | 0hPa | 2.9V | 00:00:00 | 00:00:00 | 00:00:00 | |
| OE5WHR-10 | 2026-08-31 02:36:29 | 48.29981 | 14.28047 | 57° | 47km/h | 7508m | 4.7m/s | -21.8°C | 84.3% | 0hPa | 2.9V | 00:00:00 | 00:00:00 | 00:00:00 | |
| OM5KV | 2026-08-31 02:36:27 | 48.29973 | 14.28029 | 64° | 55km/h | 7503m | 5.5m/s | -21.8°C | 83.6% | 0hPa | 2.9V | 00:00:00 | 00:00:00 | 00:00:00 | |
| OE5MMP-10 | 2026-08-31 02:36:25 | 48.29957 | 14.27969 | 65° | 42km/h | 7488m | 5.6m/s | -21.7°C | 86.6% | 0hPa | 2.9V | 00:00:00 | 00:47:34 | 00:00:00 | |
| OM5KV | 2026-08-31 02:36:23 | 48.29950 | 14.27952 | 57° | 51km/h | 7482m | 6.2m/s | -21.7°C | 82.6% | 0hPa | 2.9V | 00:00:00 | 00:00:00 | 00:00:00 | |
| OE5DRO-10 | 2026-08-31 02:36:22 | 48.29935 | 14.27924 | 48° | 47km/h | 7472m | 5.8m/s | -21.7°C | 83.9% | 0hPa | 2.9V | 00:00:00 | 00:00:00 | 00:00:00 | |
| OM5KV | 2026-08-31 02:36:21 | 48.29935 | 14.27924 | 49° | 42km/h | 7472m | 5.9m/s | -21.7°C | 80.6% | 0hPa | 2.9V | 00:00:00 | 00:00:00 | 00:00:00 | |
| OE3JTB-15 | 2026-08-31 02:36:18 | 48.29915 | 14.27878 | 66° | 49km/h | 7453m | 5.7m/s | -21.5°C | 83.8% | 0hPa | 2.9V | 00:00:00 | 00:47:27 | 00:00:00 | |
| OE5MMP-10 | 2026-08-31 02:36:15 | 48.29901 | 14.27834 | 59° | 51km/h | 7437m | 5.4m/s | -21.4°C | 82.5% | 0hPa | 2.9V | 00:00:00 | 00:47:24 | 00:00:00 | |
| OE5HKT-10 | 2026-08-31 02:36:13 | 48.29884 | 14.27802 | 47° | 49km/h | 7428m | 5.3m/s | -21.4°C | 81.6% | 0hPa | 2.9V | 00:00:00 | 00:00:00 | 00:00:00 | |
| OE5WHR-10 | 2026-08-31 02:36:08 | 48.29843 | 14.27737 | 64° | 49km/h | 7404m | 4.9m/s | -21.1°C | 82.4% | 0hPa | 2.9V | 00:00:00 | 00:00:00 | 00:00:00 | |
| OM5KV | 2026-08-31 02:36:07 | 48.29843 | 14.27737 | 64° | 47km/h | 7404m | 4.9m/s | -21.2°C | 79.2% | 0hPa | 2.9V | 00:00:00 | 00:00:00 | 00:00:00 | |
| OE5DXL-15 | 2026-08-31 02:36:06 | 48.29831 | 14.27701 | 63° | 49km/h | 7394m | 6.1m/s | -21.0°C | 82.5% | 0hPa | 2.9V | 00:00:00 | 00:00:00 | 00:00:00 | |
| OE5MMP-10 | 2026-08-31 02:36:05 | 48.29823 | 14.27681 | 57° | 49km/h | 7388m | 4.5m/s | -21.0°C | 83.4% | 0hPa | 2.9V | 00:00:00 | 00:47:14 | 00:00:00 | |
| OE5FHM-15 | 2026-08-31 02:36:04 | 48.29814 | 14.27663 | 50° | 49km/h | 7385m | 2.8m/s | -21.0°C | 83.3% | 0hPa | 2.7V | 00:00:00 | 00:47:13 | 00:00:00 | |
| OE5DRO-10 | 2026-08-31 02:36:03 | 48.29805 | 14.27648 | 45° | 49km/h | 7381m | 4.8m/s | -21.0°C | 82.9% | 0hPa | 2.7V | 00:00:00 | 00:00:00 | 00:00:00 | |
| OM5KV | 2026-08-31 02:36:02 | 48.29805 | 14.27648 | 45° | 55km/h | 7381m | 4.8m/s | -21.0°C | 79.7% | 0hPa | 2.9V | 00:00:00 | 00:00:00 | 00:00:00 | |
| OM5KV | 2026-08-31 02:35:56 | 48.29767 | 14.27567 | 66° | 46km/h | 7352m | 5.3m/s | -20.7°C | 80.2% | 0hPa | 2.9V | 00:00:00 | 00:00:00 | 00:00:00 | |
| OE5MMP-10 | 2026-08-31 02:35:55 | 48.29753 | 14.27534 | 52° | 53km/h | 7344m | 3.7m/s | -20.6°C | 84.1% | 0hPa | 2.9V | 00:00:00 | 00:47:04 | 00:00:00 | |
| OE5HKT-10 | 2026-08-31 02:35:52 | 48.29725 | 14.27492 | 45° | 51km/h | 7330m | 4.6m/s | -20.5°C | 84.4% | 0hPa | 2.9V | 00:00:00 | 00:00:00 | 00:00:00 | |
| S52SK | 2026-08-31 02:35:50 | 48.29718 | 14.27479 | 54° | 44km/h | 7326m | 3.2m/s | -20.5°C | 81.4% | 0hPa | 2.9V | 00:00:00 | 00:00:00 | 00:00:00 | |
| OE3JTB-15 | 2026-08-31 02:35:48 | 48.29699 | 14.27432 | 61° | 49km/h | 7311m | 4.7m/s | -20.4°C | 84.5% | 0hPa | 2.9V | 00:00:00 | 00:00:00 | 00:00:00 | |
| OE5WHR-10 | 2026-08-31 02:35:47 | 48.29691 | 14.27413 | 58° | 49km/h | 7307m | 3.8m/s | -20.3°C | 84.7% | 0hPa | 2.9V | 00:00:00 | 00:46:56 | 00:00:00 | |
| DO3MHA-12 | 2026-08-31 02:35:45 | 48.29672 | 14.27377 | 47° | 47km/h | 7296m | 4.2m/s | -20.3°C | 82.3% | 0hPa | 2.9V | 00:00:00 | 00:46:54 | 08:30:00 | |
| OE5DRO-10 | 2026-08-31 02:35:44 | 48.29663 | 14.27362 | 45° | 49km/h | 7292m | 4.4m/s | -20.3°C | 81.8% | 0hPa | 2.9V | 00:00:00 | 00:00:00 | 00:00:00 | |
| OM5KV | 2026-08-31 02:35:42 | 48.29654 | 14.27350 | 48° | 44km/h | 7287m | 5.6m/s | -20.3°C | 78.9% | 0hPa | 2.9V | 00:00:00 | 00:00:00 | 00:00:00 | |
| OE5DXL-15 | 2026-08-31 02:35:36 | 48.29618 | 14.27243 | 57° | 51km/h | 7253m | 4.4m/s | -19.9°C | 84.7% | 0hPa | 2.9V | 00:00:00 | 00:00:00 | 08:30:00 | |
| DO3MHA-12 | 2026-08-31 02:35:35 | 48.29609 | 14.27225 | 52° | 51km/h | 7248m | 4.8m/s | -19.9°C | 84.7% | 0hPa | 2.9V | 00:00:00 | 00:46:44 | 00:00:00 | |
| OE5FHM-15 | 2026-08-31 02:35:34 | 48.29599 | 14.27208 | 46° | 49km/h | 7244m | 4.1m/s | -19.8°C | 84.8% | 0hPa | 2.9V | 00:00:00 | 00:46:43 | 00:00:00 | |
| PG1ADW-2 | 2026-08-31 02:35:33 | 48.29589 | 14.27193 | 43° | 47km/h | 7240m | 3.7m/s | -19.8°C | 85.6% | 0hPa | 2.9V | 00:00:00 | 00:00:00 | 00:00:00 | |
| OE5HKT-10 | 2026-08-31 02:35:31 | 48.29573 | 14.27167 | 52° | 47km/h | 7231m | 5.1m/s | -19.6°C | 86.1% | 0hPa | 2.9V | 00:00:00 | 00:46:40 | 00:00:00 | |
| OM5KV | 2026-08-31 02:35:27 | 48.29553 | 14.27106 | 64° | 53km/h | 7213m | 5.5m/s | -19.6°C | 82.2% | 0hPa | 2.9V | 00:00:00 | 00:00:00 | 00:00:00 | |
| OE5MMP-10 | 2026-08-31 02:35:25 | 48.29537 | 14.27072 | 46° | 49km/h | 7202m | 5.7m/s | -19.6°C | 84.3% | 0hPa | 2.9V | 00:00:00 | 00:46:34 | 00:00:00 | |
| OM5KV | 2026-08-31 02:35:20 | 48.29502 | 14.27022 | 55° | 44km/h | 7181m | 4.4m/s | -19.5°C | 81.1% | 0hPa | 2.9V | 00:00:00 | 00:00:00 | 00:00:00 | |
| OE3JTB-15 | 2026-08-31 02:35:19 | 48.29489 | 14.26992 | 56° | 49km/h | 7170m | 6.1m/s | -19.3°C | 84.3% | 0hPa | 2.9V | 00:00:00 | 00:00:00 | 00:00:00 | |
| DO3MHA-12 | 2026-08-31 02:35:15 | 48.29453 | 14.26934 | 43° | 47km/h | 7148m | 4.6m/s | -19.2°C | 84.2% | 0hPa | 2.9V | 00:00:00 | 00:46:24 | 00:00:00 | |
| PG1ADW-2 | 2026-08-31 02:35:13 | 48.29441 | 14.26910 | 59° | 51km/h | 7138m | 4.9m/s | -19.2°C | 84.9% | 0hPa | 2.9V | 00:00:00 | 00:00:00 | 00:00:00 | |
| OE5HKT-10 | 2026-08-31 02:35:10 | 48.29421 | 14.26861 | 56° | 51km/h | 7124m | 4.8m/s | -19.0°C | 84.7% | 0hPa | 2.9V | 00:00:00 | 00:00:00 | 08:30:00 | |
| OM5KV | 2026-08-31 02:35:09 | 48.29421 | 14.26861 | 57° | 58km/h | 7124m | 4.8m/s | -19.1°C | 81.7% | 0hPa | 2.7V | 00:00:00 | 00:00:00 | 00:00:00 | |
| OE5DXL-15 | 2026-08-31 02:35:06 | 48.29383 | 14.26798 | 46° | 49km/h | 7105m | 5.1m/s | -18.9°C | 85.5% | 0hPa | 2.7V | 00:00:00 | 00:00:00 | 00:00:00 | |
| DO3MHA-12 | 2026-08-31 02:35:05 | 48.29375 | 14.26785 | 52° | 46km/h | 7100m | 4.3m/s | -18.9°C | 85.8% | 0hPa | 2.7V | 00:00:00 | 00:46:14 | 00:00:00 | |
| OE5FHM-15 | 2026-08-31 02:35:04 | 48.29369 | 14.26773 | 58° | 49km/h | 7096m | 4.1m/s | -18.9°C | 85.8% | 0hPa | 2.7V | 00:00:00 | 00:46:13 | 00:00:00 | |
| OM5KV | 2026-08-31 02:35:02 | 48.29364 | 14.26759 | 63° | 42km/h | 7092m | 4.8m/s | -18.9°C | 82.4% | 0hPa | 2.7V | 00:00:00 | 00:00:00 | 00:00:00 | |
| OM5KV | 2026-08-31 02:34:58 | 48.29340 | 14.26693 | 57° | 55km/h | 7072m | 4.9m/s | -18.7°C | 82.3% | 0hPa | 2.7V | 00:00:00 | 00:00:00 | 00:00:00 | |
| OE5MMP-10 | 2026-08-31 02:34:55 | 48.29308 | 14.26625 | 53° | 49km/h | 7049m | 7.0m/s | -18.5°C | 83.9% | 0hPa | 2.7V | 00:00:00 | 00:46:04 | 00:00:00 | |
| DO3MHA-12 | 2026-08-31 02:34:54 | 48.29299 | 14.26609 | 51° | 49km/h | 7041m | 6.8m/s | -18.4°C | 84.2% | 0hPa | 2.7V | 00:00:00 | 00:46:03 | 00:00:00 | |
| PG1ADW-2 | 2026-08-31 02:34:53 | 48.29291 | 14.26594 | 48° | 47km/h | 7034m | 7.4m/s | -18.3°C | 84.1% | 0hPa | 2.7V | 00:00:00 | 00:46:02 | 08:30:00 | |
| OE3JTB-15 | 2026-08-31 02:34:50 | 48.29267 | 14.26558 | 50° | 47km/h | 7016m | 5.7m/s | -18.1°C | 84.4% | 0hPa | 2.9V | 00:00:00 | 00:45:59 | 00:00:00 | |
| OE5HKT-10 | 2026-08-31 02:34:49 | 48.29260 | 14.26545 | 56° | 47km/h | 7009m | 7.5m/s | -18.0°C | 84.3% | 0hPa | 2.9V | 00:00:00 | 00:00:00 | 00:00:00 | |
| OM5KV | 2026-08-31 02:34:48 | 48.29260 | 14.26545 | 57° | 46km/h | 7009m | 7.6m/s | -18.1°C | 81.4% | 0hPa | 2.9V | 00:00:00 | 00:00:00 | 00:00:00 | |
| OE5DRO-10 | 2026-08-31 02:34:47 | 48.29247 | 14.26512 | 55° | 47km/h | 6996m | 5.0m/s | -18.0°C | 84.9% | 0hPa | 2.9V | 00:00:00 | 00:00:00 | 00:00:00 | |
| OE5MMP-10 | 2026-08-31 02:34:45 | 48.29229 | 14.26480 | 48° | 47km/h | 6986m | 5.1m/s | -18.0°C | 83.8% | 0hPa | 2.9V | 00:00:00 | 00:45:54 | 00:00:00 | |
| DO3MHA-12 | 2026-08-31 02:34:44 | 48.29220 | 14.26466 | 48° | 46km/h | 6981m | 5.8m/s | -18.0°C | 83.4% | 0hPa | 2.9V | 00:00:00 | 00:45:53 | 00:00:00 | |
| S52SK | 2026-08-31 02:34:40 | 48.29201 | 14.26428 | 62° | 40km/h | 6964m | 4.6m/s | -18.0°C | 80.5% | 0hPa | 2.9V | 00:00:00 | 00:00:00 | 00:00:00 | |
| OM5KV | 2026-08-31 02:34:37 | 48.29185 | 14.26381 | 59° | 51km/h | 6949m | 4.6m/s | -17.9°C | 80.1% | 0hPa | 2.9V | 00:00:00 | 00:00:00 | 00:00:00 | |
| OE5DXL-15 | 2026-08-31 02:34:36 | 48.29169 | 14.26351 | 44° | 44km/h | 6938m | 6.1m/s | -17.8°C | 82.7% | 0hPa | 2.9V | 00:00:00 | 00:00:00 | 00:00:00 | |
| OE5MMP-10 | 2026-08-31 02:34:35 | 48.29160 | 14.26339 | 38° | 47km/h | 6932m | 5.7m/s | -17.8°C | 82.7% | 0hPa | 2.9V | 00:00:00 | 00:45:44 | 00:00:00 | |
| OE5FHM-15 | 2026-08-31 02:34:34 | 48.29151 | 14.26329 | 37° | 44km/h | 6926m | 6.3m/s | -17.7°C | 83.1% | 0hPa | 2.9V | 00:00:00 | 00:45:43 | 00:00:00 | |
| PG1ADW-2 | 2026-08-31 02:34:33 | 48.29144 | 14.26320 | 44° | 46km/h | 6920m | 5.0m/s | -17.7°C | 83.4% | 0hPa | 2.9V | 00:00:00 | 00:00:00 | 00:00:00 | |
| OM5KV | 2026-08-31 02:34:30 | 48.29131 | 14.26297 | 55° | 42km/h | 6911m | 5.3m/s | -17.7°C | 80.4% | 0hPa | 2.9V | 00:00:00 | 00:00:00 | 00:00:00 | |
| OM5KV | 2026-08-31 02:34:29 | 48.29124 | 14.26284 | 52° | 49km/h | 6906m | 4.8m/s | -17.6°C | 80.8% | 0hPa | 2.9V | 00:00:00 | 00:00:00 | 00:00:00 | |
| OE5MMP-10 | 2026-08-31 02:34:25 | 48.29075 | 14.26209 | 52° | 42km/h | 6878m | 4.9m/s | -17.3°C | 83.8% | 0hPa | 2.9V | 00:00:00 | 00:45:34 | 00:00:00 | |
| DO3MHA-12 | 2026-08-31 02:34:24 | 48.29068 | 14.26193 | 57° | 42km/h | 6873m | 3.8m/s | -17.3°C | 83.9% | 0hPa | 2.9V | 00:00:00 | 00:45:33 | 00:00:00 | |
| OE5WHR-10 | 2026-08-31 02:34:23 | 48.29061 | 14.26179 | 61° | 40km/h | 6869m | 4.7m/s | -17.3°C | 83.4% | 0hPa | 2.9V | 00:00:00 | 00:00:00 | 08:30:00 | |
| OE3JTB-15 | 2026-08-31 02:34:21 | 48.29051 | 14.26153 | 55° | 44km/h | 6859m | 4.3m/s | -17.2°C | 84.2% | 0hPa | 3.0V | 00:00:00 | 00:00:00 | 08:30:00 | |
| OM5KV | 2026-08-31 02:34:19 | 48.29046 | 14.26143 | 46° | 33km/h | 6855m | 4.5m/s | -17.2°C | 81.8% | 0hPa | 3.0V | 00:00:00 | 00:00:00 | 00:00:00 | |
| OM5KV | 2026-08-31 02:34:17 | 48.29031 | 14.26127 | 33° | 40km/h | 6845m | 5.1m/s | -17.1°C | 81.2% | 0hPa | 3.0V | 00:00:00 | 00:00:00 | 00:00:00 | |
| OE5MMP-10 | 2026-08-31 02:34:15 | 48.29003 | 14.26095 | 45° | 42km/h | 6829m | 5.2m/s | -16.9°C | 83.6% | 0hPa | 3.0V | 00:00:00 | 00:45:24 | 00:00:00 | |
| DO3MHA-12 | 2026-08-31 02:34:14 | 48.28993 | 14.26081 | 47° | 40km/h | 6824m | 5.5m/s | -16.9°C | 82.9% | 0hPa | 3.0V | 00:00:00 | 00:45:23 | 08:30:00 | |
| PG1ADW-2 | 2026-08-31 02:34:13 | 48.28985 | 14.26068 | 45° | 44km/h | 6818m | 6.2m/s | -16.9°C | 83.3% | 0hPa | 2.9V | 00:00:00 | 00:00:00 | 00:00:00 | |
| OM5KV | 2026-08-31 02:34:11 | 48.28976 | 14.26057 | 38° | 42km/h | 6812m | 6.6m/s | -16.9°C | 81.2% | 0hPa | 2.9V | 00:00:00 | 00:00:00 | 00:00:00 | |
| OE5DRO-10 | 2026-08-31 02:34:09 | 48.28953 | 14.26032 | 40° | 44km/h | 6792m | 7.6m/s | -16.7°C | 83.1% | 0hPa | 2.9V | 00:00:00 | 00:00:00 | 00:00:00 | |
| OE5HKT-10 | 2026-08-31 02:34:07 | 48.28940 | 14.26014 | 44° | 47km/h | 6781m | 4.3m/s | -16.6°C | 84.1% | 0hPa | 2.9V | 00:00:00 | 00:00:00 | 00:00:00 | |
| OE5DXL-15 | 2026-08-31 02:34:06 | 48.28933 | 14.26003 | 43° | 47km/h | 6776m | 5.9m/s | -16.6°C | 83.4% | 0hPa | 3.0V | 00:00:00 | 00:00:00 | 00:00:00 | |
| OE5MMP-10 | 2026-08-31 02:34:05 | 48.28926 | 14.25994 | 47° | 46km/h | 6771m | 5.6m/s | -16.5°C | 82.7% | 0hPa | 3.0V | 00:00:00 | 00:45:14 | 08:30:00 | |
| DO3MHA-12 | 2026-08-31 02:34:04 | 48.28920 | 14.25983 | 54° | 47km/h | 6764m | 7.9m/s | -16.5°C | 82.8% | 0hPa | 3.0V | 00:00:00 | 00:45:13 | 00:00:00 | |
| OM5KV | 2026-08-31 02:34:01 | 48.28908 | 14.25958 | 52° | 46km/h | 6752m | 5.5m/s | -16.6°C | 81.5% | 0hPa | 3.0V | 00:00:00 | 00:00:00 | 00:00:00 | |
| OM5KV | 2026-08-31 02:33:56 | 48.28858 | 14.25901 | 39° | 47km/h | 6728m | 5.1m/s | -16.5°C | 80.7% | 0hPa | 3.0V | 00:00:00 | 00:00:00 | 00:00:00 | |
| OE5MMP-10 | 2026-08-31 02:33:55 | 48.28842 | 14.25875 | 54° | 49km/h | 6716m | 5.1m/s | -16.4°C | 83.3% | 0hPa | 3.0V | 00:00:00 | 00:45:04 | 00:00:00 | |
| DO3MHA-12 | 2026-08-31 02:33:54 | 48.28835 | 14.25860 | 59° | 47km/h | 6712m | 3.8m/s | -16.3°C | 83.3% | 0hPa | 3.0V | 00:00:00 | 00:45:03 | 00:00:00 | |
| PG1ADW-2 | 2026-08-31 02:33:53 | 48.28829 | 14.25844 | 63° | 47km/h | 6707m | 6.7m/s | -16.3°C | 82.5% | 0hPa | 3.0V | 00:00:00 | 00:00:00 | 00:00:00 | |
| OE3JTB-15 | 2026-08-31 02:33:52 | 48.28823 | 14.25829 | 62° | 49km/h | 6700m | 6.2m/s | -16.3°C | 82.1% | 0hPa | 3.0V | 00:00:00 | 00:00:00 | 00:00:00 | |
| OE5DRO-10 | 2026-08-31 02:33:50 | 48.28811 | 14.25799 | 56° | 47km/h | 6688m | 7.1m/s | -16.4°C | 79.5% | 0hPa | 3.0V | 00:00:00 | 00:00:00 | 00:00:00 | |
| OM5KV | 2026-08-31 02:33:49 | 48.28811 | 14.25799 | 57° | 49km/h | 6688m | 7.2m/s | -16.5°C | 77.0% | 0hPa | 3.0V | 00:00:00 | 00:00:00 | 00:00:00 | |
| OE5MMP-10 | 2026-08-31 02:33:45 | 48.28768 | 14.25726 | 47° | 47km/h | 6659m | 6.0m/s | -16.4°C | 76.8% | 0hPa | 3.0V | 00:00:00 | 00:44:54 | 00:00:00 | |
| DO3MHA-12 | 2026-08-31 02:33:44 | 48.28762 | 14.25714 | 51° | 44km/h | 6653m | 5.1m/s | -16.4°C | 77.0% | 0hPa | 3.0V | 00:00:00 | 00:44:53 | 00:00:00 | |
| OM5KV | 2026-08-31 02:33:43 | 48.28762 | 14.25714 | 51° | 38km/h | 6653m | 5.2m/s | -16.4°C | 74.5% | 0hPa | 3.0V | 00:00:00 | 00:00:00 | 00:00:00 | |
| OE5WHR-10 | 2026-08-31 02:33:41 | 48.28740 | 14.25680 | 39° | 49km/h | 6634m | 5.6m/s | -16.3°C | 76.8% | 0hPa | 3.0V | 00:00:00 | 00:44:50 | 00:00:00 | |
| OM5KV | 2026-08-31 02:33:39 | 48.28729 | 14.25669 | 33° | 55km/h | 6629m | 4.4m/s | -16.3°C | 74.7% | 0hPa | 3.0V | 00:00:00 | 00:00:00 | 00:00:00 | |
| OE5DXL-15 | 2026-08-31 02:33:36 | 48.28683 | 14.25627 | 43° | 49km/h | 6605m | 5.1m/s | -16.1°C | 75.1% | 0hPa | 3.0V | 00:00:00 | 00:00:00 | 00:00:00 | |
| OE5MMP-10 | 2026-08-31 02:33:35 | 48.28675 | 14.25614 | 48° | 51km/h | 6600m | 4.4m/s | -16.1°C | 75.4% | 0hPa | 3.0V | 00:00:00 | 00:44:44 | 00:00:00 | |
| OE5FHM-15 | 2026-08-31 02:33:34 | 48.28667 | 14.25602 | 49° | 51km/h | 6595m | 5.9m/s | -16.0°C | 75.4% | 0hPa | 3.0V | 00:00:00 | 00:44:43 | 00:00:00 | |
| PG1ADW-2 | 2026-08-31 02:33:33 | 48.28660 | 14.25590 | 48° | 49km/h | 6589m | 7.3m/s | -15.9°C | 76.8% | 0hPa | 3.0V | 00:00:00 | 00:44:42 | 00:00:00 | |
| OE5DRO-10 | 2026-08-31 02:33:31 | 48.28646 | 14.25567 | 48° | 51km/h | 6578m | 5.2m/s | -15.8°C | 78.2% | 0hPa | 3.0V | 00:00:00 | 00:00:00 | 00:00:00 | |
| S52SK | 2026-08-31 02:33:29 | 48.28638 | 14.25554 | 48° | 51km/h | 6572m | 7.2m/s | -15.8°C | 76.0% | 0hPa | 3.0V | 00:00:00 | 00:00:00 | 00:00:00 | |
| OM5KV | 2026-08-31 02:33:27 | 48.28617 | 14.25525 | 39° | 60km/h | 6561m | 3.3m/s | -15.7°C | 77.5% | 0hPa | 3.0V | 00:00:00 | 00:00:00 | 00:00:00 | |
| DO3MHA-12 | 2026-08-31 02:33:26 | 48.28592 | 14.25499 | 31° | 51km/h | 6554m | 4.4m/s | -15.6°C | 81.3% | 0hPa | 3.0V | 00:00:00 | 00:44:35 | 00:00:00 | |
| OE5MMP-10 | 2026-08-31 02:33:25 | 48.28579 | 14.25488 | 30° | 49km/h | 6550m | 4.0m/s | -15.5°C | 81.2% | 0hPa | 3.0V | 00:00:00 | 00:44:34 | 00:00:00 | |
| OE3JTB-15 | 2026-08-31 02:33:23 | 48.28558 | 14.25469 | 33° | 53km/h | 6541m | 5.3m/s | -15.4°C | 81.4% | 0hPa | 3.0V | 00:00:00 | 00:44:32 | 00:00:00 | |
| OM5KV | 2026-08-31 02:33:21 | 48.28548 | 14.25460 | 40° | 42km/h | 6536m | 5.6m/s | -15.4°C | 78.9% | 0hPa | 3.0V | 00:00:00 | 00:00:00 | 00:00:00 | |
| OE5WHR-10 | 2026-08-31 02:33:20 | 48.28533 | 14.25435 | 51° | 51km/h | 6525m | 4.3m/s | -15.3°C | 81.2% | 0hPa | 3.0V | 00:00:00 | 00:00:00 | 00:00:00 | |
| OM5KV | 2026-08-31 02:33:19 | 48.28533 | 14.25435 | 52° | 49km/h | 6525m | 4.3m/s | -15.4°C | 78.7% | 0hPa | 3.0V | 00:00:00 | 00:00:00 | 00:00:00 | |
| OM5KV | 2026-08-31 02:33:15 | 48.28488 | 14.25370 | 30° | 46km/h | 6500m | 4.7m/s | -15.2°C | 79.6% | 0hPa | 3.0V | 00:00:00 | 00:00:00 | 00:00:00 | |
| PG1ADW-2 | 2026-08-31 02:33:13 | 48.28465 | 14.25354 | 23° | 55km/h | 6490m | 5.3m/s | -15.0°C | 81.8% | 0hPa | 3.0V | 00:00:00 | 00:00:00 | 00:00:00 | |
| DO3MHA-12 | 2026-08-31 02:33:12 | 48.28453 | 14.25346 | 23° | 53km/h | 6486m | 4.5m/s | -15.0°C | 81.5% | 0hPa | 3.0V | 00:00:00 | 00:44:21 | 00:00:00 | |
| OM5KV | 2026-08-31 02:33:09 | 48.28428 | 14.25331 | 23° | 51km/h | 6475m | 4.5m/s | -15.0°C | 79.1% | 0hPa | 3.0V | 00:00:00 | 00:00:00 | 00:00:00 | |
| OM5KV | 2026-08-31 02:33:08 | 48.28416 | 14.25324 | 24° | 51km/h | 6470m | 4.7m/s | -14.9°C | 78.7% | 0hPa | 3.0V | 00:00:00 | 00:00:00 | 00:00:00 | |
| OE5DXL-15 | 2026-08-31 02:33:06 | 48.28380 | 14.25297 | 33° | 51km/h | 6456m | 4.3m/s | -14.8°C | 81.9% | 0hPa | 3.0V | 00:00:00 | 00:00:00 | 00:00:00 | |
| OE5MMP-10 | 2026-08-31 02:33:05 | 48.28369 | 14.25284 | 39° | 55km/h | 6452m | 4.1m/s | -14.7°C | 82.2% | 0hPa | 3.0V | 00:00:00 | 00:44:14 | 00:00:00 | |
| OE5FHM-15 | 2026-08-31 02:33:04 | 48.28358 | 14.25271 | 43° | 51km/h | 6448m | 4.5m/s | -14.6°C | 83.1% | 0hPa | 3.0V | 00:00:00 | 00:44:13 | 00:00:00 | |
| OM5KV | 2026-08-31 02:33:02 | 48.28348 | 14.25256 | 47° | 53km/h | 6443m | 4.6m/s | -14.6°C | 81.8% | 0hPa | 3.0V | 00:00:00 | 00:00:00 | 00:00:00 | |
| OE5WHR-10 | 2026-08-31 02:32:59 | 48.28308 | 14.25207 | 31° | 49km/h | 6425m | 5.2m/s | -14.4°C | 85.9% | 0hPa | 3.0V | 00:00:00 | 00:00:00 | 00:00:00 | |
| OM5KV | 2026-08-31 02:32:58 | 48.28308 | 14.25207 | 31° | 55km/h | 6425m | 5.2m/s | -14.4°C | 83.4% | 0hPa | 3.0V | 00:00:00 | 00:00:00 | 00:00:00 | |
| OM5KV | 2026-08-31 02:32:57 | 48.28295 | 14.25196 | 32° | 58km/h | 6420m | 4.0m/s | -14.4°C | 83.9% | 0hPa | 3.0V | 00:00:00 | 00:00:00 | 00:00:00 | |
| OE5MMP-10 | 2026-08-31 02:32:55 | 48.28256 | 14.25159 | 34° | 47km/h | 6407m | 3.9m/s | -14.3°C | 85.8% | 0hPa | 3.0V | 00:00:00 | 00:44:04 | 00:00:00 | |
| OE3JTB-15 | 2026-08-31 02:32:54 | 48.28245 | 14.25147 | 33° | 49km/h | 6402m | 5.2m/s | -14.3°C | 85.4% | 0hPa | 3.0V | 00:00:00 | 00:00:00 | 00:00:00 | |
| OE5DRO-10 | 2026-08-31 02:32:53 | 48.28234 | 14.25136 | 35° | 47km/h | 6397m | 4.5m/s | -14.3°C | 85.2% | 0hPa | 3.0V | 00:00:00 | 00:00:00 | 00:00:00 | |
| OM5KV | 2026-08-31 02:32:51 | 48.28224 | 14.25125 | 39° | 46km/h | 6393m | 4.5m/s | -14.4°C | 82.3% | 0hPa | 3.0V | 00:00:00 | 00:00:00 | 00:00:00 | |
| OM5KV | 2026-08-31 02:32:47 | 48.28186 | 14.25077 | 41° | 46km/h | 6371m | 6.5m/s | -14.2°C | 82.1% | 0hPa | 3.0V | 00:00:00 | 00:00:00 | 00:00:00 | |
| OE5MMP-10 | 2026-08-31 02:32:45 | 48.28166 | 14.25043 | 59° | 47km/h | 6353m | 5.3m/s | -14.0°C | 84.2% | 0hPa | 3.0V | 00:00:00 | 00:43:54 | 00:00:00 | |
| OM5KV | 2026-08-31 02:32:44 | 48.28166 | 14.25043 | 60° | 40km/h | 6353m | 5.3m/s | -14.1°C | 81.8% | 0hPa | 3.0V | 00:00:00 | 00:00:00 | 00:00:00 | |
| OE5HKT-10 | 2026-08-31 02:32:43 | 48.28154 | 14.25015 | 56° | 51km/h | 6342m | 6.0m/s | -14.0°C | 83.0% | 0hPa | 3.0V | 00:00:00 | 00:00:00 | 00:00:00 | |
| OM5KV | 2026-08-31 02:32:42 | 48.28154 | 14.25015 | 56° | 46km/h | 6342m | 6.0m/s | -14.0°C | 80.6% | 0hPa | 3.0V | 00:00:00 | 00:00:00 | 00:00:00 | |
| OE5WHR-10 | 2026-08-31 02:32:38 | 48.28108 | 14.24955 | 34° | 51km/h | 6314m | 6.1m/s | -13.8°C | 83.0% | 0hPa | 3.0V | 00:00:00 | 00:43:47 | 00:00:00 | |
| OE5DXL-15 | 2026-08-31 02:32:36 | 48.28087 | 14.24933 | 37° | 49km/h | 6302m | 5.3m/s | -13.7°C | 82.8% | 0hPa | 3.0V | 00:00:00 | 00:00:00 | 00:00:00 | |
| OE5MMP-10 | 2026-08-31 02:32:35 | 48.28075 | 14.24920 | 39° | 53km/h | 6298m | 4.3m/s | -13.7°C | 83.0% | 0hPa | 3.0V | 00:00:00 | 00:43:44 | 08:30:00 | |
| OE5FHM-15 | 2026-08-31 02:32:34 | 48.28064 | 14.24906 | 41° | 49km/h | 6292m | 7.3m/s | -13.7°C | 82.0% | 0hPa | 3.0V | 00:00:00 | 00:43:43 | 00:00:00 | |
| PG1ADW-2 | 2026-08-31 02:32:33 | 48.28053 | 14.24890 | 47° | 51km/h | 6285m | 6.8m/s | -13.7°C | 81.6% | 0hPa | 3.0V | 00:00:00 | 00:00:00 | 00:00:00 | |
| OM5KV | 2026-08-31 02:32:31 | 48.28043 | 14.24873 | 53° | 58km/h | 6280m | 3.6m/s | -13.7°C | 79.8% | 0hPa | 3.0V | 00:00:00 | 00:00:00 | 00:00:00 | |
| OM5KV | 2026-08-31 02:32:27 | 48.28010 | 14.24809 | 48° | 44km/h | 6260m | 5.3m/s | -13.5°C | 79.9% | 0hPa | 3.0V | 00:00:00 | 00:00:00 | 00:00:00 | |
| OE5MMP-10 | 2026-08-31 02:32:25 | 48.27984 | 14.24780 | 29° | 49km/h | 6247m | 5.2m/s | -13.4°C | 81.7% | 0hPa | 3.0V | 00:00:00 | 00:43:34 | 00:00:00 | |
| OE5HKT-10 | 2026-08-31 02:32:22 | 48.27951 | 14.24753 | 30° | 47km/h | 6234m | 5.0m/s | -13.3°C | 81.4% | 0hPa | 3.0V | 00:00:00 | 00:43:31 | 00:00:00 | |
| OM5KV | 2026-08-31 02:32:21 | 48.27952 | 14.24753 | 30° | 51km/h | 6234m | 5.1m/s | -13.4°C | 79.1% | 0hPa | 3.0V | 00:00:00 | 00:00:00 | 00:00:00 | |
| OM5KV | 2026-08-31 02:32:20 | 48.27940 | 14.24743 | 30° | 51km/h | 6229m | 4.2m/s | -13.3°C | 0% | 0hPa | 3.0V | 00:00:00 | 00:00:00 | 00:00:00 | |
| OE5WHR-10 | 2026-08-31 02:32:17 | 48.27899 | 14.24703 | 37° | 47km/h | 6212m | 5.7m/s | -13.1°C | 84.1% | 0hPa | 3.0V | 00:00:00 | 00:00:00 | 00:00:00 | |
| OE5MMP-10 | 2026-08-31 02:32:15 | 48.27880 | 14.24679 | 46° | 46km/h | 6202m | 4.4m/s | -13.0°C | 86.3% | 0hPa | 3.0V | 00:00:00 | 00:43:24 | 00:00:00 | |
| OM5KV | 2026-08-31 02:32:14 | 48.27880 | 14.24679 | 46° | 51km/h | 6202m | 4.5m/s | -13.1°C | 0% | 0hPa | 3.0V | 00:00:00 | 00:00:00 | 00:00:00 | |
| PG1ADW-2 | 2026-08-31 02:32:13 | 48.27861 | 14.24650 | 43° | 47km/h | 6191m | 5.5m/s | -12.9°C | 86.7% | 0hPa | 3.0V | 00:00:00 | 00:43:22 | 00:00:00 | |
| S52SK | 2026-08-31 02:32:11 | 48.27851 | 14.24637 | 40° | 51km/h | 6185m | 6.9m/s | 0°C | 0% | 0hPa | 3.0V | 00:00:00 | 00:00:00 | 00:00:00 | |
| OM5KV | 2026-08-31 02:32:10 | 48.27842 | 14.24625 | 42° | 44km/h | 6180m | 4.2m/s | -12.7°C | 90.3% | 0hPa | 3.0V | 00:00:00 | 00:00:00 | 00:00:00 | |
| OM5KV | 2026-08-31 02:32:08 | 48.27827 | 14.24604 | 50° | 37km/h | 6171m | 4.9m/s | -12.6°C | 0% | 0hPa | 3.0V | 00:00:00 | 00:00:00 | 00:00:00 | |
| OE5DXL-15 | 2026-08-31 02:32:06 | 48.27810 | 14.24568 | 60° | 47km/h | 6158m | 4.1m/s | -12.5°C | 97.5% | 0hPa | 3.0V | 00:00:00 | 00:00:00 | 00:00:00 | |
| OE5MMP-10 | 2026-08-31 02:32:05 | 48.27805 | 14.24553 | 63° | 49km/h | 6153m | 4.5m/s | -12.4°C | 97.4% | 0hPa | 3.0V | 00:00:00 | 00:43:14 | 00:00:00 | |
| OE5FHM-15 | 2026-08-31 02:32:04 | 48.27799 | 14.24536 | 62° | 47km/h | 6149m | 4.0m/s | -12.4°C | 97.4% | 0hPa | 3.0V | 00:00:00 | 00:43:13 | 00:00:00 | |
| OE5HKT-10 | 2026-08-31 02:32:01 | 48.27776 | 14.24483 | 51° | 46km/h | 6135m | 5.5m/s | -12.4°C | 96.7% | 0hPa | 3.0V | 00:00:00 | 00:00:00 | 08:30:00 | |
| OM5KV | 2026-08-31 02:31:58 | 48.27756 | 14.24454 | 41° | 49km/h | 6125m | 5.5m/s | -12.4°C | 94.3% | 0hPa | 3.0V | 00:00:00 | 00:00:00 | 00:00:00 | |
| OM5KV | 2026-08-31 02:31:57 | 48.27748 | 14.24443 | 41° | 42km/h | 6120m | 4.3m/s | -12.4°C | 0% | 0hPa | 3.0V | 00:00:00 | 00:00:00 | 00:00:00 | |
| OE5MMP-10 | 2026-08-31 02:31:55 | 48.27727 | 14.24408 | 57° | 49km/h | 6102m | 5.5m/s | -12.1°C | 97.7% | 0hPa | 3.0V | 00:00:00 | 00:43:04 | 00:00:00 | |
| PG1ADW-2 | 2026-08-31 02:31:53 | 48.27713 | 14.24377 | 54° | 47km/h | 6093m | 4.0m/s | -12.1°C | 97.7% | 0hPa | 3.0V | 00:00:00 | 00:00:00 | 08:30:00 | |
| OM5KV | 2026-08-31 02:31:52 | 48.27713 | 14.24377 | 55° | 53km/h | 6093m | 4.1m/s | -12.2°C | 0% | 0hPa | 3.0V | 00:00:00 | 00:00:00 | 00:00:00 | |
| OM5KV | 2026-08-31 02:31:51 | 48.27705 | 14.24361 | 50° | 55km/h | 6089m | 4.4m/s | -12.2°C | 0% | 0hPa | 3.0V | 00:00:00 | 00:00:00 | 00:00:00 | |
| OM5KV | 2026-08-31 02:31:46 | 48.27668 | 14.24284 | 70° | 44km/h | 6061m | 4.5m/s | -12.0°C | 0% | 0hPa | 3.0V | 00:00:00 | 00:00:00 | 00:00:00 | |
| OE5MMP-10 | 2026-08-31 02:31:45 | 48.27660 | 14.24257 | 63° | 44km/h | 6051m | 4.8m/s | -11.9°C | 96.6% | 0hPa | 3.0V | 00:00:00 | 00:42:54 | 00:00:00 | |
| OE5HKT-10 | 2026-08-31 02:31:40 | 48.27633 | 14.24200 | 47° | 44km/h | 6023m | 4.4m/s | -11.8°C | 98.3% | 0hPa | 3.0V | 00:00:00 | 00:00:00 | 00:00:00 | |
| OE5DRO-10 | 2026-08-31 02:31:37 | 48.27610 | 14.24156 | 57° | 44km/h | 6005m | 5.1m/s | -11.7°C | 97.0% | 0hPa | 3.0V | 00:00:00 | 00:00:00 | 00:00:00 | |
| OE5DXL-15 | 2026-08-31 02:31:36 | 48.27602 | 14.24139 | 54° | 46km/h | 6000m | 5.5m/s | -11.7°C | 97.6% | 0hPa | 3.0V | 00:00:00 | 00:00:00 | 00:00:00 | |
| OE5MMP-10 | 2026-08-31 02:31:35 | 48.27592 | 14.24122 | 48° | 44km/h | 5994m | 6.8m/s | -11.6°C | 96.3% | 0hPa | 3.0V | 00:00:00 | 00:42:44 | 00:00:00 | |
| OE5FHM-15 | 2026-08-31 02:31:34 | 48.27582 | 14.24108 | 39° | 46km/h | 5988m | 4.3m/s | -11.6°C | 97.3% | 0hPa | 3.0V | 00:00:00 | 00:42:43 | 00:00:00 | |
| PG1ADW-2 | 2026-08-31 02:31:33 | 48.27571 | 14.24096 | 35° | 42km/h | 5983m | 5.4m/s | -11.5°C | 97.3% | 0hPa | 3.0V | 00:00:00 | 00:00:00 | 00:00:00 | |
| OM5KV | 2026-08-31 02:31:29 | 48.27546 | 14.24069 | 45° | 37km/h | 5966m | 4.4m/s | -11.5°C | 0% | 0hPa | 3.0V | 00:00:00 | 00:00:00 | 00:00:00 | |
| OE3JTB-15 | 2026-08-31 02:31:27 | 48.27526 | 14.24037 | 44° | 44km/h | 5950m | 4.6m/s | -11.4°C | 97.6% | 0hPa | 3.0V | 00:00:00 | 00:00:00 | 00:00:00 | |
| OE5MMP-10 | 2026-08-31 02:31:25 | 48.27509 | 14.24017 | 36° | 42km/h | 5941m | 5.4m/s | -11.3°C | 97.9% | 0hPa | 3.0V | 00:00:00 | 00:42:34 | 00:00:00 | |
| OM5KV | 2026-08-31 02:31:23 | 48.27502 | 14.24008 | 41° | 37km/h | 5935m | 6.4m/s | 0°C | 0% | 0hPa | 3.0V | 00:00:00 | 00:00:00 | 00:00:00 | |
| OE5HKT-10 | 2026-08-31 02:31:19 | 48.27473 | 14.23948 | 45° | 46km/h | 5908m | 5.1m/s | -11.1°C | 97.8% | 0hPa | 3.0V | 00:00:00 | 00:42:28 | 00:00:00 | |
| OE5DRO-10 | 2026-08-31 02:31:18 | 48.27465 | 14.23937 | 36° | 47km/h | 5902m | 6.7m/s | -11.1°C | 97.1% | 0hPa | 3.0V | 00:00:00 | 00:00:00 | 00:00:00 | |
| OE5MMP-10 | 2026-08-31 02:31:15 | 48.27434 | 14.23910 | 32° | 51km/h | 5885m | 7.3m/s | -11.0°C | 97.3% | 0hPa | 3.0V | 00:00:00 | 00:42:24 | 00:00:00 | |
| OE5WHR-10 | 2026-08-31 02:31:14 | 48.27422 | 14.23899 | 37° | 46km/h | 5879m | 5.0m/s | -11.0°C | 98.3% | 0hPa | 3.0V | 00:00:00 | 00:00:00 | 08:30:00 | |
| PG1ADW-2 | 2026-08-31 02:31:13 | 48.27412 | 14.23886 | 39° | 46km/h | 5875m | 3.5m/s | -11.0°C | 98.8% | 0hPa | 3.0V | 00:00:00 | 00:00:00 | 00:00:00 | |
| OM5KV | 2026-08-31 02:31:09 | 48.27380 | 14.23852 | 33° | 51km/h | 5857m | 6.8m/s | 0°C | 0% | 0hPa | 3.0V | 00:00:00 | 00:00:00 | 00:00:00 | |
| OE5DXL-15 | 2026-08-31 02:31:06 | 48.27341 | 14.23803 | 45° | 38km/h | 5834m | 7.6m/s | -10.7°C | 96.9% | 0hPa | 3.0V | 00:00:00 | 00:00:00 | 08:30:00 | |
| OE5MMP-10 | 2026-08-31 02:31:05 | 48.27331 | 14.23789 | 42° | 40km/h | 5827m | 7.8m/s | -10.7°C | 97.1% | 0hPa | 3.0V | 00:00:00 | 00:42:14 | 08:30:00 | |
| OE5FHM-15 | 2026-08-31 02:31:04 | 48.27321 | 14.23777 | 40° | 38km/h | 5820m | 6.3m/s | -10.7°C | 97.9% | 0hPa | 3.0V | 00:00:00 | 00:42:13 | 00:00:00 | |
| S52SK | 2026-08-31 02:31:00 | 48.27299 | 14.23747 | 44° | 31km/h | 5801m | 4.4m/s | 0°C | 0% | 0hPa | 3.0V | 00:00:00 | 00:00:00 | 00:00:00 | |
| OE5DRO-10 | 2026-08-31 02:30:59 | 48.27287 | 14.23733 | 26° | 38km/h | 5789m | 7.2m/s | -10.4°C | 96.9% | 0hPa | 3.0V | 00:00:00 | 00:00:00 | 00:00:00 | |
| OE5HKT-10 | 2026-08-31 02:30:58 | 48.27278 | 14.23727 | 25° | 38km/h | 5783m | 4.2m/s | -10.4°C | 98.3% | 0hPa | 3.0V | 00:00:00 | 00:00:00 | 00:00:00 | |
| OE5MMP-10 | 2026-08-31 02:30:55 | 48.27250 | 14.23700 | 44° | 40km/h | 5766m | 5.8m/s | -10.3°C | 97.7% | 0hPa | 2.9V | 00:00:00 | 00:42:04 | 00:00:00 | |
| PG1ADW-2 | 2026-08-31 02:30:53 | 48.27237 | 14.23676 | 56° | 37km/h | 5755m | 4.7m/s | -10.2°C | 97.9% | 0hPa | 2.9V | 00:00:00 | 00:42:02 | 00:00:00 | |
| OE5MMP-10 | 2026-08-31 02:30:45 | 48.27176 | 14.23595 | 48° | 35km/h | 5712m | 5.9m/s | -10.0°C | 97.8% | 0hPa | 3.0V | 00:00:00 | 00:41:54 | 00:00:00 | |
| OE5DRO-10 | 2026-08-31 02:30:40 | 48.27149 | 14.23556 | 45° | 37km/h | 5681m | 5.6m/s | -9.8°C | 98.0% | 0hPa | 3.0V | 00:00:00 | 00:00:00 | 00:00:00 | |
| OE5HKT-10 | 2026-08-31 02:30:37 | 48.27127 | 14.23530 | 41° | 37km/h | 5666m | 6.2m/s | -9.7°C | 97.8% | 0hPa | 3.0V | 00:00:00 | 00:00:00 | 00:00:00 | |
| OE5DXL-15 | 2026-08-31 02:30:36 | 48.27120 | 14.23518 | 47° | 38km/h | 5660m | 5.5m/s | -9.7°C | 97.6% | 0hPa | 3.0V | 00:00:00 | 00:00:00 | 00:00:00 | |
| OE5MMP-10 | 2026-08-31 02:30:35 | 48.27113 | 14.23506 | 55° | 37km/h | 5654m | 6.3m/s | -9.6°C | 97.7% | 0hPa | 3.0V | 00:00:00 | 00:41:44 | 00:00:00 | |
| OE5FHM-15 | 2026-08-31 02:30:34 | 48.27107 | 14.23494 | 54° | 38km/h | 5649m | 3.5m/s | -9.6°C | 98.6% | 0hPa | 3.0V | 00:00:00 | 00:41:43 | 00:00:00 | |
| PG1ADW-2 | 2026-08-31 02:30:33 | 48.27102 | 14.23484 | 57° | 38km/h | 5644m | 5.3m/s | -9.6°C | 97.9% | 0hPa | 3.0V | 00:00:00 | 00:00:00 | 00:00:00 | |
| OE5WHR-10 | 2026-08-31 02:30:32 | 48.27098 | 14.23474 | 54° | 37km/h | 5639m | 5.9m/s | -9.5°C | 97.4% | 0hPa | 3.0V | 00:00:00 | 00:41:41 | 00:00:00 | |
| OE3JTB-15 | 2026-08-31 02:30:29 | 48.27080 | 14.23455 | 23° | 38km/h | 5623m | 4.9m/s | -9.5°C | 98.8% | 0hPa | 3.0V | 00:00:00 | 00:41:38 | 00:00:00 | |
| OE5MMP-10 | 2026-08-31 02:30:25 | 48.27043 | 14.23423 | 42° | 38km/h | 5600m | 4.1m/s | -9.3°C | 98.6% | 0hPa | 3.0V | 00:00:00 | 00:41:34 | 00:00:00 | |
| OE5DRO-10 | 2026-08-31 02:30:21 | 48.27016 | 14.23389 | 22° | 38km/h | 5580m | 6.0m/s | -9.2°C | 97.2% | 0hPa | 3.0V | 00:00:00 | 00:00:00 | 00:00:00 | |
| OE5HKT-10 | 2026-08-31 02:30:16 | 48.26968 | 14.23366 | 28° | 37km/h | 5553m | 5.9m/s | -9.1°C | 97.7% | 0hPa | 3.0V | 00:00:00 | 00:41:25 | 00:00:00 | |
| OE5MMP-10 | 2026-08-31 02:30:15 | 48.26958 | 14.23357 | 35° | 38km/h | 5547m | 5.5m/s | -9.0°C | 97.7% | 0hPa | 3.0V | 00:00:00 | 00:41:24 | 00:00:00 | |
| PG1ADW-2 | 2026-08-31 02:30:13 | 48.26942 | 14.23338 | 41° | 37km/h | 5536m | 5.2m/s | -8.9°C | 97.3% | 0hPa | 3.0V | 00:00:00 | 00:00:00 | 00:00:00 | |
| OE5WHR-10 | 2026-08-31 02:30:11 | 48.26929 | 14.23325 | 22° | 37km/h | 5526m | 4.9m/s | -8.9°C | 97.9% | 0hPa | 3.0V | 00:00:00 | 00:00:00 | 00:00:00 | |
| OE5DXL-15 | 2026-08-31 02:30:06 | 48.26881 | 14.23300 | 33° | 37km/h | 5499m | 5.7m/s | -8.8°C | 97.8% | 0hPa | 3.0V | 00:00:00 | 00:00:00 | 00:00:00 | |
| OE5MMP-10 | 2026-08-31 02:30:05 | 48.26872 | 14.23291 | 39° | 35km/h | 5493m | 5.7m/s | -8.8°C | 97.7% | 0hPa | 3.0V | 00:00:00 | 00:41:14 | 00:00:00 | |
| OE5FHM-15 | 2026-08-31 02:30:04 | 48.26865 | 14.23282 | 45° | 35km/h | 5487m | 4.7m/s | -8.8°C | 98.1% | 0hPa | 3.0V | 00:00:00 | 00:41:13 | 00:00:00 | |
| OE5DRO-10 | 2026-08-31 02:30:02 | 48.26853 | 14.23265 | 37° | 33km/h | 5476m | 6.5m/s | -8.7°C | 98.3% | 0hPa | 3.0V | 00:00:00 | 00:00:00 | 00:00:00 | |
| OE3JTB-15 | 2026-08-31 02:30:00 | 48.26837 | 14.23251 | 27° | 37km/h | 5464m | 5.3m/s | -8.7°C | 98.8% | 0hPa | 3.0V | 00:00:00 | 00:00:00 | 08:30:00 | |
| OE5HKT-10 | 2026-08-31 02:29:55 | 48.26802 | 14.23221 | 34° | 37km/h | 5431m | 8.4m/s | -8.5°C | 97.6% | 0hPa | 3.0V | 00:00:00 | 00:00:00 | 00:00:00 | |
| PG1ADW-2 | 2026-08-31 02:29:53 | 48.26785 | 14.23208 | 23° | 37km/h | 5418m | 7.4m/s | -8.4°C | 98.4% | 0hPa | 3.0V | 00:00:00 | 00:00:00 | 00:00:00 | |
| OE5WHR-10 | 2026-08-31 02:29:50 | 48.26760 | 14.23196 | 21° | 37km/h | 5396m | 6.1m/s | -8.3°C | 98.6% | 0hPa | 3.0V | 00:00:00 | 00:00:00 | 00:00:00 | |
| S52SK | 2026-08-31 02:29:49 | 48.26760 | 14.23196 | 21° | 27km/h | 5396m | 6.2m/s | 0°C | 0% | 0hPa | 3.0V | 00:00:00 | 00:00:00 | 00:00:00 | |
| OE5MMP-10 | 2026-08-31 02:29:45 | 48.26726 | 14.23180 | 7° | 42km/h | 5368m | 4.9m/s | -8.2°C | 98.9% | 0hPa | 3.0V | 00:00:00 | 00:40:54 | 00:00:00 | |
| OE5DRO-10 | 2026-08-31 02:29:43 | 48.26705 | 14.23175 | 12° | 40km/h | 5357m | 6.1m/s | -8.1°C | 97.9% | 0hPa | 3.0V | 00:00:00 | 00:00:00 | 00:00:00 | |
| OE5DXL-15 | 2026-08-31 02:29:36 | 48.26637 | 14.23127 | 22° | 42km/h | 5315m | 5.9m/s | -7.9°C | 98.7% | 0hPa | 3.0V | 00:00:00 | 00:00:00 | 00:00:00 | |
| OE5HKT-10 | 2026-08-31 02:29:34 | 48.26621 | 14.23116 | 28° | 42km/h | 5301m | 7.4m/s | -7.8°C | 98.0% | 0hPa | 3.0V | 00:00:00 | 00:00:00 | 00:00:00 | |
| PG1ADW-2 | 2026-08-31 02:29:33 | 48.26613 | 14.23110 | 22° | 42km/h | 5295m | 4.3m/s | -7.8°C | 99.1% | 0hPa | 3.0V | 00:00:00 | 00:40:42 | 00:00:00 | |
| OE3JTB-15 | 2026-08-31 02:29:31 | 48.26595 | 14.23102 | 17° | 44km/h | 5281m | 6.5m/s | -7.7°C | 98.4% | 0hPa | 3.0V | 00:00:00 | 00:00:00 | 00:00:00 | |
| OE5WHR-10 | 2026-08-31 02:29:29 | 48.26573 | 14.23090 | 24° | 44km/h | 5269m | 6.6m/s | -7.7°C | 98.2% | 0hPa | 3.0V | 00:00:00 | 00:40:38 | 00:00:00 | |
| OE5MMP-10 | 2026-08-31 02:29:25 | 48.26536 | 14.23070 | 5° | 44km/h | 5245m | 5.9m/s | -7.6°C | 99.1% | 0hPa | 3.0V | 00:00:00 | 00:40:34 | 00:00:00 | |
| OE5DRO-10 | 2026-08-31 02:29:24 | 48.26527 | 14.23069 | 1° | 44km/h | 5239m | 5.7m/s | -7.6°C | 99.2% | 0hPa | 3.0V | 00:00:00 | 00:00:00 | 08:30:00 | |
| OE5MMP-10 | 2026-08-31 02:29:15 | 48.26429 | 14.23030 | 6° | 44km/h | 5186m | 6.3m/s | -7.3°C | 97.9% | 0hPa | 3.0V | 00:00:00 | 00:40:24 | 00:00:00 | |
| DO3MHA-12 | 2026-08-31 02:29:13 | 48.26408 | 14.23027 | 8° | 42km/h | 5174m | 5.3m/s | -7.2°C | 98.0% | 0hPa | 3.0V | 00:00:00 | 00:40:22 | 00:00:00 | |
| OE5WHR-10 | 2026-08-31 02:29:08 | 48.26351 | 14.22996 | 23° | 40km/h | 5147m | 4.7m/s | -7.1°C | 99.9% | 0hPa | 3.0V | 00:00:00 | 00:00:00 | 00:00:00 | |
| OE5MMP-10 | 2026-08-31 02:29:05 | 48.26323 | 14.22986 | 6° | 44km/h | 5130m | 5.1m/s | -7.0°C | 99.1% | 0hPa | 3.0V | 00:00:00 | 00:40:14 | 00:00:00 | |
| OE5FHM-15 | 2026-08-31 02:29:04 | 48.26311 | 14.22984 | 8° | 40km/h | 5124m | 6.2m/s | -6.9°C | 98.5% | 0hPa | 3.0V | 00:00:00 | 00:40:13 | 00:00:00 | |
| OE3JTB-15 | 2026-08-31 02:29:02 | 48.26286 | 14.22976 | 19° | 40km/h | 5111m | 4.4m/s | -6.9°C | 99.3% | 0hPa | 3.0V | 00:00:00 | 00:40:11 | 00:00:00 | |
| OE5MMP-10 | 2026-08-31 02:28:55 | 48.26219 | 14.22939 | 11° | 37km/h | 5068m | 6.0m/s | -6.7°C | 99.2% | 0hPa | 3.0V | 00:00:00 | 00:40:04 | 00:00:00 | |
| PG1ADW-2 | 2026-08-31 02:28:53 | 48.26198 | 14.22929 | 24° | 38km/h | 5055m | 5.9m/s | -6.6°C | 99.4% | 0hPa | 3.0V | 00:00:00 | 00:00:00 | 08:30:00 | |
| OE5HKT-10 | 2026-08-31 02:28:52 | 48.26188 | 14.22922 | 33° | 38km/h | 5048m | 6.6m/s | -6.6°C | 99.2% | 0hPa | 3.0V | 00:00:00 | 00:00:00 | 08:30:00 | |
| OE5WHR-10 | 2026-08-31 02:28:47 | 48.26155 | 14.22886 | 20° | 40km/h | 5018m | 6.0m/s | -6.4°C | 99.2% | 0hPa | 3.0V | 00:00:00 | 00:00:00 | 00:00:00 | |
| OE5DRO-10 | 2026-08-31 02:28:46 | 48.26146 | 14.22882 | 16° | 40km/h | 5012m | 4.9m/s | -6.4°C | 99.5% | 0hPa | 3.0V | 00:00:00 | 00:00:00 | 00:00:00 | |
| OE5MMP-10 | 2026-08-31 02:28:45 | 48.26136 | 14.22878 | 18° | 40km/h | 5007m | 6.0m/s | -6.3°C | 98.9% | 0hPa | 3.0V | 00:00:00 | 00:39:54 | 00:00:00 | |
| S52SK | 2026-08-31 02:28:44 | 48.26136 | 14.22878 | 18° | 44km/h | 5007m | 6.0m/s | 0°C | 0% | 0hPa | 3.0V | 00:00:00 | 00:00:00 | 00:00:00 | |
| S52SK | 2026-08-31 02:28:38 | 48.26079 | 14.22825 | 33° | 35km/h | 4971m | 5.7m/s | 0°C | 0% | 0hPa | 3.0V | 00:00:00 | 00:00:00 | 00:00:00 | |
| OE5DXL-15 | 2026-08-31 02:28:36 | 48.26056 | 14.22813 | 9° | 40km/h | 4956m | 5.2m/s | -6.1°C | 99.4% | 0hPa | 3.0V | 00:00:00 | 00:00:00 | 00:00:00 | |
| OE5MMP-10 | 2026-08-31 02:28:35 | 48.26046 | 14.22811 | 9° | 38km/h | 4951m | 5.3m/s | -6.1°C | 99.5% | 0hPa | 3.0V | 00:00:00 | 00:39:44 | 00:00:00 | |
| OE5FHM-15 | 2026-08-31 02:28:34 | 48.26036 | 14.22808 | 12° | 40km/h | 4946m | 4.2m/s | -6.1°C | 99.7% | 0hPa | 3.0V | 00:00:00 | 00:39:43 | 00:00:00 | |
| OE3JTB-15 | 2026-08-31 02:28:33 | 48.26014 | 14.22798 | 23° | 40km/h | 4935m | 6.1m/s | -6.0°C | 99.4% | 0hPa | 3.0V | 00:00:00 | 00:00:00 | 00:00:00 | |
| OE5HKT-10 | 2026-08-31 02:28:31 | 48.26004 | 14.22790 | 31° | 38km/h | 4929m | 5.4m/s | -6.0°C | 99.8% | 0hPa | 3.0V | 00:00:00 | 00:00:00 | 00:00:00 | |
| OE5DRO-10 | 2026-08-31 02:28:27 | 48.25974 | 14.22756 | 36° | 40km/h | 4906m | 5.5m/s | -5.9°C | 99.5% | 0hPa | 3.0V | 00:00:00 | 00:00:00 | 00:00:00 | |
| OE5WHR-10 | 2026-08-31 02:28:26 | 48.25968 | 14.22751 | 22° | 40km/h | 4901m | 6.1m/s | -5.9°C | 99.4% | 0hPa | 3.0V | 00:00:00 | 00:39:35 | 00:00:00 | |
| OE5MMP-10 | 2026-08-31 02:28:25 | 48.25960 | 14.22747 | 15° | 40km/h | 4895m | 5.0m/s | -5.9°C | 99.7% | 0hPa | 3.0V | 00:00:00 | 00:39:34 | 00:00:00 | |
| OE5MMP-10 | 2026-08-31 02:28:15 | 48.25867 | 14.22686 | 15° | 40km/h | 4841m | 5.6m/s | -5.6°C | 0% | 0hPa | 3.0V | 00:00:00 | 00:39:24 | 00:00:00 | |
| PG1ADW-2 | 2026-08-31 02:28:13 | 48.25849 | 14.22679 | 17° | 44km/h | 4829m | 4.6m/s | -5.6°C | 0% | 0hPa | 3.0V | 00:00:00 | 00:39:22 | 00:00:00 | |
| OE5HKT-10 | 2026-08-31 02:28:10 | 48.25819 | 14.22659 | 35° | 42km/h | 4810m | 6.0m/s | -5.5°C | 99.9% | 0hPa | 3.0V | 00:00:00 | 00:39:19 | 00:00:00 | |
| OE5DRO-10 | 2026-08-31 02:28:08 | 48.25802 | 14.22638 | 44° | 42km/h | 4797m | 6.4m/s | -5.4°C | 0% | 0hPa | 3.0V | 00:00:00 | 00:00:00 | 00:00:00 | |
| OE5DXL-15 | 2026-08-31 02:28:06 | 48.25787 | 14.22620 | 32° | 44km/h | 4785m | 4.6m/s | -5.4°C | 0% | 0hPa | 3.0V | 00:00:00 | 00:00:00 | 00:00:00 | |
| OE5MMP-10 | 2026-08-31 02:28:05 | 48.25779 | 14.22613 | 29° | 44km/h | 4780m | 5.3m/s | -5.3°C | 0% | 0hPa | 3.0V | 00:00:00 | 00:39:14 | 08:30:00 | |
| OE3JTB-15 | 2026-08-31 02:28:04 | 48.25769 | 14.22605 | 31° | 44km/h | 4774m | 5.7m/s | -5.3°C | 0% | 0hPa | 3.0V | 00:00:00 | 00:00:00 | 00:00:00 | |
| OE5MMP-10 | 2026-08-31 02:27:55 | 48.25686 | 14.22516 | 43° | 44km/h | 4720m | 5.1m/s | -5.0°C | 99.5% | 0hPa | 3.0V | 00:00:00 | 00:39:04 | 00:00:00 | |
| PG1ADW-2 | 2026-08-31 02:27:53 | 48.25671 | 14.22492 | 47° | 44km/h | 4710m | 6.2m/s | -4.9°C | 99.0% | 0hPa | 3.0V | 00:00:00 | 00:00:00 | 00:00:00 | |
| OE5DRO-10 | 2026-08-31 02:27:49 | 48.25638 | 14.22459 | 28° | 46km/h | 4688m | 6.5m/s | -4.9°C | 99.7% | 0hPa | 3.0V | 00:00:00 | 00:00:00 | 00:00:00 | |
| OE5MMP-10 | 2026-08-31 02:27:45 | 48.25598 | 14.22415 | 45° | 46km/h | 4665m | 4.6m/s | -4.8°C | 0% | 0hPa | 3.0V | 00:00:00 | 00:38:54 | 00:00:00 | |
| OE5WHR-10 | 2026-08-31 02:27:44 | 48.25590 | 14.22403 | 43° | 44km/h | 4660m | 5.0m/s | -4.7°C | 0% | 0hPa | 3.0V | 00:00:00 | 00:00:00 | 00:00:00 | |
| OE5DXL-15 | 2026-08-31 02:27:36 | 48.25514 | 14.22331 | 43° | 46km/h | 4618m | 4.4m/s | -4.5°C | 0% | 0hPa | 3.0V | 00:00:00 | 00:00:00 | 00:00:00 | |
| OE5MMP-10 | 2026-08-31 02:27:35 | 48.25506 | 14.22320 | 42° | 42km/h | 4613m | 5.2m/s | -4.5°C | 0% | 0hPa | 3.0V | 00:00:00 | 00:38:44 | 00:00:00 | |
| PG1ADW-2 | 2026-08-31 02:27:33 | 48.25489 | 14.22302 | 27° | 46km/h | 4601m | 5.6m/s | -4.4°C | 0% | 0hPa | 3.0V | 00:00:00 | 00:00:00 | 00:00:00 | |
| OE5DRO-10 | 2026-08-31 02:27:30 | 48.25455 | 14.22281 | 22° | 46km/h | 4584m | 6.1m/s | -4.3°C | 0% | 0hPa | 3.0V | 00:00:00 | 00:00:00 | 00:00:00 | |
| OE5HKT-10 | 2026-08-31 02:27:28 | 48.25450 | 14.22269 | 21° | 46km/h | 4571m | 6.3m/s | -4.2°C | 0% | 0hPa | 3.0V | 00:00:00 | 00:00:00 | 00:00:00 | |
| OE5MMP-10 | 2026-08-31 02:27:25 | 48.25408 | 14.22254 | 26° | 49km/h | 4553m | 6.6m/s | -4.1°C | 0% | 0hPa | 3.0V | 00:00:00 | 00:38:34 | 00:00:00 | |
| OE5WHR-10 | 2026-08-31 02:27:23 | 48.25387 | 14.22237 | 30° | 46km/h | 4542m | 7.1m/s | -4.0°C | 0% | 0hPa | 3.0V | 00:00:00 | 00:38:32 | 00:00:00 | |
| OE5FHM-15 | 2026-08-31 02:27:15 | 48.25303 | 14.22157 | 32° | 38km/h | 4490m | 6.4m/s | -3.7°C | 0% | 0hPa | 3.0V | 00:00:00 | 00:38:24 | 00:00:00 | |
| PG1ADW-2 | 2026-08-31 02:27:13 | 48.25282 | 14.22140 | 26° | 38km/h | 4477m | 6.8m/s | -3.6°C | 0% | 0hPa | 3.0V | 00:00:00 | 00:00:00 | 00:00:00 | |
| OE5DRO-10 | 2026-08-31 02:27:11 | 48.25260 | 14.22127 | 17° | 38km/h | 4460m | 8.3m/s | -3.5°C | 0% | 0hPa | 3.0V | 00:00:00 | 00:00:00 | 00:00:00 | |
| OE5HKT-10 | 2026-08-31 02:27:07 | 48.25212 | 14.22116 | 11° | 35km/h | 4432m | 5.5m/s | -3.4°C | 0% | 0hPa | 3.0V | 00:00:00 | 00:38:16 | 00:00:00 | |
| OE5DXL-15 | 2026-08-31 02:27:06 | 48.25204 | 14.22113 | 19° | 37km/h | 4427m | 5.6m/s | -3.4°C | 0% | 0hPa | 3.0V | 00:00:00 | 00:00:00 | 00:00:00 | |
| OE5MMP-10 | 2026-08-31 02:27:05 | 48.25197 | 14.22109 | 26° | 35km/h | 4421m | 5.2m/s | -3.2°C | 0% | 0hPa | 3.0V | 00:00:00 | 00:38:14 | 00:00:00 | |
| OE5WHR-10 | 2026-08-31 02:27:02 | 48.25174 | 14.22087 | 36° | 35km/h | 4405m | 5.5m/s | -3.3°C | 0% | 0hPa | 3.0V | 00:00:00 | 00:00:00 | 00:00:00 | |
| OE5MMP-10 | 2026-08-31 02:26:55 | 48.25118 | 14.22051 | 14° | 35km/h | 4367m | 6.2m/s | -3.0°C | 0% | 0hPa | 3.0V | 00:00:00 | 00:38:04 | 00:00:00 | |
| PG1ADW-2 | 2026-08-31 02:26:53 | 48.25100 | 14.22041 | 28° | 37km/h | 4357m | 4.0m/s | -3.0°C | 0% | 0hPa | 3.0V | 00:00:00 | 00:38:02 | 00:00:00 | |
| OE5DRO-10 | 2026-08-31 02:26:52 | 48.25092 | 14.22035 | 31° | 37km/h | 4353m | 4.5m/s | -2.9°C | 99.6% | 0hPa | 3.0V | 00:00:00 | 00:00:00 | 00:00:00 | |
| OE5HKT-10 | 2026-08-31 02:26:46 | 48.25045 | 14.22004 | 9° | 35km/h | 4319m | 5.0m/s | -2.4°C | 0% | 0hPa | 3.0V | 00:00:00 | 00:00:00 | 00:00:00 | |
| OE5MMP-10 | 2026-08-31 02:26:45 | 48.25035 | 14.22003 | 3° | 37km/h | 4314m | 5.0m/s | -2.3°C | 0% | 0hPa | 3.0V | 00:00:00 | 00:37:54 | 00:00:00 | |
| OE5WHR-10 | 2026-08-31 02:26:41 | 48.25001 | 14.21996 | 17° | 33km/h | 4291m | 6.7m/s | -2.1°C | 0% | 0hPa | 3.0V | 00:00:00 | 00:00:00 | 00:00:00 | |
| DO3MHA-12 | 2026-08-31 02:26:40 | 48.24992 | 14.21993 | 14° | 37km/h | 4285m | 5.1m/s | -2.0°C | 0% | 0hPa | 3.0V | 00:00:00 | 00:37:49 | 00:00:00 | |
| OE3JTB-15 | 2026-08-31 02:26:37 | 48.24961 | 14.21990 | 357° | 29km/h | 4270m | 5.9m/s | -1.8°C | 0% | 0hPa | 3.0V | 00:00:00 | 00:00:00 | 00:00:00 | |
| OE5DXL-15 | 2026-08-31 02:26:36 | 48.24951 | 14.21990 | 357° | 29km/h | 4264m | 5.9m/s | -1.8°C | 0% | 0hPa | 3.0V | 00:00:00 | 00:00:00 | 08:30:00 | |
| OE5MMP-10 | 2026-08-31 02:26:35 | 48.24942 | 14.21990 | 3° | 29km/h | 4259m | 5.2m/s | -1.7°C | 0% | 0hPa | 3.0V | 00:00:00 | 00:37:44 | 08:30:00 | |
| OE5DRO-10 | 2026-08-31 02:26:33 | 48.24925 | 14.21989 | 360° | 29km/h | 4245m | 6.1m/s | -1.7°C | 0% | 0hPa | 3.0V | 00:00:00 | 00:00:00 | 08:30:00 | |
| DO3MHA-12 | 2026-08-31 02:26:30 | 48.24904 | 14.21991 | 2° | 31km/h | 4222m | 7.3m/s | -1.7°C | 0% | 0hPa | 3.0V | 00:00:00 | 00:37:39 | 00:00:00 | |
| OE5MMP-10 | 2026-08-31 02:26:25 | 48.24868 | 14.21986 | 359° | 31km/h | 4184m | 7.3m/s | -1.6°C | 0% | 0hPa | 3.0V | 00:00:00 | 00:37:34 | 00:00:00 | |
| DO3MHA-12 | 2026-08-31 02:26:20 | 48.24825 | 14.21983 | 360° | 26km/h | 4142m | 8.8m/s | -1.5°C | 0% | 0hPa | 3.0V | 00:00:00 | 00:37:29 | 08:30:00 | |
| OE5MMP-10 | 2026-08-31 02:26:15 | 48.24792 | 14.21984 | 10° | 27km/h | 4101m | 7.9m/s | -1.4°C | 0% | 0hPa | 3.0V | 00:00:00 | 00:37:24 | 00:00:00 | |
| OE5DRO-10 | 2026-08-31 02:26:14 | 48.24786 | 14.21983 | 5° | 29km/h | 4093m | 6.9m/s | -1.4°C | 0% | 0hPa | 3.0V | 00:00:00 | 00:00:00 | 00:00:00 | |
| PG1ADW-2 | 2026-08-31 02:26:12 | 48.24775 | 14.21982 | 5° | 31km/h | 4075m | 8.2m/s | -1.3°C | 0% | 0hPa | 3.0V | 00:00:00 | 00:00:00 | 00:00:00 | |
| DO3MHA-12 | 2026-08-31 02:26:10 | 48.24761 | 14.21981 | 3° | 31km/h | 4058m | 7.6m/s | -1.2°C | 0% | 0hPa | 3.0V | 00:00:00 | 00:37:19 | 00:00:00 | |
| OE3JTB-15 | 2026-08-31 02:26:08 | 48.24746 | 14.21980 | 6° | 31km/h | 4040m | 10.0m/s | -1.2°C | 0% | 0hPa | 3.0V | 00:00:00 | 00:37:17 | 00:00:00 | |
| OE5DXL-15 | 2026-08-31 02:26:06 | 48.24731 | 14.21975 | 24° | 31km/h | 4021m | 9.1m/s | -1.1°C | 0% | 0hPa | 3.0V | 00:00:00 | 00:00:00 | 00:00:00 | |
| OE5MMP-10 | 2026-08-31 02:26:05 | 48.24724 | 14.21969 | 27° | 31km/h | 4012m | 8.2m/s | -1.0°C | 0% | 0hPa | 3.0V | 00:00:00 | 00:37:14 | 00:00:00 | |
| OE5HKT-10 | 2026-08-31 02:26:04 | 48.24716 | 14.21964 | 25° | 31km/h | 4003m | 8.9m/s | -1.0°C | 0% | 0hPa | 3.0V | 00:00:00 | 00:37:13 | 00:00:00 | |
| DO3MHA-12 | 2026-08-31 02:26:00 | 48.24686 | 14.21956 | 356° | 33km/h | 3966m | 10.9m/s | -0.5°C | 0% | 0hPa | 3.0V | 00:00:00 | 00:37:09 | 00:00:00 | |
| OE5WHR-10 | 2026-08-31 02:25:59 | 48.24677 | 14.21957 | 354° | 31km/h | 3957m | 7.1m/s | -0.4°C | 0% | 0hPa | 3.0V | 00:00:00 | 00:00:00 | 00:00:00 | |
| OE5MMP-10 | 2026-08-31 02:25:55 | 48.24649 | 14.21951 | 21° | 33km/h | 3924m | 7.5m/s | -0.5°C | 0% | 0hPa | 3.0V | 00:00:00 | 00:37:04 | 00:00:00 | |
| PG1ADW-2 | 2026-08-31 02:25:52 | 48.24620 | 14.21944 | 356° | 29km/h | 3903m | 4.9m/s | -0.3°C | 0% | 0hPa | 3.0V | 00:00:00 | 00:00:00 | 08:30:00 | |
| DO3MHA-12 | 2026-08-31 02:25:50 | 48.24603 | 14.21949 | 344° | 27km/h | 3891m | 6.1m/s | -0.0°C | 0% | 0hPa | 3.0V | 00:00:00 | 00:36:59 | 00:00:00 | |
| OE5MMP-10 | 2026-08-31 02:25:45 | 48.24569 | 14.21951 | 353° | 29km/h | 3850m | 8.1m/s | -0.2°C | 0% | 0hPa | 3.0V | 00:00:00 | 00:36:54 | 00:00:00 | |
| OE5HKT-10 | 2026-08-31 02:25:43 | 48.24556 | 14.21954 | 359° | 29km/h | 3836m | 6.5m/s | 0.1°C | 0% | 0hPa | 3.0V | 00:00:00 | 00:00:00 | 08:30:00 | |
| DO3MHA-12 | 2026-08-31 02:25:38 | 48.24522 | 14.21936 | 7° | 29km/h | 3797m | 6.8m/s | 0°C | 0% | 0hPa | 3.0V | 00:00:00 | 00:36:47 | 00:00:00 | |
| OE5DXL-15 | 2026-08-31 02:25:36 | 48.24506 | 14.21934 | 5° | 27km/h | 3783m | 7.1m/s | -0.0°C | 0% | 0hPa | 3.0V | 00:00:00 | 00:00:00 | 00:00:00 | |
| OE5MMP-10 | 2026-08-31 02:25:35 | 48.24498 | 14.21932 | 8° | 29km/h | 3776m | 5.8m/s | 0.0°C | 0% | 0hPa | 3.0V | 00:00:00 | 00:36:44 | 00:00:00 | |
| PG1ADW-2 | 2026-08-31 02:25:32 | 48.24475 | 14.21923 | 25° | 27km/h | 3760m | 4.3m/s | 0.1°C | 0% | 0hPa | 3.0V | 00:00:00 | 00:36:41 | 00:00:00 | |
| DO3MHA-12 | 2026-08-31 02:25:28 | 48.24452 | 14.21908 | 22° | 29km/h | 3739m | 7.9m/s | 0°C | 0% | 0hPa | 3.0V | 00:00:00 | 00:36:37 | 00:00:00 | |
| OE5MMP-10 | 2026-08-31 02:25:25 | 48.24431 | 14.21896 | 23° | 27km/h | 3721m | 7.0m/s | 0.3°C | 0% | 0hPa | 3.0V | 00:00:00 | 00:36:34 | 00:00:00 | |
| OE5HKT-10 | 2026-08-31 02:25:22 | 48.24412 | 14.21888 | 9° | 26km/h | 3707m | 3.8m/s | 0.5°C | 0% | 0hPa | 3.0V | 00:00:00 | 00:00:00 | 00:00:00 | |
| DO3MHA-12 | 2026-08-31 02:25:18 | 48.24382 | 14.21874 | 20° | 26km/h | 3687m | 7.3m/s | 0°C | 0% | 0hPa | 3.0V | 00:00:00 | 00:36:27 | 00:00:00 | |
| OE5FHM-15 | 2026-08-31 02:25:15 | 48.24364 | 14.21866 | 20° | 26km/h | 3671m | 5.5m/s | 1.3°C | 0% | 0hPa | 3.0V | 00:00:00 | 00:36:24 | 00:00:00 | |
| PG1ADW-2 | 2026-08-31 02:25:12 | 48.24346 | 14.21856 | 18° | 26km/h | 3655m | 6.9m/s | 1.4°C | 0% | 0hPa | 3.0V | 00:00:00 | 00:00:00 | 00:00:00 | |
| OE3JTB-15 | 2026-08-31 02:25:09 | 48.24328 | 14.21848 | 18° | 26km/h | 3638m | 4.3m/s | 1.5°C | 0% | 0hPa | 3.0V | 00:00:00 | 00:00:00 | 00:00:00 | |
| DO3MHA-12 | 2026-08-31 02:25:08 | 48.24322 | 14.21845 | 17° | 26km/h | 3633m | 5.8m/s | 0°C | 0% | 0hPa | 3.0V | 00:00:00 | 00:36:17 | 00:00:00 | |
| OE5DXL-15 | 2026-08-31 02:25:06 | 48.24310 | 14.21841 | 12° | 24km/h | 3620m | 6.8m/s | 1.6°C | 0% | 0hPa | 3.0V | 00:00:00 | 00:00:00 | 00:00:00 | |
| OE5MMP-10 | 2026-08-31 02:25:05 | 48.24304 | 14.21838 | 15° | 26km/h | 3613m | 6.2m/s | 1.6°C | 0% | 0hPa | 3.0V | 00:00:00 | 00:36:14 | 08:30:00 | |
| OE5HKT-10 | 2026-08-31 02:25:01 | 48.24279 | 14.21828 | 20° | 26km/h | 3587m | 7.5m/s | 1.7°C | 0% | 0hPa | 3.0V | 00:00:00 | 00:36:10 | 00:00:00 | |
| DO3MHA-12 | 2026-08-31 02:24:58 | 48.24260 | 14.21814 | 27° | 26km/h | 3570m | 6.3m/s | 0°C | 0% | 0hPa | 3.0V | 00:00:00 | 00:36:07 | 00:00:00 | |
| OE5WHR-10 | 2026-08-31 02:24:56 | 48.24248 | 14.21808 | 12° | 24km/h | 3559m | 6.7m/s | 1.9°C | 0% | 0hPa | 3.0V | 00:00:00 | 00:00:00 | 08:30:00 | |
| OE5MMP-10 | 2026-08-31 02:24:55 | 48.24242 | 14.21806 | 16° | 24km/h | 3552m | 6.1m/s | 1.9°C | 0% | 0hPa | 3.0V | 00:00:00 | 00:36:04 | 00:00:00 | |
| PG1ADW-2 | 2026-08-31 02:24:52 | 48.24224 | 14.21792 | 35° | 22km/h | 3533m | 7.9m/s | 2.0°C | 0% | 0hPa | 3.0V | 00:00:00 | 00:00:00 | 00:00:00 | |
| DO3MHA-12 | 2026-08-31 02:24:48 | 48.24202 | 14.21776 | 11° | 20km/h | 3506m | 7.1m/s | 0°C | 0% | 0hPa | 3.0V | 00:00:00 | 00:35:57 | 00:00:00 | |
| OE5FHM-15 | 2026-08-31 02:24:45 | 48.24186 | 14.21773 | 9° | 20km/h | 3488m | 6.5m/s | 2.2°C | 0% | 0hPa | 3.0V | 00:00:00 | 00:35:54 | 08:30:00 | |
| OE5HKT-10 | 2026-08-31 02:24:40 | 48.24156 | 14.21759 | 28° | 20km/h | 3457m | 4.4m/s | 2.3°C | 0% | 0hPa | 3.0V | 00:00:00 | 00:00:00 | 00:00:00 | |
| OE3JTB-15 | 2026-08-31 02:24:39 | 48.24150 | 14.21756 | 23° | 20km/h | 3451m | 7.9m/s | 2.4°C | 0% | 0hPa | 3.0V | 00:00:00 | 00:35:48 | 00:00:00 | |
| OE5DXL-15 | 2026-08-31 02:24:36 | 48.24136 | 14.21746 | 37° | 18km/h | 3431m | 7.3m/s | 2.3°C | 0% | 0hPa | 3.0V | 00:00:00 | 00:00:00 | 00:00:00 | |
| OE5WHR-10 | 2026-08-31 02:24:35 | 48.24133 | 14.21742 | 37° | 20km/h | 3424m | 5.1m/s | 2.4°C | 0% | 0hPa | 3.0V | 00:00:00 | 00:00:00 | 00:00:00 | |
| PG1ADW-2 | 2026-08-31 02:24:32 | 48.24122 | 14.21736 | 19° | 20km/h | 3407m | 7.0m/s | 2.5°C | 0% | 0hPa | 3.0V | 00:00:00 | 00:00:00 | 00:00:00 | |
| OE5MMP-10 | 2026-08-31 02:24:25 | 48.24089 | 14.21714 | 33° | 20km/h | 3365m | 5.4m/s | 2.9°C | 0% | 0hPa | 3.0V | 00:00:00 | 00:35:34 | 00:00:00 | |
| OE5DRO-10 | 2026-08-31 02:24:20 | 48.24065 | 14.21700 | 15° | 18km/h | 3336m | 5.2m/s | 3.0°C | 97.8% | 0hPa | 3.0V | 00:00:00 | 00:00:00 | 00:00:00 | |
| OE5HKT-10 | 2026-08-31 02:24:19 | 48.24061 | 14.21699 | 13° | 18km/h | 3330m | 5.9m/s | 3.1°C | 97.6% | 0hPa | 3.0V | 00:00:00 | 00:00:00 | 00:00:00 | |
| OE5MMP-10 | 2026-08-31 02:24:15 | 48.24042 | 14.21687 | 20° | 18km/h | 3309m | 4.7m/s | 3.2°C | 97.6% | 0hPa | 3.0V | 00:00:00 | 00:35:24 | 00:00:00 | |
| OE5WHR-10 | 2026-08-31 02:24:14 | 48.24038 | 14.21685 | 14° | 16km/h | 3304m | 4.7m/s | 3.2°C | 97.9% | 0hPa | 3.0V | 00:00:00 | 00:35:23 | 00:00:00 | |
| PG1ADW-2 | 2026-08-31 02:24:12 | 48.24029 | 14.21681 | 18° | 16km/h | 3293m | 7.2m/s | 3.2°C | 0% | 0hPa | 3.0V | 00:00:00 | 00:35:21 | 00:00:00 | |
| OE3JTB-15 | 2026-08-31 02:24:10 | 48.24021 | 14.21678 | 10° | 13km/h | 3281m | 5.0m/s | 3.3°C | 0% | 0hPa | 3.0V | 00:00:00 | 00:00:00 | 00:00:00 | |
| OE5DXL-15 | 2026-08-31 02:24:06 | 48.24002 | 14.21672 | 14° | 13km/h | 3260m | 4.3m/s | 3.4°C | 0% | 0hPa | 3.0V | 00:00:00 | 00:00:00 | 00:00:00 | |
| OE5MMP-10 | 2026-08-31 02:24:05 | 48.23997 | 14.21670 | 21° | 16km/h | 3255m | 5.9m/s | 3.4°C | 0% | 0hPa | 3.0V | 00:00:00 | 00:35:14 | 00:00:00 | |
| OE5DRO-10 | 2026-08-31 02:24:01 | 48.23983 | 14.21660 | 25° | 11km/h | 3233m | 4.0m/s | 3.5°C | 99.6% | 0hPa | 3.0V | 00:00:00 | 00:00:00 | 00:00:00 | |
| OE5HKT-10 | 2026-08-31 02:23:58 | 48.23973 | 14.21652 | 24° | 11km/h | 3217m | 5.8m/s | 3.5°C | 94.1% | 0hPa | 3.0V | 00:00:00 | 00:35:07 | 00:00:00 | |
| OE5MMP-10 | 2026-08-31 02:23:55 | 48.23964 | 14.21643 | 48° | 11km/h | 3202m | 3.3m/s | 3.6°C | 93.7% | 0hPa | 3.0V | 00:00:00 | 00:35:04 | 00:00:00 | |
| OE5WHR-10 | 2026-08-31 02:23:53 | 48.23959 | 14.21635 | 63° | 9km/h | 3191m | 4.3m/s | 3.7°C | 93.3% | 0hPa | 3.0V | 00:00:00 | 00:00:00 | 00:00:00 | |
| PG1ADW-2 | 2026-08-31 02:23:52 | 48.23958 | 14.21630 | 81° | 9km/h | 3185m | 6.1m/s | 3.8°C | 92.8% | 0hPa | 3.0V | 00:00:00 | 00:00:00 | 00:00:00 | |
| OE5MMP-10 | 2026-08-31 02:23:45 | 48.23951 | 14.21612 | 39° | 11km/h | 3153m | 5.4m/s | 4.0°C | 94.1% | 0hPa | 3.0V | 00:00:00 | 00:34:54 | 00:00:00 | |
| OE5DRO-10 | 2026-08-31 02:23:42 | 48.23945 | 14.21603 | 68° | 11km/h | 3135m | 4.3m/s | 4.1°C | 93.4% | 0hPa | 3.0V | 00:00:00 | 00:00:00 | 08:30:00 | |
| OE3JTB-15 | 2026-08-31 02:23:41 | 48.23944 | 14.21598 | 76° | 11km/h | 3131m | 4.6m/s | 4.2°C | 93.3% | 0hPa | 3.0V | 00:00:00 | 00:00:00 | 00:00:00 | |
| OE5HKT-10 | 2026-08-31 02:23:37 | 48.23940 | 14.21584 | 62° | 9km/h | 3110m | 4.7m/s | 4.3°C | 94.0% | 0hPa | 3.0V | 00:00:00 | 00:00:00 | 00:00:00 | |
| OE5DXL-15 | 2026-08-31 02:23:36 | 48.23938 | 14.21581 | 70° | 13km/h | 3104m | 5.7m/s | 4.4°C | 93.6% | 0hPa | 3.0V | 00:00:00 | 00:00:00 | 00:00:00 | |
| OE5MMP-10 | 2026-08-31 02:23:35 | 48.23938 | 14.21580 | 25° | 11km/h | 3099m | 4.8m/s | 4.4°C | 93.8% | 0hPa | 3.0V | 00:00:00 | 00:34:44 | 08:30:00 | |
| OE5WHR-10 | 2026-08-31 02:23:32 | 48.23930 | 14.21581 | 359° | 13km/h | 3085m | 3.3m/s | 4.5°C | 93.8% | 0hPa | 3.0V | 00:00:00 | 00:00:00 | 00:00:00 | |
| OE5MMP-10 | 2026-08-31 02:23:25 | 48.23910 | 14.21577 | 91° | 9km/h | 3055m | 4.6m/s | 4.8°C | 92.5% | 0hPa | 3.0V | 00:00:00 | 00:34:34 | 00:00:00 | |
| OE5DRO-10 | 2026-08-31 02:23:23 | 48.23911 | 14.21568 | 97° | 13km/h | 3045m | 3.6m/s | 4.9°C | 93.3% | 0hPa | 3.0V | 00:00:00 | 00:00:00 | 00:00:00 | |
| OE5HKT-10 | 2026-08-31 02:23:16 | 48.23912 | 14.21552 | 6° | 16km/h | 3008m | 4.9m/s | 5.0°C | 96.7% | 0hPa | 3.0V | 00:00:00 | 00:00:00 | 00:00:00 | |
| OE5MMP-10 | 2026-08-31 02:23:15 | 48.23909 | 14.21551 | 21° | 15km/h | 3003m | 5.3m/s | 5.1°C | 96.5% | 0hPa | 3.0V | 00:00:00 | 00:34:24 | 00:00:00 | |
| PG1ADW-2 | 2026-08-31 02:23:12 | 48.23898 | 14.21536 | 59° | 15km/h | 2989m | 3.7m/s | 5.2°C | 95.3% | 0hPa | 3.0V | 00:00:00 | 00:00:00 | 00:00:00 | |
| OE5WHR-10 | 2026-08-31 02:23:11 | 48.23895 | 14.21528 | 66° | 15km/h | 2984m | 5.3m/s | 5.2°C | 95.1% | 0hPa | 3.0V | 00:00:00 | 00:34:20 | 00:00:00 | |
| OE5DXL-15 | 2026-08-31 02:23:06 | 48.23893 | 14.21505 | 352° | 16km/h | 2959m | 4.2m/s | 5.5°C | 93.6% | 0hPa | 3.0V | 00:00:00 | 00:00:00 | 00:00:00 | |
| OE5MMP-10 | 2026-08-31 02:23:05 | 48.23893 | 14.21506 | 320° | 16km/h | 2954m | 5.2m/s | 5.5°C | 92.9% | 0hPa | 3.0V | 00:00:00 | 00:34:14 | 00:00:00 | |
| OE5DRO-10 | 2026-08-31 02:23:04 | 48.23891 | 14.21507 | 346° | 16km/h | 2948m | 6.4m/s | 5.6°C | 92.6% | 0hPa | 3.0V | 00:00:00 | 00:00:00 | 00:00:00 | |
| OE5MMP-10 | 2026-08-31 02:22:55 | 48.23863 | 14.21468 | 45° | 15km/h | 2899m | 5.6m/s | 5.9°C | 92.7% | 0hPa | 3.0V | 00:00:00 | 00:34:04 | 00:00:00 | |
| PG1ADW-2 | 2026-08-31 02:22:52 | 48.23854 | 14.21457 | 44° | 16km/h | 2882m | 6.5m/s | 6.0°C | 92.3% | 0hPa | 3.0V | 00:00:00 | 00:34:01 | 08:30:00 | |
| OE5WHR-10 | 2026-08-31 02:22:50 | 48.23847 | 14.21445 | 57° | 13km/h | 2870m | 7.0m/s | 6.1°C | 90.3% | 0hPa | 3.0V | 00:00:00 | 00:00:00 | 00:00:00 | |
| OE5MMP-10 | 2026-08-31 02:22:45 | 48.23832 | 14.21435 | 9° | 18km/h | 2843m | 6.9m/s | 6.3°C | 91.4% | 0hPa | 3.0V | 00:00:00 | 00:33:54 | 00:00:00 | |
| OE3JTB-15 | 2026-08-31 02:22:43 | 48.23824 | 14.21430 | 43° | 13km/h | 2833m | 4.7m/s | 6.4°C | 91.6% | 0hPa | 3.0V | 00:00:00 | 00:00:00 | 00:00:00 | |
| OE5FHM-15 | 2026-08-31 02:22:40 | 48.23816 | 14.21417 | 43° | 11km/h | 2818m | 4.7m/s | 0°C | 0% | 0hPa | 3.0V | 00:00:00 | 00:33:49 | 00:00:00 | |
| OE5DXL-15 | 2026-08-31 02:22:36 | 48.23808 | 14.21393 | 99° | 11km/h | 2794m | 5.1m/s | 6.6°C | 95.6% | 0hPa | 3.0V | 00:00:00 | 00:00:00 | 00:00:00 | |
| OE5MMP-10 | 2026-08-31 02:22:35 | 48.23809 | 14.21387 | 106° | 9km/h | 2789m | 4.9m/s | 6.6°C | 93.3% | 0hPa | 3.0V | 00:00:00 | 00:33:44 | 00:00:00 | |
| OE5HKT-10 | 2026-08-31 02:22:34 | 48.23810 | 14.21384 | 116° | 11km/h | 2784m | 4.6m/s | 6.6°C | 97.7% | 0hPa | 3.0V | 00:00:00 | 00:00:00 | 08:30:00 | |
| PG1ADW-2 | 2026-08-31 02:22:32 | 48.23811 | 14.21381 | 295° | 11km/h | 2773m | 6.6m/s | 6.7°C | 97.6% | 0hPa | 3.0V | 00:00:00 | 00:00:00 | 00:00:00 | |
| OE5WHR-10 | 2026-08-31 02:22:29 | 48.23807 | 14.21377 | 52° | 13km/h | 2758m | 5.1m/s | 6.8°C | 97.0% | 0hPa | 3.0V | 00:00:00 | 00:00:00 | 00:00:00 | |
| OE5DRO-10 | 2026-08-31 02:22:26 | 48.23806 | 14.21361 | 106° | 13km/h | 2744m | 5.1m/s | 7.0°C | 94.9% | 0hPa | 3.0V | 00:00:00 | 00:00:00 | 00:00:00 | |
| OE5MMP-10 | 2026-08-31 02:22:25 | 48.23807 | 14.21357 | 111° | 13km/h | 2739m | 3.5m/s | 7.0°C | 95.5% | 0hPa | 3.0V | 00:00:00 | 00:33:34 | 00:00:00 | |
| OE5MMP-10 | 2026-08-31 02:22:15 | 48.23792 | 14.21319 | 85° | 11km/h | 2697m | 4.1m/s | 7.0°C | 92.4% | 0hPa | 3.0V | 00:00:00 | 00:33:24 | 00:00:00 | |
| OE3JTB-15 | 2026-08-31 02:22:14 | 48.23791 | 14.21317 | 38° | 13km/h | 2692m | 4.0m/s | 7.0°C | 92.5% | 0hPa | 3.0V | 00:00:00 | 00:00:00 | 00:00:00 | |
| OE5HKT-10 | 2026-08-31 02:22:13 | 48.23789 | 14.21315 | 31° | 13km/h | 2688m | 4.1m/s | 7.1°C | 92.0% | 0hPa | 3.0V | 00:00:00 | 00:00:00 | 00:00:00 | |
| PG1ADW-2 | 2026-08-31 02:22:12 | 48.23786 | 14.21312 | 39° | 13km/h | 2684m | 4.2m/s | 7.1°C | 90.8% | 0hPa | 3.0V | 00:00:00 | 00:00:00 | 00:00:00 | |
| OE5FHM-15 | 2026-08-31 02:22:08 | 48.23779 | 14.21294 | 70° | 11km/h | 2666m | 3.5m/s | 0°C | 0% | 0hPa | 3.0V | 00:00:00 | 00:33:17 | 00:00:00 | |
| OE5DRO-10 | 2026-08-31 02:22:07 | 48.23778 | 14.21292 | 38° | 13km/h | 2661m | 6.1m/s | 7.3°C | 86.6% | 0hPa | 3.0V | 00:00:00 | 00:00:00 | 00:00:00 | |
| OE5DXL-15 | 2026-08-31 02:22:06 | 48.23776 | 14.21291 | 17° | 13km/h | 2655m | 4.8m/s | 7.4°C | 84.6% | 0hPa | 3.0V | 00:00:00 | 00:00:00 | 08:30:00 | |
| OE5MMP-10 | 2026-08-31 02:22:05 | 48.23773 | 14.21290 | 23° | 13km/h | 2650m | 5.7m/s | 7.4°C | 84.5% | 0hPa | 3.0V | 00:00:00 | 00:33:14 | 08:30:00 | |
| OE5MMP-10 | 2026-08-31 02:21:55 | 48.23762 | 14.21249 | 58° | 13km/h | 2600m | 3.7m/s | 7.8°C | 81.8% | 0hPa | 3.0V | 00:00:00 | 00:33:04 | 00:00:00 | |
| PG1ADW-2 | 2026-08-31 02:21:52 | 48.23759 | 14.21234 | 75° | 13km/h | 2584m | 3.8m/s | 8.0°C | 80.0% | 0hPa | 3.0V | 00:00:00 | 00:00:00 | 00:00:00 | |
| OE5DRO-10 | 2026-08-31 02:21:48 | 48.23749 | 14.21231 | 18° | 15km/h | 2565m | 5.1m/s | 8.2°C | 79.1% | 0hPa | 3.0V | 00:00:00 | 00:00:00 | 00:00:00 | |
| OE5WHR-10 | 2026-08-31 02:21:47 | 48.23745 | 14.21228 | 33° | 13km/h | 2560m | 4.5m/s | 8.2°C | 79.2% | 0hPa | 3.0V | 00:00:00 | 00:00:00 | 08:30:00 | |
| OE5MMP-10 | 2026-08-31 02:21:45 | 48.23739 | 14.21218 | 57° | 13km/h | 2551m | 5.0m/s | 8.3°C | 79.4% | 0hPa | 3.0V | 00:00:00 | 00:32:54 | 00:00:00 | |
| OE5DXL-15 | 2026-08-31 02:21:36 | 48.23718 | 14.21191 | 49° | 15km/h | 2508m | 4.8m/s | 8.4°C | 82.0% | 0hPa | 3.0V | 00:00:00 | 00:00:00 | 00:00:00 | |
| OE5MMP-10 | 2026-08-31 02:21:35 | 48.23716 | 14.21188 | 33° | 11km/h | 2503m | 4.8m/s | 8.4°C | 82.0% | 0hPa | 3.0V | 00:00:00 | 00:32:44 | 00:00:00 | |
| OE5FHM-15 | 2026-08-31 02:21:33 | 48.23709 | 14.21184 | 24° | 18km/h | 2494m | 6.1m/s | 0°C | 0% | 0hPa | 3.0V | 00:00:00 | 00:32:42 | 00:00:00 | |
| PG1ADW-2 | 2026-08-31 02:21:32 | 48.23706 | 14.21180 | 47° | 16km/h | 2488m | 5.2m/s | 8.4°C | 84.5% | 0hPa | 3.0V | 00:00:00 | 00:32:41 | 00:00:00 | |
| OE5HKT-10 | 2026-08-31 02:21:31 | 48.23704 | 14.21176 | 64° | 15km/h | 2482m | 6.4m/s | 8.4°C | 84.4% | 0hPa | 3.0V | 00:00:00 | 00:00:00 | 00:00:00 | |
| OE5DRO-10 | 2026-08-31 02:21:29 | 48.23703 | 14.21169 | 92° | 15km/h | 2472m | 5.0m/s | 8.5°C | 84.4% | 0hPa | 3.0V | 00:00:00 | 00:00:00 | 00:00:00 | |
| OE5WHR-10 | 2026-08-31 02:21:26 | 48.23699 | 14.21163 | 36° | 16km/h | 2457m | 5.5m/s | 8.6°C | 84.3% | 0hPa | 3.0V | 00:00:00 | 00:00:00 | 00:00:00 | |
| OE5MMP-10 | 2026-08-31 02:21:25 | 48.23695 | 14.21159 | 54° | 20km/h | 2452m | 4.3m/s | 8.6°C | 84.3% | 0hPa | 3.0V | 00:00:00 | 00:32:34 | 00:00:00 | |
| OE3JTB-15 | 2026-08-31 02:21:16 | 48.23682 | 14.21093 | 77° | 15km/h | 2400m | 5.5m/s | 9.0°C | 83.4% | 0hPa | 3.0V | 00:00:00 | 00:00:00 | 08:30:00 | |
| OE5MMP-10 | 2026-08-31 02:21:15 | 48.23680 | 14.21086 | 64° | 11km/h | 2395m | 4.7m/s | 9.1°C | 83.3% | 0hPa | 3.0V | 00:00:00 | 00:32:24 | 00:00:00 | |
| PG1ADW-2 | 2026-08-31 02:21:12 | 48.23673 | 14.21075 | 21° | 15km/h | 2381m | 4.7m/s | 9.2°C | 83.0% | 0hPa | 3.0V | 00:00:00 | 00:00:00 | 00:00:00 | |
| OE5HKT-10 | 2026-08-31 02:21:10 | 48.23673 | 14.21074 | 120° | 16km/h | 2370m | 5.7m/s | 9.2°C | 83.0% | 0hPa | 3.0V | 00:00:00 | 00:00:00 | 00:00:00 | |
| OE5DXL-15 | 2026-08-31 02:21:06 | 48.23676 | 14.21055 | 87° | 16km/h | 2351m | 4.0m/s | 9.3°C | 84.0% | 0hPa | 3.0V | 00:00:00 | 00:00:00 | 00:00:00 | |
| OE5MMP-10 | 2026-08-31 02:21:05 | 48.23675 | 14.21047 | 76° | 18km/h | 2347m | 4.6m/s | 9.3°C | 84.5% | 0hPa | 3.0V | 00:00:00 | 00:32:14 | 00:00:00 | |
| OE5FHM-15 | 2026-08-31 02:20:58 | 48.23653 | 14.21016 | 29° | 13km/h | 2310m | 6.6m/s | 0°C | 0% | 0hPa | 3.0V | 00:00:00 | 00:32:07 | 00:00:00 | |
| OE5MMP-10 | 2026-08-31 02:20:55 | 48.23645 | 14.21006 | 42° | 15km/h | 2294m | 5.6m/s | 9.6°C | 83.9% | 0hPa | 3.0V | 00:00:00 | 00:32:04 | 00:00:00 | |
| PG1ADW-2 | 2026-08-31 02:20:53 | 48.23637 | 14.20998 | 42° | 16km/h | 2278m | 5.8m/s | 9.7°C | 83.7% | 0hPa | 3.0V | 00:00:00 | 00:00:00 | 00:00:00 | |
| OE5DRO-10 | 2026-08-31 02:20:51 | 48.23634 | 14.20992 | 56° | 16km/h | 2273m | 5.3m/s | 9.7°C | 84.1% | 0hPa | 3.0V | 00:00:00 | 00:00:00 | 08:30:00 | |
| OE5HKT-10 | 2026-08-31 02:20:49 | 48.23630 | 14.20980 | 66° | 15km/h | 2263m | 5.7m/s | 9.8°C | 84.4% | 0hPa | 3.0V | 00:00:00 | 00:31:58 | 00:00:00 | |
| OE3JTB-15 | 2026-08-31 02:20:47 | 48.23627 | 14.20971 | 61° | 13km/h | 2252m | 5.9m/s | 9.9°C | 84.2% | 0hPa | 3.0V | 00:00:00 | 00:00:00 | 00:00:00 | |
| OE5MMP-10 | 2026-08-31 02:20:45 | 48.23625 | 14.20963 | 78° | 16km/h | 2238m | 7.0m/s | 10.0°C | 83.4% | 0hPa | 3.0V | 00:00:00 | 00:31:54 | 00:00:00 | |
| OE5WHR-10 | 2026-08-31 02:20:44 | 48.23624 | 14.20960 | 54° | 15km/h | 2231m | 6.6m/s | 10.0°C | 83.4% | 0hPa | 3.0V | 00:00:00 | 00:00:00 | 00:00:00 | |
| OE5DXL-15 | 2026-08-31 02:20:36 | 48.23601 | 14.20918 | 67° | 9km/h | 2191m | 5.1m/s | 10.1°C | 85.3% | 0hPa | 3.0V | 00:00:00 | 00:00:00 | 00:00:00 | |
| OE5MMP-10 | 2026-08-31 02:20:35 | 48.23599 | 14.20912 | 63° | 11km/h | 2185m | 6.2m/s | 10.2°C | 85.2% | 0hPa | 3.0V | 00:00:00 | 00:31:44 | 08:30:00 | |
| PG1ADW-2 | 2026-08-31 02:20:32 | 48.23595 | 14.20904 | 60° | 9km/h | 2168m | 5.4m/s | 10.2°C | 85.4% | 0hPa | 3.0V | 00:00:00 | 00:00:00 | 00:00:00 | |
| OE5HKT-10 | 2026-08-31 02:20:28 | 48.23591 | 14.20889 | 49° | 9km/h | 2147m | 4.0m/s | 10.1°C | 86.9% | 0hPa | 3.0V | 00:00:00 | 00:00:00 | 00:00:00 | |
| OE5MMP-10 | 2026-08-31 02:20:25 | 48.23584 | 14.20878 | 75° | 7km/h | 2131m | 6.0m/s | 10.2°C | 86.6% | 0hPa | 3.0V | 00:00:00 | 00:31:34 | 00:00:00 | |
| OE5WHR-10 | 2026-08-31 02:20:23 | 48.23586 | 14.20875 | 183° | 7km/h | 2119m | 6.1m/s | 10.3°C | 85.0% | 0hPa | 3.0V | 00:00:00 | 00:00:00 | 00:00:00 | |
| OE5FHM-15 | 2026-08-31 02:20:22 | 48.23588 | 14.20876 | 192° | 9km/h | 2113m | 5.2m/s | 0°C | 0% | 0hPa | 3.0V | 00:00:00 | 00:31:31 | 00:00:00 | |
| OE3JTB-15 | 2026-08-31 02:20:18 | 48.23590 | 14.20866 | 93° | 7km/h | 2093m | 5.1m/s | 10.5°C | 83.8% | 0hPa | 3.0V | 00:00:00 | 00:31:27 | 00:00:00 | |
| OE5MMP-10 | 2026-08-31 02:20:15 | 48.23592 | 14.20861 | 267° | 7km/h | 2076m | 4.4m/s | 10.7°C | 83.8% | 0hPa | 3.0V | 00:00:00 | 00:31:24 | 00:00:00 | |
| OE5DRO-10 | 2026-08-31 02:20:13 | 48.23590 | 14.20866 | 325° | 7km/h | 2065m | 6.1m/s | 10.7°C | 83.5% | 0hPa | 3.0V | 00:00:00 | 00:00:00 | 00:00:00 | |
| PG1ADW-2 | 2026-08-31 02:20:12 | 48.23587 | 14.20867 | 352° | 7km/h | 2060m | 3.8m/s | 10.8°C | 83.8% | 0hPa | 3.0V | 00:00:00 | 00:31:21 | 00:00:00 | |
| OE5HKT-10 | 2026-08-31 02:20:07 | 48.23586 | 14.20862 | 183° | 5km/h | 2035m | 5.2m/s | 11.0°C | 82.3% | 0hPa | 3.0V | 00:00:00 | 00:00:00 | 00:00:00 | |
| OE5DXL-15 | 2026-08-31 02:20:06 | 48.23588 | 14.20862 | 201° | 5km/h | 2030m | 5.8m/s | 11.0°C | 79.7% | 0hPa | 3.0V | 00:00:00 | 00:00:00 | 00:00:00 | |
| OE5MMP-10 | 2026-08-31 02:20:05 | 48.23588 | 14.20864 | 290° | 7km/h | 2025m | 4.3m/s | 11.1°C | 80.0% | 0hPa | 3.0V | 00:00:00 | 00:31:14 | 00:00:00 | |
| OE5WHR-10 | 2026-08-31 02:20:02 | 48.23584 | 14.20867 | 343° | 7km/h | 2008m | 7.3m/s | 11.2°C | 79.0% | 0hPa | 3.0V | 00:00:00 | 00:31:11 | 00:00:00 | |
| OE5MMP-10 | 2026-08-31 02:19:55 | 48.23574 | 14.20876 | 262° | 5km/h | 1964m | 6.0m/s | 11.7°C | 77.3% | 0hPa | 3.0V | 00:00:00 | 00:31:04 | 00:00:00 | |
| OE5DRO-10 | 2026-08-31 02:19:54 | 48.23574 | 14.20875 | 127° | 5km/h | 1958m | 6.2m/s | 11.7°C | 77.0% | 0hPa | 3.0V | 00:00:00 | 00:00:00 | 00:00:00 | |
| PG1ADW-2 | 2026-08-31 02:19:52 | 48.23576 | 14.20873 | 151° | 7km/h | 1946m | 7.3m/s | 11.8°C | 76.5% | 0hPa | 3.0V | 00:00:00 | 00:00:00 | 08:30:00 | |
| OE3JTB-15 | 2026-08-31 02:19:49 | 48.23577 | 14.20869 | 52° | 9km/h | 1927m | 5.6m/s | 12.0°C | 75.6% | 0hPa | 3.0V | 00:00:00 | 00:00:00 | 00:00:00 | |
| OE5HKT-10 | 2026-08-31 02:19:46 | 48.23575 | 14.20868 | 260° | 9km/h | 1910m | 6.3m/s | 12.2°C | 74.7% | 0hPa | 3.0V | 00:00:00 | 00:30:55 | 00:00:00 | |
| OE5MMP-10 | 2026-08-31 02:19:45 | 48.23575 | 14.20871 | 261° | 7km/h | 1905m | 3.8m/s | 0°C | 0% | 0hPa | 3.0V | 00:00:00 | 00:30:54 | 00:00:00 | |
| OE5WHR-10 | 2026-08-31 02:19:41 | 48.23575 | 14.20886 | 252° | 9km/h | 1885m | 5.9m/s | 12.4°C | 73.8% | 0hPa | 3.0V | 00:00:00 | 00:00:00 | 00:00:00 | |
| OE5DXL-15 | 2026-08-31 02:19:36 | 48.23577 | 14.20890 | 277° | 9km/h | 1857m | 6.1m/s | 12.7°C | 72.6% | 0hPa | 3.0V | 00:00:00 | 00:00:00 | 00:00:00 | |
| OE5DRO-10 | 2026-08-31 02:19:35 | 48.23576 | 14.20894 | 292° | 11km/h | 1852m | 4.8m/s | 12.7°C | 72.3% | 0hPa | 3.0V | 00:00:00 | 00:00:00 | 00:00:00 | |
| OE5MMP-10 | 2026-08-31 02:19:35 | 48.23576 | 14.20894 | 292° | 11km/h | 1852m | 4.8m/s | 0°C | 0% | 0hPa | 3.0V | 00:00:00 | 00:30:44 | 00:00:00 | |
| PG1ADW-2 | 2026-08-31 02:19:32 | 48.23567 | 14.20906 | 343° | 9km/h | 1835m | 6.0m/s | 12.9°C | 71.7% | 0hPa | 3.0V | 00:00:00 | 00:00:00 | 00:00:00 | |
| OE5HKT-10 | 2026-08-31 02:19:25 | 48.23556 | 14.20908 | 281° | 9km/h | 1798m | 7.0m/s | 13.1°C | 71.3% | 0hPa | 3.0V | 00:00:00 | 00:00:00 | 08:30:00 | |
| OE5MMP-10 | 2026-08-31 02:19:25 | 48.23556 | 14.20908 | 281° | 11km/h | 1798m | 7.0m/s | 0°C | 0% | 0hPa | 3.0V | 00:00:00 | 00:30:34 | 00:00:00 | |
| OE3JTB-15 | 2026-08-31 02:19:20 | 48.23553 | 14.20926 | 233° | 9km/h | 1773m | 5.0m/s | 13.3°C | 70.2% | 0hPa | 3.0V | 00:00:00 | 00:00:00 | 00:00:00 | |
| OE5WHR-10 | 2026-08-31 02:19:20 | 48.23553 | 14.20926 | 233° | 11km/h | 1773m | 5.0m/s | 13.3°C | 70.2% | 0hPa | 3.0V | 00:00:00 | 00:00:00 | 00:00:00 | |
| OE5DRO-10 | 2026-08-31 02:19:16 | 48.23558 | 14.20942 | 276° | 9km/h | 1753m | 4.9m/s | 13.5°C | 69.5% | 0hPa | 3.0V | 00:00:00 | 00:00:00 | 00:00:00 | |
| OE5MMP-10 | 2026-08-31 02:19:15 | 48.23558 | 14.20943 | 323° | 7km/h | 1747m | 7.6m/s | 0°C | 0% | 0hPa | 3.0V | 00:00:00 | 00:30:24 | 00:00:00 | |
| OE5FHM-15 | 2026-08-31 02:19:15 | 48.23558 | 14.20943 | 323° | 7km/h | 1747m | 7.6m/s | 0°C | 0% | 0hPa | 3.0V | 00:00:00 | 00:30:24 | 00:00:00 | |
| PG1ADW-2 | 2026-08-31 02:19:12 | 48.23552 | 14.20945 | 332° | 9km/h | 1729m | 6.0m/s | 13.7°C | 68.7% | 0hPa | 3.0V | 00:00:00 | 00:00:00 | 00:00:00 | |
| OE5DXL-15 | 2026-08-31 02:19:06 | 48.23548 | 14.20957 | 242° | 9km/h | 1695m | 6.6m/s | 14.0°C | 68.3% | 0hPa | 3.0V | 00:00:00 | 00:00:00 | 00:00:00 | |
| OE5MMP-10 | 2026-08-31 02:19:05 | 48.23549 | 14.20960 | 250° | 16km/h | 1689m | 6.7m/s | 0°C | 0% | 0hPa | 3.0V | 00:00:00 | 00:30:14 | 00:00:00 | |
| OE5HKT-10 | 2026-08-31 02:19:04 | 48.23549 | 14.20965 | 269° | 9km/h | 1683m | 4.9m/s | 14.0°C | 68.5% | 0hPa | 3.0V | 00:00:00 | 00:00:00 | 00:00:00 | |
| OE5WHR-10 | 2026-08-31 02:18:59 | 48.23545 | 14.20993 | 290° | 7km/h | 1657m | 6.6m/s | 14.2°C | 67.9% | 0hPa | 3.0V | 00:00:00 | 00:30:08 | 00:00:00 | |
| OE5DRO-10 | 2026-08-31 02:18:57 | 48.23544 | 14.20996 | 269° | 7km/h | 1644m | 7.1m/s | 14.3°C | 67.6% | 0hPa | 3.0V | 00:00:00 | 00:00:00 | 00:00:00 | |
| PG1ADW-2 | 2026-08-31 02:18:52 | 48.23540 | 14.21014 | 315° | 7km/h | 1613m | 4.0m/s | 14.5°C | 66.5% | 0hPa | 3.0V | 00:00:00 | 00:30:01 | 00:00:00 | |
| OE3JTB-15 | 2026-08-31 02:18:51 | 48.23539 | 14.21016 | 304° | 9km/h | 1608m | 5.9m/s | 14.6°C | 66.3% | 0hPa | 3.0V | 00:00:00 | 00:30:00 | 00:00:00 | |
| OE5HKT-10 | 2026-08-31 02:18:43 | 48.23529 | 14.21024 | 209° | 9km/h | 1564m | 6.6m/s | 14.9°C | 66.0% | 0hPa | 3.0V | 00:00:00 | 00:29:52 | 00:00:00 | |
| OE5DRO-10 | 2026-08-31 02:18:38 | 48.23527 | 14.21028 | 10° | 11km/h | 1531m | 7.2m/s | 15.2°C | 64.6% | 0hPa | 3.0V | 00:00:00 | 00:00:00 | 00:00:00 | |
| OE5WHR-10 | 2026-08-31 02:18:38 | 48.23527 | 14.21028 | 10° | 11km/h | 1531m | 7.2m/s | 15.2°C | 64.6% | 0hPa | 3.0V | 00:00:00 | 00:00:00 | 08:30:00 | |
| OE5DXL-15 | 2026-08-31 02:18:36 | 48.23523 | 14.21026 | 11° | 15km/h | 1519m | 3.5m/s | 15.3°C | 64.2% | 0hPa | 3.0V | 00:00:00 | 00:00:00 | 00:00:00 | |
| PG1ADW-2 | 2026-08-31 02:18:32 | 48.23512 | 14.21032 | 338° | 13km/h | 1501m | 5.9m/s | 15.4°C | 63.9% | 0hPa | 3.0V | 00:00:00 | 00:00:00 | 00:00:00 | |
| OE3JTB-15 | 2026-08-31 02:18:22 | 48.23485 | 14.21031 | 352° | 15km/h | 1444m | 4.0m/s | 15.9°C | 62.4% | 0hPa | 3.0V | 00:00:00 | 00:00:00 | 00:00:00 | |
| OE5HKT-10 | 2026-08-31 02:18:22 | 48.23485 | 14.21031 | 352° | 16km/h | 1444m | 4.0m/s | 0°C | 0% | 0hPa | 3.0V | 00:00:00 | 00:00:00 | 00:00:00 | |
| OE5DRO-10 | 2026-08-31 02:18:19 | 48.23478 | 14.21037 | 338° | 18km/h | 1429m | 3.6m/s | 16.0°C | 63.8% | 0hPa | 3.0V | 00:00:00 | 00:00:00 | 00:00:00 | |
| OE5WHR-10 | 2026-08-31 02:18:17 | 48.23471 | 14.21040 | 355° | 16km/h | 1416m | 5.9m/s | 16.1°C | 63.5% | 0hPa | 3.0V | 00:00:00 | 00:00:00 | 00:00:00 | |
| PG1ADW-2 | 2026-08-31 02:18:12 | 48.23451 | 14.21052 | 357° | 15km/h | 1387m | 2.7m/s | 16.4°C | 62.3% | 0hPa | 3.0V | 00:00:00 | 00:00:00 | 00:00:00 | |
| OE5DXL-15 | 2026-08-31 02:18:06 | 48.23420 | 14.21060 | 326° | 15km/h | 1356m | 4.2m/s | 0°C | 0% | 0hPa | 3.0V | 00:00:00 | 00:29:15 | 00:00:00 | |
| OE5HKT-10 | 2026-08-31 02:18:01 | 48.23401 | 14.21067 | 17° | 15km/h | 1330m | 3.3m/s | 0°C | 0% | 0hPa | 3.0V | 00:00:00 | 00:00:00 | 00:00:00 | |
| OE5DRO-10 | 2026-08-31 02:18:00 | 48.23397 | 14.21064 | 26° | 15km/h | 1327m | 4.2m/s | 16.8°C | 61.3% | 0hPa | 3.0V | 00:00:00 | 00:00:00 | 08:30:00 | |
| OE5WHR-10 | 2026-08-31 02:17:56 | 48.23388 | 14.21057 | 28° | 15km/h | 1312m | 4.6m/s | 16.8°C | 61.6% | 0hPa | 3.0V | 00:00:00 | 00:29:05 | 00:00:00 | |
| OE3JTB-15 | 2026-08-31 02:17:53 | 48.23384 | 14.21059 | 331° | 15km/h | 1298m | 4.7m/s | 16.5°C | 64.0% | 0hPa | 3.0V | 00:00:00 | 00:00:00 | 00:00:00 | |
| PG1ADW-2 | 2026-08-31 02:17:52 | 48.23381 | 14.21062 | 324° | 15km/h | 1294m | 4.3m/s | 16.5°C | 64.0% | 0hPa | 3.0V | 00:00:00 | 00:00:00 | 00:00:00 | |
| OE5DRO-10 | 2026-08-31 02:17:41 | 48.23335 | 14.21086 | 345° | 11km/h | 1234m | 8.8m/s | 16.7°C | 66.4% | 0hPa | 3.0V | 00:00:00 | 00:00:00 | 00:00:00 | |
| OE5HKT-10 | 2026-08-31 02:17:40 | 48.23332 | 14.21086 | 11° | 11km/h | 1226m | 7.5m/s | 0°C | 0% | 0hPa | 3.0V | 00:00:00 | 00:28:49 | 00:00:00 | |
| OE5DXL-15 | 2026-08-31 02:17:36 | 48.23320 | 14.21087 | 335° | 7km/h | 1203m | 4.2m/s | 0°C | 0% | 0hPa | 3.0V | 00:00:00 | 00:00:00 | 00:00:00 | |
| OE5WHR-10 | 2026-08-31 02:17:35 | 48.23318 | 14.21090 | 322° | 13km/h | 1198m | 6.6m/s | 16.8°C | 66.2% | 0hPa | 3.0V | 00:00:00 | 00:00:00 | 00:00:00 | |
| PG1ADW-2 | 2026-08-31 02:17:32 | 48.23316 | 14.21087 | 66° | 16km/h | 1182m | 7.0m/s | 0°C | 0% | 0hPa | 3.0V | 00:00:00 | 00:28:41 | 00:00:00 | |
| OE3JTB-15 | 2026-08-31 02:17:24 | 48.23302 | 14.21054 | 112° | 22km/h | 1138m | 6.0m/s | 0°C | 0% | 0hPa | 3.0V | 00:00:00 | 00:28:33 | 00:00:00 | |
| OE5DRO-10 | 2026-08-31 02:17:22 | 48.23303 | 14.21049 | 114° | 22km/h | 1131m | 6.2m/s | 17.0°C | 69.4% | 0hPa | 3.0V | 00:00:00 | 00:00:00 | 00:00:00 | |
| OE5HKT-10 | 2026-08-31 02:17:19 | 48.23301 | 14.21031 | 87° | 26km/h | 1114m | 6.4m/s | 0°C | 0% | 0hPa | 3.0V | 00:00:00 | 00:00:00 | 00:00:00 | |
| OE5WHR-10 | 2026-08-31 02:17:14 | 48.23299 | 14.20990 | 72° | 26km/h | 1078m | 7.7m/s | 17.5°C | 68.0% | 0hPa | 3.0V | 00:00:00 | 00:00:00 | 00:00:00 | |
| PG1ADW-2 | 2026-08-31 02:17:12 | 48.23294 | 14.20972 | 67° | 27km/h | 1067m | 3.4m/s | 0°C | 0% | 0hPa | 3.0V | 00:00:00 | 00:00:00 | 00:00:00 | |
| OE5DRO-10 | 2026-08-31 02:17:03 | 48.23281 | 14.20895 | 76° | 29km/h | 1009m | 7.1m/s | 18.0°C | 66.8% | 0hPa | 3.0V | 00:00:00 | 00:00:00 | 00:00:00 | |
| OE3JTB-15 | 2026-08-31 02:16:55 | 48.23269 | 14.20814 | 54° | 35km/h | 965m | 5.3m/s | 0°C | 0% | 0hPa | 3.0V | 00:00:00 | 00:00:00 | 08:30:00 | |
| OE5WHR-10 | 2026-08-31 02:16:53 | 48.23260 | 14.20792 | 68° | 29km/h | 953m | 4.7m/s | 18.4°C | 66.3% | 0hPa | 3.0V | 00:00:00 | 00:28:02 | 00:00:00 | |
| PG1ADW-2 | 2026-08-31 02:16:52 | 48.23257 | 14.20778 | 78° | 29km/h | 947m | 6.0m/s | 0°C | 0% | 0hPa | 3.0V | 00:00:00 | 00:00:00 | 00:00:00 | |
| OE5DRO-10 | 2026-08-31 02:16:44 | 48.23238 | 14.20693 | 79° | 29km/h | 906m | 5.8m/s | 18.7°C | 65.7% | 0hPa | 3.0V | 00:00:00 | 00:00:00 | 00:00:00 | |
| OE5HKT-10 | 2026-08-31 02:16:37 | 48.23217 | 14.20635 | 49° | 29km/h | 871m | 5.8m/s | 0°C | 0% | 0hPa | 3.0V | 00:00:00 | 00:27:46 | 00:00:00 | |
| OE5WHR-10 | 2026-08-31 02:16:32 | 48.23204 | 14.20576 | 67° | 27km/h | 842m | 5.5m/s | 19.1°C | 65.9% | 0hPa | 3.0V | 00:00:00 | 00:00:00 | 00:00:00 | |
| OE5DRO-10 | 2026-08-31 02:16:25 | 48.23199 | 14.20501 | 104° | 26km/h | 802m | 6.9m/s | 19.2°C | 66.3% | 0hPa | 3.0V | 00:00:00 | 00:00:00 | 00:00:00 | |
| OE5HKT-10 | 2026-08-31 02:16:13 | 48.23190 | 14.20393 | 66° | 33km/h | 735m | 5.5m/s | 0°C | 0% | 0hPa | 3.0V | 00:00:00 | 00:00:00 | 00:00:00 | |
| OE5WHR-10 | 2026-08-31 02:16:11 | 48.23187 | 14.20367 | 96° | 20km/h | 723m | 6.3m/s | 0°C | 0% | 0hPa | 3.0V | 00:00:00 | 00:00:00 | 00:00:00 | |
| OE5DRO-10 | 2026-08-31 02:16:06 | 48.23188 | 14.20331 | 81° | 20km/h | 695m | 6.1m/s | 19.6°C | 65.9% | 0hPa | 3.0V | 00:00:00 | 00:00:00 | 00:00:00 | |
| OE5WHR-10 | 2026-08-31 02:15:50 | 48.23217 | 14.20265 | 140° | 22km/h | 611m | 4.9m/s | 0°C | 0% | 0hPa | 0V | 00:00:00 | 00:26:59 | 00:00:00 | |
| OE5DRO-10 | 2026-08-31 02:15:47 | 48.23218 | 14.20240 | 22° | 20km/h | 593m | 6.5m/s | 0°C | 0% | 0hPa | 0V | 00:00:00 | 00:00:00 | 00:00:00 | |
| OE5WHR-10 | 2026-08-31 02:15:29 | 48.23233 | 14.20169 | 125° | 16km/h | 483m | 6.7m/s | 0°C | 0% | 0hPa | 0V | 00:00:00 | 00:00:00 | 00:00:00 | |
| OE5DRO-10 | 2026-08-31 02:15:28 | 48.23236 | 14.20166 | 189° | 18km/h | 477m | 5.2m/s | 0°C | 0% | 0hPa | 0V | 00:00:00 | 00:00:00 | 00:00:00 | |
| OE5DRO-10 | 2026-08-31 02:15:09 | 48.23210 | 14.20097 | 45° | 16km/h | 357m | 5.5m/s | 0°C | 0% | 0hPa | 0V | 00:00:00 | 00:00:00 | 00:00:00 |